<?xml version="1.0" encoding="UTF-8"?>
<gpx version="1.1" creator="https://www.youtrack.es" xsi:schemaLocation="http://www.topografix.com/GPX/1/1 http://www.topografix.com/GPX/1/1/gpx.xsd http://www.garmin.com/xmlschemas/GpxExtensions/v3 http://www.garmin.com/xmlschemas/GpxExtensionsv3.xsd http://www.garmin.com/xmlschemas/TrackPointExtension/v1 http://www.garmin.com/xmlschemas/TrackPointExtensionv1.xsd" xmlns:gpxtpx="http://www.garmin.com/xmlschemas/TrackPointExtension/v1" xmlns:gpxx="http://www.garmin.com/xmlschemas/GpxExtensions/v3" xmlns:xsi="http://www.w3.org/2001/XMLSchema-instance">
  <metadata>
    <link href="https://www.youtrack.es">
      <text>YouTrack.es</text>
    </link>
    <time>2026-05-08T16:13:18Z</time>
  </metadata>
  <trk>
    <src>https://www.youtrack.es</src>
    <link href="https://www.youtrack.es/ruta/22868-e3-arce-villaverde-b-">
      <text>YouTrack.es</text>
    </link>
    <trkseg>
      <trkpt lat="43.2591322" lon="-3.1366136">
        <ele>107.917999</ele>
        <time>2021-03-07T19:26:47.023Z</time>
      </trkpt>
      <trkpt lat="43.2591791" lon="-3.1367424">
        <ele>107.917999</ele>
        <time>2021-03-07T19:26:46.408Z</time>
      </trkpt>
      <trkpt lat="43.2592064" lon="-3.1368497">
        <ele>107.917999</ele>
        <time>2021-03-07T19:26:45.911Z</time>
      </trkpt>
      <trkpt lat="43.2592298" lon="-3.1369730">
        <ele>107.917999</ele>
        <time>2021-03-07T19:26:45.424Z</time>
      </trkpt>
      <trkpt lat="43.2592455" lon="-3.1370589">
        <ele>107.917999</ele>
        <time>2021-03-07T19:26:44.968Z</time>
      </trkpt>
      <trkpt lat="43.2592689" lon="-3.1371876">
        <ele>107.917999</ele>
        <time>2021-03-07T19:26:44.487Z</time>
      </trkpt>
      <trkpt lat="43.2592924" lon="-3.1373003">
        <ele>107.917999</ele>
        <time>2021-03-07T19:26:43.951Z</time>
      </trkpt>
      <trkpt lat="43.2593236" lon="-3.1374290">
        <ele>107.917999</ele>
        <time>2021-03-07T19:26:43.319Z</time>
      </trkpt>
      <trkpt lat="43.2593392" lon="-3.1376221">
        <ele>107.917999</ele>
        <time>2021-03-07T19:26:42.623Z</time>
      </trkpt>
      <trkpt lat="43.2593627" lon="-3.1377670">
        <ele>107.917999</ele>
        <time>2021-03-07T19:26:41.855Z</time>
      </trkpt>
      <trkpt lat="43.2593705" lon="-3.1378582">
        <ele>107.917999</ele>
        <time>2021-03-07T19:26:41.039Z</time>
      </trkpt>
      <trkpt lat="43.2594057" lon="-3.1380459">
        <ele>107.917999</ele>
        <time>2021-03-07T19:26:33.088Z</time>
      </trkpt>
      <trkpt lat="43.2594324" lon="-3.1381800">
        <ele>107.917999</ele>
        <time>2021-03-07T19:26:24.376Z</time>
      </trkpt>
      <trkpt lat="43.2594715" lon="-3.1384483">
        <ele>107.917999</ele>
        <time>2021-03-07T19:26:23.783Z</time>
      </trkpt>
      <trkpt lat="43.2595262" lon="-3.1387165">
        <ele>107.917999</ele>
        <time>2021-03-07T19:26:23.207Z</time>
      </trkpt>
      <trkpt lat="43.2595965" lon="-3.1390383">
        <ele>107.917999</ele>
        <time>2021-03-07T19:26:22.623Z</time>
      </trkpt>
      <trkpt lat="43.2596356" lon="-3.1392851">
        <ele>107.917999</ele>
        <time>2021-03-07T19:26:22.168Z</time>
      </trkpt>
      <trkpt lat="43.2597137" lon="-3.1395748">
        <ele>107.917999</ele>
        <time>2021-03-07T19:26:21.576Z</time>
      </trkpt>
      <trkpt lat="43.2597997" lon="-3.1398430">
        <ele>107.917999</ele>
        <time>2021-03-07T19:26:21.072Z</time>
      </trkpt>
      <trkpt lat="43.2598387" lon="-3.1401863">
        <ele>107.917999</ele>
        <time>2021-03-07T19:26:20.544Z</time>
      </trkpt>
      <trkpt lat="43.2598934" lon="-3.1404760">
        <ele>107.917999</ele>
        <time>2021-03-07T19:26:20.055Z</time>
      </trkpt>
      <trkpt lat="43.2599403" lon="-3.1407764">
        <ele>107.917999</ele>
        <time>2021-03-07T19:26:19.559Z</time>
      </trkpt>
      <trkpt lat="43.2599559" lon="-3.1410983">
        <ele>107.917999</ele>
        <time>2021-03-07T19:26:19.016Z</time>
      </trkpt>
      <trkpt lat="43.2599403" lon="-3.1414952">
        <ele>107.917999</ele>
        <time>2021-03-07T19:26:18.440Z</time>
      </trkpt>
      <trkpt lat="43.2599247" lon="-3.1418600">
        <ele>107.917999</ele>
        <time>2021-03-07T19:26:17.831Z</time>
      </trkpt>
      <trkpt lat="43.2599247" lon="-3.1421712">
        <ele>107.917999</ele>
        <time>2021-03-07T19:26:17.271Z</time>
      </trkpt>
      <trkpt lat="43.2599169" lon="-3.1424287">
        <ele>107.917999</ele>
        <time>2021-03-07T19:26:16.711Z</time>
      </trkpt>
      <trkpt lat="43.2598934" lon="-3.1427398">
        <ele>107.917999</ele>
        <time>2021-03-07T19:26:16.167Z</time>
      </trkpt>
      <trkpt lat="43.2598622" lon="-3.1429866">
        <ele>107.917999</ele>
        <time>2021-03-07T19:26:15.607Z</time>
      </trkpt>
      <trkpt lat="43.2597840" lon="-3.1431689">
        <ele>107.917999</ele>
        <time>2021-03-07T19:26:14.879Z</time>
      </trkpt>
      <trkpt lat="43.2596434" lon="-3.1433084">
        <ele>107.917999</ele>
        <time>2021-03-07T19:26:13.976Z</time>
      </trkpt>
      <trkpt lat="43.2595028" lon="-3.1433621">
        <ele>107.917999</ele>
        <time>2021-03-07T19:26:13.351Z</time>
      </trkpt>
      <trkpt lat="43.2593074" lon="-3.1434372">
        <ele>107.917999</ele>
        <time>2021-03-07T19:26:12.552Z</time>
      </trkpt>
      <trkpt lat="43.2591636" lon="-3.1435337">
        <ele>107.917999</ele>
        <time>2021-03-07T19:26:09.016Z</time>
      </trkpt>
      <trkpt lat="43.2589917" lon="-3.1436732">
        <ele>107.917999</ele>
        <time>2021-03-07T19:26:08.192Z</time>
      </trkpt>
      <trkpt lat="43.2588745" lon="-3.1438878">
        <ele>107.917999</ele>
        <time>2021-03-07T19:26:07.647Z</time>
      </trkpt>
      <trkpt lat="43.2587807" lon="-3.1440916">
        <ele>107.917999</ele>
        <time>2021-03-07T19:26:07.095Z</time>
      </trkpt>
      <trkpt lat="43.2586948" lon="-3.1442847">
        <ele>107.917999</ele>
        <time>2021-03-07T19:26:06.487Z</time>
      </trkpt>
      <trkpt lat="43.2586635" lon="-3.1445101">
        <ele>107.917999</ele>
        <time>2021-03-07T19:26:05.999Z</time>
      </trkpt>
      <trkpt lat="43.2586166" lon="-3.1448105">
        <ele>107.917999</ele>
        <time>2021-03-07T19:26:05.239Z</time>
      </trkpt>
      <trkpt lat="43.2585307" lon="-3.1450572">
        <ele>107.917999</ele>
        <time>2021-03-07T19:26:04.711Z</time>
      </trkpt>
      <trkpt lat="43.2584057" lon="-3.1452503">
        <ele>107.917999</ele>
        <time>2021-03-07T19:26:04.167Z</time>
      </trkpt>
      <trkpt lat="43.2582806" lon="-3.1454649">
        <ele>107.917999</ele>
        <time>2021-03-07T19:26:03.592Z</time>
      </trkpt>
      <trkpt lat="43.2581478" lon="-3.1456688">
        <ele>107.917999</ele>
        <time>2021-03-07T19:26:02.983Z</time>
      </trkpt>
      <trkpt lat="43.2579837" lon="-3.1458082">
        <ele>107.917999</ele>
        <time>2021-03-07T19:26:02.351Z</time>
      </trkpt>
      <trkpt lat="43.2578431" lon="-3.1459799">
        <ele>107.917999</ele>
        <time>2021-03-07T19:26:01.639Z</time>
      </trkpt>
      <trkpt lat="43.2577103" lon="-3.1460121">
        <ele>107.917999</ele>
        <time>2021-03-07T19:26:00.984Z</time>
      </trkpt>
      <trkpt lat="43.2575852" lon="-3.1460979">
        <ele>107.917999</ele>
        <time>2021-03-07T19:26:00.305Z</time>
      </trkpt>
      <trkpt lat="43.2575384" lon="-3.1462803">
        <ele>107.917999</ele>
        <time>2021-03-07T19:25:59.719Z</time>
      </trkpt>
      <trkpt lat="43.2576087" lon="-3.1464412">
        <ele>107.917999</ele>
        <time>2021-03-07T19:25:59.208Z</time>
      </trkpt>
      <trkpt lat="43.2577649" lon="-3.1466129">
        <ele>107.917999</ele>
        <time>2021-03-07T19:25:58.560Z</time>
      </trkpt>
      <trkpt lat="43.2579134" lon="-3.1467095">
        <ele>107.917999</ele>
        <time>2021-03-07T19:25:57.887Z</time>
      </trkpt>
      <trkpt lat="43.2580775" lon="-3.1468919">
        <ele>107.917999</ele>
        <time>2021-03-07T19:25:57.184Z</time>
      </trkpt>
      <trkpt lat="43.2582494" lon="-3.1470313">
        <ele>107.917999</ele>
        <time>2021-03-07T19:25:55.983Z</time>
      </trkpt>
      <trkpt lat="43.2584493" lon="-3.1471172">
        <ele>107.917999</ele>
        <time>2021-03-07T19:25:53.288Z</time>
      </trkpt>
      <trkpt lat="43.2586446" lon="-3.1472030">
        <ele>107.917999</ele>
        <time>2021-03-07T19:25:52.448Z</time>
      </trkpt>
      <trkpt lat="43.2588869" lon="-3.1473532">
        <ele>107.917999</ele>
        <time>2021-03-07T19:25:51.743Z</time>
      </trkpt>
      <trkpt lat="43.2590822" lon="-3.1475356">
        <ele>107.917999</ele>
        <time>2021-03-07T19:25:50.384Z</time>
      </trkpt>
      <trkpt lat="43.2592072" lon="-3.1477502">
        <ele>107.917999</ele>
        <time>2021-03-07T19:25:49.727Z</time>
      </trkpt>
      <trkpt lat="43.2592775" lon="-3.1480720">
        <ele>107.917999</ele>
        <time>2021-03-07T19:25:49.119Z</time>
      </trkpt>
      <trkpt lat="43.2593479" lon="-3.1484154">
        <ele>107.917999</ele>
        <time>2021-03-07T19:25:48.136Z</time>
      </trkpt>
      <trkpt lat="43.2594182" lon="-3.1486943">
        <ele>107.917999</ele>
        <time>2021-03-07T19:25:47.576Z</time>
      </trkpt>
      <trkpt lat="43.2594104" lon="-3.1489303">
        <ele>107.917999</ele>
        <time>2021-03-07T19:25:46.255Z</time>
      </trkpt>
      <trkpt lat="43.2594182" lon="-3.1491449">
        <ele>107.917999</ele>
        <time>2021-03-07T19:25:40.319Z</time>
      </trkpt>
      <trkpt lat="43.2594338" lon="-3.1493380">
        <ele>107.917999</ele>
        <time>2021-03-07T19:25:38.383Z</time>
      </trkpt>
      <trkpt lat="43.2595041" lon="-3.1495097">
        <ele>107.917999</ele>
        <time>2021-03-07T19:25:37.880Z</time>
      </trkpt>
      <trkpt lat="43.2595666" lon="-3.1497135">
        <ele>107.917999</ele>
        <time>2021-03-07T19:25:37.296Z</time>
      </trkpt>
      <trkpt lat="43.2596213" lon="-3.1499174">
        <ele>107.917999</ele>
        <time>2021-03-07T19:25:36.744Z</time>
      </trkpt>
      <trkpt lat="43.2596135" lon="-3.1500890">
        <ele>107.917999</ele>
        <time>2021-03-07T19:25:36.159Z</time>
      </trkpt>
      <trkpt lat="43.2596213" lon="-3.1502500">
        <ele>107.917999</ele>
        <time>2021-03-07T19:25:35.640Z</time>
      </trkpt>
      <trkpt lat="43.2596135" lon="-3.1504002">
        <ele>107.917999</ele>
        <time>2021-03-07T19:25:33.416Z</time>
      </trkpt>
      <trkpt lat="43.2596057" lon="-3.1505182">
        <ele>107.917999</ele>
        <time>2021-03-07T19:25:32.888Z</time>
      </trkpt>
      <trkpt lat="43.2596213" lon="-3.1507221">
        <ele>107.917999</ele>
        <time>2021-03-07T19:25:32.440Z</time>
      </trkpt>
      <trkpt lat="43.2596057" lon="-3.1509259">
        <ele>107.917999</ele>
        <time>2021-03-07T19:25:31.888Z</time>
      </trkpt>
      <trkpt lat="43.2596213" lon="-3.1510976">
        <ele>107.917999</ele>
        <time>2021-03-07T19:25:31.344Z</time>
      </trkpt>
      <trkpt lat="43.2596369" lon="-3.1513121">
        <ele>107.917999</ele>
        <time>2021-03-07T19:25:30.744Z</time>
      </trkpt>
      <trkpt lat="43.2596682" lon="-3.1514731">
        <ele>107.917999</ele>
        <time>2021-03-07T19:25:30.360Z</time>
      </trkpt>
      <trkpt lat="43.2597151" lon="-3.1516125">
        <ele>107.917999</ele>
        <time>2021-03-07T19:25:29.928Z</time>
      </trkpt>
      <trkpt lat="43.2598401" lon="-3.1516769">
        <ele>107.917999</ele>
        <time>2021-03-07T19:25:29.455Z</time>
      </trkpt>
      <trkpt lat="43.2599573" lon="-3.1516125">
        <ele>107.917999</ele>
        <time>2021-03-07T19:25:28.992Z</time>
      </trkpt>
      <trkpt lat="43.2600979" lon="-3.1514731">
        <ele>107.917999</ele>
        <time>2021-03-07T19:25:28.440Z</time>
      </trkpt>
      <trkpt lat="43.2602620" lon="-3.1512907">
        <ele>107.917999</ele>
        <time>2021-03-07T19:25:27.536Z</time>
      </trkpt>
      <trkpt lat="43.2604183" lon="-3.1511083">
        <ele>107.917999</ele>
        <time>2021-03-07T19:25:27.041Z</time>
      </trkpt>
      <trkpt lat="43.2604964" lon="-3.1511512">
        <ele>107.917999</ele>
        <time>2021-03-07T19:25:26.551Z</time>
      </trkpt>
      <trkpt lat="43.2606292" lon="-3.1513336">
        <ele>107.917999</ele>
        <time>2021-03-07T19:25:26.055Z</time>
      </trkpt>
      <trkpt lat="43.2607464" lon="-3.1514945">
        <ele>107.917999</ele>
        <time>2021-03-07T19:25:25.488Z</time>
      </trkpt>
      <trkpt lat="43.2609105" lon="-3.1516018">
        <ele>107.917999</ele>
        <time>2021-03-07T19:25:24.903Z</time>
      </trkpt>
      <trkpt lat="43.2610746" lon="-3.1517949">
        <ele>107.917999</ele>
        <time>2021-03-07T19:25:24.368Z</time>
      </trkpt>
      <trkpt lat="43.2612621" lon="-3.1519559">
        <ele>107.917999</ele>
        <time>2021-03-07T19:25:23.696Z</time>
      </trkpt>
      <trkpt lat="43.2613402" lon="-3.1520739">
        <ele>107.917999</ele>
        <time>2021-03-07T19:25:22.632Z</time>
      </trkpt>
      <trkpt lat="43.2613246" lon="-3.1522348">
        <ele>107.917999</ele>
        <time>2021-03-07T19:25:22.096Z</time>
      </trkpt>
      <trkpt lat="43.2613168" lon="-3.1524923">
        <ele>107.917999</ele>
        <time>2021-03-07T19:25:21.631Z</time>
      </trkpt>
      <trkpt lat="43.2613012" lon="-3.1527605">
        <ele>107.917999</ele>
        <time>2021-03-07T19:25:21.112Z</time>
      </trkpt>
      <trkpt lat="43.2612621" lon="-3.1530824">
        <ele>107.917999</ele>
        <time>2021-03-07T19:25:20.392Z</time>
      </trkpt>
      <trkpt lat="43.2612074" lon="-3.1533292">
        <ele>107.917999</ele>
        <time>2021-03-07T19:25:19.920Z</time>
      </trkpt>
      <trkpt lat="43.2611058" lon="-3.1534901">
        <ele>107.917999</ele>
        <time>2021-03-07T19:25:19.424Z</time>
      </trkpt>
      <trkpt lat="43.2610121" lon="-3.1536618">
        <ele>107.917999</ele>
        <time>2021-03-07T19:25:18.568Z</time>
      </trkpt>
      <trkpt lat="43.2609183" lon="-3.1538334">
        <ele>107.917999</ele>
        <time>2021-03-07T19:25:17.968Z</time>
      </trkpt>
      <trkpt lat="43.2608324" lon="-3.1540909">
        <ele>107.917999</ele>
        <time>2021-03-07T19:25:17.416Z</time>
      </trkpt>
      <trkpt lat="43.2608381" lon="-3.1542357">
        <ele>107.917999</ele>
        <time>2021-03-07T19:24:55.304Z</time>
      </trkpt>
      <trkpt lat="43.2608889" lon="-3.1542357">
        <ele>107.917999</ele>
        <time>2021-03-07T19:24:54.488Z</time>
      </trkpt>
      <trkpt lat="43.2610374" lon="-3.1542465">
        <ele>107.917999</ele>
        <time>2021-03-07T19:24:54.010Z</time>
      </trkpt>
      <trkpt lat="43.2612054" lon="-3.1541928">
        <ele>107.917999</ele>
        <time>2021-03-07T19:24:53.537Z</time>
      </trkpt>
      <trkpt lat="43.2614398" lon="-3.1540802">
        <ele>107.917999</ele>
        <time>2021-03-07T19:24:53.040Z</time>
      </trkpt>
      <trkpt lat="43.2616155" lon="-3.1540158">
        <ele>107.917999</ele>
        <time>2021-03-07T19:24:52.352Z</time>
      </trkpt>
      <trkpt lat="43.2617445" lon="-3.1540587">
        <ele>107.917999</ele>
        <time>2021-03-07T19:24:51.488Z</time>
      </trkpt>
      <trkpt lat="43.2618988" lon="-3.1542465">
        <ele>107.917999</ele>
        <time>2021-03-07T19:24:36.873Z</time>
      </trkpt>
      <trkpt lat="43.2622035" lon="-3.1544289">
        <ele>107.917999</ele>
        <time>2021-03-07T19:24:36.112Z</time>
      </trkpt>
      <trkpt lat="43.2624145" lon="-3.1545683">
        <ele>107.917999</ele>
        <time>2021-03-07T19:24:35.088Z</time>
      </trkpt>
      <trkpt lat="43.2626020" lon="-3.1546649">
        <ele>107.917999</ele>
        <time>2021-03-07T19:24:34.504Z</time>
      </trkpt>
      <trkpt lat="43.2628286" lon="-3.1547078">
        <ele>107.917999</ele>
        <time>2021-03-07T19:24:33.993Z</time>
      </trkpt>
      <trkpt lat="43.2630239" lon="-3.1546756">
        <ele>107.917999</ele>
        <time>2021-03-07T19:24:33.440Z</time>
      </trkpt>
      <trkpt lat="43.2632739" lon="-3.1545683">
        <ele>107.917999</ele>
        <time>2021-03-07T19:24:32.721Z</time>
      </trkpt>
      <trkpt lat="43.2634692" lon="-3.1543645">
        <ele>107.917999</ele>
        <time>2021-03-07T19:24:32.161Z</time>
      </trkpt>
      <trkpt lat="43.2636333" lon="-3.1540855">
        <ele>107.917999</ele>
        <time>2021-03-07T19:24:31.649Z</time>
      </trkpt>
      <trkpt lat="43.2638442" lon="-3.1538602">
        <ele>107.917999</ele>
        <time>2021-03-07T19:24:31.081Z</time>
      </trkpt>
      <trkpt lat="43.2640317" lon="-3.1535491">
        <ele>107.917999</ele>
        <time>2021-03-07T19:24:30.560Z</time>
      </trkpt>
      <trkpt lat="43.2642427" lon="-3.1532916">
        <ele>107.917999</ele>
        <time>2021-03-07T19:24:29.929Z</time>
      </trkpt>
      <trkpt lat="43.2644224" lon="-3.1530341">
        <ele>107.917999</ele>
        <time>2021-03-07T19:24:29.400Z</time>
      </trkpt>
      <trkpt lat="43.2646255" lon="-3.1527659">
        <ele>107.917999</ele>
        <time>2021-03-07T19:24:28.825Z</time>
      </trkpt>
      <trkpt lat="43.2648521" lon="-3.1525191">
        <ele>107.917999</ele>
        <time>2021-03-07T19:24:28.264Z</time>
      </trkpt>
      <trkpt lat="43.2649920" lon="-3.1523743">
        <ele>107.917999</ele>
        <time>2021-03-07T19:23:21.281Z</time>
      </trkpt>
      <trkpt lat="43.2650467" lon="-3.1523743">
        <ele>107.917999</ele>
        <time>2021-03-07T19:23:20.816Z</time>
      </trkpt>
      <trkpt lat="43.2650662" lon="-3.1523260">
        <ele>107.917999</ele>
        <time>2021-03-07T19:23:19.889Z</time>
      </trkpt>
      <trkpt lat="43.2650936" lon="-3.1522563">
        <ele>107.917999</ele>
        <time>2021-03-07T19:23:19.377Z</time>
      </trkpt>
      <trkpt lat="43.2651483" lon="-3.1522026">
        <ele>107.917999</ele>
        <time>2021-03-07T19:23:18.849Z</time>
      </trkpt>
      <trkpt lat="43.2652069" lon="-3.1522187">
        <ele>107.917999</ele>
        <time>2021-03-07T19:23:18.304Z</time>
      </trkpt>
      <trkpt lat="43.2652459" lon="-3.1522777">
        <ele>107.917999</ele>
        <time>2021-03-07T19:23:17.537Z</time>
      </trkpt>
      <trkpt lat="43.2652537" lon="-3.1523904">
        <ele>107.917999</ele>
        <time>2021-03-07T19:23:12.577Z</time>
      </trkpt>
      <trkpt lat="43.2652889" lon="-3.1524387">
        <ele>107.917999</ele>
        <time>2021-03-07T19:23:15.889Z</time>
      </trkpt>
      <trkpt lat="43.2653475" lon="-3.1524762">
        <ele>107.917999</ele>
        <time>2021-03-07T19:23:11.889Z</time>
      </trkpt>
      <trkpt lat="43.2655077" lon="-3.1525352">
        <ele>107.917999</ele>
        <time>2021-03-07T19:23:11.113Z</time>
      </trkpt>
      <trkpt lat="43.2656873" lon="-3.1525835">
        <ele>107.917999</ele>
        <time>2021-03-07T19:23:10.312Z</time>
      </trkpt>
      <trkpt lat="43.2658319" lon="-3.1526211">
        <ele>107.917999</ele>
        <time>2021-03-07T19:23:09.329Z</time>
      </trkpt>
      <trkpt lat="43.2659519" lon="-3.1526372">
        <ele>107.917999</ele>
        <time>2021-03-07T19:22:57.961Z</time>
      </trkpt>
      <trkpt lat="43.2661160" lon="-3.1526586">
        <ele>107.917999</ele>
        <time>2021-03-07T19:22:57.289Z</time>
      </trkpt>
      <trkpt lat="43.2663582" lon="-3.1527337">
        <ele>107.917999</ele>
        <time>2021-03-07T19:22:56.537Z</time>
      </trkpt>
      <trkpt lat="43.2665887" lon="-3.1527713">
        <ele>107.917999</ele>
        <time>2021-03-07T19:22:55.770Z</time>
      </trkpt>
      <trkpt lat="43.2668308" lon="-3.1528303">
        <ele>107.917999</ele>
        <time>2021-03-07T19:22:54.881Z</time>
      </trkpt>
      <trkpt lat="43.2670691" lon="-3.1528946">
        <ele>107.917999</ele>
        <time>2021-03-07T19:22:53.857Z</time>
      </trkpt>
      <trkpt lat="43.2672996" lon="-3.1529805">
        <ele>107.917999</ele>
        <time>2021-03-07T19:22:53.001Z</time>
      </trkpt>
      <trkpt lat="43.2675613" lon="-3.1530448">
        <ele>107.917999</ele>
        <time>2021-03-07T19:22:52.233Z</time>
      </trkpt>
      <trkpt lat="43.2677918" lon="-3.1531092">
        <ele>107.917999</ele>
        <time>2021-03-07T19:22:51.505Z</time>
      </trkpt>
      <trkpt lat="43.2679776" lon="-3.1531521">
        <ele>107.917999</ele>
        <time>2021-03-07T19:22:48.505Z</time>
      </trkpt>
      <trkpt lat="43.2681729" lon="-3.1532111">
        <ele>107.917999</ele>
        <time>2021-03-07T19:22:46.921Z</time>
      </trkpt>
      <trkpt lat="43.2683682" lon="-3.1532594">
        <ele>107.917999</ele>
        <time>2021-03-07T19:22:46.273Z</time>
      </trkpt>
      <trkpt lat="43.2685479" lon="-3.1533184">
        <ele>107.917999</ele>
        <time>2021-03-07T19:22:45.345Z</time>
      </trkpt>
      <trkpt lat="43.2687080" lon="-3.1533774">
        <ele>107.917999</ele>
        <time>2021-03-07T19:22:44.721Z</time>
      </trkpt>
      <trkpt lat="43.2689072" lon="-3.1534311">
        <ele>107.917999</ele>
        <time>2021-03-07T19:22:44.121Z</time>
      </trkpt>
      <trkpt lat="43.2691104" lon="-3.1534847">
        <ele>107.917999</ele>
        <time>2021-03-07T19:22:43.297Z</time>
      </trkpt>
      <trkpt lat="43.2692861" lon="-3.1535223">
        <ele>107.917999</ele>
        <time>2021-03-07T19:22:42.177Z</time>
      </trkpt>
      <trkpt lat="43.2694189" lon="-3.1535330">
        <ele>107.917999</ele>
        <time>2021-03-07T19:22:41.209Z</time>
      </trkpt>
      <trkpt lat="43.2694424" lon="-3.1536618">
        <ele>107.917999</ele>
        <time>2021-03-07T19:22:40.409Z</time>
      </trkpt>
      <trkpt lat="43.2694346" lon="-3.1537905">
        <ele>107.917999</ele>
        <time>2021-03-07T19:22:39.673Z</time>
      </trkpt>
      <trkpt lat="43.2694307" lon="-3.1539622">
        <ele>107.917999</ele>
        <time>2021-03-07T19:22:38.409Z</time>
      </trkpt>
      <trkpt lat="43.2694267" lon="-3.1541177">
        <ele>107.917999</ele>
        <time>2021-03-07T19:22:37.345Z</time>
      </trkpt>
      <trkpt lat="43.2694189" lon="-3.1542840">
        <ele>107.917999</ele>
        <time>2021-03-07T19:22:28.881Z</time>
      </trkpt>
      <trkpt lat="43.2694430" lon="-3.1544600">
        <ele>107.917999</ele>
        <time>2014-11-01T08:25:39.000Z</time>
      </trkpt>
      <trkpt lat="43.2694520" lon="-3.1544790">
        <ele>107.806999</ele>
        <time>2014-11-01T08:25:51.000Z</time>
      </trkpt>
      <trkpt lat="43.2694540" lon="-3.1545470">
        <ele>107.820999</ele>
        <time>2014-11-01T08:25:54.000Z</time>
      </trkpt>
      <trkpt lat="43.2694540" lon="-3.1545770">
        <ele>107.944000</ele>
        <time>2014-11-01T08:25:55.000Z</time>
      </trkpt>
      <trkpt lat="43.2694460" lon="-3.1548570">
        <ele>108.068001</ele>
        <time>2014-11-01T08:26:02.000Z</time>
      </trkpt>
      <trkpt lat="43.2694440" lon="-3.1551550">
        <ele>108.570000</ele>
        <time>2014-11-01T08:26:09.000Z</time>
      </trkpt>
      <trkpt lat="43.2693760" lon="-3.1554440">
        <ele>109.962006</ele>
        <time>2014-11-01T08:26:17.000Z</time>
      </trkpt>
      <trkpt lat="43.2692230" lon="-3.1555030">
        <ele>111.849998</ele>
        <time>2014-11-01T08:26:23.000Z</time>
      </trkpt>
      <trkpt lat="43.2689270" lon="-3.1554540">
        <ele>115.174004</ele>
        <time>2014-11-01T08:26:34.000Z</time>
      </trkpt>
      <trkpt lat="43.2687830" lon="-3.1555530">
        <ele>116.656998</ele>
        <time>2014-11-01T08:26:41.000Z</time>
      </trkpt>
      <trkpt lat="43.2687630" lon="-3.1556330">
        <ele>117.399994</ele>
        <time>2014-11-01T08:26:44.000Z</time>
      </trkpt>
      <trkpt lat="43.2687920" lon="-3.1559270">
        <ele>120.820000</ele>
        <time>2014-11-01T08:26:53.000Z</time>
      </trkpt>
      <trkpt lat="43.2688660" lon="-3.1561950">
        <ele>123.607002</ele>
        <time>2014-11-01T08:27:02.000Z</time>
      </trkpt>
      <trkpt lat="43.2689170" lon="-3.1565160">
        <ele>125.872993</ele>
        <time>2014-11-01T08:27:12.000Z</time>
      </trkpt>
      <trkpt lat="43.2688660" lon="-3.1567600">
        <ele>128.085999</ele>
        <time>2014-11-01T08:27:20.000Z</time>
      </trkpt>
      <trkpt lat="43.2688170" lon="-3.1569740">
        <ele>130.550003</ele>
        <time>2014-11-01T08:27:28.000Z</time>
      </trkpt>
      <trkpt lat="43.2687770" lon="-3.1571460">
        <ele>132.542007</ele>
        <time>2014-11-01T08:27:35.000Z</time>
      </trkpt>
      <trkpt lat="43.2687410" lon="-3.1573670">
        <ele>135.113998</ele>
        <time>2014-11-01T08:27:44.000Z</time>
      </trkpt>
      <trkpt lat="43.2687080" lon="-3.1576120">
        <ele>137.671997</ele>
        <time>2014-11-01T08:27:54.000Z</time>
      </trkpt>
      <trkpt lat="43.2686910" lon="-3.1578830">
        <ele>139.945999</ele>
        <time>2014-11-01T08:28:03.000Z</time>
      </trkpt>
      <trkpt lat="43.2686960" lon="-3.1581310">
        <ele>141.298004</ele>
        <time>2014-11-01T08:28:11.000Z</time>
      </trkpt>
      <trkpt lat="43.2687050" lon="-3.1582870">
        <ele>142.214996</ele>
        <time>2014-11-01T08:28:16.000Z</time>
      </trkpt>
      <trkpt lat="43.2687010" lon="-3.1583160">
        <ele>142.426010</ele>
        <time>2014-11-01T08:28:17.000Z</time>
      </trkpt>
      <trkpt lat="43.2686950" lon="-3.1583460">
        <ele>142.606995</ele>
        <time>2014-11-01T08:28:18.000Z</time>
      </trkpt>
      <trkpt lat="43.2686290" lon="-3.1585050">
        <ele>144.076996</ele>
        <time>2014-11-01T08:28:25.000Z</time>
      </trkpt>
      <trkpt lat="43.2685570" lon="-3.1585920">
        <ele>145.350006</ele>
        <time>2014-11-01T08:28:31.000Z</time>
      </trkpt>
      <trkpt lat="43.2685430" lon="-3.1586030">
        <ele>145.834000</ele>
        <time>2014-11-01T08:28:32.000Z</time>
      </trkpt>
      <trkpt lat="43.2685260" lon="-3.1586150">
        <ele>146.016006</ele>
        <time>2014-11-01T08:28:33.000Z</time>
      </trkpt>
      <trkpt lat="43.2685110" lon="-3.1586260">
        <ele>146.278000</ele>
        <time>2014-11-01T08:28:34.000Z</time>
      </trkpt>
      <trkpt lat="43.2684980" lon="-3.1586390">
        <ele>146.585999</ele>
        <time>2014-11-01T08:28:35.000Z</time>
      </trkpt>
      <trkpt lat="43.2684040" lon="-3.1587200">
        <ele>149.039993</ele>
        <time>2014-11-01T08:28:43.000Z</time>
      </trkpt>
      <trkpt lat="43.2683130" lon="-3.1588320">
        <ele>151.076996</ele>
        <time>2014-11-01T08:28:51.000Z</time>
      </trkpt>
      <trkpt lat="43.2681960" lon="-3.1589670">
        <ele>154.060989</ele>
        <time>2014-11-01T08:29:00.000Z</time>
      </trkpt>
      <trkpt lat="43.2681480" lon="-3.1591500">
        <ele>156.126984</ele>
        <time>2014-11-01T08:29:08.000Z</time>
      </trkpt>
      <trkpt lat="43.2682240" lon="-3.1593000">
        <ele>157.207001</ele>
        <time>2014-11-01T08:29:15.000Z</time>
      </trkpt>
      <trkpt lat="43.2682790" lon="-3.1594420">
        <ele>158.794998</ele>
        <time>2014-11-01T08:29:22.000Z</time>
      </trkpt>
      <trkpt lat="43.2683130" lon="-3.1596590">
        <ele>160.528000</ele>
        <time>2014-11-01T08:29:32.000Z</time>
      </trkpt>
      <trkpt lat="43.2683470" lon="-3.1597920">
        <ele>162.222000</ele>
        <time>2014-11-01T08:29:39.000Z</time>
      </trkpt>
      <trkpt lat="43.2684110" lon="-3.1599880">
        <ele>165.473999</ele>
        <time>2014-11-01T08:29:51.000Z</time>
      </trkpt>
      <trkpt lat="43.2684320" lon="-3.1601850">
        <ele>167.755997</ele>
        <time>2014-11-01T08:30:01.000Z</time>
      </trkpt>
      <trkpt lat="43.2684420" lon="-3.1603480">
        <ele>169.883987</ele>
        <time>2014-11-01T08:30:10.000Z</time>
      </trkpt>
      <trkpt lat="43.2684410" lon="-3.1605430">
        <ele>172.617996</ele>
        <time>2014-11-01T08:30:20.000Z</time>
      </trkpt>
      <trkpt lat="43.2684140" lon="-3.1607360">
        <ele>175.026993</ele>
        <time>2014-11-01T08:30:30.000Z</time>
      </trkpt>
      <trkpt lat="43.2684150" lon="-3.1607530">
        <ele>175.167999</ele>
        <time>2014-11-01T08:30:31.000Z</time>
      </trkpt>
      <trkpt lat="43.2684150" lon="-3.1607710">
        <ele>175.314011</ele>
        <time>2014-11-01T08:30:32.000Z</time>
      </trkpt>
      <trkpt lat="43.2683680" lon="-3.1609510">
        <ele>177.106995</ele>
        <time>2014-11-01T08:30:42.000Z</time>
      </trkpt>
      <trkpt lat="43.2683300" lon="-3.1610790">
        <ele>178.209991</ele>
        <time>2014-11-01T08:30:49.000Z</time>
      </trkpt>
      <trkpt lat="43.2683240" lon="-3.1610980">
        <ele>178.483002</ele>
        <time>2014-11-01T08:30:50.000Z</time>
      </trkpt>
      <trkpt lat="43.2683230" lon="-3.1611150">
        <ele>178.677002</ele>
        <time>2014-11-01T08:30:51.000Z</time>
      </trkpt>
      <trkpt lat="43.2683220" lon="-3.1611320">
        <ele>178.828995</ele>
        <time>2014-11-01T08:30:52.000Z</time>
      </trkpt>
      <trkpt lat="43.2683210" lon="-3.1611490">
        <ele>178.941010</ele>
        <time>2014-11-01T08:30:53.000Z</time>
      </trkpt>
      <trkpt lat="43.2683170" lon="-3.1611680">
        <ele>179.189011</ele>
        <time>2014-11-01T08:30:54.000Z</time>
      </trkpt>
      <trkpt lat="43.2683110" lon="-3.1611840">
        <ele>179.493011</ele>
        <time>2014-11-01T08:30:55.000Z</time>
      </trkpt>
      <trkpt lat="43.2683030" lon="-3.1611990">
        <ele>179.627991</ele>
        <time>2014-11-01T08:30:56.000Z</time>
      </trkpt>
      <trkpt lat="43.2682950" lon="-3.1612130">
        <ele>179.988998</ele>
        <time>2014-11-01T08:30:57.000Z</time>
      </trkpt>
      <trkpt lat="43.2682850" lon="-3.1612340">
        <ele>180.117004</ele>
        <time>2014-11-01T08:30:58.000Z</time>
      </trkpt>
      <trkpt lat="43.2682490" lon="-3.1612980">
        <ele>180.806992</ele>
        <time>2014-11-01T08:31:01.000Z</time>
      </trkpt>
      <trkpt lat="43.2682310" lon="-3.1613100">
        <ele>181.029999</ele>
        <time>2014-11-01T08:31:02.000Z</time>
      </trkpt>
      <trkpt lat="43.2682120" lon="-3.1613220">
        <ele>181.192993</ele>
        <time>2014-11-01T08:31:03.000Z</time>
      </trkpt>
      <trkpt lat="43.2681960" lon="-3.1613350">
        <ele>181.256989</ele>
        <time>2014-11-01T08:31:04.000Z</time>
      </trkpt>
      <trkpt lat="43.2681770" lon="-3.1613460">
        <ele>181.418991</ele>
        <time>2014-11-01T08:31:05.000Z</time>
      </trkpt>
      <trkpt lat="43.2681550" lon="-3.1613540">
        <ele>181.491013</ele>
        <time>2014-11-01T08:31:06.000Z</time>
      </trkpt>
      <trkpt lat="43.2681330" lon="-3.1613600">
        <ele>181.528992</ele>
        <time>2014-11-01T08:31:07.000Z</time>
      </trkpt>
      <trkpt lat="43.2679010" lon="-3.1614730">
        <ele>181.582993</ele>
        <time>2014-11-01T08:31:15.000Z</time>
      </trkpt>
      <trkpt lat="43.2676700" lon="-3.1616490">
        <ele>181.316010</ele>
        <time>2014-11-01T08:31:23.000Z</time>
      </trkpt>
      <trkpt lat="43.2674600" lon="-3.1619100">
        <ele>181.675995</ele>
        <time>2014-11-01T08:31:33.000Z</time>
      </trkpt>
      <trkpt lat="43.2672490" lon="-3.1621660">
        <ele>182.213013</ele>
        <time>2014-11-01T08:31:43.000Z</time>
      </trkpt>
      <trkpt lat="43.2670500" lon="-3.1623950">
        <ele>182.507004</ele>
        <time>2014-11-01T08:31:51.000Z</time>
      </trkpt>
      <trkpt lat="43.2667790" lon="-3.1627160">
        <ele>182.388992</ele>
        <time>2014-11-01T08:32:00.000Z</time>
      </trkpt>
      <trkpt lat="43.2665530" lon="-3.1630390">
        <ele>182.121994</ele>
        <time>2014-11-01T08:32:08.000Z</time>
      </trkpt>
      <trkpt lat="43.2664770" lon="-3.1631880">
        <ele>182.075989</ele>
        <time>2014-11-01T08:32:11.000Z</time>
      </trkpt>
      <trkpt lat="43.2664560" lon="-3.1632450">
        <ele>181.987991</ele>
        <time>2014-11-01T08:32:12.000Z</time>
      </trkpt>
      <trkpt lat="43.2664390" lon="-3.1633040">
        <ele>181.820007</ele>
        <time>2014-11-01T08:32:13.000Z</time>
      </trkpt>
      <trkpt lat="43.2664260" lon="-3.1633650">
        <ele>181.727997</ele>
        <time>2014-11-01T08:32:14.000Z</time>
      </trkpt>
      <trkpt lat="43.2664160" lon="-3.1634290">
        <ele>181.512009</ele>
        <time>2014-11-01T08:32:15.000Z</time>
      </trkpt>
      <trkpt lat="43.2664070" lon="-3.1634930">
        <ele>181.422012</ele>
        <time>2014-11-01T08:32:16.000Z</time>
      </trkpt>
      <trkpt lat="43.2664040" lon="-3.1635580">
        <ele>181.462006</ele>
        <time>2014-11-01T08:32:17.000Z</time>
      </trkpt>
      <trkpt lat="43.2663690" lon="-3.1640230">
        <ele>180.807999</ele>
        <time>2014-11-01T08:32:25.000Z</time>
      </trkpt>
      <trkpt lat="43.2663710" lon="-3.1643210">
        <ele>180.906998</ele>
        <time>2014-11-01T08:32:32.000Z</time>
      </trkpt>
      <trkpt lat="43.2663830" lon="-3.1643430">
        <ele>180.910004</ele>
        <time>2014-11-01T08:32:33.000Z</time>
      </trkpt>
      <trkpt lat="43.2664060" lon="-3.1643670">
        <ele>180.393005</ele>
        <time>2014-11-01T08:32:39.000Z</time>
      </trkpt>
      <trkpt lat="43.2664120" lon="-3.1643780">
        <ele>180.216995</ele>
        <time>2014-11-01T08:33:08.000Z</time>
      </trkpt>
      <trkpt lat="43.2664420" lon="-3.1644800">
        <ele>180.369003</ele>
        <time>2014-11-01T08:33:14.000Z</time>
      </trkpt>
      <trkpt lat="43.2664590" lon="-3.1645250">
        <ele>180.110992</ele>
        <time>2014-11-01T08:33:15.000Z</time>
      </trkpt>
      <trkpt lat="43.2666000" lon="-3.1648770">
        <ele>179.399002</ele>
        <time>2014-11-01T08:33:20.000Z</time>
      </trkpt>
      <trkpt lat="43.2668210" lon="-3.1653700">
        <ele>177.022995</ele>
        <time>2014-11-01T08:33:26.000Z</time>
      </trkpt>
      <trkpt lat="43.2668380" lon="-3.1654540">
        <ele>176.559006</ele>
        <time>2014-11-01T08:33:27.000Z</time>
      </trkpt>
      <trkpt lat="43.2668440" lon="-3.1655410">
        <ele>175.403000</ele>
        <time>2014-11-01T08:33:28.000Z</time>
      </trkpt>
      <trkpt lat="43.2668420" lon="-3.1656260">
        <ele>175.423004</ele>
        <time>2014-11-01T08:33:29.000Z</time>
      </trkpt>
      <trkpt lat="43.2668330" lon="-3.1657100">
        <ele>174.106995</ele>
        <time>2014-11-01T08:33:30.000Z</time>
      </trkpt>
      <trkpt lat="43.2668210" lon="-3.1657950">
        <ele>173.552994</ele>
        <time>2014-11-01T08:33:31.000Z</time>
      </trkpt>
      <trkpt lat="43.2667570" lon="-3.1661220">
        <ele>171.015991</ele>
        <time>2014-11-01T08:33:35.000Z</time>
      </trkpt>
      <trkpt lat="43.2667360" lon="-3.1661900">
        <ele>170.309998</ele>
        <time>2014-11-01T08:33:36.000Z</time>
      </trkpt>
      <trkpt lat="43.2666970" lon="-3.1662490">
        <ele>169.652008</ele>
        <time>2014-11-01T08:33:37.000Z</time>
      </trkpt>
      <trkpt lat="43.2666480" lon="-3.1662950">
        <ele>168.843994</ele>
        <time>2014-11-01T08:33:38.000Z</time>
      </trkpt>
      <trkpt lat="43.2665940" lon="-3.1663250">
        <ele>168.162003</ele>
        <time>2014-11-01T08:33:39.000Z</time>
      </trkpt>
      <trkpt lat="43.2665360" lon="-3.1663400">
        <ele>167.445999</ele>
        <time>2014-11-01T08:33:40.000Z</time>
      </trkpt>
      <trkpt lat="43.2664730" lon="-3.1663390">
        <ele>166.713989</ele>
        <time>2014-11-01T08:33:41.000Z</time>
      </trkpt>
      <trkpt lat="43.2664100" lon="-3.1663260">
        <ele>166.154007</ele>
        <time>2014-11-01T08:33:42.000Z</time>
      </trkpt>
      <trkpt lat="43.2663470" lon="-3.1662980">
        <ele>165.509003</ele>
        <time>2014-11-01T08:33:43.000Z</time>
      </trkpt>
      <trkpt lat="43.2662880" lon="-3.1662540">
        <ele>164.807007</ele>
        <time>2014-11-01T08:33:44.000Z</time>
      </trkpt>
      <trkpt lat="43.2662280" lon="-3.1662010">
        <ele>164.099014</ele>
        <time>2014-11-01T08:33:45.000Z</time>
      </trkpt>
      <trkpt lat="43.2660120" lon="-3.1660010">
        <ele>160.972000</ele>
        <time>2014-11-01T08:33:49.000Z</time>
      </trkpt>
      <trkpt lat="43.2659320" lon="-3.1659260">
        <ele>159.155991</ele>
        <time>2014-11-01T08:33:51.000Z</time>
      </trkpt>
      <trkpt lat="43.2658970" lon="-3.1658910">
        <ele>158.337997</ele>
        <time>2014-11-01T08:33:52.000Z</time>
      </trkpt>
      <trkpt lat="43.2658620" lon="-3.1658640">
        <ele>156.809998</ele>
        <time>2014-11-01T08:33:53.000Z</time>
      </trkpt>
      <trkpt lat="43.2658350" lon="-3.1658490">
        <ele>156.158005</ele>
        <time>2014-11-01T08:33:54.000Z</time>
      </trkpt>
      <trkpt lat="43.2658200" lon="-3.1658510">
        <ele>155.521988</ele>
        <time>2014-11-01T08:33:55.000Z</time>
      </trkpt>
      <trkpt lat="43.2658060" lon="-3.1658790">
        <ele>153.091003</ele>
        <time>2014-11-01T08:34:01.000Z</time>
      </trkpt>
      <trkpt lat="43.2657990" lon="-3.1658890">
        <ele>151.580994</ele>
        <time>2014-11-01T08:34:11.000Z</time>
      </trkpt>
      <trkpt lat="43.2657790" lon="-3.1658930">
        <ele>151.419006</ele>
        <time>2014-11-01T08:34:31.000Z</time>
      </trkpt>
      <trkpt lat="43.2657720" lon="-3.1659040">
        <ele>151.606995</ele>
        <time>2014-11-01T08:34:37.000Z</time>
      </trkpt>
      <trkpt lat="43.2656460" lon="-3.1660830">
        <ele>151.527008</ele>
        <time>2014-11-01T08:34:44.000Z</time>
      </trkpt>
      <trkpt lat="43.2656210" lon="-3.1661230">
        <ele>151.479996</ele>
        <time>2014-11-01T08:34:45.000Z</time>
      </trkpt>
      <trkpt lat="43.2655980" lon="-3.1661590">
        <ele>151.434006</ele>
        <time>2014-11-01T08:34:46.000Z</time>
      </trkpt>
      <trkpt lat="43.2655730" lon="-3.1661950">
        <ele>151.395996</ele>
        <time>2014-11-01T08:34:47.000Z</time>
      </trkpt>
      <trkpt lat="43.2655580" lon="-3.1662290">
        <ele>151.367996</ele>
        <time>2014-11-01T08:34:48.000Z</time>
      </trkpt>
      <trkpt lat="43.2655490" lon="-3.1662550">
        <ele>151.375992</ele>
        <time>2014-11-01T08:34:49.000Z</time>
      </trkpt>
      <trkpt lat="43.2655340" lon="-3.1662710">
        <ele>151.279999</ele>
        <time>2014-11-01T08:34:54.000Z</time>
      </trkpt>
      <trkpt lat="43.2655240" lon="-3.1663250">
        <ele>151.035995</ele>
        <time>2014-11-01T08:34:57.000Z</time>
      </trkpt>
      <trkpt lat="43.2655120" lon="-3.1663530">
        <ele>151.016998</ele>
        <time>2014-11-01T08:34:58.000Z</time>
      </trkpt>
      <trkpt lat="43.2654970" lon="-3.1663850">
        <ele>150.917999</ele>
        <time>2014-11-01T08:34:59.000Z</time>
      </trkpt>
      <trkpt lat="43.2654800" lon="-3.1664220">
        <ele>150.906998</ele>
        <time>2014-11-01T08:35:00.000Z</time>
      </trkpt>
      <trkpt lat="43.2654610" lon="-3.1664640">
        <ele>150.940994</ele>
        <time>2014-11-01T08:35:01.000Z</time>
      </trkpt>
      <trkpt lat="43.2653290" lon="-3.1667860">
        <ele>150.574005</ele>
        <time>2014-11-01T08:35:08.000Z</time>
      </trkpt>
      <trkpt lat="43.2652920" lon="-3.1669020">
        <ele>150.147995</ele>
        <time>2014-11-01T08:35:12.000Z</time>
      </trkpt>
      <trkpt lat="43.2652710" lon="-3.1669220">
        <ele>149.259995</ele>
        <time>2014-11-01T08:35:24.000Z</time>
      </trkpt>
      <trkpt lat="43.2652310" lon="-3.1670140">
        <ele>149.251999</ele>
        <time>2014-11-01T08:35:37.000Z</time>
      </trkpt>
      <trkpt lat="43.2651610" lon="-3.1671930">
        <ele>149.130005</ele>
        <time>2014-11-01T08:35:43.000Z</time>
      </trkpt>
      <trkpt lat="43.2650570" lon="-3.1674340">
        <ele>148.933990</ele>
        <time>2014-11-01T08:35:49.000Z</time>
      </trkpt>
      <trkpt lat="43.2648970" lon="-3.1677460">
        <ele>148.522003</ele>
        <time>2014-11-01T08:35:56.000Z</time>
      </trkpt>
      <trkpt lat="43.2648170" lon="-3.1679530">
        <ele>148.162003</ele>
        <time>2014-11-01T08:36:00.000Z</time>
      </trkpt>
      <trkpt lat="43.2647550" lon="-3.1682570">
        <ele>147.408005</ele>
        <time>2014-11-01T08:36:05.000Z</time>
      </trkpt>
      <trkpt lat="43.2646200" lon="-3.1687770">
        <ele>146.406998</ele>
        <time>2014-11-01T08:36:15.000Z</time>
      </trkpt>
      <trkpt lat="43.2645350" lon="-3.1690170">
        <ele>145.589996</ele>
        <time>2014-11-01T08:36:21.000Z</time>
      </trkpt>
      <trkpt lat="43.2644820" lon="-3.1691240">
        <ele>144.722992</ele>
        <time>2014-11-01T08:36:26.000Z</time>
      </trkpt>
      <trkpt lat="43.2644760" lon="-3.1691800">
        <ele>144.257004</ele>
        <time>2014-11-01T08:36:37.000Z</time>
      </trkpt>
      <trkpt lat="43.2645230" lon="-3.1692550">
        <ele>144.248993</ele>
        <time>2014-11-01T08:36:54.000Z</time>
      </trkpt>
      <trkpt lat="43.2645480" lon="-3.1693090">
        <ele>144.140991</ele>
        <time>2014-11-01T08:37:09.000Z</time>
      </trkpt>
      <trkpt lat="43.2644810" lon="-3.1694070">
        <ele>144.339005</ele>
        <time>2014-11-01T08:37:13.000Z</time>
      </trkpt>
      <trkpt lat="43.2643830" lon="-3.1697020">
        <ele>144.072998</ele>
        <time>2014-11-01T08:37:20.000Z</time>
      </trkpt>
      <trkpt lat="43.2643210" lon="-3.1698780">
        <ele>143.684006</ele>
        <time>2014-11-01T08:37:23.000Z</time>
      </trkpt>
      <trkpt lat="43.2643080" lon="-3.1703230">
        <ele>143.107010</ele>
        <time>2014-11-01T08:37:29.000Z</time>
      </trkpt>
      <trkpt lat="43.2643080" lon="-3.1704910">
        <ele>142.916992</ele>
        <time>2014-11-01T08:37:31.000Z</time>
      </trkpt>
      <trkpt lat="43.2643420" lon="-3.1707980">
        <ele>142.207001</ele>
        <time>2014-11-01T08:37:35.000Z</time>
      </trkpt>
      <trkpt lat="43.2643550" lon="-3.1711080">
        <ele>141.496002</ele>
        <time>2014-11-01T08:37:39.000Z</time>
      </trkpt>
      <trkpt lat="43.2643130" lon="-3.1713050">
        <ele>140.959000</ele>
        <time>2014-11-01T08:37:44.000Z</time>
      </trkpt>
      <trkpt lat="43.2642150" lon="-3.1713570">
        <ele>140.632996</ele>
        <time>2014-11-01T08:37:58.000Z</time>
      </trkpt>
      <trkpt lat="43.2641700" lon="-3.1714710">
        <ele>140.225006</ele>
        <time>2014-11-01T08:38:10.000Z</time>
      </trkpt>
      <trkpt lat="43.2641460" lon="-3.1717010">
        <ele>140.587006</ele>
        <time>2014-11-01T08:38:16.000Z</time>
      </trkpt>
      <trkpt lat="43.2640870" lon="-3.1720520">
        <ele>140.615005</ele>
        <time>2014-11-01T08:38:23.000Z</time>
      </trkpt>
      <trkpt lat="43.2640520" lon="-3.1723970">
        <ele>140.619003</ele>
        <time>2014-11-01T08:38:29.000Z</time>
      </trkpt>
      <trkpt lat="43.2640300" lon="-3.1726250">
        <ele>140.647995</ele>
        <time>2014-11-01T08:38:34.000Z</time>
      </trkpt>
      <trkpt lat="43.2640300" lon="-3.1726670">
        <ele>140.761002</ele>
        <time>2014-11-01T08:38:35.000Z</time>
      </trkpt>
      <trkpt lat="43.2640700" lon="-3.1728230">
        <ele>140.617004</ele>
        <time>2014-11-01T08:38:39.000Z</time>
      </trkpt>
      <trkpt lat="43.2641190" lon="-3.1730470">
        <ele>140.506989</ele>
        <time>2014-11-01T08:38:43.000Z</time>
      </trkpt>
      <trkpt lat="43.2642170" lon="-3.1733640">
        <ele>140.481995</ele>
        <time>2014-11-01T08:38:48.000Z</time>
      </trkpt>
      <trkpt lat="43.2642520" lon="-3.1734750">
        <ele>140.464996</ele>
        <time>2014-11-01T08:38:50.000Z</time>
      </trkpt>
      <trkpt lat="43.2643150" lon="-3.1737250">
        <ele>140.378998</ele>
        <time>2014-11-01T08:38:54.000Z</time>
      </trkpt>
      <trkpt lat="43.2643440" lon="-3.1739760">
        <ele>140.410995</ele>
        <time>2014-11-01T08:38:58.000Z</time>
      </trkpt>
      <trkpt lat="43.2643430" lon="-3.1743350">
        <ele>140.612991</ele>
        <time>2014-11-01T08:39:04.000Z</time>
      </trkpt>
      <trkpt lat="43.2643370" lon="-3.1744380">
        <ele>140.640991</ele>
        <time>2014-11-01T08:39:06.000Z</time>
      </trkpt>
      <trkpt lat="43.2643990" lon="-3.1747700">
        <ele>140.464996</ele>
        <time>2014-11-01T08:39:12.000Z</time>
      </trkpt>
      <trkpt lat="43.2645240" lon="-3.1751650">
        <ele>140.494995</ele>
        <time>2014-11-01T08:39:18.000Z</time>
      </trkpt>
      <trkpt lat="43.2645660" lon="-3.1756180">
        <ele>140.449005</ele>
        <time>2014-11-01T08:39:25.000Z</time>
      </trkpt>
      <trkpt lat="43.2646140" lon="-3.1760860">
        <ele>140.223007</ele>
        <time>2014-11-01T08:39:33.000Z</time>
      </trkpt>
      <trkpt lat="43.2645840" lon="-3.1765620">
        <ele>140.806992</ele>
        <time>2014-11-01T08:39:41.000Z</time>
      </trkpt>
      <trkpt lat="43.2645790" lon="-3.1768870">
        <ele>141.037003</ele>
        <time>2014-11-01T08:39:48.000Z</time>
      </trkpt>
      <trkpt lat="43.2645710" lon="-3.1771650">
        <ele>141.149994</ele>
        <time>2014-11-01T08:39:53.000Z</time>
      </trkpt>
      <trkpt lat="43.2646580" lon="-3.1776060">
        <ele>141.234009</ele>
        <time>2014-11-01T08:40:01.000Z</time>
      </trkpt>
      <trkpt lat="43.2647000" lon="-3.1779930">
        <ele>141.656006</ele>
        <time>2014-11-01T08:40:08.000Z</time>
      </trkpt>
      <trkpt lat="43.2646890" lon="-3.1783300">
        <ele>141.848007</ele>
        <time>2014-11-01T08:40:14.000Z</time>
      </trkpt>
      <trkpt lat="43.2646100" lon="-3.1786320">
        <ele>142.166000</ele>
        <time>2014-11-01T08:40:19.000Z</time>
      </trkpt>
      <trkpt lat="43.2645900" lon="-3.1790440">
        <ele>142.750000</ele>
        <time>2014-11-01T08:40:26.000Z</time>
      </trkpt>
      <trkpt lat="43.2644990" lon="-3.1794010">
        <ele>143.212997</ele>
        <time>2014-11-01T08:40:32.000Z</time>
      </trkpt>
      <trkpt lat="43.2644030" lon="-3.1799060">
        <ele>143.742996</ele>
        <time>2014-11-01T08:40:41.000Z</time>
      </trkpt>
      <trkpt lat="43.2643360" lon="-3.1803240">
        <ele>144.306992</ele>
        <time>2014-11-01T08:40:49.000Z</time>
      </trkpt>
      <trkpt lat="43.2642870" lon="-3.1807160">
        <ele>144.707001</ele>
        <time>2014-11-01T08:40:57.000Z</time>
      </trkpt>
      <trkpt lat="43.2642130" lon="-3.1810870">
        <ele>145.719009</ele>
        <time>2014-11-01T08:41:05.000Z</time>
      </trkpt>
      <trkpt lat="43.2641800" lon="-3.1813800">
        <ele>146.171997</ele>
        <time>2014-11-01T08:41:11.000Z</time>
      </trkpt>
      <trkpt lat="43.2641320" lon="-3.1817290">
        <ele>146.675995</ele>
        <time>2014-11-01T08:41:18.000Z</time>
      </trkpt>
      <trkpt lat="43.2640830" lon="-3.1821210">
        <ele>147.798004</ele>
        <time>2014-11-01T08:41:26.000Z</time>
      </trkpt>
      <trkpt lat="43.2640290" lon="-3.1825110">
        <ele>148.610001</ele>
        <time>2014-11-01T08:41:34.000Z</time>
      </trkpt>
      <trkpt lat="43.2639720" lon="-3.1828850">
        <ele>149.298004</ele>
        <time>2014-11-01T08:41:42.000Z</time>
      </trkpt>
      <trkpt lat="43.2639050" lon="-3.1833840">
        <ele>149.932007</ele>
        <time>2014-11-01T08:41:52.000Z</time>
      </trkpt>
      <trkpt lat="43.2638740" lon="-3.1838320">
        <ele>150.844009</ele>
        <time>2014-11-01T08:42:02.000Z</time>
      </trkpt>
      <trkpt lat="43.2638230" lon="-3.1842310">
        <ele>152.205002</ele>
        <time>2014-11-01T08:42:11.000Z</time>
      </trkpt>
      <trkpt lat="43.2637830" lon="-3.1845900">
        <ele>152.815002</ele>
        <time>2014-11-01T08:42:19.000Z</time>
      </trkpt>
      <trkpt lat="43.2637320" lon="-3.1849910">
        <ele>153.606995</ele>
        <time>2014-11-01T08:42:28.000Z</time>
      </trkpt>
      <trkpt lat="43.2637060" lon="-3.1852960">
        <ele>154.132004</ele>
        <time>2014-11-01T08:42:35.000Z</time>
      </trkpt>
      <trkpt lat="43.2636640" lon="-3.1857170">
        <ele>155.134995</ele>
        <time>2014-11-01T08:42:44.000Z</time>
      </trkpt>
      <trkpt lat="43.2636440" lon="-3.1859530">
        <ele>155.789001</ele>
        <time>2014-11-01T08:42:50.000Z</time>
      </trkpt>
      <trkpt lat="43.2636170" lon="-3.1862540">
        <ele>156.481003</ele>
        <time>2014-11-01T08:42:57.000Z</time>
      </trkpt>
      <trkpt lat="43.2635990" lon="-3.1866310">
        <ele>157.273010</ele>
        <time>2014-11-01T08:43:05.000Z</time>
      </trkpt>
      <trkpt lat="43.2635700" lon="-3.1870990">
        <ele>157.710999</ele>
        <time>2014-11-01T08:43:14.000Z</time>
      </trkpt>
      <trkpt lat="43.2635110" lon="-3.1873820">
        <ele>158.244995</ele>
        <time>2014-11-01T08:43:20.000Z</time>
      </trkpt>
      <trkpt lat="43.2634350" lon="-3.1876270">
        <ele>159.147995</ele>
        <time>2014-11-01T08:43:26.000Z</time>
      </trkpt>
      <trkpt lat="43.2632930" lon="-3.1878930">
        <ele>160.061005</ele>
        <time>2014-11-01T08:43:33.000Z</time>
      </trkpt>
      <trkpt lat="43.2632350" lon="-3.1880070">
        <ele>160.317001</ele>
        <time>2014-11-01T08:43:37.000Z</time>
      </trkpt>
      <trkpt lat="43.2630610" lon="-3.1881330">
        <ele>161.507004</ele>
        <time>2014-11-01T08:43:44.000Z</time>
      </trkpt>
      <trkpt lat="43.2628810" lon="-3.1882950">
        <ele>162.571991</ele>
        <time>2014-11-01T08:43:51.000Z</time>
      </trkpt>
      <trkpt lat="43.2627190" lon="-3.1885000">
        <ele>162.944992</ele>
        <time>2014-11-01T08:43:57.000Z</time>
      </trkpt>
      <trkpt lat="43.2625390" lon="-3.1887950">
        <ele>163.238998</ele>
        <time>2014-11-01T08:44:04.000Z</time>
      </trkpt>
      <trkpt lat="43.2623850" lon="-3.1891750">
        <ele>163.541000</ele>
        <time>2014-11-01T08:44:11.000Z</time>
      </trkpt>
      <trkpt lat="43.2622680" lon="-3.1895780">
        <ele>163.942993</ele>
        <time>2014-11-01T08:44:18.000Z</time>
      </trkpt>
      <trkpt lat="43.2622490" lon="-3.1899220">
        <ele>163.941010</ele>
        <time>2014-11-01T08:44:25.000Z</time>
      </trkpt>
      <trkpt lat="43.2623390" lon="-3.1902270">
        <ele>163.845001</ele>
        <time>2014-11-01T08:44:31.000Z</time>
      </trkpt>
      <trkpt lat="43.2624560" lon="-3.1905460">
        <ele>163.813995</ele>
        <time>2014-11-01T08:44:37.000Z</time>
      </trkpt>
      <trkpt lat="43.2625390" lon="-3.1908400">
        <ele>164.054001</ele>
        <time>2014-11-01T08:44:43.000Z</time>
      </trkpt>
      <trkpt lat="43.2625470" lon="-3.1909400">
        <ele>164.108994</ele>
        <time>2014-11-01T08:44:45.000Z</time>
      </trkpt>
      <trkpt lat="43.2625290" lon="-3.1913270">
        <ele>164.207001</ele>
        <time>2014-11-01T08:44:52.000Z</time>
      </trkpt>
      <trkpt lat="43.2624470" lon="-3.1917740">
        <ele>164.179001</ele>
        <time>2014-11-01T08:45:00.000Z</time>
      </trkpt>
      <trkpt lat="43.2622460" lon="-3.1922430">
        <ele>164.141998</ele>
        <time>2014-11-01T08:45:08.000Z</time>
      </trkpt>
      <trkpt lat="43.2620970" lon="-3.1924050">
        <ele>164.365997</ele>
        <time>2014-11-01T08:45:13.000Z</time>
      </trkpt>
      <trkpt lat="43.2619570" lon="-3.1925270">
        <ele>165.947998</ele>
        <time>2014-11-01T08:45:20.000Z</time>
      </trkpt>
      <trkpt lat="43.2618260" lon="-3.1925790">
        <ele>166.819992</ele>
        <time>2014-11-01T08:45:27.000Z</time>
      </trkpt>
      <trkpt lat="43.2616897" lon="-3.1925926">
        <ele>166.819992</ele>
        <time>2021-01-31T17:43:50.268Z</time>
      </trkpt>
      <trkpt lat="43.2615959" lon="-3.1926248">
        <ele>166.819992</ele>
        <time>2021-01-31T17:43:51.444Z</time>
      </trkpt>
      <trkpt lat="43.2614866" lon="-3.1926463">
        <ele>166.819992</ele>
        <time>2021-01-31T17:43:52.148Z</time>
      </trkpt>
      <trkpt lat="43.2617164" lon="-3.1928608">
        <ele>166.819992</ele>
        <time>2021-01-31T17:44:25.172Z</time>
      </trkpt>
      <trkpt lat="43.2619273" lon="-3.1928823">
        <ele>166.819992</ele>
        <time>2021-01-31T17:44:25.876Z</time>
      </trkpt>
      <trkpt lat="43.2621148" lon="-3.1929681">
        <ele>166.819992</ele>
        <time>2021-01-31T17:44:26.485Z</time>
      </trkpt>
      <trkpt lat="43.2623851" lon="-3.1930754">
        <ele>166.819992</ele>
        <time>2021-01-31T17:44:27.157Z</time>
      </trkpt>
      <trkpt lat="43.2626383" lon="-3.1928716">
        <ele>166.819992</ele>
        <time>2021-01-31T17:44:27.844Z</time>
      </trkpt>
      <trkpt lat="43.2627086" lon="-3.1926033">
        <ele>166.819992</ele>
        <time>2021-01-31T17:44:28.508Z</time>
      </trkpt>
      <trkpt lat="43.2626216" lon="-3.1924156">
        <ele>166.819992</ele>
        <time>2021-01-31T17:44:29.204Z</time>
      </trkpt>
      <trkpt lat="43.2624977" lon="-3.1921474">
        <ele>166.819992</ele>
        <time>2021-01-31T17:44:29.709Z</time>
      </trkpt>
      <trkpt lat="43.2626143" lon="-3.1915090">
        <ele>166.819992</ele>
        <time>2021-01-31T17:44:30.341Z</time>
      </trkpt>
      <trkpt lat="43.2628760" lon="-3.1910638">
        <ele>166.819992</ele>
        <time>2021-01-31T17:44:30.932Z</time>
      </trkpt>
      <trkpt lat="43.2629776" lon="-3.1906132">
        <ele>166.819992</ele>
        <time>2021-01-31T17:44:31.404Z</time>
      </trkpt>
      <trkpt lat="43.2630512" lon="-3.1902269">
        <ele>166.819992</ele>
        <time>2021-01-31T17:44:31.941Z</time>
      </trkpt>
      <trkpt lat="43.2630590" lon="-3.1900767">
        <ele>166.819992</ele>
        <time>2021-01-31T17:45:31.908Z</time>
      </trkpt>
      <trkpt lat="43.2631489" lon="-3.1900177">
        <ele>166.819992</ele>
        <time>2021-01-31T17:45:30.595Z</time>
      </trkpt>
      <trkpt lat="43.2632973" lon="-3.1900499">
        <ele>166.819992</ele>
        <time>2021-01-31T17:44:32.484Z</time>
      </trkpt>
      <trkpt lat="43.2633520" lon="-3.1901304">
        <ele>166.819992</ele>
        <time>2021-01-31T17:45:34.027Z</time>
      </trkpt>
      <trkpt lat="43.2634223" lon="-3.1902430">
        <ele>166.819992</ele>
        <time>2021-01-31T17:45:34.835Z</time>
      </trkpt>
      <trkpt lat="43.2634731" lon="-3.1903664">
        <ele>166.819992</ele>
        <time>2021-01-31T17:45:35.379Z</time>
      </trkpt>
      <trkpt lat="43.2635278" lon="-3.1904951">
        <ele>166.819992</ele>
        <time>2021-01-31T17:45:35.899Z</time>
      </trkpt>
      <trkpt lat="43.2635825" lon="-3.1906132">
        <ele>166.819992</ele>
        <time>2021-01-31T17:45:36.443Z</time>
      </trkpt>
      <trkpt lat="43.2636645" lon="-3.1907258">
        <ele>166.819992</ele>
        <time>2021-01-31T17:45:37.051Z</time>
      </trkpt>
      <trkpt lat="43.2637348" lon="-3.1908277">
        <ele>166.819992</ele>
        <time>2021-01-31T17:45:37.659Z</time>
      </trkpt>
      <trkpt lat="43.2638208" lon="-3.1909565">
        <ele>166.819992</ele>
        <time>2021-01-31T17:45:38.379Z</time>
      </trkpt>
      <trkpt lat="43.2639341" lon="-3.1910155">
        <ele>166.819992</ele>
        <time>2021-01-31T17:45:39.075Z</time>
      </trkpt>
      <trkpt lat="43.2640239" lon="-3.1910477">
        <ele>166.819992</ele>
        <time>2021-01-31T17:45:39.596Z</time>
      </trkpt>
      <trkpt lat="43.2641020" lon="-3.1910208">
        <ele>166.819992</ele>
        <time>2021-01-31T17:45:40.163Z</time>
      </trkpt>
      <trkpt lat="43.2641528" lon="-3.1909028">
        <ele>166.819992</ele>
        <time>2021-01-31T17:45:40.708Z</time>
      </trkpt>
      <trkpt lat="43.2641763" lon="-3.1907526">
        <ele>166.819992</ele>
        <time>2021-01-31T17:45:41.363Z</time>
      </trkpt>
      <trkpt lat="43.2642416" lon="-3.1905971">
        <ele>166.819992</ele>
        <time>2021-01-31T17:46:06.460Z</time>
      </trkpt>
      <trkpt lat="43.2643432" lon="-3.1904361">
        <ele>166.819992</ele>
        <time>2021-01-31T17:46:07.004Z</time>
      </trkpt>
      <trkpt lat="43.2644760" lon="-3.1903718">
        <ele>166.819992</ele>
        <time>2021-01-31T17:46:07.548Z</time>
      </trkpt>
      <trkpt lat="43.2646010" lon="-3.1903503">
        <ele>166.819992</ele>
        <time>2021-01-31T17:46:08.029Z</time>
      </trkpt>
      <trkpt lat="43.2647338" lon="-3.1903396">
        <ele>166.819992</ele>
        <time>2021-01-31T17:46:08.493Z</time>
      </trkpt>
      <trkpt lat="43.2648432" lon="-3.1902859">
        <ele>166.819992</ele>
        <time>2021-01-31T17:46:08.892Z</time>
      </trkpt>
      <trkpt lat="43.2648901" lon="-3.1902215">
        <ele>166.819992</ele>
        <time>2021-01-31T17:46:09.300Z</time>
      </trkpt>
      <trkpt lat="43.2648589" lon="-3.1900928">
        <ele>166.819992</ele>
        <time>2021-01-31T17:46:09.907Z</time>
      </trkpt>
      <trkpt lat="43.2648042" lon="-3.1898997">
        <ele>166.819992</ele>
        <time>2021-01-31T17:46:10.372Z</time>
      </trkpt>
      <trkpt lat="43.2647964" lon="-3.1897602">
        <ele>166.819992</ele>
        <time>2021-01-31T17:46:10.788Z</time>
      </trkpt>
      <trkpt lat="43.2648276" lon="-3.1895885">
        <ele>166.819992</ele>
        <time>2021-01-31T17:46:11.188Z</time>
      </trkpt>
      <trkpt lat="43.2648901" lon="-3.1894491">
        <ele>166.819992</ele>
        <time>2021-01-31T17:46:11.595Z</time>
      </trkpt>
      <trkpt lat="43.2649214" lon="-3.1893203">
        <ele>166.819992</ele>
        <time>2021-01-31T17:46:12.029Z</time>
      </trkpt>
      <trkpt lat="43.2649760" lon="-3.1891594">
        <ele>166.819992</ele>
        <time>2021-01-31T17:46:12.459Z</time>
      </trkpt>
      <trkpt lat="43.2650307" lon="-3.1890628">
        <ele>166.819992</ele>
        <time>2021-01-31T17:46:12.860Z</time>
      </trkpt>
      <trkpt lat="43.2651010" lon="-3.1889877">
        <ele>166.819992</ele>
        <time>2021-01-31T17:46:13.284Z</time>
      </trkpt>
      <trkpt lat="43.2651870" lon="-3.1889126">
        <ele>166.819992</ele>
        <time>2021-01-31T17:46:13.700Z</time>
      </trkpt>
      <trkpt lat="43.2652885" lon="-3.1888483">
        <ele>166.819992</ele>
        <time>2021-01-31T17:46:14.107Z</time>
      </trkpt>
      <trkpt lat="43.2653667" lon="-3.1887946">
        <ele>166.819992</ele>
        <time>2021-01-31T17:46:14.523Z</time>
      </trkpt>
      <trkpt lat="43.2654760" lon="-3.1887732">
        <ele>166.819992</ele>
        <time>2021-01-31T17:46:14.972Z</time>
      </trkpt>
      <trkpt lat="43.2655854" lon="-3.1887410">
        <ele>166.819992</ele>
        <time>2021-01-31T17:46:15.459Z</time>
      </trkpt>
      <trkpt lat="43.2656792" lon="-3.1887732">
        <ele>166.819992</ele>
        <time>2021-01-31T17:46:15.940Z</time>
      </trkpt>
      <trkpt lat="43.2657495" lon="-3.1888804">
        <ele>166.819992</ele>
        <time>2021-01-31T17:46:16.435Z</time>
      </trkpt>
      <trkpt lat="43.2657417" lon="-3.1889877">
        <ele>166.819992</ele>
        <time>2021-01-31T17:46:17.092Z</time>
      </trkpt>
      <trkpt lat="43.2656636" lon="-3.1890521">
        <ele>166.819992</ele>
        <time>2021-01-31T17:46:17.555Z</time>
      </trkpt>
      <trkpt lat="43.2655776" lon="-3.1890736">
        <ele>166.819992</ele>
        <time>2021-01-31T17:46:17.980Z</time>
      </trkpt>
      <trkpt lat="43.2654682" lon="-3.1890950">
        <ele>166.819992</ele>
        <time>2021-01-31T17:46:18.356Z</time>
      </trkpt>
      <trkpt lat="43.2653979" lon="-3.1891165">
        <ele>166.819992</ele>
        <time>2021-01-31T17:46:18.675Z</time>
      </trkpt>
      <trkpt lat="43.2653354" lon="-3.1891809">
        <ele>166.819992</ele>
        <time>2021-01-31T17:46:19.027Z</time>
      </trkpt>
      <trkpt lat="43.2652964" lon="-3.1892774">
        <ele>166.819992</ele>
        <time>2021-01-31T17:46:19.332Z</time>
      </trkpt>
      <trkpt lat="43.2652885" lon="-3.1894598">
        <ele>166.819992</ele>
        <time>2021-01-31T17:46:19.579Z</time>
      </trkpt>
      <trkpt lat="43.2652885" lon="-3.1895671">
        <ele>166.819992</ele>
        <time>2021-01-31T17:46:19.812Z</time>
      </trkpt>
      <trkpt lat="43.2652964" lon="-3.1896744">
        <ele>166.819992</ele>
        <time>2021-01-31T17:46:20.123Z</time>
      </trkpt>
      <trkpt lat="43.2653354" lon="-3.1898353">
        <ele>166.819992</ele>
        <time>2021-01-31T17:46:20.443Z</time>
      </trkpt>
      <trkpt lat="43.2653745" lon="-3.1900177">
        <ele>166.819992</ele>
        <time>2021-01-31T17:46:20.811Z</time>
      </trkpt>
      <trkpt lat="43.2654214" lon="-3.1901464">
        <ele>166.819992</ele>
        <time>2021-01-31T17:46:21.164Z</time>
      </trkpt>
      <trkpt lat="43.2654917" lon="-3.1902323">
        <ele>166.819992</ele>
        <time>2021-01-31T17:46:21.547Z</time>
      </trkpt>
      <trkpt lat="43.2655620" lon="-3.1902752">
        <ele>166.819992</ele>
        <time>2021-01-31T17:46:21.883Z</time>
      </trkpt>
      <trkpt lat="43.2656323" lon="-3.1904361">
        <ele>166.819992</ele>
        <time>2021-01-31T17:46:22.244Z</time>
      </trkpt>
      <trkpt lat="43.2656636" lon="-3.1905971">
        <ele>166.819992</ele>
        <time>2021-01-31T17:46:22.579Z</time>
      </trkpt>
      <trkpt lat="43.2656479" lon="-3.1907151">
        <ele>166.819992</ele>
        <time>2021-01-31T17:46:22.899Z</time>
      </trkpt>
      <trkpt lat="43.2656323" lon="-3.1909297">
        <ele>166.819992</ele>
        <time>2021-01-31T17:46:23.259Z</time>
      </trkpt>
      <trkpt lat="43.2656714" lon="-3.1911228">
        <ele>166.819992</ele>
        <time>2021-01-31T17:46:23.611Z</time>
      </trkpt>
      <trkpt lat="43.2656870" lon="-3.1912622">
        <ele>166.819992</ele>
        <time>2021-01-31T17:46:24.011Z</time>
      </trkpt>
      <trkpt lat="43.2656323" lon="-3.1913052">
        <ele>166.819992</ele>
        <time>2021-01-31T17:46:24.332Z</time>
      </trkpt>
      <trkpt lat="43.2655307" lon="-3.1913588">
        <ele>166.819992</ele>
        <time>2021-01-31T17:46:24.635Z</time>
      </trkpt>
      <trkpt lat="43.2654370" lon="-3.1914232">
        <ele>166.819992</ele>
        <time>2021-01-31T17:46:25.019Z</time>
      </trkpt>
      <trkpt lat="43.2653901" lon="-3.1915305">
        <ele>166.819992</ele>
        <time>2021-01-31T17:46:25.387Z</time>
      </trkpt>
      <trkpt lat="43.2654604" lon="-3.1916914">
        <ele>166.819992</ele>
        <time>2021-01-31T17:46:25.739Z</time>
      </trkpt>
      <trkpt lat="43.2655386" lon="-3.1917880">
        <ele>166.819992</ele>
        <time>2021-01-31T17:46:26.068Z</time>
      </trkpt>
      <trkpt lat="43.2656245" lon="-3.1919167">
        <ele>166.819992</ele>
        <time>2021-01-31T17:46:26.428Z</time>
      </trkpt>
      <trkpt lat="43.2656557" lon="-3.1920133">
        <ele>166.819992</ele>
        <time>2021-01-31T17:46:26.756Z</time>
      </trkpt>
      <trkpt lat="43.2656167" lon="-3.1921957">
        <ele>166.819992</ele>
        <time>2021-01-31T17:46:27.108Z</time>
      </trkpt>
      <trkpt lat="43.2655386" lon="-3.1922493">
        <ele>166.819992</ele>
        <time>2021-01-31T17:46:27.404Z</time>
      </trkpt>
      <trkpt lat="43.2654292" lon="-3.1922708">
        <ele>166.819992</ele>
        <time>2021-01-31T17:46:27.716Z</time>
      </trkpt>
      <trkpt lat="43.2653042" lon="-3.1922493">
        <ele>166.819992</ele>
        <time>2021-01-31T17:46:28.068Z</time>
      </trkpt>
      <trkpt lat="43.2651948" lon="-3.1922493">
        <ele>166.819992</ele>
        <time>2021-01-31T17:46:28.364Z</time>
      </trkpt>
      <trkpt lat="43.2651557" lon="-3.1922922">
        <ele>166.819992</ele>
        <time>2021-01-31T17:46:28.700Z</time>
      </trkpt>
      <trkpt lat="43.2651792" lon="-3.1924639">
        <ele>166.819992</ele>
        <time>2021-01-31T17:46:29.061Z</time>
      </trkpt>
      <trkpt lat="43.2652417" lon="-3.1925926">
        <ele>166.819992</ele>
        <time>2021-01-31T17:46:29.340Z</time>
      </trkpt>
      <trkpt lat="43.2652964" lon="-3.1926785">
        <ele>166.819992</ele>
        <time>2021-01-31T17:46:29.619Z</time>
      </trkpt>
      <trkpt lat="43.2653120" lon="-3.1928394">
        <ele>166.819992</ele>
        <time>2021-01-31T17:46:32.548Z</time>
      </trkpt>
      <trkpt lat="43.2651401" lon="-3.1930003">
        <ele>166.819992</ele>
        <time>2021-01-31T17:46:33.132Z</time>
      </trkpt>
      <trkpt lat="43.2649292" lon="-3.1932149">
        <ele>166.819992</ele>
        <time>2021-01-31T17:46:33.675Z</time>
      </trkpt>
      <trkpt lat="43.2647338" lon="-3.1935582">
        <ele>166.819992</ele>
        <time>2021-01-31T17:46:34.203Z</time>
      </trkpt>
      <trkpt lat="43.2646088" lon="-3.1939230">
        <ele>166.819992</ele>
        <time>2021-01-31T17:46:34.731Z</time>
      </trkpt>
      <trkpt lat="43.2647885" lon="-3.1947062">
        <ele>166.819992</ele>
        <time>2021-01-31T17:46:35.316Z</time>
      </trkpt>
      <trkpt lat="43.2648823" lon="-3.1954358">
        <ele>166.819992</ele>
        <time>2021-01-31T17:46:35.875Z</time>
      </trkpt>
      <trkpt lat="43.2648667" lon="-3.1960795">
        <ele>166.819992</ele>
        <time>2021-01-31T17:46:36.388Z</time>
      </trkpt>
      <trkpt lat="43.2649057" lon="-3.1964121">
        <ele>166.819992</ele>
        <time>2021-01-31T17:46:37.755Z</time>
      </trkpt>
      <trkpt lat="43.2649448" lon="-3.1966910">
        <ele>166.819992</ele>
        <time>2021-01-31T17:46:37.117Z</time>
      </trkpt>
      <trkpt lat="43.2648699" lon="-3.1967876">
        <ele>166.819992</ele>
        <time>2021-01-31T17:46:51.139Z</time>
      </trkpt>
      <trkpt lat="43.2648060" lon="-3.1967661">
        <ele>166.819992</ele>
        <time>2021-01-31T17:46:50.427Z</time>
      </trkpt>
      <trkpt lat="43.2647807" lon="-3.1967876">
        <ele>166.819992</ele>
        <time>2021-01-31T17:46:44.252Z</time>
      </trkpt>
      <trkpt lat="43.2646565" lon="-3.1967554">
        <ele>166.819992</ele>
        <time>2021-01-31T17:47:00.787Z</time>
      </trkpt>
      <trkpt lat="43.2645542" lon="-3.1966588">
        <ele>166.819992</ele>
        <time>2021-01-31T17:46:45.003Z</time>
      </trkpt>
      <trkpt lat="43.2643510" lon="-3.1966267">
        <ele>166.819992</ele>
        <time>2021-01-31T17:46:46.076Z</time>
      </trkpt>
      <trkpt lat="43.2643074" lon="-3.1968520">
        <ele>166.819992</ele>
        <time>2021-01-31T17:46:49.123Z</time>
      </trkpt>
      <trkpt lat="43.2644636" lon="-3.1970022">
        <ele>166.819992</ele>
        <time>2021-01-31T17:46:49.764Z</time>
      </trkpt>
      <trkpt lat="43.2645276" lon="-3.1972328">
        <ele>166.819992</ele>
        <time>2021-01-31T17:47:13.299Z</time>
      </trkpt>
      <trkpt lat="43.2648441" lon="-3.1973509">
        <ele>166.819992</ele>
        <time>2021-01-31T17:47:13.868Z</time>
      </trkpt>
      <trkpt lat="43.2650784" lon="-3.1973562">
        <ele>166.819992</ele>
        <time>2021-01-31T17:47:14.492Z</time>
      </trkpt>
      <trkpt lat="43.2654027" lon="-3.1972758">
        <ele>166.819992</ele>
        <time>2021-01-31T17:47:15.115Z</time>
      </trkpt>
      <trkpt lat="43.2653831" lon="-3.1968305">
        <ele>166.819992</ele>
        <time>2021-01-31T17:47:15.803Z</time>
      </trkpt>
      <trkpt lat="43.2653480" lon="-3.1965301">
        <ele>166.819992</ele>
        <time>2021-01-31T17:47:16.475Z</time>
      </trkpt>
      <trkpt lat="43.2654105" lon="-3.1964657">
        <ele>166.819992</ele>
        <time>2021-01-31T17:47:17.178Z</time>
      </trkpt>
      <trkpt lat="43.2655472" lon="-3.1964496">
        <ele>166.819992</ele>
        <time>2021-01-31T17:47:17.907Z</time>
      </trkpt>
      <trkpt lat="43.2657246" lon="-3.1964228">
        <ele>166.819992</ele>
        <time>2021-01-31T17:47:20.156Z</time>
      </trkpt>
      <trkpt lat="43.2658965" lon="-3.1963477">
        <ele>166.819992</ele>
        <time>2021-01-31T17:47:20.620Z</time>
      </trkpt>
      <trkpt lat="43.2660528" lon="-3.1962082">
        <ele>166.819992</ele>
        <time>2021-01-31T17:47:21.084Z</time>
      </trkpt>
      <trkpt lat="43.2661153" lon="-3.1960151">
        <ele>166.819992</ele>
        <time>2021-01-31T17:47:21.563Z</time>
      </trkpt>
      <trkpt lat="43.2661856" lon="-3.1958596">
        <ele>166.819992</ele>
        <time>2021-01-31T17:47:22.108Z</time>
      </trkpt>
      <trkpt lat="43.2662871" lon="-3.1958435">
        <ele>166.819992</ele>
        <time>2021-01-31T17:47:22.604Z</time>
      </trkpt>
      <trkpt lat="43.2663731" lon="-3.1959239">
        <ele>166.819992</ele>
        <time>2021-01-31T17:47:23.067Z</time>
      </trkpt>
      <trkpt lat="43.2663653" lon="-3.1961171">
        <ele>166.819992</ele>
        <time>2021-01-31T17:47:23.523Z</time>
      </trkpt>
      <trkpt lat="43.2662989" lon="-3.1963638">
        <ele>166.819992</ele>
        <time>2021-01-31T17:47:24.035Z</time>
      </trkpt>
      <trkpt lat="43.2662285" lon="-3.1966589">
        <ele>166.819992</ele>
        <time>2021-01-31T17:47:24.635Z</time>
      </trkpt>
      <trkpt lat="43.2661543" lon="-3.1968681">
        <ele>166.819992</ele>
        <time>2021-01-31T17:47:25.083Z</time>
      </trkpt>
      <trkpt lat="43.2661074" lon="-3.1970880">
        <ele>166.819992</ele>
        <time>2021-01-31T17:47:25.571Z</time>
      </trkpt>
      <trkpt lat="43.2660918" lon="-3.1972650">
        <ele>166.819992</ele>
        <time>2021-01-31T17:47:26.123Z</time>
      </trkpt>
      <trkpt lat="43.2661660" lon="-3.1973938">
        <ele>166.819992</ele>
        <time>2021-01-31T17:47:26.651Z</time>
      </trkpt>
      <trkpt lat="43.2662715" lon="-3.1975279">
        <ele>166.819992</ele>
        <time>2021-01-31T17:47:27.155Z</time>
      </trkpt>
      <trkpt lat="43.2663848" lon="-3.1976459">
        <ele>166.819992</ele>
        <time>2021-01-31T17:47:27.947Z</time>
      </trkpt>
      <trkpt lat="43.2664864" lon="-3.1976137">
        <ele>166.819992</ele>
        <time>2021-01-31T17:47:28.483Z</time>
      </trkpt>
      <trkpt lat="43.2665723" lon="-3.1974689">
        <ele>166.819992</ele>
        <time>2021-01-31T17:47:29.043Z</time>
      </trkpt>
      <trkpt lat="43.2666504" lon="-3.1970987">
        <ele>166.819992</ele>
        <time>2021-01-31T17:47:30.019Z</time>
      </trkpt>
      <trkpt lat="43.2667246" lon="-3.1967608">
        <ele>166.819992</ele>
        <time>2021-01-31T17:47:30.603Z</time>
      </trkpt>
      <trkpt lat="43.2667793" lon="-3.1964711">
        <ele>166.819992</ele>
        <time>2021-01-31T17:47:31.147Z</time>
      </trkpt>
      <trkpt lat="43.2669019" lon="-3.1960902">
        <ele>166.819992</ele>
        <time>2021-01-31T17:51:24.433Z</time>
      </trkpt>
      <trkpt lat="43.2670671" lon="-3.1957040">
        <ele>166.819992</ele>
        <time>2021-01-31T17:47:43.034Z</time>
      </trkpt>
      <trkpt lat="43.2672066" lon="-3.1953499">
        <ele>166.819992</ele>
        <time>2021-01-31T17:51:22.737Z</time>
      </trkpt>
      <trkpt lat="43.2674108" lon="-3.1949530">
        <ele>166.819992</ele>
        <time>2021-01-31T17:47:43.635Z</time>
      </trkpt>
      <trkpt lat="43.2677858" lon="-3.1945238">
        <ele>166.819992</ele>
        <time>2021-01-31T17:47:44.331Z</time>
      </trkpt>
      <trkpt lat="43.2681295" lon="-3.1939874">
        <ele>166.819992</ele>
        <time>2021-01-31T17:47:44.899Z</time>
      </trkpt>
      <trkpt lat="43.2684108" lon="-3.1933222">
        <ele>166.819992</ele>
        <time>2021-01-31T17:47:45.403Z</time>
      </trkpt>
      <trkpt lat="43.2686764" lon="-3.1926999">
        <ele>166.819992</ele>
        <time>2021-01-31T17:47:45.978Z</time>
      </trkpt>
      <trkpt lat="43.2688251" lon="-3.1924317">
        <ele>166.819992</ele>
        <time>2021-01-31T17:51:05.666Z</time>
      </trkpt>
      <trkpt lat="43.2690358" lon="-3.1923781">
        <ele>166.819992</ele>
        <time>2021-01-31T17:47:46.747Z</time>
      </trkpt>
      <trkpt lat="43.2691532" lon="-3.1922493">
        <ele>166.819992</ele>
        <time>2021-01-31T17:51:04.226Z</time>
      </trkpt>
      <trkpt lat="43.2693639" lon="-3.1921420">
        <ele>166.819992</ele>
        <time>2021-01-31T17:47:47.259Z</time>
      </trkpt>
      <trkpt lat="43.2694188" lon="-3.1920133">
        <ele>166.819992</ele>
        <time>2021-01-31T17:51:03.114Z</time>
      </trkpt>
      <trkpt lat="43.2694032" lon="-3.1918845">
        <ele>166.819992</ele>
        <time>2021-01-31T17:51:02.290Z</time>
      </trkpt>
      <trkpt lat="43.2693407" lon="-3.1917558">
        <ele>166.819992</ele>
        <time>2021-01-31T17:47:47.827Z</time>
      </trkpt>
      <trkpt lat="43.2692782" lon="-3.1916378">
        <ele>166.819992</ele>
        <time>2021-01-31T17:50:59.713Z</time>
      </trkpt>
      <trkpt lat="43.2692938" lon="-3.1914768">
        <ele>166.819992</ele>
        <time>2021-01-31T17:50:58.769Z</time>
      </trkpt>
      <trkpt lat="43.2694970" lon="-3.1914446">
        <ele>166.819992</ele>
        <time>2021-01-31T17:50:57.713Z</time>
      </trkpt>
      <trkpt lat="43.2697545" lon="-3.1913910">
        <ele>166.819992</ele>
        <time>2021-01-31T17:47:49.467Z</time>
      </trkpt>
      <trkpt lat="43.2699307" lon="-3.1914232">
        <ele>166.819992</ele>
        <time>2021-01-31T17:50:40.298Z</time>
      </trkpt>
      <trkpt lat="43.2700088" lon="-3.1912623">
        <ele>166.819992</ele>
        <time>2021-01-31T17:50:39.586Z</time>
      </trkpt>
      <trkpt lat="43.2699932" lon="-3.1910584">
        <ele>166.819992</ele>
        <time>2021-01-31T17:50:38.929Z</time>
      </trkpt>
      <trkpt lat="43.2699073" lon="-3.1909082">
        <ele>166.819992</ele>
        <time>2021-01-31T17:50:37.938Z</time>
      </trkpt>
      <trkpt lat="43.2697979" lon="-3.1907044">
        <ele>166.819992</ele>
        <time>2021-01-31T17:50:42.921Z</time>
      </trkpt>
      <trkpt lat="43.2697313" lon="-3.1905863">
        <ele>166.819992</ele>
        <time>2021-01-31T17:47:50.499Z</time>
      </trkpt>
      <trkpt lat="43.2696729" lon="-3.1904898">
        <ele>166.819992</ele>
        <time>2021-01-31T17:50:35.105Z</time>
      </trkpt>
      <trkpt lat="43.2696807" lon="-3.1902430">
        <ele>166.819992</ele>
        <time>2021-01-31T17:50:34.010Z</time>
      </trkpt>
      <trkpt lat="43.2697901" lon="-3.1901035">
        <ele>166.819992</ele>
        <time>2021-01-31T17:50:32.842Z</time>
      </trkpt>
      <trkpt lat="43.2698682" lon="-3.1898890">
        <ele>166.819992</ele>
        <time>2021-01-31T17:50:45.073Z</time>
      </trkpt>
      <trkpt lat="43.2699263" lon="-3.1896958">
        <ele>166.819992</ele>
        <time>2021-01-31T17:47:52.203Z</time>
      </trkpt>
      <trkpt lat="43.2701104" lon="-3.1894491">
        <ele>166.819992</ele>
        <time>2021-01-31T17:50:30.682Z</time>
      </trkpt>
      <trkpt lat="43.2701963" lon="-3.1894705">
        <ele>166.819992</ele>
        <time>2021-01-31T17:50:47.273Z</time>
      </trkpt>
      <trkpt lat="43.2702432" lon="-3.1896100">
        <ele>166.819992</ele>
        <time>2021-01-31T17:47:53.218Z</time>
      </trkpt>
      <trkpt lat="43.2701026" lon="-3.1899104">
        <ele>166.819992</ele>
        <time>2021-01-31T17:50:27.985Z</time>
      </trkpt>
      <trkpt lat="43.2699932" lon="-3.1902108">
        <ele>166.819992</ele>
        <time>2021-01-31T17:50:21.082Z</time>
      </trkpt>
      <trkpt lat="43.2699619" lon="-3.1905220">
        <ele>166.819992</ele>
        <time>2021-01-31T17:50:24.730Z</time>
      </trkpt>
      <trkpt lat="43.2700869" lon="-3.1908116">
        <ele>166.819992</ele>
        <time>2021-01-31T17:50:16.274Z</time>
      </trkpt>
      <trkpt lat="43.2703760" lon="-3.1910799">
        <ele>166.819992</ele>
        <time>2021-01-31T17:48:06.924Z</time>
      </trkpt>
      <trkpt lat="43.2705478" lon="-3.1912944">
        <ele>166.819992</ele>
        <time>2021-01-31T17:48:07.403Z</time>
      </trkpt>
      <trkpt lat="43.2706260" lon="-3.1919060">
        <ele>166.819992</ele>
        <time>2021-01-31T17:50:02.090Z</time>
      </trkpt>
      <trkpt lat="43.2705290" lon="-3.1922815">
        <ele>166.819992</ele>
        <time>2021-01-31T17:48:08.236Z</time>
      </trkpt>
      <trkpt lat="43.2704352" lon="-3.1924853">
        <ele>166.819992</ele>
        <time>2021-01-31T17:49:51.858Z</time>
      </trkpt>
      <trkpt lat="43.2703727" lon="-3.1926892">
        <ele>166.819992</ele>
        <time>2021-01-31T17:49:50.994Z</time>
      </trkpt>
      <trkpt lat="43.2702087" lon="-3.1929896">
        <ele>166.819992</ele>
        <time>2021-01-31T17:49:50.307Z</time>
      </trkpt>
      <trkpt lat="43.2701228" lon="-3.1933007">
        <ele>166.819992</ele>
        <time>2021-01-31T17:49:49.498Z</time>
      </trkpt>
      <trkpt lat="43.2700915" lon="-3.1937299">
        <ele>166.819992</ele>
        <time>2021-01-31T17:48:09.331Z</time>
      </trkpt>
      <trkpt lat="43.2701358" lon="-3.1940088">
        <ele>166.819992</ele>
        <time>2021-01-31T17:48:10.211Z</time>
      </trkpt>
      <trkpt lat="43.2701273" lon="-3.1942127">
        <ele>166.819992</ele>
        <time>2021-01-31T17:49:40.034Z</time>
      </trkpt>
      <trkpt lat="43.2701664" lon="-3.1944273">
        <ele>166.819992</ele>
        <time>2021-01-31T17:49:35.946Z</time>
      </trkpt>
      <trkpt lat="43.2701820" lon="-3.1945238">
        <ele>166.819992</ele>
        <time>2021-01-31T17:48:10.938Z</time>
      </trkpt>
      <trkpt lat="43.2703070" lon="-3.1946633">
        <ele>166.819992</ele>
        <time>2021-01-31T17:49:31.490Z</time>
      </trkpt>
      <trkpt lat="43.2705179" lon="-3.1948242">
        <ele>166.819992</ele>
        <time>2021-01-31T17:48:11.707Z</time>
      </trkpt>
      <trkpt lat="43.2706429" lon="-3.1949530">
        <ele>166.819992</ele>
        <time>2021-01-31T17:49:30.443Z</time>
      </trkpt>
      <trkpt lat="43.2708389" lon="-3.1951246">
        <ele>166.819992</ele>
        <time>2021-01-31T17:48:12.514Z</time>
      </trkpt>
      <trkpt lat="43.2708545" lon="-3.1955967">
        <ele>166.819992</ele>
        <time>2021-01-31T17:48:13.187Z</time>
      </trkpt>
      <trkpt lat="43.2708428" lon="-3.1958971">
        <ele>166.819992</ele>
        <time>2021-01-31T17:49:27.266Z</time>
      </trkpt>
      <trkpt lat="43.2708389" lon="-3.1961331">
        <ele>166.819992</ele>
        <time>2021-01-31T17:48:14.082Z</time>
      </trkpt>
      <trkpt lat="43.2708428" lon="-3.1963477">
        <ele>166.819992</ele>
        <time>2021-01-31T17:49:26.611Z</time>
      </trkpt>
      <trkpt lat="43.2708076" lon="-3.1965623">
        <ele>166.819992</ele>
        <time>2021-01-31T17:48:14.812Z</time>
      </trkpt>
      <trkpt lat="43.2707334" lon="-3.1966481">
        <ele>166.819992</ele>
        <time>2021-01-31T17:49:25.346Z</time>
      </trkpt>
      <trkpt lat="43.2706201" lon="-3.1967125">
        <ele>166.819992</ele>
        <time>2021-01-31T17:48:15.331Z</time>
      </trkpt>
      <trkpt lat="43.2705382" lon="-3.1968305">
        <ele>166.819992</ele>
        <time>2021-01-31T17:49:24.667Z</time>
      </trkpt>
      <trkpt lat="43.2704170" lon="-3.1969700">
        <ele>166.819992</ele>
        <time>2021-01-31T17:48:15.963Z</time>
      </trkpt>
      <trkpt lat="43.2703350" lon="-3.1972704">
        <ele>166.819992</ele>
        <time>2021-01-31T17:49:23.594Z</time>
      </trkpt>
      <trkpt lat="43.2702920" lon="-3.1976137">
        <ele>166.819992</ele>
        <time>2021-01-31T17:48:16.498Z</time>
      </trkpt>
      <trkpt lat="43.2702569" lon="-3.1978605">
        <ele>166.819992</ele>
        <time>2021-01-31T17:49:22.426Z</time>
      </trkpt>
      <trkpt lat="43.2702764" lon="-3.1981716">
        <ele>166.819992</ele>
        <time>2021-01-31T17:48:17.035Z</time>
      </trkpt>
      <trkpt lat="43.2702804" lon="-3.1984184">
        <ele>166.819992</ele>
        <time>2021-01-31T17:49:21.514Z</time>
      </trkpt>
      <trkpt lat="43.2703545" lon="-3.1986222">
        <ele>166.819992</ele>
        <time>2021-01-31T17:48:17.634Z</time>
      </trkpt>
      <trkpt lat="43.2704366" lon="-3.1988261">
        <ele>166.819992</ele>
        <time>2021-01-31T17:49:20.572Z</time>
      </trkpt>
      <trkpt lat="43.2705733" lon="-3.1990299">
        <ele>166.819992</ele>
        <time>2021-01-31T17:48:18.762Z</time>
      </trkpt>
      <trkpt lat="43.2707100" lon="-3.1993303">
        <ele>166.819992</ele>
        <time>2021-01-31T17:49:19.370Z</time>
      </trkpt>
      <trkpt lat="43.2707764" lon="-3.1995449">
        <ele>166.819992</ele>
        <time>2021-01-31T17:48:19.898Z</time>
      </trkpt>
      <trkpt lat="43.2708708" lon="-3.1997058">
        <ele>166.819992</ele>
        <time>2021-01-31T17:49:15.619Z</time>
      </trkpt>
      <trkpt lat="43.2709756" lon="-3.1997273">
        <ele>166.819992</ele>
        <time>2021-01-31T17:49:17.402Z</time>
      </trkpt>
      <trkpt lat="43.2710420" lon="-3.1996522">
        <ele>166.819992</ele>
        <time>2021-01-31T17:48:20.794Z</time>
      </trkpt>
      <trkpt lat="43.2710420" lon="-3.1990728">
        <ele>166.819992</ele>
        <time>2021-01-31T17:48:21.643Z</time>
      </trkpt>
      <trkpt lat="43.2710610" lon="-3.1987403">
        <ele>166.819992</ele>
        <time>2021-01-31T17:49:12.834Z</time>
      </trkpt>
      <trkpt lat="43.2710576" lon="-3.1983862">
        <ele>166.819992</ele>
        <time>2021-01-31T17:48:22.147Z</time>
      </trkpt>
      <trkpt lat="43.2710845" lon="-3.1981609">
        <ele>166.819992</ele>
        <time>2021-01-31T17:49:11.554Z</time>
      </trkpt>
      <trkpt lat="43.2711357" lon="-3.1980214">
        <ele>166.819992</ele>
        <time>2021-01-31T17:48:22.658Z</time>
      </trkpt>
      <trkpt lat="43.2712407" lon="-3.1979034">
        <ele>166.819992</ele>
        <time>2021-01-31T17:49:09.747Z</time>
      </trkpt>
      <trkpt lat="43.2713857" lon="-3.1978712">
        <ele>166.819992</ele>
        <time>2021-01-31T17:48:23.298Z</time>
      </trkpt>
      <trkpt lat="43.2716044" lon="-3.1977425">
        <ele>166.819992</ele>
        <time>2021-01-31T17:48:23.858Z</time>
      </trkpt>
      <trkpt lat="43.2717250" lon="-3.1976459">
        <ele>166.819992</ele>
        <time>2021-01-31T17:49:07.778Z</time>
      </trkpt>
      <trkpt lat="43.2718232" lon="-3.1976996">
        <ele>166.819992</ele>
        <time>2021-01-31T17:48:24.555Z</time>
      </trkpt>
      <trkpt lat="43.2718969" lon="-3.1977425">
        <ele>166.819992</ele>
        <time>2021-01-31T17:49:06.194Z</time>
      </trkpt>
      <trkpt lat="43.2719013" lon="-3.1978712">
        <ele>166.819992</ele>
        <time>2021-01-31T17:48:25.427Z</time>
      </trkpt>
      <trkpt lat="43.2718735" lon="-3.1979892">
        <ele>166.819992</ele>
        <time>2021-01-31T17:49:04.675Z</time>
      </trkpt>
      <trkpt lat="43.2717485" lon="-3.1981073">
        <ele>166.819992</ele>
        <time>2021-01-31T17:49:02.946Z</time>
      </trkpt>
      <trkpt lat="43.2716860" lon="-3.1983755">
        <ele>166.819992</ele>
        <time>2021-01-31T17:48:38.658Z</time>
      </trkpt>
      <trkpt lat="43.2717094" lon="-3.1986973">
        <ele>166.819992</ele>
        <time>2021-01-31T17:48:55.698Z</time>
      </trkpt>
      <trkpt lat="43.2717094" lon="-3.1987939">
        <ele>166.819992</ele>
        <time>2021-01-31T17:48:39.515Z</time>
      </trkpt>
      <trkpt lat="43.2717329" lon="-3.1989763">
        <ele>166.819992</ele>
        <time>2021-01-31T17:48:40.099Z</time>
      </trkpt>
      <trkpt lat="43.2718813" lon="-3.1993518">
        <ele>166.819992</ele>
        <time>2021-01-31T17:48:40.771Z</time>
      </trkpt>
      <trkpt lat="43.2719594" lon="-3.1996737">
        <ele>166.819992</ele>
        <time>2021-01-31T17:48:41.306Z</time>
      </trkpt>
      <trkpt lat="43.2720453" lon="-3.2000063">
        <ele>166.819992</ele>
        <time>2021-01-31T17:48:41.827Z</time>
      </trkpt>
      <trkpt lat="43.2720396" lon="-3.2001565">
        <ele>166.819992</ele>
        <time>2021-01-31T17:51:32.882Z</time>
      </trkpt>
      <trkpt lat="43.2721469" lon="-3.2002423">
        <ele>166.819992</ele>
        <time>2021-01-31T17:48:42.323Z</time>
      </trkpt>
      <trkpt lat="43.2722797" lon="-3.2001779">
        <ele>166.819992</ele>
        <time>2021-01-31T17:48:42.810Z</time>
      </trkpt>
      <trkpt lat="43.2722875" lon="-3.1998882">
        <ele>166.819992</ele>
        <time>2021-01-31T17:48:43.307Z</time>
      </trkpt>
      <trkpt lat="43.2723265" lon="-3.1996737">
        <ele>166.819992</ele>
        <time>2021-01-31T17:48:43.810Z</time>
      </trkpt>
      <trkpt lat="43.2723208" lon="-3.1994269">
        <ele>166.819992</ele>
        <time>2021-01-31T17:51:35.674Z</time>
      </trkpt>
      <trkpt lat="43.2723187" lon="-3.1992767">
        <ele>166.819992</ele>
        <time>2021-01-31T17:48:44.275Z</time>
      </trkpt>
      <trkpt lat="43.2723130" lon="-3.1990192">
        <ele>166.819992</ele>
        <time>2021-01-31T17:48:44.906Z</time>
      </trkpt>
      <trkpt lat="43.2723520" lon="-3.1987724">
        <ele>166.819992</ele>
        <time>2021-01-31T17:48:45.427Z</time>
      </trkpt>
      <trkpt lat="43.2724302" lon="-3.1986437">
        <ele>166.819992</ele>
        <time>2021-01-31T17:51:41.441Z</time>
      </trkpt>
      <trkpt lat="43.2725375" lon="-3.1987081">
        <ele>166.819992</ele>
        <time>2021-01-31T17:48:46.210Z</time>
      </trkpt>
      <trkpt lat="43.2726156" lon="-3.1989012">
        <ele>166.819992</ele>
        <time>2021-01-31T17:48:46.811Z</time>
      </trkpt>
      <trkpt lat="43.2727562" lon="-3.1991158">
        <ele>166.819992</ele>
        <time>2021-01-31T17:48:49.059Z</time>
      </trkpt>
      <trkpt lat="43.2727690" lon="-3.1992560">
        <ele>498.500000</ele>
        <time>2019-08-16T08:22:09.000Z</time>
      </trkpt>
      <trkpt lat="43.2727830" lon="-3.1996490">
        <ele>499.119995</ele>
        <time>2019-08-16T08:22:16.000Z</time>
      </trkpt>
      <trkpt lat="43.2727840" lon="-3.2000080">
        <ele>499.908020</ele>
        <time>2019-08-16T08:22:23.000Z</time>
      </trkpt>
      <trkpt lat="43.2727900" lon="-3.2002780">
        <ele>500.569000</ele>
        <time>2019-08-16T08:22:29.000Z</time>
      </trkpt>
      <trkpt lat="43.2727880" lon="-3.2004910">
        <ele>501.115021</ele>
        <time>2019-08-16T08:22:34.000Z</time>
      </trkpt>
      <trkpt lat="43.2728020" lon="-3.2007430">
        <ele>501.886993</ele>
        <time>2019-08-16T08:22:39.000Z</time>
      </trkpt>
      <trkpt lat="43.2728080" lon="-3.2010020">
        <ele>502.739990</ele>
        <time>2019-08-16T08:22:44.000Z</time>
      </trkpt>
      <trkpt lat="43.2728470" lon="-3.2012650">
        <ele>503.640991</ele>
        <time>2019-08-16T08:22:50.000Z</time>
      </trkpt>
      <trkpt lat="43.2728590" lon="-3.2014920">
        <ele>504.270996</ele>
        <time>2019-08-16T08:22:55.000Z</time>
      </trkpt>
      <trkpt lat="43.2728760" lon="-3.2017250">
        <ele>504.850006</ele>
        <time>2019-08-16T08:23:00.000Z</time>
      </trkpt>
      <trkpt lat="43.2729180" lon="-3.2019590">
        <ele>505.096985</ele>
        <time>2019-08-16T08:23:05.000Z</time>
      </trkpt>
      <trkpt lat="43.2729190" lon="-3.2023400">
        <ele>505.546997</ele>
        <time>2019-08-16T08:23:12.000Z</time>
      </trkpt>
      <trkpt lat="43.2729070" lon="-3.2025430">
        <ele>505.728973</ele>
        <time>2019-08-16T08:23:16.000Z</time>
      </trkpt>
      <trkpt lat="43.2728790" lon="-3.2029190">
        <ele>505.921021</ele>
        <time>2019-08-16T08:23:24.000Z</time>
      </trkpt>
      <trkpt lat="43.2728350" lon="-3.2032240">
        <ele>506.207977</ele>
        <time>2019-08-16T08:23:30.000Z</time>
      </trkpt>
      <trkpt lat="43.2727530" lon="-3.2034350">
        <ele>506.748016</ele>
        <time>2019-08-16T08:23:35.000Z</time>
      </trkpt>
      <trkpt lat="43.2726080" lon="-3.2035320">
        <ele>507.723999</ele>
        <time>2019-08-16T08:23:40.000Z</time>
      </trkpt>
      <trkpt lat="43.2724060" lon="-3.2035160">
        <ele>508.015991</ele>
        <time>2019-08-16T08:23:46.000Z</time>
      </trkpt>
      <trkpt lat="43.2722070" lon="-3.2035690">
        <ele>508.168976</ele>
        <time>2019-08-16T08:23:52.000Z</time>
      </trkpt>
      <trkpt lat="43.2720630" lon="-3.2037450">
        <ele>508.710022</ele>
        <time>2019-08-16T08:23:58.000Z</time>
      </trkpt>
      <trkpt lat="43.2719330" lon="-3.2039540">
        <ele>510.090027</ele>
        <time>2019-08-16T08:24:05.000Z</time>
      </trkpt>
      <trkpt lat="43.2717810" lon="-3.2042210">
        <ele>510.618988</ele>
        <time>2019-08-16T08:24:13.000Z</time>
      </trkpt>
      <trkpt lat="43.2716590" lon="-3.2045200">
        <ele>511.655975</ele>
        <time>2019-08-16T08:24:21.000Z</time>
      </trkpt>
      <trkpt lat="43.2715200" lon="-3.2047350">
        <ele>512.520996</ele>
        <time>2019-08-16T08:24:28.000Z</time>
      </trkpt>
      <trkpt lat="43.2713760" lon="-3.2048280">
        <ele>513.541016</ele>
        <time>2019-08-16T08:24:35.000Z</time>
      </trkpt>
      <trkpt lat="43.2712490" lon="-3.2048230">
        <ele>514.404968</ele>
        <time>2019-08-16T08:24:41.000Z</time>
      </trkpt>
      <trkpt lat="43.2710770" lon="-3.2046850">
        <ele>514.908020</ele>
        <time>2019-08-16T08:24:48.000Z</time>
      </trkpt>
      <trkpt lat="43.2708480" lon="-3.2045350">
        <ele>515.645996</ele>
        <time>2019-08-16T08:24:56.000Z</time>
      </trkpt>
      <trkpt lat="43.2705860" lon="-3.2044130">
        <ele>516.122009</ele>
        <time>2019-08-16T08:25:04.000Z</time>
      </trkpt>
      <trkpt lat="43.2703150" lon="-3.2043930">
        <ele>516.283997</ele>
        <time>2019-08-16T08:25:11.000Z</time>
      </trkpt>
      <trkpt lat="43.2701210" lon="-3.2043930">
        <ele>516.336975</ele>
        <time>2019-08-16T08:25:17.000Z</time>
      </trkpt>
      <trkpt lat="43.2699340" lon="-3.2044890">
        <ele>517.757996</ele>
        <time>2019-08-16T08:25:24.000Z</time>
      </trkpt>
      <trkpt lat="43.2697720" lon="-3.2044630">
        <ele>518.427979</ele>
        <time>2019-08-16T08:25:31.000Z</time>
      </trkpt>
      <trkpt lat="43.2696540" lon="-3.2043930">
        <ele>518.716980</ele>
        <time>2019-08-16T08:25:37.000Z</time>
      </trkpt>
      <trkpt lat="43.2694950" lon="-3.2043290">
        <ele>518.763977</ele>
        <time>2019-08-16T08:25:44.000Z</time>
      </trkpt>
      <trkpt lat="43.2692420" lon="-3.2041960">
        <ele>518.476013</ele>
        <time>2019-08-16T08:25:54.000Z</time>
      </trkpt>
      <trkpt lat="43.2691180" lon="-3.2042600">
        <ele>528.190002</ele>
        <time>2019-08-16T08:32:07.000Z</time>
      </trkpt>
      <trkpt lat="43.2691990" lon="-3.2043370">
        <ele>529.119019</ele>
        <time>2019-08-16T08:32:13.000Z</time>
      </trkpt>
      <trkpt lat="43.2693840" lon="-3.2044230">
        <ele>530.507996</ele>
        <time>2019-08-16T08:32:24.000Z</time>
      </trkpt>
      <trkpt lat="43.2695690" lon="-3.2045210">
        <ele>531.551025</ele>
        <time>2019-08-16T08:32:35.000Z</time>
      </trkpt>
      <trkpt lat="43.2696720" lon="-3.2046630">
        <ele>532.096985</ele>
        <time>2019-08-16T08:32:42.000Z</time>
      </trkpt>
      <trkpt lat="43.2696390" lon="-3.2047930">
        <ele>531.919006</ele>
        <time>2019-08-16T08:32:47.000Z</time>
      </trkpt>
      <trkpt lat="43.2695080" lon="-3.2049790">
        <ele>532.572021</ele>
        <time>2019-08-16T08:32:55.000Z</time>
      </trkpt>
      <trkpt lat="43.2694160" lon="-3.2051310">
        <ele>533.292969</ele>
        <time>2019-08-16T08:33:02.000Z</time>
      </trkpt>
      <trkpt lat="43.2694150" lon="-3.2053330">
        <ele>533.263000</ele>
        <time>2019-08-16T08:33:09.000Z</time>
      </trkpt>
      <trkpt lat="43.2694420" lon="-3.2056360">
        <ele>533.631958</ele>
        <time>2019-08-16T08:33:19.000Z</time>
      </trkpt>
      <trkpt lat="43.2693960" lon="-3.2058650">
        <ele>534.419006</ele>
        <time>2019-08-16T08:33:27.000Z</time>
      </trkpt>
      <trkpt lat="43.2693170" lon="-3.2059940">
        <ele>535.338989</ele>
        <time>2019-08-16T08:33:33.000Z</time>
      </trkpt>
      <trkpt lat="43.2691880" lon="-3.2061280">
        <ele>537.401001</ele>
        <time>2019-08-16T08:33:42.000Z</time>
      </trkpt>
      <trkpt lat="43.2690580" lon="-3.2062750">
        <ele>541.421021</ele>
        <time>2019-08-16T08:33:52.000Z</time>
      </trkpt>
      <trkpt lat="43.2689730" lon="-3.2062960">
        <ele>544.507996</ele>
        <time>2019-08-16T08:33:59.000Z</time>
      </trkpt>
      <trkpt lat="43.2689320" lon="-3.2062810">
        <ele>546.356995</ele>
        <time>2019-08-16T08:34:04.000Z</time>
      </trkpt>
      <trkpt lat="43.2688690" lon="-3.2062610">
        <ele>549.523010</ele>
        <time>2019-08-16T08:34:11.000Z</time>
      </trkpt>
      <trkpt lat="43.2687630" lon="-3.2061940">
        <ele>552.544983</ele>
        <time>2019-08-16T08:34:18.000Z</time>
      </trkpt>
      <trkpt lat="43.2686580" lon="-3.2061900">
        <ele>554.867981</ele>
        <time>2019-08-16T08:34:24.000Z</time>
      </trkpt>
      <trkpt lat="43.2685590" lon="-3.2061740">
        <ele>556.458984</ele>
        <time>2019-08-16T08:34:30.000Z</time>
      </trkpt>
      <trkpt lat="43.2684100" lon="-3.2061600">
        <ele>560.419006</ele>
        <time>2019-08-16T08:34:39.000Z</time>
      </trkpt>
      <trkpt lat="43.2682710" lon="-3.2061750">
        <ele>563.858032</ele>
        <time>2019-08-16T08:34:46.000Z</time>
      </trkpt>
      <trkpt lat="43.2681480" lon="-3.2062550">
        <ele>565.975037</ele>
        <time>2019-08-16T08:34:53.000Z</time>
      </trkpt>
      <trkpt lat="43.2680420" lon="-3.2063040">
        <ele>567.135010</ele>
        <time>2019-08-16T08:34:59.000Z</time>
      </trkpt>
      <trkpt lat="43.2678920" lon="-3.2064150">
        <ele>568.486023</ele>
        <time>2019-08-16T08:35:07.000Z</time>
      </trkpt>
      <trkpt lat="43.2677760" lon="-3.2065140">
        <ele>569.314026</ele>
        <time>2019-08-16T08:35:14.000Z</time>
      </trkpt>
      <trkpt lat="43.2676610" lon="-3.2066800">
        <ele>570.307983</ele>
        <time>2019-08-16T08:35:21.000Z</time>
      </trkpt>
      <trkpt lat="43.2675440" lon="-3.2068860">
        <ele>570.156982</ele>
        <time>2019-08-16T08:35:29.000Z</time>
      </trkpt>
      <trkpt lat="43.2674650" lon="-3.2070290">
        <ele>570.062988</ele>
        <time>2019-08-16T08:35:36.000Z</time>
      </trkpt>
      <trkpt lat="43.2673960" lon="-3.2071120">
        <ele>570.145020</ele>
        <time>2019-08-16T08:35:43.000Z</time>
      </trkpt>
      <trkpt lat="43.2673090" lon="-3.2072240">
        <ele>570.187988</ele>
        <time>2019-08-16T08:35:49.000Z</time>
      </trkpt>
      <trkpt lat="43.2672040" lon="-3.2073990">
        <ele>569.968994</ele>
        <time>2019-08-16T08:35:57.000Z</time>
      </trkpt>
      <trkpt lat="43.2670350" lon="-3.2075400">
        <ele>568.699036</ele>
        <time>2019-08-16T08:36:03.000Z</time>
      </trkpt>
      <trkpt lat="43.2669430" lon="-3.2076390">
        <ele>567.288025</ele>
        <time>2019-08-16T08:36:06.000Z</time>
      </trkpt>
      <trkpt lat="43.2669290" lon="-3.2077260">
        <ele>565.585022</ele>
        <time>2019-08-16T08:36:08.000Z</time>
      </trkpt>
      <trkpt lat="43.2669410" lon="-3.2078400">
        <ele>564.020996</ele>
        <time>2019-08-16T08:36:11.000Z</time>
      </trkpt>
      <trkpt lat="43.2669830" lon="-3.2079160">
        <ele>563.140991</ele>
        <time>2019-08-16T08:36:15.000Z</time>
      </trkpt>
      <trkpt lat="43.2670400" lon="-3.2079940">
        <ele>563.705017</ele>
        <time>2019-08-16T08:36:19.000Z</time>
      </trkpt>
      <trkpt lat="43.2671730" lon="-3.2082410">
        <ele>563.308044</ele>
        <time>2019-08-16T08:36:23.000Z</time>
      </trkpt>
      <trkpt lat="43.2672410" lon="-3.2083830">
        <ele>562.786011</ele>
        <time>2019-08-16T08:36:25.000Z</time>
      </trkpt>
      <trkpt lat="43.2674020" lon="-3.2087630">
        <ele>561.452026</ele>
        <time>2019-08-16T08:36:31.000Z</time>
      </trkpt>
      <trkpt lat="43.2674230" lon="-3.2088240">
        <ele>561.424011</ele>
        <time>2019-08-16T08:36:32.000Z</time>
      </trkpt>
      <trkpt lat="43.2676250" lon="-3.2090640">
        <ele>561.136963</ele>
        <time>2019-08-16T08:36:38.000Z</time>
      </trkpt>
      <trkpt lat="43.2677660" lon="-3.2093050">
        <ele>561.057983</ele>
        <time>2019-08-16T08:36:44.000Z</time>
      </trkpt>
      <trkpt lat="43.2678810" lon="-3.2094340">
        <ele>560.528015</ele>
        <time>2019-08-16T08:36:49.000Z</time>
      </trkpt>
      <trkpt lat="43.2680770" lon="-3.2095930">
        <ele>560.127014</ele>
        <time>2019-08-16T08:36:56.000Z</time>
      </trkpt>
      <trkpt lat="43.2681350" lon="-3.2096400">
        <ele>560.454041</ele>
        <time>2019-08-16T08:37:01.000Z</time>
      </trkpt>
      <trkpt lat="43.2682210" lon="-3.2096630">
        <ele>562.035034</ele>
        <time>2019-08-16T08:37:06.000Z</time>
      </trkpt>
      <trkpt lat="43.2683230" lon="-3.2096750">
        <ele>563.585999</ele>
        <time>2019-08-16T08:37:11.000Z</time>
      </trkpt>
      <trkpt lat="43.2684140" lon="-3.2097330">
        <ele>564.514038</ele>
        <time>2019-08-16T08:37:17.000Z</time>
      </trkpt>
      <trkpt lat="43.2685040" lon="-3.2098180">
        <ele>564.507996</ele>
        <time>2019-08-16T08:37:22.000Z</time>
      </trkpt>
      <trkpt lat="43.2685250" lon="-3.2100420">
        <ele>562.536987</ele>
        <time>2019-08-16T08:37:27.000Z</time>
      </trkpt>
      <trkpt lat="43.2685420" lon="-3.2102940">
        <ele>557.223022</ele>
        <time>2019-08-16T08:37:33.000Z</time>
      </trkpt>
      <trkpt lat="43.2687130" lon="-3.2103760">
        <ele>552.575012</ele>
        <time>2019-08-16T08:37:39.000Z</time>
      </trkpt>
      <trkpt lat="43.2687480" lon="-3.2103980">
        <ele>551.778015</ele>
        <time>2019-08-16T08:37:40.000Z</time>
      </trkpt>
      <trkpt lat="43.2688990" lon="-3.2107170">
        <ele>548.138977</ele>
        <time>2019-08-16T08:37:46.000Z</time>
      </trkpt>
      <trkpt lat="43.2689460" lon="-3.2108550">
        <ele>546.259033</ele>
        <time>2019-08-16T08:37:50.000Z</time>
      </trkpt>
      <trkpt lat="43.2690220" lon="-3.2109740">
        <ele>544.468018</ele>
        <time>2019-08-16T08:37:55.000Z</time>
      </trkpt>
      <trkpt lat="43.2690360" lon="-3.2111570">
        <ele>543.074951</ele>
        <time>2019-08-16T08:37:58.000Z</time>
      </trkpt>
      <trkpt lat="43.2691500" lon="-3.2114590">
        <ele>540.677979</ele>
        <time>2019-08-16T08:38:03.000Z</time>
      </trkpt>
      <trkpt lat="43.2691880" lon="-3.2115130">
        <ele>539.932983</ele>
        <time>2019-08-16T08:38:04.000Z</time>
      </trkpt>
      <trkpt lat="43.2692810" lon="-3.2116420">
        <ele>538.426025</ele>
        <time>2019-08-16T08:38:06.000Z</time>
      </trkpt>
      <trkpt lat="43.2693470" lon="-3.2119930">
        <ele>534.108032</ele>
        <time>2019-08-16T08:38:10.000Z</time>
      </trkpt>
      <trkpt lat="43.2694130" lon="-3.2123740">
        <ele>529.350952</ele>
        <time>2019-08-16T08:38:14.000Z</time>
      </trkpt>
      <trkpt lat="43.2694960" lon="-3.2125500">
        <ele>528.337036</ele>
        <time>2019-08-16T08:38:16.000Z</time>
      </trkpt>
      <trkpt lat="43.2696340" lon="-3.2127820">
        <ele>525.539001</ele>
        <time>2019-08-16T08:38:19.000Z</time>
      </trkpt>
      <trkpt lat="43.2697930" lon="-3.2128470">
        <ele>523.122009</ele>
        <time>2019-08-16T08:38:23.000Z</time>
      </trkpt>
      <trkpt lat="43.2698570" lon="-3.2128370">
        <ele>522.043030</ele>
        <time>2019-08-16T08:38:28.000Z</time>
      </trkpt>
      <trkpt lat="43.2698910" lon="-3.2128370">
        <ele>522.112976</ele>
        <time>2019-08-16T08:38:30.000Z</time>
      </trkpt>
      <trkpt lat="43.2699520" lon="-3.2129320">
        <ele>521.692017</ele>
        <time>2019-08-16T08:38:35.000Z</time>
      </trkpt>
      <trkpt lat="43.2699220" lon="-3.2131280">
        <ele>520.919006</ele>
        <time>2019-08-16T08:38:42.000Z</time>
      </trkpt>
      <trkpt lat="43.2699420" lon="-3.2132250">
        <ele>521.499023</ele>
        <time>2019-08-16T08:38:48.000Z</time>
      </trkpt>
      <trkpt lat="43.2699800" lon="-3.2133090">
        <ele>522.906982</ele>
        <time>2019-08-16T08:38:55.000Z</time>
      </trkpt>
      <trkpt lat="43.2700200" lon="-3.2134270">
        <ele>523.927002</ele>
        <time>2019-08-16T08:39:01.000Z</time>
      </trkpt>
      <trkpt lat="43.2700920" lon="-3.2136370">
        <ele>523.708008</ele>
        <time>2019-08-16T08:39:06.000Z</time>
      </trkpt>
      <trkpt lat="43.2701740" lon="-3.2138160">
        <ele>523.132996</ele>
        <time>2019-08-16T08:39:09.000Z</time>
      </trkpt>
      <trkpt lat="43.2703220" lon="-3.2139260">
        <ele>522.338989</ele>
        <time>2019-08-16T08:39:13.000Z</time>
      </trkpt>
      <trkpt lat="43.2703490" lon="-3.2139380">
        <ele>522.281006</ele>
        <time>2019-08-16T08:39:14.000Z</time>
      </trkpt>
      <trkpt lat="43.2704730" lon="-3.2140650">
        <ele>524.093994</ele>
        <time>2019-08-16T08:39:22.000Z</time>
      </trkpt>
      <trkpt lat="43.2705430" lon="-3.2141700">
        <ele>526.114990</ele>
        <time>2019-08-16T08:39:28.000Z</time>
      </trkpt>
      <trkpt lat="43.2706090" lon="-3.2142920">
        <ele>527.794983</ele>
        <time>2019-08-16T08:39:34.000Z</time>
      </trkpt>
      <trkpt lat="43.2706820" lon="-3.2144520">
        <ele>529.624023</ele>
        <time>2019-08-16T08:39:41.000Z</time>
      </trkpt>
      <trkpt lat="43.2707590" lon="-3.2145380">
        <ele>530.971008</ele>
        <time>2019-08-16T08:39:47.000Z</time>
      </trkpt>
      <trkpt lat="43.2708740" lon="-3.2146750">
        <ele>532.758972</ele>
        <time>2019-08-16T08:39:56.000Z</time>
      </trkpt>
      <trkpt lat="43.2709050" lon="-3.2148110">
        <ele>533.302979</ele>
        <time>2019-08-16T08:40:00.000Z</time>
      </trkpt>
      <trkpt lat="43.2707880" lon="-3.2148980">
        <ele>532.822998</ele>
        <time>2019-08-16T08:40:05.000Z</time>
      </trkpt>
      <trkpt lat="43.2706920" lon="-3.2149620">
        <ele>532.208008</ele>
        <time>2019-08-16T08:40:08.000Z</time>
      </trkpt>
      <trkpt lat="43.2706310" lon="-3.2152780">
        <ele>530.619019</ele>
        <time>2019-08-16T08:40:12.000Z</time>
      </trkpt>
      <trkpt lat="43.2706460" lon="-3.2153670">
        <ele>530.645020</ele>
        <time>2019-08-16T08:40:13.000Z</time>
      </trkpt>
      <trkpt lat="43.2707500" lon="-3.2157610">
        <ele>525.546997</ele>
        <time>2019-08-16T08:40:18.000Z</time>
      </trkpt>
      <trkpt lat="43.2707680" lon="-3.2158600">
        <ele>525.570007</ele>
        <time>2019-08-16T08:40:19.000Z</time>
      </trkpt>
      <trkpt lat="43.2708570" lon="-3.2161370">
        <ele>522.991028</ele>
        <time>2019-08-16T08:40:22.000Z</time>
      </trkpt>
      <trkpt lat="43.2708870" lon="-3.2163660">
        <ele>522.221008</ele>
        <time>2019-08-16T08:40:25.000Z</time>
      </trkpt>
      <trkpt lat="43.2708640" lon="-3.2165490">
        <ele>522.650024</ele>
        <time>2019-08-16T08:40:30.000Z</time>
      </trkpt>
      <trkpt lat="43.2707870" lon="-3.2166800">
        <ele>524.257019</ele>
        <time>2019-08-16T08:40:36.000Z</time>
      </trkpt>
      <trkpt lat="43.2706650" lon="-3.2168110">
        <ele>525.411987</ele>
        <time>2019-08-16T08:40:43.000Z</time>
      </trkpt>
      <trkpt lat="43.2705790" lon="-3.2169510">
        <ele>525.632019</ele>
        <time>2019-08-16T08:40:50.000Z</time>
      </trkpt>
      <trkpt lat="43.2705500" lon="-3.2171090">
        <ele>526.505005</ele>
        <time>2019-08-16T08:40:56.000Z</time>
      </trkpt>
      <trkpt lat="43.2705210" lon="-3.2172770">
        <ele>527.007996</ele>
        <time>2019-08-16T08:41:02.000Z</time>
      </trkpt>
      <trkpt lat="43.2704600" lon="-3.2174930">
        <ele>526.815002</ele>
        <time>2019-08-16T08:41:08.000Z</time>
      </trkpt>
      <trkpt lat="43.2703740" lon="-3.2177360">
        <ele>526.421021</ele>
        <time>2019-08-16T08:41:13.000Z</time>
      </trkpt>
      <trkpt lat="43.2702920" lon="-3.2179040">
        <ele>526.163025</ele>
        <time>2019-08-16T08:41:17.000Z</time>
      </trkpt>
      <trkpt lat="43.2701720" lon="-3.2181530">
        <ele>526.015991</ele>
        <time>2019-08-16T08:41:23.000Z</time>
      </trkpt>
      <trkpt lat="43.2699860" lon="-3.2183930">
        <ele>525.146973</ele>
        <time>2019-08-16T08:41:28.000Z</time>
      </trkpt>
      <trkpt lat="43.2698470" lon="-3.2187500">
        <ele>523.177002</ele>
        <time>2019-08-16T08:41:32.000Z</time>
      </trkpt>
      <trkpt lat="43.2698350" lon="-3.2188690">
        <ele>522.546021</ele>
        <time>2019-08-16T08:41:33.000Z</time>
      </trkpt>
      <trkpt lat="43.2698610" lon="-3.2195210">
        <ele>519.932983</ele>
        <time>2019-08-16T08:41:39.000Z</time>
      </trkpt>
      <trkpt lat="43.2698680" lon="-3.2197970">
        <ele>519.018005</ele>
        <time>2019-08-16T08:41:42.000Z</time>
      </trkpt>
      <trkpt lat="43.2698320" lon="-3.2199440">
        <ele>519.298035</ele>
        <time>2019-08-16T08:41:46.000Z</time>
      </trkpt>
      <trkpt lat="43.2697560" lon="-3.2199730">
        <ele>521.017029</ele>
        <time>2019-08-16T08:41:52.000Z</time>
      </trkpt>
      <trkpt lat="43.2696280" lon="-3.2200430">
        <ele>522.408020</ele>
        <time>2019-08-16T08:41:58.000Z</time>
      </trkpt>
      <trkpt lat="43.2694950" lon="-3.2201320">
        <ele>523.035034</ele>
        <time>2019-08-16T08:42:03.000Z</time>
      </trkpt>
      <trkpt lat="43.2693420" lon="-3.2201750">
        <ele>523.551025</ele>
        <time>2019-08-16T08:42:09.000Z</time>
      </trkpt>
      <trkpt lat="43.2692690" lon="-3.2201860">
        <ele>523.752991</ele>
        <time>2019-08-16T08:42:13.000Z</time>
      </trkpt>
      <trkpt lat="43.2691670" lon="-3.2201930">
        <ele>524.015991</ele>
        <time>2019-08-16T08:42:18.000Z</time>
      </trkpt>
      <trkpt lat="43.2690260" lon="-3.2202340">
        <ele>524.437012</ele>
        <time>2019-08-16T08:42:24.000Z</time>
      </trkpt>
      <trkpt lat="43.2688740" lon="-3.2203240">
        <ele>525.096985</ele>
        <time>2019-08-16T08:42:31.000Z</time>
      </trkpt>
      <trkpt lat="43.2687890" lon="-3.2204380">
        <ele>525.986023</ele>
        <time>2019-08-16T08:42:37.000Z</time>
      </trkpt>
      <trkpt lat="43.2686930" lon="-3.2205250">
        <ele>526.783020</ele>
        <time>2019-08-16T08:42:42.000Z</time>
      </trkpt>
      <trkpt lat="43.2685130" lon="-3.2205970">
        <ele>527.984009</ele>
        <time>2019-08-16T08:42:49.000Z</time>
      </trkpt>
      <trkpt lat="43.2683900" lon="-3.2206420">
        <ele>528.507019</ele>
        <time>2019-08-16T08:42:54.000Z</time>
      </trkpt>
      <trkpt lat="43.2682660" lon="-3.2206590">
        <ele>529.517029</ele>
        <time>2019-08-16T08:43:00.000Z</time>
      </trkpt>
      <trkpt lat="43.2681630" lon="-3.2206640">
        <ele>530.607971</ele>
        <time>2019-08-16T08:43:05.000Z</time>
      </trkpt>
      <trkpt lat="43.2680320" lon="-3.2206440">
        <ele>530.832031</ele>
        <time>2019-08-16T08:43:10.000Z</time>
      </trkpt>
      <trkpt lat="43.2678760" lon="-3.2207650">
        <ele>530.538025</ele>
        <time>2019-08-16T08:43:15.000Z</time>
      </trkpt>
      <trkpt lat="43.2678150" lon="-3.2209900">
        <ele>530.020020</ele>
        <time>2019-08-16T08:43:19.000Z</time>
      </trkpt>
      <trkpt lat="43.2677020" lon="-3.2212130">
        <ele>529.783020</ele>
        <time>2019-08-16T08:43:24.000Z</time>
      </trkpt>
      <trkpt lat="43.2676400" lon="-3.2212720">
        <ele>529.823975</ele>
        <time>2019-08-16T08:43:26.000Z</time>
      </trkpt>
      <trkpt lat="43.2674680" lon="-3.2213350">
        <ele>530.633972</ele>
        <time>2019-08-16T08:43:32.000Z</time>
      </trkpt>
      <trkpt lat="43.2672950" lon="-3.2213710">
        <ele>531.372986</ele>
        <time>2019-08-16T08:43:38.000Z</time>
      </trkpt>
      <trkpt lat="43.2671880" lon="-3.2213860">
        <ele>531.830017</ele>
        <time>2019-08-16T08:43:43.000Z</time>
      </trkpt>
      <trkpt lat="43.2670790" lon="-3.2213920">
        <ele>531.944031</ele>
        <time>2019-08-16T08:43:48.000Z</time>
      </trkpt>
      <trkpt lat="43.2669630" lon="-3.2213860">
        <ele>532.304993</ele>
        <time>2019-08-16T08:43:53.000Z</time>
      </trkpt>
      <trkpt lat="43.2667790" lon="-3.2214100">
        <ele>533.215027</ele>
        <time>2019-08-16T08:43:59.000Z</time>
      </trkpt>
      <trkpt lat="43.2666270" lon="-3.2214330">
        <ele>534.208008</ele>
        <time>2019-08-16T08:44:05.000Z</time>
      </trkpt>
      <trkpt lat="43.2665420" lon="-3.2214280">
        <ele>535.178040</ele>
        <time>2019-08-16T08:44:10.000Z</time>
      </trkpt>
      <trkpt lat="43.2664380" lon="-3.2214240">
        <ele>535.864014</ele>
        <time>2019-08-16T08:44:16.000Z</time>
      </trkpt>
      <trkpt lat="43.2663110" lon="-3.2214160">
        <ele>536.575989</ele>
        <time>2019-08-16T08:44:22.000Z</time>
      </trkpt>
      <trkpt lat="43.2661930" lon="-3.2213690">
        <ele>536.979004</ele>
        <time>2019-08-16T08:44:28.000Z</time>
      </trkpt>
      <trkpt lat="43.2661460" lon="-3.2213380">
        <ele>537.460022</ele>
        <time>2019-08-16T08:44:31.000Z</time>
      </trkpt>
      <trkpt lat="43.2660580" lon="-3.2212550">
        <ele>538.669983</ele>
        <time>2019-08-16T08:44:37.000Z</time>
      </trkpt>
      <trkpt lat="43.2659200" lon="-3.2211830">
        <ele>539.578979</ele>
        <time>2019-08-16T08:44:43.000Z</time>
      </trkpt>
      <trkpt lat="43.2658950" lon="-3.2211720">
        <ele>539.635986</ele>
        <time>2019-08-16T08:44:44.000Z</time>
      </trkpt>
      <trkpt lat="43.2657540" lon="-3.2211960">
        <ele>540.880981</ele>
        <time>2019-08-16T08:44:51.000Z</time>
      </trkpt>
      <trkpt lat="43.2656670" lon="-3.2212460">
        <ele>541.661011</ele>
        <time>2019-08-16T08:44:55.000Z</time>
      </trkpt>
      <trkpt lat="43.2655820" lon="-3.2213350">
        <ele>542.216980</ele>
        <time>2019-08-16T08:45:00.000Z</time>
      </trkpt>
      <trkpt lat="43.2655190" lon="-3.2213960">
        <ele>542.307983</ele>
        <time>2019-08-16T08:45:03.000Z</time>
      </trkpt>
      <trkpt lat="43.2654460" lon="-3.2215010">
        <ele>542.932007</ele>
        <time>2019-08-16T08:45:09.000Z</time>
      </trkpt>
      <trkpt lat="43.2654040" lon="-3.2216520">
        <ele>544.418030</ele>
        <time>2019-08-16T08:45:16.000Z</time>
      </trkpt>
      <trkpt lat="43.2654360" lon="-3.2216530">
        <ele>544.840027</ele>
        <time>2019-08-16T08:45:19.000Z</time>
      </trkpt>
      <trkpt lat="43.2655220" lon="-3.2216280">
        <ele>545.382996</ele>
        <time>2019-08-16T08:45:24.000Z</time>
      </trkpt>
      <trkpt lat="43.2657510" lon="-3.2217010">
        <ele>546.763977</ele>
        <time>2019-08-16T08:45:36.000Z</time>
      </trkpt>
      <trkpt lat="43.2658900" lon="-3.2217660">
        <ele>548.523987</ele>
        <time>2019-08-16T08:45:45.000Z</time>
      </trkpt>
      <trkpt lat="43.2660030" lon="-3.2218110">
        <ele>550.053040</ele>
        <time>2019-08-16T08:45:52.000Z</time>
      </trkpt>
      <trkpt lat="43.2661320" lon="-3.2218690">
        <ele>551.890015</ele>
        <time>2019-08-16T08:45:59.000Z</time>
      </trkpt>
      <trkpt lat="43.2662740" lon="-3.2219230">
        <ele>553.711975</ele>
        <time>2019-08-16T08:46:08.000Z</time>
      </trkpt>
      <trkpt lat="43.2664030" lon="-3.2219670">
        <ele>555.231995</ele>
        <time>2019-08-16T08:46:16.000Z</time>
      </trkpt>
      <trkpt lat="43.2665360" lon="-3.2220260">
        <ele>556.705017</ele>
        <time>2019-08-16T08:46:24.000Z</time>
      </trkpt>
      <trkpt lat="43.2667100" lon="-3.2221070">
        <ele>559.108032</ele>
        <time>2019-08-16T08:46:34.000Z</time>
      </trkpt>
      <trkpt lat="43.2668580" lon="-3.2221740">
        <ele>560.455017</ele>
        <time>2019-08-16T08:46:42.000Z</time>
      </trkpt>
      <trkpt lat="43.2670290" lon="-3.2221880">
        <ele>561.611023</ele>
        <time>2019-08-16T08:46:50.000Z</time>
      </trkpt>
      <trkpt lat="43.2672030" lon="-3.2221610">
        <ele>562.553040</ele>
        <time>2019-08-16T08:46:58.000Z</time>
      </trkpt>
      <trkpt lat="43.2674030" lon="-3.2221200">
        <ele>562.976013</ele>
        <time>2019-08-16T08:47:06.000Z</time>
      </trkpt>
      <trkpt lat="43.2676150" lon="-3.2220810">
        <ele>563.586975</ele>
        <time>2019-08-16T08:47:13.000Z</time>
      </trkpt>
      <trkpt lat="43.2678430" lon="-3.2220040">
        <ele>563.897034</ele>
        <time>2019-08-16T08:47:21.000Z</time>
      </trkpt>
      <trkpt lat="43.2680310" lon="-3.2219560">
        <ele>564.185974</ele>
        <time>2019-08-16T08:47:27.000Z</time>
      </trkpt>
      <trkpt lat="43.2682470" lon="-3.2219310">
        <ele>564.643005</ele>
        <time>2019-08-16T08:47:34.000Z</time>
      </trkpt>
      <trkpt lat="43.2684460" lon="-3.2219460">
        <ele>565.411987</ele>
        <time>2019-08-16T08:47:41.000Z</time>
      </trkpt>
      <trkpt lat="43.2686720" lon="-3.2218800">
        <ele>566.432007</ele>
        <time>2019-08-16T08:47:49.000Z</time>
      </trkpt>
      <trkpt lat="43.2688460" lon="-3.2217520">
        <ele>567.304993</ele>
        <time>2019-08-16T08:47:56.000Z</time>
      </trkpt>
      <trkpt lat="43.2690620" lon="-3.2216040">
        <ele>568.307983</ele>
        <time>2019-08-16T08:48:04.000Z</time>
      </trkpt>
      <trkpt lat="43.2692420" lon="-3.2215450">
        <ele>569.234985</ele>
        <time>2019-08-16T08:48:11.000Z</time>
      </trkpt>
      <trkpt lat="43.2694090" lon="-3.2215030">
        <ele>570.370972</ele>
        <time>2019-08-16T08:48:18.000Z</time>
      </trkpt>
      <trkpt lat="43.2695580" lon="-3.2214460">
        <ele>571.083008</ele>
        <time>2019-08-16T08:48:24.000Z</time>
      </trkpt>
      <trkpt lat="43.2697490" lon="-3.2213520">
        <ele>572.296021</ele>
        <time>2019-08-16T08:48:32.000Z</time>
      </trkpt>
      <trkpt lat="43.2698840" lon="-3.2212780">
        <ele>573.487000</ele>
        <time>2019-08-16T08:48:39.000Z</time>
      </trkpt>
      <trkpt lat="43.2700570" lon="-3.2211960">
        <ele>574.257019</ele>
        <time>2019-08-16T08:48:46.000Z</time>
      </trkpt>
      <trkpt lat="43.2702230" lon="-3.2211410">
        <ele>574.846008</ele>
        <time>2019-08-16T08:48:53.000Z</time>
      </trkpt>
      <trkpt lat="43.2703770" lon="-3.2210780">
        <ele>575.643005</ele>
        <time>2019-08-16T08:48:59.000Z</time>
      </trkpt>
      <trkpt lat="43.2705340" lon="-3.2210150">
        <ele>577.148987</ele>
        <time>2019-08-16T08:49:07.000Z</time>
      </trkpt>
      <trkpt lat="43.2706460" lon="-3.2209430">
        <ele>577.901978</ele>
        <time>2019-08-16T08:49:13.000Z</time>
      </trkpt>
      <trkpt lat="43.2707780" lon="-3.2208390">
        <ele>577.822021</ele>
        <time>2019-08-16T08:49:19.000Z</time>
      </trkpt>
      <trkpt lat="43.2709280" lon="-3.2207130">
        <ele>577.507996</ele>
        <time>2019-08-16T08:49:25.000Z</time>
      </trkpt>
      <trkpt lat="43.2710810" lon="-3.2205880">
        <ele>577.687988</ele>
        <time>2019-08-16T08:49:30.000Z</time>
      </trkpt>
      <trkpt lat="43.2713170" lon="-3.2203670">
        <ele>578.333984</ele>
        <time>2019-08-16T08:49:39.000Z</time>
      </trkpt>
      <trkpt lat="43.2714730" lon="-3.2201740">
        <ele>579.635986</ele>
        <time>2019-08-16T08:49:47.000Z</time>
      </trkpt>
      <trkpt lat="43.2716000" lon="-3.2199570">
        <ele>581.059021</ele>
        <time>2019-08-16T08:49:55.000Z</time>
      </trkpt>
      <trkpt lat="43.2717100" lon="-3.2197220">
        <ele>582.039978</ele>
        <time>2019-08-16T08:50:04.000Z</time>
      </trkpt>
      <trkpt lat="43.2718030" lon="-3.2195030">
        <ele>583.079956</ele>
        <time>2019-08-16T08:50:12.000Z</time>
      </trkpt>
      <trkpt lat="43.2719320" lon="-3.2192730">
        <ele>584.268982</ele>
        <time>2019-08-16T08:50:21.000Z</time>
      </trkpt>
      <trkpt lat="43.2721220" lon="-3.2190700">
        <ele>585.096008</ele>
        <time>2019-08-16T08:50:32.000Z</time>
      </trkpt>
      <trkpt lat="43.2722960" lon="-3.2189920">
        <ele>586.645020</ele>
        <time>2019-08-16T08:50:42.000Z</time>
      </trkpt>
      <trkpt lat="43.2724800" lon="-3.2189240">
        <ele>587.447021</ele>
        <time>2019-08-16T08:50:50.000Z</time>
      </trkpt>
      <trkpt lat="43.2726720" lon="-3.2187540">
        <ele>588.310974</ele>
        <time>2019-08-16T08:50:58.000Z</time>
      </trkpt>
      <trkpt lat="43.2727960" lon="-3.2185830">
        <ele>589.507996</ele>
        <time>2019-08-16T08:51:05.000Z</time>
      </trkpt>
      <trkpt lat="43.2729190" lon="-3.2184340">
        <ele>591.627991</ele>
        <time>2019-08-16T08:51:14.000Z</time>
      </trkpt>
      <trkpt lat="43.2730610" lon="-3.2182900">
        <ele>593.744019</ele>
        <time>2019-08-16T08:51:23.000Z</time>
      </trkpt>
      <trkpt lat="43.2732340" lon="-3.2181200">
        <ele>596.296021</ele>
        <time>2019-08-16T08:51:33.000Z</time>
      </trkpt>
      <trkpt lat="43.2734050" lon="-3.2179520">
        <ele>598.648987</ele>
        <time>2019-08-16T08:51:43.000Z</time>
      </trkpt>
      <trkpt lat="43.2735980" lon="-3.2178150">
        <ele>600.359985</ele>
        <time>2019-08-16T08:51:53.000Z</time>
      </trkpt>
      <trkpt lat="43.2738100" lon="-3.2176760">
        <ele>602.549988</ele>
        <time>2019-08-16T08:52:00.000Z</time>
      </trkpt>
      <trkpt lat="43.2739850" lon="-3.2174900">
        <ele>604.869019</ele>
        <time>2019-08-16T08:52:06.000Z</time>
      </trkpt>
      <trkpt lat="43.2741540" lon="-3.2172460">
        <ele>606.966003</ele>
        <time>2019-08-16T08:52:13.000Z</time>
      </trkpt>
      <trkpt lat="43.2741490" lon="-3.2170820">
        <ele>607.729004</ele>
        <time>2019-08-16T08:52:16.000Z</time>
      </trkpt>
      <trkpt lat="43.2742100" lon="-3.2167830">
        <ele>607.900024</ele>
        <time>2019-08-16T08:52:20.000Z</time>
      </trkpt>
      <trkpt lat="43.2743530" lon="-3.2166440">
        <ele>608.020020</ele>
        <time>2019-08-16T08:52:23.000Z</time>
      </trkpt>
      <trkpt lat="43.2745090" lon="-3.2165320">
        <ele>608.408020</ele>
        <time>2019-08-16T08:52:26.000Z</time>
      </trkpt>
      <trkpt lat="43.2747140" lon="-3.2162120">
        <ele>609.255981</ele>
        <time>2019-08-16T08:52:32.000Z</time>
      </trkpt>
      <trkpt lat="43.2747920" lon="-3.2160080">
        <ele>610.521973</ele>
        <time>2019-08-16T08:52:37.000Z</time>
      </trkpt>
      <trkpt lat="43.2747830" lon="-3.2159640">
        <ele>612.794006</ele>
        <time>2019-08-16T08:52:41.000Z</time>
      </trkpt>
      <trkpt lat="43.2747760" lon="-3.2159670">
        <ele>613.036987</ele>
        <time>2019-08-16T08:52:42.000Z</time>
      </trkpt>
      <trkpt lat="43.2747080" lon="-3.2159650">
        <ele>613.218018</ele>
        <time>2019-08-16T08:52:51.000Z</time>
      </trkpt>
      <trkpt lat="43.2746430" lon="-3.2159720">
        <ele>613.677979</ele>
        <time>2019-08-16T08:53:22.000Z</time>
      </trkpt>
      <trkpt lat="43.2746190" lon="-3.2158890">
        <ele>614.846985</ele>
        <time>2019-08-16T08:53:31.000Z</time>
      </trkpt>
      <trkpt lat="43.2746720" lon="-3.2157810">
        <ele>615.044006</ele>
        <time>2019-08-16T08:53:38.000Z</time>
      </trkpt>
      <trkpt lat="43.2747620" lon="-3.2156620">
        <ele>614.822998</ele>
        <time>2019-08-16T08:53:43.000Z</time>
      </trkpt>
      <trkpt lat="43.2748680" lon="-3.2154980">
        <ele>614.583008</ele>
        <time>2019-08-16T08:53:48.000Z</time>
      </trkpt>
      <trkpt lat="43.2750080" lon="-3.2151670">
        <ele>614.611023</ele>
        <time>2019-08-16T08:53:55.000Z</time>
      </trkpt>
      <trkpt lat="43.2751000" lon="-3.2149620">
        <ele>614.507996</ele>
        <time>2019-08-16T08:53:59.000Z</time>
      </trkpt>
      <trkpt lat="43.2752780" lon="-3.2147190">
        <ele>614.745972</ele>
        <time>2019-08-16T08:54:06.000Z</time>
      </trkpt>
      <trkpt lat="43.2754230" lon="-3.2145800">
        <ele>615.762024</ele>
        <time>2019-08-16T08:54:13.000Z</time>
      </trkpt>
      <trkpt lat="43.2754530" lon="-3.2145680">
        <ele>615.963989</ele>
        <time>2019-08-16T08:54:15.000Z</time>
      </trkpt>
      <trkpt lat="43.2755310" lon="-3.2146450">
        <ele>617.117004</ele>
        <time>2019-08-16T08:54:21.000Z</time>
      </trkpt>
      <trkpt lat="43.2756090" lon="-3.2147580">
        <ele>618.977966</ele>
        <time>2019-08-16T08:54:29.000Z</time>
      </trkpt>
      <trkpt lat="43.2756900" lon="-3.2148530">
        <ele>620.888000</ele>
        <time>2019-08-16T08:54:35.000Z</time>
      </trkpt>
      <trkpt lat="43.2757780" lon="-3.2149490">
        <ele>622.447021</ele>
        <time>2019-08-16T08:54:42.000Z</time>
      </trkpt>
      <trkpt lat="43.2758700" lon="-3.2150420">
        <ele>623.744019</ele>
        <time>2019-08-16T08:54:48.000Z</time>
      </trkpt>
      <trkpt lat="43.2759720" lon="-3.2151260">
        <ele>625.380981</ele>
        <time>2019-08-16T08:54:55.000Z</time>
      </trkpt>
      <trkpt lat="43.2760960" lon="-3.2152330">
        <ele>627.561035</ele>
        <time>2019-08-16T08:55:03.000Z</time>
      </trkpt>
      <trkpt lat="43.2761120" lon="-3.2152640">
        <ele>627.716980</ele>
        <time>2019-08-16T08:55:05.000Z</time>
      </trkpt>
      <trkpt lat="43.2762170" lon="-3.2153920">
        <ele>629.507996</ele>
        <time>2019-08-16T08:55:13.000Z</time>
      </trkpt>
      <trkpt lat="43.2763290" lon="-3.2155200">
        <ele>631.821960</ele>
        <time>2019-08-16T08:55:21.000Z</time>
      </trkpt>
      <trkpt lat="43.2764500" lon="-3.2156570">
        <ele>633.927979</ele>
        <time>2019-08-16T08:55:29.000Z</time>
      </trkpt>
      <trkpt lat="43.2765680" lon="-3.2157860">
        <ele>635.549988</ele>
        <time>2019-08-16T08:55:37.000Z</time>
      </trkpt>
      <trkpt lat="43.2766730" lon="-3.2158900">
        <ele>636.772949</ele>
        <time>2019-08-16T08:55:44.000Z</time>
      </trkpt>
      <trkpt lat="43.2767860" lon="-3.2159880">
        <ele>638.473999</ele>
        <time>2019-08-16T08:55:51.000Z</time>
      </trkpt>
      <trkpt lat="43.2769590" lon="-3.2160080">
        <ele>639.813965</ele>
        <time>2019-08-16T08:55:59.000Z</time>
      </trkpt>
      <trkpt lat="43.2771240" lon="-3.2159700">
        <ele>641.492981</ele>
        <time>2019-08-16T08:56:06.000Z</time>
      </trkpt>
      <trkpt lat="43.2772180" lon="-3.2158520">
        <ele>642.719971</ele>
        <time>2019-08-16T08:56:12.000Z</time>
      </trkpt>
      <trkpt lat="43.2772400" lon="-3.2156620">
        <ele>643.735962</ele>
        <time>2019-08-16T08:56:19.000Z</time>
      </trkpt>
      <trkpt lat="43.2772560" lon="-3.2154290">
        <ele>644.617004</ele>
        <time>2019-08-16T08:56:27.000Z</time>
      </trkpt>
      <trkpt lat="43.2772770" lon="-3.2152050">
        <ele>644.417969</ele>
        <time>2019-08-16T08:56:31.000Z</time>
      </trkpt>
      <trkpt lat="43.2773570" lon="-3.2148780">
        <ele>643.408020</ele>
        <time>2019-08-16T08:56:35.000Z</time>
      </trkpt>
      <trkpt lat="43.2776570" lon="-3.2143520">
        <ele>640.786987</ele>
        <time>2019-08-16T08:56:41.000Z</time>
      </trkpt>
      <trkpt lat="43.2778820" lon="-3.2138350">
        <ele>638.093018</ele>
        <time>2019-08-16T08:56:46.000Z</time>
      </trkpt>
      <trkpt lat="43.2780970" lon="-3.2134290">
        <ele>635.555054</ele>
        <time>2019-08-16T08:56:50.000Z</time>
      </trkpt>
      <trkpt lat="43.2784990" lon="-3.2130800">
        <ele>633.057983</ele>
        <time>2019-08-16T08:56:55.000Z</time>
      </trkpt>
      <trkpt lat="43.2788620" lon="-3.2128150">
        <ele>630.158997</ele>
        <time>2019-08-16T08:56:59.000Z</time>
      </trkpt>
      <trkpt lat="43.2792030" lon="-3.2127530">
        <ele>627.689026</ele>
        <time>2019-08-16T08:57:03.000Z</time>
      </trkpt>
      <trkpt lat="43.2793660" lon="-3.2128520">
        <ele>626.918030</ele>
        <time>2019-08-16T08:57:05.000Z</time>
      </trkpt>
      <trkpt lat="43.2794510" lon="-3.2129810">
        <ele>626.895020</ele>
        <time>2019-08-16T08:57:07.000Z</time>
      </trkpt>
      <trkpt lat="43.2795650" lon="-3.2132290">
        <ele>627.374023</ele>
        <time>2019-08-16T08:57:12.000Z</time>
      </trkpt>
      <trkpt lat="43.2797010" lon="-3.2133240">
        <ele>628.255981</ele>
        <time>2019-08-16T08:57:18.000Z</time>
      </trkpt>
      <trkpt lat="43.2798560" lon="-3.2134090">
        <ele>629.921021</ele>
        <time>2019-08-16T08:57:25.000Z</time>
      </trkpt>
      <trkpt lat="43.2800630" lon="-3.2134790">
        <ele>631.507996</ele>
        <time>2019-08-16T08:57:33.000Z</time>
      </trkpt>
      <trkpt lat="43.2801590" lon="-3.2135510">
        <ele>632.010986</ele>
        <time>2019-08-16T08:57:38.000Z</time>
      </trkpt>
      <trkpt lat="43.2802680" lon="-3.2136320">
        <ele>632.856995</ele>
        <time>2019-08-16T08:57:44.000Z</time>
      </trkpt>
      <trkpt lat="43.2803950" lon="-3.2136510">
        <ele>633.278992</ele>
        <time>2019-08-16T08:57:49.000Z</time>
      </trkpt>
      <trkpt lat="43.2805110" lon="-3.2136150">
        <ele>633.591980</ele>
        <time>2019-08-16T08:57:55.000Z</time>
      </trkpt>
      <trkpt lat="43.2806370" lon="-3.2135990">
        <ele>634.472961</ele>
        <time>2019-08-16T08:58:00.000Z</time>
      </trkpt>
      <trkpt lat="43.2808880" lon="-3.2135260">
        <ele>635.343018</ele>
        <time>2019-08-16T08:58:08.000Z</time>
      </trkpt>
      <trkpt lat="43.2810680" lon="-3.2134560">
        <ele>635.682007</ele>
        <time>2019-08-16T08:58:13.000Z</time>
      </trkpt>
      <trkpt lat="43.2812310" lon="-3.2134400">
        <ele>635.729004</ele>
        <time>2019-08-16T08:58:19.000Z</time>
      </trkpt>
      <trkpt lat="43.2814680" lon="-3.2133520">
        <ele>635.815979</ele>
        <time>2019-08-16T08:58:25.000Z</time>
      </trkpt>
      <trkpt lat="43.2816830" lon="-3.2132510">
        <ele>635.375977</ele>
        <time>2019-08-16T08:58:30.000Z</time>
      </trkpt>
      <trkpt lat="43.2818890" lon="-3.2131070">
        <ele>636.612976</ele>
        <time>2019-08-16T08:58:37.000Z</time>
      </trkpt>
      <trkpt lat="43.2821340" lon="-3.2129630">
        <ele>638.708008</ele>
        <time>2019-08-16T08:58:46.000Z</time>
      </trkpt>
      <trkpt lat="43.2823650" lon="-3.2130120">
        <ele>640.874939</ele>
        <time>2019-08-16T08:58:54.000Z</time>
      </trkpt>
      <trkpt lat="43.2825500" lon="-3.2130690">
        <ele>642.421021</ele>
        <time>2019-08-16T08:59:00.000Z</time>
      </trkpt>
      <trkpt lat="43.2827320" lon="-3.2131450">
        <ele>644.172974</ele>
        <time>2019-08-16T08:59:07.000Z</time>
      </trkpt>
      <trkpt lat="43.2828770" lon="-3.2131750">
        <ele>645.715942</ele>
        <time>2019-08-16T08:59:13.000Z</time>
      </trkpt>
      <trkpt lat="43.2830740" lon="-3.2131750">
        <ele>647.517029</ele>
        <time>2019-08-16T08:59:21.000Z</time>
      </trkpt>
      <trkpt lat="43.2832290" lon="-3.2132120">
        <ele>648.347046</ele>
        <time>2019-08-16T08:59:28.000Z</time>
      </trkpt>
      <trkpt lat="43.2833460" lon="-3.2133220">
        <ele>649.066040</ele>
        <time>2019-08-16T08:59:34.000Z</time>
      </trkpt>
      <trkpt lat="43.2834970" lon="-3.2134770">
        <ele>650.293030</ele>
        <time>2019-08-16T08:59:43.000Z</time>
      </trkpt>
      <trkpt lat="43.2836050" lon="-3.2136010">
        <ele>651.799011</ele>
        <time>2019-08-16T08:59:50.000Z</time>
      </trkpt>
      <trkpt lat="43.2837570" lon="-3.2137400">
        <ele>652.807007</ele>
        <time>2019-08-16T08:59:58.000Z</time>
      </trkpt>
      <trkpt lat="43.2838970" lon="-3.2138460">
        <ele>654.127014</ele>
        <time>2019-08-16T09:00:06.000Z</time>
      </trkpt>
      <trkpt lat="43.2840620" lon="-3.2139760">
        <ele>655.807983</ele>
        <time>2019-08-16T09:00:16.000Z</time>
      </trkpt>
      <trkpt lat="43.2841550" lon="-3.2140820">
        <ele>656.942993</ele>
        <time>2019-08-16T09:00:23.000Z</time>
      </trkpt>
      <trkpt lat="43.2842860" lon="-3.2141670">
        <ele>658.069031</ele>
        <time>2019-08-16T09:00:30.000Z</time>
      </trkpt>
      <trkpt lat="43.2844860" lon="-3.2143010">
        <ele>659.761047</ele>
        <time>2019-08-16T09:00:40.000Z</time>
      </trkpt>
      <trkpt lat="43.2846950" lon="-3.2144300">
        <ele>661.653992</ele>
        <time>2019-08-16T09:00:50.000Z</time>
      </trkpt>
      <trkpt lat="43.2848800" lon="-3.2145540">
        <ele>663.354980</ele>
        <time>2019-08-16T09:00:59.000Z</time>
      </trkpt>
      <trkpt lat="43.2850400" lon="-3.2146840">
        <ele>664.715027</ele>
        <time>2019-08-16T09:01:08.000Z</time>
      </trkpt>
      <trkpt lat="43.2851160" lon="-3.2147680">
        <ele>665.273987</ele>
        <time>2019-08-16T09:01:13.000Z</time>
      </trkpt>
      <trkpt lat="43.2852740" lon="-3.2149080">
        <ele>668.030945</ele>
        <time>2019-08-16T09:01:22.000Z</time>
      </trkpt>
      <trkpt lat="43.2854280" lon="-3.2149900">
        <ele>670.062012</ele>
        <time>2019-08-16T09:01:31.000Z</time>
      </trkpt>
      <trkpt lat="43.2855920" lon="-3.2150290">
        <ele>671.382996</ele>
        <time>2019-08-16T09:01:39.000Z</time>
      </trkpt>
      <trkpt lat="43.2857800" lon="-3.2150690">
        <ele>672.811035</ele>
        <time>2019-08-16T09:01:48.000Z</time>
      </trkpt>
      <trkpt lat="43.2859380" lon="-3.2150840">
        <ele>674.408020</ele>
        <time>2019-08-16T09:01:56.000Z</time>
      </trkpt>
      <trkpt lat="43.2860610" lon="-3.2150570">
        <ele>676.389954</ele>
        <time>2019-08-16T09:02:04.000Z</time>
      </trkpt>
      <trkpt lat="43.2861300" lon="-3.2150780">
        <ele>676.115967</ele>
        <time>2019-08-16T09:02:09.000Z</time>
      </trkpt>
      <trkpt lat="43.2862280" lon="-3.2151640">
        <ele>675.138000</ele>
        <time>2019-08-16T09:02:12.000Z</time>
      </trkpt>
      <trkpt lat="43.2863180" lon="-3.2152630">
        <ele>673.830994</ele>
        <time>2019-08-16T09:02:14.000Z</time>
      </trkpt>
      <trkpt lat="43.2866350" lon="-3.2155170">
        <ele>669.841980</ele>
        <time>2019-08-16T09:02:19.000Z</time>
      </trkpt>
      <trkpt lat="43.2869820" lon="-3.2157790">
        <ele>667.292053</ele>
        <time>2019-08-16T09:02:24.000Z</time>
      </trkpt>
      <trkpt lat="43.2870430" lon="-3.2158180">
        <ele>666.630981</ele>
        <time>2019-08-16T09:02:25.000Z</time>
      </trkpt>
      <trkpt lat="43.2873450" lon="-3.2159810">
        <ele>663.828003</ele>
        <time>2019-08-16T09:02:29.000Z</time>
      </trkpt>
      <trkpt lat="43.2874030" lon="-3.2160510">
        <ele>663.129028</ele>
        <time>2019-08-16T09:02:30.000Z</time>
      </trkpt>
      <trkpt lat="43.2877140" lon="-3.2163520">
        <ele>660.000000</ele>
        <time>2019-08-16T09:02:35.000Z</time>
      </trkpt>
      <trkpt lat="43.2877660" lon="-3.2163960">
        <ele>659.819946</ele>
        <time>2019-08-16T09:02:36.000Z</time>
      </trkpt>
      <trkpt lat="43.2877970" lon="-3.2164440">
        <ele>659.507996</ele>
        <time>2019-08-16T09:02:37.000Z</time>
      </trkpt>
      <trkpt lat="43.2879270" lon="-3.2165650">
        <ele>659.716003</ele>
        <time>2019-08-16T09:02:42.000Z</time>
      </trkpt>
      <trkpt lat="43.2880440" lon="-3.2166670">
        <ele>660.332031</ele>
        <time>2019-08-16T09:02:47.000Z</time>
      </trkpt>
      <trkpt lat="43.2881900" lon="-3.2168010">
        <ele>662.054016</ele>
        <time>2019-08-16T09:02:54.000Z</time>
      </trkpt>
      <trkpt lat="43.2883000" lon="-3.2169200">
        <ele>663.617004</ele>
        <time>2019-08-16T09:03:00.000Z</time>
      </trkpt>
      <trkpt lat="43.2884230" lon="-3.2170800">
        <ele>664.877991</ele>
        <time>2019-08-16T09:03:07.000Z</time>
      </trkpt>
      <trkpt lat="43.2885900" lon="-3.2171960">
        <ele>666.328003</ele>
        <time>2019-08-16T09:03:14.000Z</time>
      </trkpt>
      <trkpt lat="43.2887590" lon="-3.2172660">
        <ele>668.187012</ele>
        <time>2019-08-16T09:03:21.000Z</time>
      </trkpt>
      <trkpt lat="43.2889010" lon="-3.2174120">
        <ele>669.583984</ele>
        <time>2019-08-16T09:03:27.000Z</time>
      </trkpt>
      <trkpt lat="43.2889750" lon="-3.2175320">
        <ele>669.156982</ele>
        <time>2019-08-16T09:03:29.000Z</time>
      </trkpt>
      <trkpt lat="43.2892290" lon="-3.2177380">
        <ele>667.099976</ele>
        <time>2019-08-16T09:03:33.000Z</time>
      </trkpt>
      <trkpt lat="43.2894670" lon="-3.2178410">
        <ele>665.819946</ele>
        <time>2019-08-16T09:03:36.000Z</time>
      </trkpt>
      <trkpt lat="43.2895480" lon="-3.2178670">
        <ele>665.208008</ele>
        <time>2019-08-16T09:03:37.000Z</time>
      </trkpt>
      <trkpt lat="43.2897930" lon="-3.2179530">
        <ele>663.129028</ele>
        <time>2019-08-16T09:03:40.000Z</time>
      </trkpt>
      <trkpt lat="43.2900980" lon="-3.2181370">
        <ele>660.075012</ele>
        <time>2019-08-16T09:03:44.000Z</time>
      </trkpt>
      <trkpt lat="43.2901660" lon="-3.2181590">
        <ele>659.346985</ele>
        <time>2019-08-16T09:03:45.000Z</time>
      </trkpt>
      <trkpt lat="43.2906540" lon="-3.2182850">
        <ele>654.890015</ele>
        <time>2019-08-16T09:03:52.000Z</time>
      </trkpt>
      <trkpt lat="43.2910200" lon="-3.2183100">
        <ele>652.750977</ele>
        <time>2019-08-16T09:03:57.000Z</time>
      </trkpt>
      <trkpt lat="43.2912770" lon="-3.2183020">
        <ele>651.020996</ele>
        <time>2019-08-16T09:04:00.000Z</time>
      </trkpt>
      <trkpt lat="43.2913550" lon="-3.2183570">
        <ele>651.030029</ele>
        <time>2019-08-16T09:04:01.000Z</time>
      </trkpt>
      <trkpt lat="43.2918910" lon="-3.2186530">
        <ele>646.887024</ele>
        <time>2019-08-16T09:04:07.000Z</time>
      </trkpt>
      <trkpt lat="43.2919920" lon="-3.2186980">
        <ele>645.991028</ele>
        <time>2019-08-16T09:04:08.000Z</time>
      </trkpt>
      <trkpt lat="43.2922010" lon="-3.2187630">
        <ele>644.280945</ele>
        <time>2019-08-16T09:04:10.000Z</time>
      </trkpt>
      <trkpt lat="43.2925940" lon="-3.2190280">
        <ele>640.518982</ele>
        <time>2019-08-16T09:04:14.000Z</time>
      </trkpt>
      <trkpt lat="43.2927650" lon="-3.2192380">
        <ele>638.408020</ele>
        <time>2019-08-16T09:04:16.000Z</time>
      </trkpt>
      <trkpt lat="43.2929870" lon="-3.2195910">
        <ele>635.122986</ele>
        <time>2019-08-16T09:04:19.000Z</time>
      </trkpt>
      <trkpt lat="43.2933410" lon="-3.2201000">
        <ele>629.448975</ele>
        <time>2019-08-16T09:04:24.000Z</time>
      </trkpt>
      <trkpt lat="43.2934260" lon="-3.2202610">
        <ele>627.471008</ele>
        <time>2019-08-16T09:04:27.000Z</time>
      </trkpt>
      <trkpt lat="43.2934920" lon="-3.2204420">
        <ele>624.374023</ele>
        <time>2019-08-16T09:04:32.000Z</time>
      </trkpt>
      <trkpt lat="43.2935310" lon="-3.2206600">
        <ele>622.655029</ele>
        <time>2019-08-16T09:04:38.000Z</time>
      </trkpt>
      <trkpt lat="43.2935240" lon="-3.2207040">
        <ele>622.395020</ele>
        <time>2019-08-16T09:04:39.000Z</time>
      </trkpt>
      <trkpt lat="43.2935090" lon="-3.2208230">
        <ele>621.763977</ele>
        <time>2019-08-16T09:04:41.000Z</time>
      </trkpt>
      <trkpt lat="43.2935710" lon="-3.2212420">
        <ele>619.091003</ele>
        <time>2019-08-16T09:04:46.000Z</time>
      </trkpt>
      <trkpt lat="43.2936260" lon="-3.2214770">
        <ele>616.663025</ele>
        <time>2019-08-16T09:04:50.000Z</time>
      </trkpt>
      <trkpt lat="43.2936410" lon="-3.2215460">
        <ele>615.643982</ele>
        <time>2019-08-16T09:04:53.000Z</time>
      </trkpt>
      <trkpt lat="43.2937170" lon="-3.2216180">
        <ele>614.018005</ele>
        <time>2019-08-16T09:04:59.000Z</time>
      </trkpt>
      <trkpt lat="43.2938140" lon="-3.2216080">
        <ele>614.908020</ele>
        <time>2019-08-16T09:05:05.000Z</time>
      </trkpt>
      <trkpt lat="43.2939640" lon="-3.2215460">
        <ele>617.989990</ele>
        <time>2019-08-16T09:05:14.000Z</time>
      </trkpt>
      <trkpt lat="43.2940280" lon="-3.2215260">
        <ele>618.415955</ele>
        <time>2019-08-16T09:05:17.000Z</time>
      </trkpt>
      <trkpt lat="43.2941430" lon="-3.2216250">
        <ele>619.447998</ele>
        <time>2019-08-16T09:05:24.000Z</time>
      </trkpt>
      <trkpt lat="43.2943020" lon="-3.2217920">
        <ele>620.110962</ele>
        <time>2019-08-16T09:05:34.000Z</time>
      </trkpt>
      <trkpt lat="43.2944490" lon="-3.2219390">
        <ele>620.432007</ele>
        <time>2019-08-16T09:05:42.000Z</time>
      </trkpt>
      <trkpt lat="43.2945610" lon="-3.2221340">
        <ele>620.762024</ele>
        <time>2019-08-16T09:05:50.000Z</time>
      </trkpt>
      <trkpt lat="43.2946500" lon="-3.2222880">
        <ele>621.020996</ele>
        <time>2019-08-16T09:05:57.000Z</time>
      </trkpt>
      <trkpt lat="43.2947470" lon="-3.2224000">
        <ele>621.247986</ele>
        <time>2019-08-16T09:06:03.000Z</time>
      </trkpt>
      <trkpt lat="43.2948260" lon="-3.2225520">
        <ele>621.497009</ele>
        <time>2019-08-16T09:06:09.000Z</time>
      </trkpt>
      <trkpt lat="43.2949060" lon="-3.2227660">
        <ele>620.922974</ele>
        <time>2019-08-16T09:06:14.000Z</time>
      </trkpt>
      <trkpt lat="43.2950020" lon="-3.2229020">
        <ele>620.325012</ele>
        <time>2019-08-16T09:06:19.000Z</time>
      </trkpt>
      <trkpt lat="43.2950970" lon="-3.2230290">
        <ele>620.607971</ele>
        <time>2019-08-16T09:06:25.000Z</time>
      </trkpt>
      <trkpt lat="43.2951680" lon="-3.2232720">
        <ele>621.232971</ele>
        <time>2019-08-16T09:06:32.000Z</time>
      </trkpt>
      <trkpt lat="43.2952260" lon="-3.2236010">
        <ele>621.819031</ele>
        <time>2019-08-16T09:06:39.000Z</time>
      </trkpt>
      <trkpt lat="43.2952660" lon="-3.2237660">
        <ele>622.491028</ele>
        <time>2019-08-16T09:06:43.000Z</time>
      </trkpt>
      <trkpt lat="43.2954310" lon="-3.2238490">
        <ele>623.133972</ele>
        <time>2019-08-16T09:06:48.000Z</time>
      </trkpt>
      <trkpt lat="43.2956900" lon="-3.2239420">
        <ele>621.934998</ele>
        <time>2019-08-16T09:06:53.000Z</time>
      </trkpt>
      <trkpt lat="43.2958020" lon="-3.2239970">
        <ele>621.395020</ele>
        <time>2019-08-16T09:06:55.000Z</time>
      </trkpt>
      <trkpt lat="43.2959880" lon="-3.2241690">
        <ele>620.563965</ele>
        <time>2019-08-16T09:06:59.000Z</time>
      </trkpt>
      <trkpt lat="43.2960680" lon="-3.2243920">
        <ele>620.260986</ele>
        <time>2019-08-16T09:07:04.000Z</time>
      </trkpt>
      <trkpt lat="43.2961250" lon="-3.2246110">
        <ele>620.473022</ele>
        <time>2019-08-16T09:07:10.000Z</time>
      </trkpt>
      <trkpt lat="43.2961940" lon="-3.2247590">
        <ele>621.684998</ele>
        <time>2019-08-16T09:07:15.000Z</time>
      </trkpt>
      <trkpt lat="43.2963410" lon="-3.2249430">
        <ele>623.013000</ele>
        <time>2019-08-16T09:07:23.000Z</time>
      </trkpt>
      <trkpt lat="43.2965250" lon="-3.2250600">
        <ele>622.907959</ele>
        <time>2019-08-16T09:07:29.000Z</time>
      </trkpt>
      <trkpt lat="43.2968120" lon="-3.2251700">
        <ele>622.770996</ele>
        <time>2019-08-16T09:07:37.000Z</time>
      </trkpt>
      <trkpt lat="43.2968900" lon="-3.2251880">
        <ele>622.836975</ele>
        <time>2019-08-16T09:07:39.000Z</time>
      </trkpt>
      <trkpt lat="43.2970210" lon="-3.2252760">
        <ele>623.019043</ele>
        <time>2019-08-16T09:07:43.000Z</time>
      </trkpt>
      <trkpt lat="43.2971550" lon="-3.2254180">
        <ele>623.531982</ele>
        <time>2019-08-16T09:07:50.000Z</time>
      </trkpt>
      <trkpt lat="43.2973490" lon="-3.2255280">
        <ele>624.632996</ele>
        <time>2019-08-16T09:07:58.000Z</time>
      </trkpt>
      <trkpt lat="43.2975460" lon="-3.2256130">
        <ele>624.353027</ele>
        <time>2019-08-16T09:08:04.000Z</time>
      </trkpt>
      <trkpt lat="43.2977860" lon="-3.2256830">
        <ele>624.751953</ele>
        <time>2019-08-16T09:08:12.000Z</time>
      </trkpt>
      <trkpt lat="43.2979710" lon="-3.2258150">
        <ele>625.718994</ele>
        <time>2019-08-16T09:08:20.000Z</time>
      </trkpt>
      <trkpt lat="43.2981370" lon="-3.2259790">
        <ele>627.027039</ele>
        <time>2019-08-16T09:08:27.000Z</time>
      </trkpt>
      <trkpt lat="43.2983260" lon="-3.2261400">
        <ele>628.467957</ele>
        <time>2019-08-16T09:08:34.000Z</time>
      </trkpt>
      <trkpt lat="43.2984790" lon="-3.2262710">
        <ele>629.314026</ele>
        <time>2019-08-16T09:08:41.000Z</time>
      </trkpt>
      <trkpt lat="43.2986620" lon="-3.2264080">
        <ele>629.507996</ele>
        <time>2019-08-16T09:08:49.000Z</time>
      </trkpt>
      <trkpt lat="43.2987820" lon="-3.2264610">
        <ele>629.585999</ele>
        <time>2019-08-16T09:08:54.000Z</time>
      </trkpt>
      <trkpt lat="43.2988490" lon="-3.2264570">
        <ele>629.081970</ele>
        <time>2019-08-16T09:08:59.000Z</time>
      </trkpt>
      <trkpt lat="43.2988680" lon="-3.2264610">
        <ele>628.783997</ele>
        <time>2019-08-16T09:09:00.000Z</time>
      </trkpt>
      <trkpt lat="43.2989610" lon="-3.2263970">
        <ele>628.277039</ele>
        <time>2019-08-16T09:09:04.000Z</time>
      </trkpt>
      <trkpt lat="43.2991070" lon="-3.2261710">
        <ele>628.888000</ele>
        <time>2019-08-16T09:09:12.000Z</time>
      </trkpt>
      <trkpt lat="43.2992570" lon="-3.2259920">
        <ele>629.658020</ele>
        <time>2019-08-16T09:09:20.000Z</time>
      </trkpt>
      <trkpt lat="43.2994200" lon="-3.2258670">
        <ele>630.666992</ele>
        <time>2019-08-16T09:09:28.000Z</time>
      </trkpt>
      <trkpt lat="43.2996110" lon="-3.2257610">
        <ele>631.614014</ele>
        <time>2019-08-16T09:09:36.000Z</time>
      </trkpt>
      <trkpt lat="43.2998290" lon="-3.2256170">
        <ele>632.925964</ele>
        <time>2019-08-16T09:09:44.000Z</time>
      </trkpt>
      <trkpt lat="43.2999810" lon="-3.2254810">
        <ele>633.447021</ele>
        <time>2019-08-16T09:09:50.000Z</time>
      </trkpt>
      <trkpt lat="43.3000940" lon="-3.2253460">
        <ele>634.310974</ele>
        <time>2019-08-16T09:09:56.000Z</time>
      </trkpt>
      <trkpt lat="43.3002390" lon="-3.2250840">
        <ele>635.608032</ele>
        <time>2019-08-16T09:10:05.000Z</time>
      </trkpt>
      <trkpt lat="43.3003390" lon="-3.2249800">
        <ele>636.236023</ele>
        <time>2019-08-16T09:10:10.000Z</time>
      </trkpt>
      <trkpt lat="43.3004310" lon="-3.2250720">
        <ele>637.121948</ele>
        <time>2019-08-16T09:10:15.000Z</time>
      </trkpt>
      <trkpt lat="43.3004430" lon="-3.2251010">
        <ele>637.153992</ele>
        <time>2019-08-16T09:10:16.000Z</time>
      </trkpt>
      <trkpt lat="43.3005790" lon="-3.2253240">
        <ele>638.587036</ele>
        <time>2019-08-16T09:10:24.000Z</time>
      </trkpt>
      <trkpt lat="43.3007260" lon="-3.2254930">
        <ele>639.438049</ele>
        <time>2019-08-16T09:10:31.000Z</time>
      </trkpt>
      <trkpt lat="43.3008980" lon="-3.2255170">
        <ele>640.347961</ele>
        <time>2019-08-16T09:10:37.000Z</time>
      </trkpt>
      <trkpt lat="43.3011810" lon="-3.2254520">
        <ele>642.187012</ele>
        <time>2019-08-16T09:10:47.000Z</time>
      </trkpt>
      <trkpt lat="43.3013370" lon="-3.2254550">
        <ele>643.123962</ele>
        <time>2019-08-16T09:10:52.000Z</time>
      </trkpt>
      <trkpt lat="43.3015600" lon="-3.2255090">
        <ele>644.611023</ele>
        <time>2019-08-16T09:11:00.000Z</time>
      </trkpt>
      <trkpt lat="43.3017210" lon="-3.2255530">
        <ele>645.621033</ele>
        <time>2019-08-16T09:11:06.000Z</time>
      </trkpt>
      <trkpt lat="43.3018910" lon="-3.2256010">
        <ele>646.903015</ele>
        <time>2019-08-16T09:11:12.000Z</time>
      </trkpt>
      <trkpt lat="43.3021650" lon="-3.2256740">
        <ele>649.208008</ele>
        <time>2019-08-16T09:11:22.000Z</time>
      </trkpt>
      <trkpt lat="43.3023880" lon="-3.2257430">
        <ele>651.085022</ele>
        <time>2019-08-16T09:11:31.000Z</time>
      </trkpt>
      <trkpt lat="43.3025590" lon="-3.2257150">
        <ele>652.981018</ele>
        <time>2019-08-16T09:11:38.000Z</time>
      </trkpt>
      <trkpt lat="43.3027590" lon="-3.2256220">
        <ele>654.233032</ele>
        <time>2019-08-16T09:11:45.000Z</time>
      </trkpt>
      <trkpt lat="43.3029580" lon="-3.2255450">
        <ele>655.865967</ele>
        <time>2019-08-16T09:11:53.000Z</time>
      </trkpt>
      <trkpt lat="43.3030690" lon="-3.2255220">
        <ele>656.376953</ele>
        <time>2019-08-16T09:11:58.000Z</time>
      </trkpt>
      <trkpt lat="43.3033450" lon="-3.2254540">
        <ele>657.966980</ele>
        <time>2019-08-16T09:12:07.000Z</time>
      </trkpt>
      <trkpt lat="43.3035350" lon="-3.2254420">
        <ele>659.396057</ele>
        <time>2019-08-16T09:12:14.000Z</time>
      </trkpt>
      <trkpt lat="43.3037540" lon="-3.2254510">
        <ele>661.333008</ele>
        <time>2019-08-16T09:12:22.000Z</time>
      </trkpt>
      <trkpt lat="43.3039610" lon="-3.2254970">
        <ele>663.295044</ele>
        <time>2019-08-16T09:12:30.000Z</time>
      </trkpt>
      <trkpt lat="43.3041840" lon="-3.2255960">
        <ele>665.348999</ele>
        <time>2019-08-16T09:12:39.000Z</time>
      </trkpt>
      <trkpt lat="43.3043870" lon="-3.2256430">
        <ele>667.322998</ele>
        <time>2019-08-16T09:12:47.000Z</time>
      </trkpt>
      <trkpt lat="43.3045910" lon="-3.2256440">
        <ele>668.708008</ele>
        <time>2019-08-16T09:12:55.000Z</time>
      </trkpt>
      <trkpt lat="43.3047240" lon="-3.2256360">
        <ele>670.062988</ele>
        <time>2019-08-16T09:13:01.000Z</time>
      </trkpt>
      <trkpt lat="43.3048950" lon="-3.2256520">
        <ele>671.678955</ele>
        <time>2019-08-16T09:13:08.000Z</time>
      </trkpt>
      <trkpt lat="43.3051130" lon="-3.2256550">
        <ele>672.710999</ele>
        <time>2019-08-16T09:13:16.000Z</time>
      </trkpt>
      <trkpt lat="43.3053360" lon="-3.2256450">
        <ele>674.053955</ele>
        <time>2019-08-16T09:13:23.000Z</time>
      </trkpt>
      <trkpt lat="43.3055120" lon="-3.2257150">
        <ele>675.414978</ele>
        <time>2019-08-16T09:13:30.000Z</time>
      </trkpt>
      <trkpt lat="43.3057500" lon="-3.2257560">
        <ele>676.244995</ele>
        <time>2019-08-16T09:13:38.000Z</time>
      </trkpt>
      <trkpt lat="43.3060180" lon="-3.2257250">
        <ele>678.063965</ele>
        <time>2019-08-16T09:13:47.000Z</time>
      </trkpt>
      <trkpt lat="43.3061790" lon="-3.2257040">
        <ele>679.320984</ele>
        <time>2019-08-16T09:13:53.000Z</time>
      </trkpt>
      <trkpt lat="43.3063360" lon="-3.2256600">
        <ele>680.644958</ele>
        <time>2019-08-16T09:13:59.000Z</time>
      </trkpt>
      <trkpt lat="43.3065130" lon="-3.2256160">
        <ele>682.646973</ele>
        <time>2019-08-16T09:14:06.000Z</time>
      </trkpt>
      <trkpt lat="43.3066990" lon="-3.2256000">
        <ele>684.411011</ele>
        <time>2019-08-16T09:14:13.000Z</time>
      </trkpt>
      <trkpt lat="43.3068850" lon="-3.2256340">
        <ele>686.007996</ele>
        <time>2019-08-16T09:14:20.000Z</time>
      </trkpt>
      <trkpt lat="43.3069990" lon="-3.2256590">
        <ele>686.717957</ele>
        <time>2019-08-16T09:14:25.000Z</time>
      </trkpt>
      <trkpt lat="43.3071990" lon="-3.2256580">
        <ele>686.844055</ele>
        <time>2019-08-16T09:14:33.000Z</time>
      </trkpt>
      <trkpt lat="43.3073840" lon="-3.2255830">
        <ele>689.656006</ele>
        <time>2019-08-16T09:14:41.000Z</time>
      </trkpt>
      <trkpt lat="43.3075120" lon="-3.2255450">
        <ele>690.319031</ele>
        <time>2019-08-16T09:14:46.000Z</time>
      </trkpt>
      <trkpt lat="43.3076710" lon="-3.2255670">
        <ele>693.039978</ele>
        <time>2019-08-16T09:14:53.000Z</time>
      </trkpt>
      <trkpt lat="43.3077600" lon="-3.2256270">
        <ele>695.250000</ele>
        <time>2019-08-16T09:14:59.000Z</time>
      </trkpt>
      <trkpt lat="43.3078680" lon="-3.2256780">
        <ele>696.648987</ele>
        <time>2019-08-16T09:15:05.000Z</time>
      </trkpt>
      <trkpt lat="43.3080070" lon="-3.2257580">
        <ele>698.436035</ele>
        <time>2019-08-16T09:15:14.000Z</time>
      </trkpt>
      <trkpt lat="43.3081170" lon="-3.2258020">
        <ele>699.525024</ele>
        <time>2019-08-16T09:15:21.000Z</time>
      </trkpt>
      <trkpt lat="43.3081890" lon="-3.2258300">
        <ele>700.626038</ele>
        <time>2019-08-16T09:15:26.000Z</time>
      </trkpt>
      <trkpt lat="43.3083070" lon="-3.2258050">
        <ele>702.308044</ele>
        <time>2019-08-16T09:15:33.000Z</time>
      </trkpt>
      <trkpt lat="43.3083800" lon="-3.2256890">
        <ele>703.408020</ele>
        <time>2019-08-16T09:15:39.000Z</time>
      </trkpt>
      <trkpt lat="43.3084510" lon="-3.2254970">
        <ele>704.916016</ele>
        <time>2019-08-16T09:15:47.000Z</time>
      </trkpt>
      <trkpt lat="43.3085090" lon="-3.2253350">
        <ele>706.862000</ele>
        <time>2019-08-16T09:15:54.000Z</time>
      </trkpt>
      <trkpt lat="43.3085550" lon="-3.2251860">
        <ele>708.473938</ele>
        <time>2019-08-16T09:16:01.000Z</time>
      </trkpt>
      <trkpt lat="43.3086200" lon="-3.2249990">
        <ele>709.927002</ele>
        <time>2019-08-16T09:16:09.000Z</time>
      </trkpt>
      <trkpt lat="43.3087000" lon="-3.2247670">
        <ele>712.098022</ele>
        <time>2019-08-16T09:16:19.000Z</time>
      </trkpt>
      <trkpt lat="43.3087730" lon="-3.2245220">
        <ele>714.148010</ele>
        <time>2019-08-16T09:16:29.000Z</time>
      </trkpt>
      <trkpt lat="43.3088210" lon="-3.2243650">
        <ele>715.216980</ele>
        <time>2019-08-16T09:16:36.000Z</time>
      </trkpt>
      <trkpt lat="43.3089080" lon="-3.2241260">
        <ele>717.163940</ele>
        <time>2019-08-16T09:16:46.000Z</time>
      </trkpt>
      <trkpt lat="43.3089760" lon="-3.2239210">
        <ele>718.819031</ele>
        <time>2019-08-16T09:16:54.000Z</time>
      </trkpt>
      <trkpt lat="43.3090610" lon="-3.2236560">
        <ele>720.608948</ele>
        <time>2019-08-16T09:17:04.000Z</time>
      </trkpt>
      <trkpt lat="43.3091300" lon="-3.2234340">
        <ele>722.519043</ele>
        <time>2019-08-16T09:17:13.000Z</time>
      </trkpt>
      <trkpt lat="43.3092050" lon="-3.2232430">
        <ele>724.007996</ele>
        <time>2019-08-16T09:17:21.000Z</time>
      </trkpt>
      <trkpt lat="43.3092970" lon="-3.2230840">
        <ele>725.284973</ele>
        <time>2019-08-16T09:17:29.000Z</time>
      </trkpt>
      <trkpt lat="43.3093960" lon="-3.2230460">
        <ele>726.331055</ele>
        <time>2019-08-16T09:17:35.000Z</time>
      </trkpt>
      <trkpt lat="43.3095290" lon="-3.2230770">
        <ele>727.263000</ele>
        <time>2019-08-16T09:17:42.000Z</time>
      </trkpt>
      <trkpt lat="43.3096620" lon="-3.2231270">
        <ele>727.726013</ele>
        <time>2019-08-16T09:17:49.000Z</time>
      </trkpt>
      <trkpt lat="43.3096960" lon="-3.2231670">
        <ele>728.086975</ele>
        <time>2019-08-16T09:17:54.000Z</time>
      </trkpt>
      <trkpt lat="43.3096560" lon="-3.2231290">
        <ele>727.696960</ele>
        <time>2019-08-16T09:19:31.000Z</time>
      </trkpt>
      <trkpt lat="43.3097610" lon="-3.2232400">
        <ele>727.436035</ele>
        <time>2019-08-16T09:20:41.000Z</time>
      </trkpt>
      <trkpt lat="43.3097480" lon="-3.2232470">
        <ele>727.593018</ele>
        <time>2019-08-16T09:20:48.000Z</time>
      </trkpt>
      <trkpt lat="43.3097240" lon="-3.2231690">
        <ele>727.162964</ele>
        <time>2019-08-16T09:21:57.000Z</time>
      </trkpt>
      <trkpt lat="43.3096870" lon="-3.2233200">
        <ele>727.143982</ele>
        <time>2019-08-16T09:22:06.000Z</time>
      </trkpt>
      <trkpt lat="43.3096780" lon="-3.2235290">
        <ele>726.717957</ele>
        <time>2019-08-16T09:22:12.000Z</time>
      </trkpt>
      <trkpt lat="43.3097060" lon="-3.2237730">
        <ele>725.807983</ele>
        <time>2019-08-16T09:22:17.000Z</time>
      </trkpt>
      <trkpt lat="43.3097540" lon="-3.2239690">
        <ele>724.670044</ele>
        <time>2019-08-16T09:22:21.000Z</time>
      </trkpt>
      <trkpt lat="43.3098200" lon="-3.2243420">
        <ele>722.736023</ele>
        <time>2019-08-16T09:22:26.000Z</time>
      </trkpt>
      <trkpt lat="43.3099040" lon="-3.2248840">
        <ele>720.128052</ele>
        <time>2019-08-16T09:22:31.000Z</time>
      </trkpt>
      <trkpt lat="43.3099440" lon="-3.2251280">
        <ele>718.260986</ele>
        <time>2019-08-16T09:22:33.000Z</time>
      </trkpt>
      <trkpt lat="43.3100090" lon="-3.2255260">
        <ele>715.851990</ele>
        <time>2019-08-16T09:22:36.000Z</time>
      </trkpt>
      <trkpt lat="43.3102570" lon="-3.2263460">
        <ele>709.691956</ele>
        <time>2019-08-16T09:22:42.000Z</time>
      </trkpt>
      <trkpt lat="43.3102960" lon="-3.2264730">
        <ele>708.790955</ele>
        <time>2019-08-16T09:22:43.000Z</time>
      </trkpt>
      <trkpt lat="43.3106030" lon="-3.2269970">
        <ele>704.977966</ele>
        <time>2019-08-16T09:22:48.000Z</time>
      </trkpt>
      <trkpt lat="43.3109630" lon="-3.2274830">
        <ele>701.754028</ele>
        <time>2019-08-16T09:22:53.000Z</time>
      </trkpt>
      <trkpt lat="43.3110300" lon="-3.2275720">
        <ele>701.756042</ele>
        <time>2019-08-16T09:22:54.000Z</time>
      </trkpt>
      <trkpt lat="43.3113950" lon="-3.2279450">
        <ele>699.011047</ele>
        <time>2019-08-16T09:22:59.000Z</time>
      </trkpt>
      <trkpt lat="43.3119350" lon="-3.2284580">
        <ele>697.108032</ele>
        <time>2019-08-16T09:23:07.000Z</time>
      </trkpt>
      <trkpt lat="43.3123030" lon="-3.2287400">
        <ele>694.939026</ele>
        <time>2019-08-16T09:23:12.000Z</time>
      </trkpt>
      <trkpt lat="43.3126540" lon="-3.2289930">
        <ele>692.464966</ele>
        <time>2019-08-16T09:23:16.000Z</time>
      </trkpt>
      <trkpt lat="43.3130090" lon="-3.2292220">
        <ele>690.296997</ele>
        <time>2019-08-16T09:23:20.000Z</time>
      </trkpt>
      <trkpt lat="43.3134790" lon="-3.2294860">
        <ele>686.320007</ele>
        <time>2019-08-16T09:23:25.000Z</time>
      </trkpt>
      <trkpt lat="43.3140840" lon="-3.2299540">
        <ele>679.221008</ele>
        <time>2019-08-16T09:23:31.000Z</time>
      </trkpt>
      <trkpt lat="43.3146150" lon="-3.2303000">
        <ele>673.531006</ele>
        <time>2019-08-16T09:23:36.000Z</time>
      </trkpt>
      <trkpt lat="43.3148460" lon="-3.2304620">
        <ele>672.020020</ele>
        <time>2019-08-16T09:23:39.000Z</time>
      </trkpt>
      <trkpt lat="43.3150250" lon="-3.2305650">
        <ele>672.797058</ele>
        <time>2019-08-16T09:23:43.000Z</time>
      </trkpt>
      <trkpt lat="43.3151350" lon="-3.2306090">
        <ele>674.121033</ele>
        <time>2019-08-16T09:23:48.000Z</time>
      </trkpt>
      <trkpt lat="43.3152500" lon="-3.2306660">
        <ele>674.240967</ele>
        <time>2019-08-16T09:23:54.000Z</time>
      </trkpt>
      <trkpt lat="43.3153750" lon="-3.2308010">
        <ele>673.505005</ele>
        <time>2019-08-16T09:24:02.000Z</time>
      </trkpt>
      <trkpt lat="43.3154770" lon="-3.2309580">
        <ele>671.607971</ele>
        <time>2019-08-16T09:24:08.000Z</time>
      </trkpt>
      <trkpt lat="43.3154960" lon="-3.2309900">
        <ele>670.286011</ele>
        <time>2019-08-16T09:24:09.000Z</time>
      </trkpt>
      <trkpt lat="43.3157200" lon="-3.2311880">
        <ele>668.082031</ele>
        <time>2019-08-16T09:24:14.000Z</time>
      </trkpt>
      <trkpt lat="43.3159600" lon="-3.2315760">
        <ele>665.044006</ele>
        <time>2019-08-16T09:24:19.000Z</time>
      </trkpt>
      <trkpt lat="43.3166540" lon="-3.2331410">
        <ele>653.416992</ele>
        <time>2019-08-16T09:24:33.000Z</time>
      </trkpt>
      <trkpt lat="43.3165930" lon="-3.2333980">
        <ele>645.097961</ele>
        <time>2019-08-16T09:24:35.000Z</time>
      </trkpt>
      <trkpt lat="43.3166150" lon="-3.2338310">
        <ele>636.347961</ele>
        <time>2019-08-16T09:24:39.000Z</time>
      </trkpt>
      <trkpt lat="43.3167790" lon="-3.2343190">
        <ele>623.646973</ele>
        <time>2019-08-16T09:24:44.000Z</time>
      </trkpt>
      <trkpt lat="43.3170840" lon="-3.2348840">
        <ele>616.453979</ele>
        <time>2019-08-16T09:24:49.000Z</time>
      </trkpt>
      <trkpt lat="43.3173020" lon="-3.2353290">
        <ele>613.237976</ele>
        <time>2019-08-16T09:24:53.000Z</time>
      </trkpt>
      <trkpt lat="43.3176550" lon="-3.2358770">
        <ele>609.770020</ele>
        <time>2019-08-16T09:24:59.000Z</time>
      </trkpt>
      <trkpt lat="43.3177380" lon="-3.2360300">
        <ele>608.517029</ele>
        <time>2019-08-16T09:25:01.000Z</time>
      </trkpt>
      <trkpt lat="43.3179900" lon="-3.2364300">
        <ele>606.908020</ele>
        <time>2019-08-16T09:25:07.000Z</time>
      </trkpt>
      <trkpt lat="43.3181620" lon="-3.2366560">
        <ele>606.237000</ele>
        <time>2019-08-16T09:25:11.000Z</time>
      </trkpt>
      <trkpt lat="43.3184560" lon="-3.2369040">
        <ele>605.422974</ele>
        <time>2019-08-16T09:25:17.000Z</time>
      </trkpt>
      <trkpt lat="43.3186330" lon="-3.2371300">
        <ele>604.724976</ele>
        <time>2019-08-16T09:25:23.000Z</time>
      </trkpt>
      <trkpt lat="43.3188150" lon="-3.2373490">
        <ele>604.757996</ele>
        <time>2019-08-16T09:25:30.000Z</time>
      </trkpt>
      <trkpt lat="43.3190230" lon="-3.2376550">
        <ele>604.999023</ele>
        <time>2019-08-16T09:25:39.000Z</time>
      </trkpt>
      <trkpt lat="43.3192380" lon="-3.2379670">
        <ele>608.338989</ele>
        <time>2019-08-16T09:25:48.000Z</time>
      </trkpt>
      <trkpt lat="43.3193670" lon="-3.2381540">
        <ele>608.768005</ele>
        <time>2019-08-16T09:25:53.000Z</time>
      </trkpt>
      <trkpt lat="43.3195800" lon="-3.2384480">
        <ele>607.575012</ele>
        <time>2019-08-16T09:25:58.000Z</time>
      </trkpt>
      <trkpt lat="43.3197730" lon="-3.2387530">
        <ele>606.224976</ele>
        <time>2019-08-16T09:26:03.000Z</time>
      </trkpt>
      <trkpt lat="43.3199710" lon="-3.2390040">
        <ele>606.426025</ele>
        <time>2019-08-16T09:26:09.000Z</time>
      </trkpt>
      <trkpt lat="43.3202010" lon="-3.2392830">
        <ele>607.708008</ele>
        <time>2019-08-16T09:26:16.000Z</time>
      </trkpt>
      <trkpt lat="43.3203240" lon="-3.2394740">
        <ele>608.807983</ele>
        <time>2019-08-16T09:26:21.000Z</time>
      </trkpt>
      <trkpt lat="43.3204850" lon="-3.2397870">
        <ele>608.955994</ele>
        <time>2019-08-16T09:26:27.000Z</time>
      </trkpt>
      <trkpt lat="43.3207510" lon="-3.2401930">
        <ele>607.242004</ele>
        <time>2019-08-16T09:26:34.000Z</time>
      </trkpt>
      <trkpt lat="43.3210150" lon="-3.2405030">
        <ele>605.963989</ele>
        <time>2019-08-16T09:26:40.000Z</time>
      </trkpt>
      <trkpt lat="43.3213420" lon="-3.2408260">
        <ele>603.976990</ele>
        <time>2019-08-16T09:26:45.000Z</time>
      </trkpt>
      <trkpt lat="43.3216360" lon="-3.2410980">
        <ele>601.638000</ele>
        <time>2019-08-16T09:26:49.000Z</time>
      </trkpt>
      <trkpt lat="43.3220470" lon="-3.2416010">
        <ele>597.877991</ele>
        <time>2019-08-16T09:26:55.000Z</time>
      </trkpt>
      <trkpt lat="43.3221250" lon="-3.2417150">
        <ele>597.286987</ele>
        <time>2019-08-16T09:26:57.000Z</time>
      </trkpt>
      <trkpt lat="43.3222480" lon="-3.2419010">
        <ele>599.114014</ele>
        <time>2019-08-16T09:27:02.000Z</time>
      </trkpt>
      <trkpt lat="43.3223070" lon="-3.2420340">
        <ele>601.076965</ele>
        <time>2019-08-16T09:27:06.000Z</time>
      </trkpt>
      <trkpt lat="43.3224350" lon="-3.2422470">
        <ele>602.860962</ele>
        <time>2019-08-16T09:27:13.000Z</time>
      </trkpt>
      <trkpt lat="43.3225960" lon="-3.2425200">
        <ele>604.427002</ele>
        <time>2019-08-16T09:27:21.000Z</time>
      </trkpt>
      <trkpt lat="43.3226840" lon="-3.2427720">
        <ele>605.107971</ele>
        <time>2019-08-16T09:27:27.000Z</time>
      </trkpt>
      <trkpt lat="43.3228020" lon="-3.2431660">
        <ele>605.270996</ele>
        <time>2019-08-16T09:27:34.000Z</time>
      </trkpt>
      <trkpt lat="43.3229550" lon="-3.2437030">
        <ele>603.367004</ele>
        <time>2019-08-16T09:27:41.000Z</time>
      </trkpt>
      <trkpt lat="43.3230930" lon="-3.2441300">
        <ele>600.968994</ele>
        <time>2019-08-16T09:27:45.000Z</time>
      </trkpt>
      <trkpt lat="43.3231320" lon="-3.2442570">
        <ele>600.081970</ele>
        <time>2019-08-16T09:27:46.000Z</time>
      </trkpt>
      <trkpt lat="43.3232180" lon="-3.2449400">
        <ele>595.353027</ele>
        <time>2019-08-16T09:27:51.000Z</time>
      </trkpt>
      <trkpt lat="43.3233860" lon="-3.2453790">
        <ele>593.132996</ele>
        <time>2019-08-16T09:27:55.000Z</time>
      </trkpt>
      <trkpt lat="43.3236400" lon="-3.2459500">
        <ele>591.062012</ele>
        <time>2019-08-16T09:28:01.000Z</time>
      </trkpt>
      <trkpt lat="43.3237020" lon="-3.2460970">
        <ele>589.778992</ele>
        <time>2019-08-16T09:28:04.000Z</time>
      </trkpt>
      <trkpt lat="43.3237960" lon="-3.2463310">
        <ele>588.041992</ele>
        <time>2019-08-16T09:28:10.000Z</time>
      </trkpt>
      <trkpt lat="43.3238730" lon="-3.2465530">
        <ele>586.921997</ele>
        <time>2019-08-16T09:28:16.000Z</time>
      </trkpt>
      <trkpt lat="43.3240310" lon="-3.2467890">
        <ele>585.914001</ele>
        <time>2019-08-16T09:28:21.000Z</time>
      </trkpt>
      <trkpt lat="43.3241420" lon="-3.2469000">
        <ele>585.608032</ele>
        <time>2019-08-16T09:28:25.000Z</time>
      </trkpt>
      <trkpt lat="43.3243570" lon="-3.2470490">
        <ele>585.778015</ele>
        <time>2019-08-16T09:28:31.000Z</time>
      </trkpt>
      <trkpt lat="43.3245790" lon="-3.2472670">
        <ele>585.484009</ele>
        <time>2019-08-16T09:28:37.000Z</time>
      </trkpt>
      <trkpt lat="43.3246550" lon="-3.2473400">
        <ele>585.536011</ele>
        <time>2019-08-16T09:28:39.000Z</time>
      </trkpt>
      <trkpt lat="43.3248830" lon="-3.2476020">
        <ele>586.419006</ele>
        <time>2019-08-16T09:28:46.000Z</time>
      </trkpt>
      <trkpt lat="43.3249690" lon="-3.2477040">
        <ele>586.679993</ele>
        <time>2019-08-16T09:28:49.000Z</time>
      </trkpt>
      <trkpt lat="43.3250860" lon="-3.2478800">
        <ele>586.580017</ele>
        <time>2019-08-16T09:28:53.000Z</time>
      </trkpt>
      <trkpt lat="43.3252840" lon="-3.2482760">
        <ele>585.278992</ele>
        <time>2019-08-16T09:29:00.000Z</time>
      </trkpt>
      <trkpt lat="43.3254780" lon="-3.2487750">
        <ele>584.685974</ele>
        <time>2019-08-16T09:29:08.000Z</time>
      </trkpt>
      <trkpt lat="43.3256130" lon="-3.2491010">
        <ele>584.723022</ele>
        <time>2019-08-16T09:29:14.000Z</time>
      </trkpt>
      <trkpt lat="43.3258210" lon="-3.2494710">
        <ele>585.682983</ele>
        <time>2019-08-16T09:29:22.000Z</time>
      </trkpt>
      <trkpt lat="43.3260490" lon="-3.2498230">
        <ele>588.210999</ele>
        <time>2019-08-16T09:29:31.000Z</time>
      </trkpt>
      <trkpt lat="43.3261420" lon="-3.2500670">
        <ele>589.208008</ele>
        <time>2019-08-16T09:29:37.000Z</time>
      </trkpt>
      <trkpt lat="43.3261440" lon="-3.2503540">
        <ele>589.676025</ele>
        <time>2019-08-16T09:29:42.000Z</time>
      </trkpt>
      <trkpt lat="43.3262350" lon="-3.2509060">
        <ele>588.072021</ele>
        <time>2019-08-16T09:29:49.000Z</time>
      </trkpt>
      <trkpt lat="43.3262810" lon="-3.2511650">
        <ele>586.763977</ele>
        <time>2019-08-16T09:29:53.000Z</time>
      </trkpt>
      <trkpt lat="43.3263600" lon="-3.2515290">
        <ele>585.036987</ele>
        <time>2019-08-16T09:29:59.000Z</time>
      </trkpt>
      <trkpt lat="43.3264000" lon="-3.2516730">
        <ele>584.338013</ele>
        <time>2019-08-16T09:30:01.000Z</time>
      </trkpt>
      <trkpt lat="43.3265000" lon="-3.2522340">
        <ele>582.518005</ele>
        <time>2019-08-16T09:30:07.000Z</time>
      </trkpt>
      <trkpt lat="43.3265950" lon="-3.2529180">
        <ele>580.557007</ele>
        <time>2019-08-16T09:30:14.000Z</time>
      </trkpt>
      <trkpt lat="43.3265980" lon="-3.2530160">
        <ele>580.333984</ele>
        <time>2019-08-16T09:30:15.000Z</time>
      </trkpt>
      <trkpt lat="43.3266710" lon="-3.2533890">
        <ele>579.437012</ele>
        <time>2019-08-16T09:30:19.000Z</time>
      </trkpt>
      <trkpt lat="43.3267660" lon="-3.2538840">
        <ele>578.749023</ele>
        <time>2019-08-16T09:30:25.000Z</time>
      </trkpt>
      <trkpt lat="43.3268120" lon="-3.2541180">
        <ele>579.213013</ele>
        <time>2019-08-16T09:30:29.000Z</time>
      </trkpt>
      <trkpt lat="43.3268520" lon="-3.2545120">
        <ele>580.807983</ele>
        <time>2019-08-16T09:30:37.000Z</time>
      </trkpt>
      <trkpt lat="43.3268850" lon="-3.2548840">
        <ele>582.756958</ele>
        <time>2019-08-16T09:30:45.000Z</time>
      </trkpt>
      <trkpt lat="43.3269420" lon="-3.2552530">
        <ele>585.953003</ele>
        <time>2019-08-16T09:30:55.000Z</time>
      </trkpt>
      <trkpt lat="43.3269950" lon="-3.2554940">
        <ele>588.085022</ele>
        <time>2019-08-16T09:31:02.000Z</time>
      </trkpt>
      <trkpt lat="43.3270270" lon="-3.2556660">
        <ele>589.928040</ele>
        <time>2019-08-16T09:31:08.000Z</time>
      </trkpt>
      <trkpt lat="43.3270480" lon="-3.2558260">
        <ele>591.559021</ele>
        <time>2019-08-16T09:31:14.000Z</time>
      </trkpt>
      <trkpt lat="43.3270900" lon="-3.2559410">
        <ele>592.799011</ele>
        <time>2019-08-16T09:31:20.000Z</time>
      </trkpt>
      <trkpt lat="43.3272130" lon="-3.2561410">
        <ele>593.018005</ele>
        <time>2019-08-16T09:31:26.000Z</time>
      </trkpt>
      <trkpt lat="43.3273840" lon="-3.2563960">
        <ele>592.424988</ele>
        <time>2019-08-16T09:31:31.000Z</time>
      </trkpt>
      <trkpt lat="43.3274580" lon="-3.2565220">
        <ele>591.971008</ele>
        <time>2019-08-16T09:31:33.000Z</time>
      </trkpt>
      <trkpt lat="43.3276870" lon="-3.2569440">
        <ele>591.140991</ele>
        <time>2019-08-16T09:31:40.000Z</time>
      </trkpt>
      <trkpt lat="43.3279420" lon="-3.2574130">
        <ele>590.715027</ele>
        <time>2019-08-16T09:31:47.000Z</time>
      </trkpt>
      <trkpt lat="43.3280830" lon="-3.2576830">
        <ele>590.307983</ele>
        <time>2019-08-16T09:31:52.000Z</time>
      </trkpt>
      <trkpt lat="43.3282550" lon="-3.2579630">
        <ele>590.421021</ele>
        <time>2019-08-16T09:31:58.000Z</time>
      </trkpt>
      <trkpt lat="43.3284950" lon="-3.2581730">
        <ele>591.617004</ele>
        <time>2019-08-16T09:32:05.000Z</time>
      </trkpt>
      <trkpt lat="43.3286360" lon="-3.2584690">
        <ele>592.619019</ele>
        <time>2019-08-16T09:32:12.000Z</time>
      </trkpt>
      <trkpt lat="43.3287950" lon="-3.2588200">
        <ele>592.242004</ele>
        <time>2019-08-16T09:32:19.000Z</time>
      </trkpt>
      <trkpt lat="43.3290020" lon="-3.2592840">
        <ele>591.842957</ele>
        <time>2019-08-16T09:32:27.000Z</time>
      </trkpt>
      <trkpt lat="43.3290580" lon="-3.2594110">
        <ele>591.333008</ele>
        <time>2019-08-16T09:32:29.000Z</time>
      </trkpt>
      <trkpt lat="43.3292590" lon="-3.2597090">
        <ele>590.612000</ele>
        <time>2019-08-16T09:32:34.000Z</time>
      </trkpt>
      <trkpt lat="43.3294710" lon="-3.2600150">
        <ele>590.148987</ele>
        <time>2019-08-16T09:32:39.000Z</time>
      </trkpt>
      <trkpt lat="43.3296430" lon="-3.2605510">
        <ele>588.513977</ele>
        <time>2019-08-16T09:32:45.000Z</time>
      </trkpt>
      <trkpt lat="43.3298110" lon="-3.2610400">
        <ele>586.954041</ele>
        <time>2019-08-16T09:32:51.000Z</time>
      </trkpt>
      <trkpt lat="43.3298800" lon="-3.2613700">
        <ele>586.008972</ele>
        <time>2019-08-16T09:32:55.000Z</time>
      </trkpt>
      <trkpt lat="43.3298670" lon="-3.2619230">
        <ele>583.307983</ele>
        <time>2019-08-16T09:33:00.000Z</time>
      </trkpt>
      <trkpt lat="43.3298120" lon="-3.2622420">
        <ele>582.145020</ele>
        <time>2019-08-16T09:33:03.000Z</time>
      </trkpt>
      <trkpt lat="43.3298220" lon="-3.2628620">
        <ele>580.190979</ele>
        <time>2019-08-16T09:33:09.000Z</time>
      </trkpt>
      <trkpt lat="43.3299430" lon="-3.2634320">
        <ele>578.473022</ele>
        <time>2019-08-16T09:33:14.000Z</time>
      </trkpt>
      <trkpt lat="43.3299510" lon="-3.2637910">
        <ele>577.125977</ele>
        <time>2019-08-16T09:33:17.000Z</time>
      </trkpt>
      <trkpt lat="43.3300120" lon="-3.2644320">
        <ele>575.776978</ele>
        <time>2019-08-16T09:33:23.000Z</time>
      </trkpt>
      <trkpt lat="43.3301040" lon="-3.2651450">
        <ele>574.286987</ele>
        <time>2019-08-16T09:33:30.000Z</time>
      </trkpt>
      <trkpt lat="43.3301180" lon="-3.2653830">
        <ele>574.195984</ele>
        <time>2019-08-16T09:33:33.000Z</time>
      </trkpt>
      <trkpt lat="43.3302180" lon="-3.2657760">
        <ele>575.143005</ele>
        <time>2019-08-16T09:33:39.000Z</time>
      </trkpt>
      <trkpt lat="43.3302410" lon="-3.2658380">
        <ele>575.237000</ele>
        <time>2019-08-16T09:33:40.000Z</time>
      </trkpt>
      <trkpt lat="43.3305050" lon="-3.2662580">
        <ele>573.749023</ele>
        <time>2019-08-16T09:33:46.000Z</time>
      </trkpt>
      <trkpt lat="43.3308210" lon="-3.2666280">
        <ele>570.713013</ele>
        <time>2019-08-16T09:33:51.000Z</time>
      </trkpt>
      <trkpt lat="43.3309560" lon="-3.2669600">
        <ele>566.807983</ele>
        <time>2019-08-16T09:33:54.000Z</time>
      </trkpt>
      <trkpt lat="43.3311200" lon="-3.2676320">
        <ele>559.367004</ele>
        <time>2019-08-16T09:33:59.000Z</time>
      </trkpt>
      <trkpt lat="43.3311610" lon="-3.2677630">
        <ele>559.393005</ele>
        <time>2019-08-16T09:34:00.000Z</time>
      </trkpt>
      <trkpt lat="43.3312060" lon="-3.2678830">
        <ele>557.635010</ele>
        <time>2019-08-16T09:34:01.000Z</time>
      </trkpt>
      <trkpt lat="43.3313030" lon="-3.2680850">
        <ele>556.177979</ele>
        <time>2019-08-16T09:34:03.000Z</time>
      </trkpt>
      <trkpt lat="43.3314470" lon="-3.2682940">
        <ele>554.218994</ele>
        <time>2019-08-16T09:34:06.000Z</time>
      </trkpt>
      <trkpt lat="43.3316030" lon="-3.2684830">
        <ele>554.059021</ele>
        <time>2019-08-16T09:34:09.000Z</time>
      </trkpt>
      <trkpt lat="43.3317820" lon="-3.2688950">
        <ele>552.677979</ele>
        <time>2019-08-16T09:34:13.000Z</time>
      </trkpt>
      <trkpt lat="43.3318170" lon="-3.2690280">
        <ele>551.744995</ele>
        <time>2019-08-16T09:34:14.000Z</time>
      </trkpt>
      <trkpt lat="43.3320170" lon="-3.2697390">
        <ele>547.784973</ele>
        <time>2019-08-16T09:34:19.000Z</time>
      </trkpt>
      <trkpt lat="43.3320620" lon="-3.2698760">
        <ele>546.789001</ele>
        <time>2019-08-16T09:34:20.000Z</time>
      </trkpt>
      <trkpt lat="43.3320890" lon="-3.2704980">
        <ele>542.817017</ele>
        <time>2019-08-16T09:34:24.000Z</time>
      </trkpt>
      <trkpt lat="43.3320300" lon="-3.2713130">
        <ele>536.408020</ele>
        <time>2019-08-16T09:34:29.000Z</time>
      </trkpt>
      <trkpt lat="43.3320450" lon="-3.2718560">
        <ele>530.661987</ele>
        <time>2019-08-16T09:34:32.000Z</time>
      </trkpt>
      <trkpt lat="43.3322340" lon="-3.2723660">
        <ele>522.298035</ele>
        <time>2019-08-16T09:34:36.000Z</time>
      </trkpt>
      <trkpt lat="43.3323040" lon="-3.2724610">
        <ele>520.369995</ele>
        <time>2019-08-16T09:34:37.000Z</time>
      </trkpt>
      <trkpt lat="43.3327400" lon="-3.2731490">
        <ele>513.023010</ele>
        <time>2019-08-16T09:34:43.000Z</time>
      </trkpt>
      <trkpt lat="43.3330150" lon="-3.2735340">
        <ele>512.184021</ele>
        <time>2019-08-16T09:34:47.000Z</time>
      </trkpt>
      <trkpt lat="43.3332930" lon="-3.2741010">
        <ele>511.243988</ele>
        <time>2019-08-16T09:34:52.000Z</time>
      </trkpt>
      <trkpt lat="43.3334650" lon="-3.2744310">
        <ele>509.492981</ele>
        <time>2019-08-16T09:34:55.000Z</time>
      </trkpt>
      <trkpt lat="43.3338390" lon="-3.2751350">
        <ele>505.350006</ele>
        <time>2019-08-16T09:35:01.000Z</time>
      </trkpt>
      <trkpt lat="43.3339060" lon="-3.2752360">
        <ele>504.666992</ele>
        <time>2019-08-16T09:35:02.000Z</time>
      </trkpt>
      <trkpt lat="43.3341330" lon="-3.2757020">
        <ele>494.980988</ele>
        <time>2019-08-16T09:35:32.000Z</time>
      </trkpt>
      <trkpt lat="43.3341040" lon="-3.2759030">
        <ele>494.119019</ele>
        <time>2019-08-16T09:35:36.000Z</time>
      </trkpt>
      <trkpt lat="43.3341860" lon="-3.2761760">
        <ele>492.108002</ele>
        <time>2019-08-16T09:35:39.000Z</time>
      </trkpt>
      <trkpt lat="43.3342720" lon="-3.2767990">
        <ele>487.369995</ele>
        <time>2019-08-16T09:35:43.000Z</time>
      </trkpt>
      <trkpt lat="43.3342990" lon="-3.2769530">
        <ele>485.716003</ele>
        <time>2019-08-16T09:35:44.000Z</time>
      </trkpt>
      <trkpt lat="43.3344270" lon="-3.2778130">
        <ele>476.868011</ele>
        <time>2019-08-16T09:35:49.000Z</time>
      </trkpt>
      <trkpt lat="43.3345010" lon="-3.2783550">
        <ele>471.181000</ele>
        <time>2019-08-16T09:35:52.000Z</time>
      </trkpt>
      <trkpt lat="43.3344680" lon="-3.2791500">
        <ele>465.661987</ele>
        <time>2019-08-16T09:35:57.000Z</time>
      </trkpt>
      <trkpt lat="43.3344520" lon="-3.2799020">
        <ele>463.081970</ele>
        <time>2019-08-16T09:36:02.000Z</time>
      </trkpt>
      <trkpt lat="43.3345240" lon="-3.2806220">
        <ele>458.080994</ele>
        <time>2019-08-16T09:36:06.000Z</time>
      </trkpt>
      <trkpt lat="43.3345610" lon="-3.2807880">
        <ele>456.247986</ele>
        <time>2019-08-16T09:36:07.000Z</time>
      </trkpt>
      <trkpt lat="43.3348750" lon="-3.2817320">
        <ele>446.033020</ele>
        <time>2019-08-16T09:36:13.000Z</time>
      </trkpt>
      <trkpt lat="43.3349900" lon="-3.2821080">
        <ele>443.123016</ele>
        <time>2019-08-16T09:36:16.000Z</time>
      </trkpt>
      <trkpt lat="43.3350790" lon="-3.2824340">
        <ele>441.815002</ele>
        <time>2019-08-16T09:36:19.000Z</time>
      </trkpt>
      <trkpt lat="43.3351620" lon="-3.2827990">
        <ele>442.108002</ele>
        <time>2019-08-16T09:36:23.000Z</time>
      </trkpt>
      <trkpt lat="43.3353280" lon="-3.2832020">
        <ele>441.656982</ele>
        <time>2019-08-16T09:36:27.000Z</time>
      </trkpt>
      <trkpt lat="43.3355520" lon="-3.2835740">
        <ele>437.253021</ele>
        <time>2019-08-16T09:36:31.000Z</time>
      </trkpt>
      <trkpt lat="43.3355720" lon="-3.2838810">
        <ele>430.414978</ele>
        <time>2019-08-16T09:36:35.000Z</time>
      </trkpt>
      <trkpt lat="43.3355140" lon="-3.2842620">
        <ele>425.817993</ele>
        <time>2019-08-16T09:36:39.000Z</time>
      </trkpt>
      <trkpt lat="43.3355700" lon="-3.2848010">
        <ele>422.678986</ele>
        <time>2019-08-16T09:36:43.000Z</time>
      </trkpt>
      <trkpt lat="43.3356230" lon="-3.2850890">
        <ele>420.619019</ele>
        <time>2019-08-16T09:36:45.000Z</time>
      </trkpt>
      <trkpt lat="43.3358460" lon="-3.2858210">
        <ele>414.817993</ele>
        <time>2019-08-16T09:36:50.000Z</time>
      </trkpt>
      <trkpt lat="43.3359040" lon="-3.2859680">
        <ele>414.815002</ele>
        <time>2019-08-16T09:36:51.000Z</time>
      </trkpt>
      <trkpt lat="43.3361920" lon="-3.2866510">
        <ele>409.536011</ele>
        <time>2019-08-16T09:36:56.000Z</time>
      </trkpt>
      <trkpt lat="43.3364190" lon="-3.2871040">
        <ele>406.717010</ele>
        <time>2019-08-16T09:37:00.000Z</time>
      </trkpt>
      <trkpt lat="43.3363600" lon="-3.2873650">
        <ele>403.217987</ele>
        <time>2019-08-16T09:37:04.000Z</time>
      </trkpt>
      <trkpt lat="43.3361950" lon="-3.2877610">
        <ele>397.808014</ele>
        <time>2019-08-16T09:37:08.000Z</time>
      </trkpt>
      <trkpt lat="43.3361520" lon="-3.2881720">
        <ele>392.166992</ele>
        <time>2019-08-16T09:37:11.000Z</time>
      </trkpt>
      <trkpt lat="43.3361330" lon="-3.2889110">
        <ele>379.253021</ele>
        <time>2019-08-16T09:37:17.000Z</time>
      </trkpt>
      <trkpt lat="43.3361520" lon="-3.2891700">
        <ele>374.464996</ele>
        <time>2019-08-16T09:37:19.000Z</time>
      </trkpt>
      <trkpt lat="43.3362250" lon="-3.2894480">
        <ele>372.067993</ele>
        <time>2019-08-16T09:37:21.000Z</time>
      </trkpt>
      <trkpt lat="43.3363280" lon="-3.2897110">
        <ele>367.328979</ele>
        <time>2019-08-16T09:37:23.000Z</time>
      </trkpt>
      <trkpt lat="43.3364260" lon="-3.2899590">
        <ele>363.388977</ele>
        <time>2019-08-16T09:37:25.000Z</time>
      </trkpt>
      <trkpt lat="43.3366050" lon="-3.2904440">
        <ele>356.998016</ele>
        <time>2019-08-16T09:37:29.000Z</time>
      </trkpt>
      <trkpt lat="43.3368230" lon="-3.2909540">
        <ele>350.094971</ele>
        <time>2019-08-16T09:37:33.000Z</time>
      </trkpt>
      <trkpt lat="43.3369720" lon="-3.2912750">
        <ele>344.528992</ele>
        <time>2019-08-16T09:37:36.000Z</time>
      </trkpt>
      <trkpt lat="43.3371130" lon="-3.2915670">
        <ele>339.799988</ele>
        <time>2019-08-16T09:37:39.000Z</time>
      </trkpt>
      <trkpt lat="43.3372990" lon="-3.2917630">
        <ele>336.620026</ele>
        <time>2019-08-16T09:37:42.000Z</time>
      </trkpt>
      <trkpt lat="43.3373810" lon="-3.2922530">
        <ele>334.507996</ele>
        <time>2019-08-16T09:37:46.000Z</time>
      </trkpt>
      <trkpt lat="43.3375040" lon="-3.2925690">
        <ele>333.066010</ele>
        <time>2019-08-16T09:37:49.000Z</time>
      </trkpt>
      <trkpt lat="43.3376210" lon="-3.2927930">
        <ele>331.832001</ele>
        <time>2019-08-16T09:37:51.000Z</time>
      </trkpt>
      <trkpt lat="43.3379720" lon="-3.2933210">
        <ele>327.423981</ele>
        <time>2019-08-16T09:37:56.000Z</time>
      </trkpt>
      <trkpt lat="43.3379600" lon="-3.2936350">
        <ele>324.616974</ele>
        <time>2019-08-16T09:37:59.000Z</time>
      </trkpt>
      <trkpt lat="43.3380610" lon="-3.2941740">
        <ele>321.367981</ele>
        <time>2019-08-16T09:38:03.000Z</time>
      </trkpt>
      <trkpt lat="43.3381060" lon="-3.2942940">
        <ele>320.457977</ele>
        <time>2019-08-16T09:38:04.000Z</time>
      </trkpt>
      <trkpt lat="43.3381490" lon="-3.2948220">
        <ele>316.056976</ele>
        <time>2019-08-16T09:38:09.000Z</time>
      </trkpt>
      <trkpt lat="43.3380300" lon="-3.2949960">
        <ele>313.444000</ele>
        <time>2019-08-16T09:38:12.000Z</time>
      </trkpt>
      <trkpt lat="43.3378120" lon="-3.2953770">
        <ele>310.138000</ele>
        <time>2019-08-16T09:38:17.000Z</time>
      </trkpt>
      <trkpt lat="43.3375670" lon="-3.2959020">
        <ele>303.970001</ele>
        <time>2019-08-16T09:38:21.000Z</time>
      </trkpt>
      <trkpt lat="43.3374970" lon="-3.2960400">
        <ele>302.216980</ele>
        <time>2019-08-16T09:38:22.000Z</time>
      </trkpt>
      <trkpt lat="43.3373260" lon="-3.2963070">
        <ele>298.007996</ele>
        <time>2019-08-16T09:38:24.000Z</time>
      </trkpt>
      <trkpt lat="43.3369110" lon="-3.2970030">
        <ele>287.617004</ele>
        <time>2019-08-16T09:38:29.000Z</time>
      </trkpt>
      <trkpt lat="43.3365650" lon="-3.2976040">
        <ele>277.662994</ele>
        <time>2019-08-16T09:38:33.000Z</time>
      </trkpt>
      <trkpt lat="43.3364960" lon="-3.2977490">
        <ele>274.915009</ele>
        <time>2019-08-16T09:38:34.000Z</time>
      </trkpt>
      <trkpt lat="43.3363960" lon="-3.2982460">
        <ele>268.417999</ele>
        <time>2019-08-16T09:38:38.000Z</time>
      </trkpt>
      <trkpt lat="43.3362790" lon="-3.2985940">
        <ele>264.178986</ele>
        <time>2019-08-16T09:38:41.000Z</time>
      </trkpt>
      <trkpt lat="43.3362420" lon="-3.2990100">
        <ele>261.699005</ele>
        <time>2019-08-16T09:38:44.000Z</time>
      </trkpt>
      <trkpt lat="43.3360750" lon="-3.2997680">
        <ele>255.478012</ele>
        <time>2019-08-16T09:38:49.000Z</time>
      </trkpt>
      <trkpt lat="43.3360400" lon="-3.2999260">
        <ele>253.715012</ele>
        <time>2019-08-16T09:38:50.000Z</time>
      </trkpt>
      <trkpt lat="43.3360010" lon="-3.3006250">
        <ele>244.758011</ele>
        <time>2019-08-16T09:38:54.000Z</time>
      </trkpt>
      <trkpt lat="43.3359480" lon="-3.3007630">
        <ele>242.251999</ele>
        <time>2019-08-16T09:38:55.000Z</time>
      </trkpt>
      <trkpt lat="43.3358670" lon="-3.3010640">
        <ele>236.916992</ele>
        <time>2019-08-16T09:38:57.000Z</time>
      </trkpt>
      <trkpt lat="43.3358530" lon="-3.3013700">
        <ele>234.207993</ele>
        <time>2019-08-16T09:38:59.000Z</time>
      </trkpt>
      <trkpt lat="43.3358580" lon="-3.3015090">
        <ele>228.938995</ele>
        <time>2019-08-16T09:39:00.000Z</time>
      </trkpt>
      <trkpt lat="43.3357190" lon="-3.3020250">
        <ele>221.845001</ele>
        <time>2019-08-16T09:39:04.000Z</time>
      </trkpt>
      <trkpt lat="43.3355580" lon="-3.3024260">
        <ele>215.647003</ele>
        <time>2019-08-16T09:39:07.000Z</time>
      </trkpt>
      <trkpt lat="43.3354890" lon="-3.3027560">
        <ele>209.929993</ele>
        <time>2019-08-16T09:39:10.000Z</time>
      </trkpt>
      <trkpt lat="43.3352610" lon="-3.3032290">
        <ele>200.951004</ele>
        <time>2019-08-16T09:39:15.000Z</time>
      </trkpt>
      <trkpt lat="43.3351990" lon="-3.3039590">
        <ele>192.390991</ele>
        <time>2019-08-16T09:39:20.000Z</time>
      </trkpt>
      <trkpt lat="43.3352240" lon="-3.3041200">
        <ele>192.330002</ele>
        <time>2019-08-16T09:39:21.000Z</time>
      </trkpt>
      <trkpt lat="43.3353820" lon="-3.3045590">
        <ele>186.727005</ele>
        <time>2019-08-16T09:39:24.000Z</time>
      </trkpt>
      <trkpt lat="43.3356070" lon="-3.3052220">
        <ele>177.981995</ele>
        <time>2019-08-16T09:39:28.000Z</time>
      </trkpt>
      <trkpt lat="43.3356600" lon="-3.3053750">
        <ele>175.443008</ele>
        <time>2019-08-16T09:39:29.000Z</time>
      </trkpt>
      <trkpt lat="43.3356800" lon="-3.3059270">
        <ele>166.016998</ele>
        <time>2019-08-16T09:39:33.000Z</time>
      </trkpt>
      <trkpt lat="43.3355230" lon="-3.3062290">
        <ele>160.707993</ele>
        <time>2019-08-16T09:39:36.000Z</time>
      </trkpt>
      <trkpt lat="43.3354430" lon="-3.3063090">
        <ele>159.231995</ele>
        <time>2019-08-16T09:39:37.000Z</time>
      </trkpt>
      <trkpt lat="43.3349300" lon="-3.3070110">
        <ele>152.017990</ele>
        <time>2019-08-16T09:39:43.000Z</time>
      </trkpt>
      <trkpt lat="43.3344450" lon="-3.3077010">
        <ele>147.010010</ele>
        <time>2019-08-16T09:39:49.000Z</time>
      </trkpt>
      <trkpt lat="43.3343020" lon="-3.3079550">
        <ele>144.292999</ele>
        <time>2019-08-16T09:39:51.000Z</time>
      </trkpt>
      <trkpt lat="43.3342270" lon="-3.3080890">
        <ele>142.524002</ele>
        <time>2019-08-16T09:39:52.000Z</time>
      </trkpt>
      <trkpt lat="43.3340880" lon="-3.3084890">
        <ele>136.093994</ele>
        <time>2019-08-16T09:39:55.000Z</time>
      </trkpt>
      <trkpt lat="43.3341490" lon="-3.3088290">
        <ele>128.552994</ele>
        <time>2019-08-16T09:39:58.000Z</time>
      </trkpt>
      <trkpt lat="43.3342990" lon="-3.3089630">
        <ele>123.669998</ele>
        <time>2019-08-16T09:40:00.000Z</time>
      </trkpt>
      <trkpt lat="43.3343590" lon="-3.3090300">
        <ele>121.458992</ele>
        <time>2019-08-16T09:40:01.000Z</time>
      </trkpt>
      <trkpt lat="43.3344640" lon="-3.3091410">
        <ele>117.303001</ele>
        <time>2019-08-16T09:40:03.000Z</time>
      </trkpt>
      <trkpt lat="43.3343800" lon="-3.3093400">
        <ele>111.522995</ele>
        <time>2019-08-16T09:40:06.000Z</time>
      </trkpt>
      <trkpt lat="43.3342520" lon="-3.3097350">
        <ele>105.507996</ele>
        <time>2019-08-16T09:40:09.000Z</time>
      </trkpt>
      <trkpt lat="43.3343090" lon="-3.3100740">
        <ele>99.559006</ele>
        <time>2019-08-16T09:40:12.000Z</time>
      </trkpt>
      <trkpt lat="43.3343020" lon="-3.3102980">
        <ele>97.545006</ele>
        <time>2019-08-16T09:40:14.000Z</time>
      </trkpt>
      <trkpt lat="43.3341920" lon="-3.3103950">
        <ele>93.696999</ele>
        <time>2019-08-16T09:40:16.000Z</time>
      </trkpt>
      <trkpt lat="43.3339310" lon="-3.3105380">
        <ele>88.459999</ele>
        <time>2019-08-16T09:40:19.000Z</time>
      </trkpt>
      <trkpt lat="43.3337170" lon="-3.3104480">
        <ele>83.881004</ele>
        <time>2019-08-16T09:40:22.000Z</time>
      </trkpt>
      <trkpt lat="43.3334890" lon="-3.3103980">
        <ele>79.530998</ele>
        <time>2019-08-16T09:40:25.000Z</time>
      </trkpt>
      <trkpt lat="43.3333500" lon="-3.3105340">
        <ele>75.250000</ele>
        <time>2019-08-16T09:40:28.000Z</time>
      </trkpt>
      <trkpt lat="43.3332760" lon="-3.3107270">
        <ele>71.527000</ele>
        <time>2019-08-16T09:40:31.000Z</time>
      </trkpt>
      <trkpt lat="43.3332440" lon="-3.3108860">
        <ele>69.396004</ele>
        <time>2019-08-16T09:40:35.000Z</time>
      </trkpt>
      <trkpt lat="43.3332370" lon="-3.3109040">
        <ele>69.331001</ele>
        <time>2019-08-16T09:40:36.000Z</time>
      </trkpt>
      <trkpt lat="43.3331760" lon="-3.3109330">
        <ele>69.223999</ele>
        <time>2019-08-16T09:40:41.000Z</time>
      </trkpt>
      <trkpt lat="43.3330950" lon="-3.3109720">
        <ele>68.508003</ele>
        <time>2019-08-16T09:40:47.000Z</time>
      </trkpt>
      <trkpt lat="43.3330630" lon="-3.3109710">
        <ele>68.362999</ele>
        <time>2019-08-16T09:40:49.000Z</time>
      </trkpt>
      <trkpt lat="43.3329870" lon="-3.3111150">
        <ele>67.768997</ele>
        <time>2019-08-16T09:40:54.000Z</time>
      </trkpt>
      <trkpt lat="43.3329180" lon="-3.3114460">
        <ele>66.740997</ele>
        <time>2019-08-16T09:41:02.000Z</time>
      </trkpt>
      <trkpt lat="43.3328710" lon="-3.3118180">
        <ele>66.564003</ele>
        <time>2019-08-16T09:41:11.000Z</time>
      </trkpt>
      <trkpt lat="43.3328630" lon="-3.3121430">
        <ele>66.654999</ele>
        <time>2019-08-16T09:41:18.000Z</time>
      </trkpt>
      <trkpt lat="43.3328205" lon="-3.3123719">
        <ele>66.654999</ele>
        <time>2021-03-14T16:17:39.881Z</time>
      </trkpt>
      <trkpt lat="43.3326644" lon="-3.3127260">
        <ele>66.654999</ele>
        <time>2021-03-14T16:17:40.865Z</time>
      </trkpt>
      <trkpt lat="43.3325395" lon="-3.3129835">
        <ele>66.654999</ele>
        <time>2021-03-14T16:17:41.709Z</time>
      </trkpt>
      <trkpt lat="43.3324615" lon="-3.3131337">
        <ele>66.654999</ele>
        <time>2021-03-14T16:17:42.647Z</time>
      </trkpt>
      <trkpt lat="43.3323757" lon="-3.3131766">
        <ele>66.654999</ele>
        <time>2021-03-14T16:17:43.443Z</time>
      </trkpt>
      <trkpt lat="43.3321962" lon="-3.3131444">
        <ele>66.654999</ele>
        <time>2021-03-14T16:17:44.334Z</time>
      </trkpt>
      <trkpt lat="43.3320791" lon="-3.3130908">
        <ele>66.654999</ele>
        <time>2021-03-14T16:17:45.178Z</time>
      </trkpt>
      <trkpt lat="43.3321025" lon="-3.3129084">
        <ele>66.654999</ele>
        <time>2021-03-14T16:17:46.006Z</time>
      </trkpt>
      <trkpt lat="43.3321181" lon="-3.3127045">
        <ele>66.654999</ele>
        <time>2021-03-14T16:17:46.615Z</time>
      </trkpt>
      <trkpt lat="43.3321259" lon="-3.3124256">
        <ele>66.654999</ele>
        <time>2021-03-14T16:17:47.693Z</time>
      </trkpt>
      <trkpt lat="43.3321493" lon="-3.3122110">
        <ele>66.654999</ele>
        <time>2021-03-14T16:17:48.865Z</time>
      </trkpt>
      <trkpt lat="43.3321181" lon="-3.3120608">
        <ele>66.654999</ele>
        <time>2021-03-14T16:17:49.396Z</time>
      </trkpt>
      <trkpt lat="43.3320245" lon="-3.3120071">
        <ele>66.654999</ele>
        <time>2021-03-14T16:17:50.303Z</time>
      </trkpt>
      <trkpt lat="43.3319152" lon="-3.3119428">
        <ele>66.654999</ele>
        <time>2021-03-14T16:17:51.021Z</time>
      </trkpt>
      <trkpt lat="43.3318606" lon="-3.3118891">
        <ele>66.654999</ele>
        <time>2021-03-14T16:17:51.615Z</time>
      </trkpt>
      <trkpt lat="43.3318294" lon="-3.3115351">
        <ele>66.654999</ele>
        <time>2021-03-14T16:17:52.193Z</time>
      </trkpt>
      <trkpt lat="43.3318294" lon="-3.3113312">
        <ele>66.654999</ele>
        <time>2021-03-14T16:17:53.021Z</time>
      </trkpt>
      <trkpt lat="43.3318138" lon="-3.3110201">
        <ele>66.654999</ele>
        <time>2021-03-14T16:17:54.006Z</time>
      </trkpt>
      <trkpt lat="43.3317982" lon="-3.3108055">
        <ele>66.654999</ele>
        <time>2021-03-14T16:17:55.084Z</time>
      </trkpt>
      <trkpt lat="43.3317689" lon="-3.3105051">
        <ele>66.654999</ele>
        <time>2021-03-14T16:17:59.021Z</time>
      </trkpt>
      <trkpt lat="43.3317689" lon="-3.3102691">
        <ele>66.654999</ele>
        <time>2021-03-14T16:17:59.599Z</time>
      </trkpt>
      <trkpt lat="43.3317689" lon="-3.3099043">
        <ele>66.654999</ele>
        <time>2021-03-14T16:18:00.443Z</time>
      </trkpt>
      <trkpt lat="43.3317299" lon="-3.3096253">
        <ele>66.654999</ele>
        <time>2021-03-14T16:18:00.990Z</time>
      </trkpt>
      <trkpt lat="43.3316362" lon="-3.3092498">
        <ele>66.654999</ele>
        <time>2021-03-14T16:18:01.662Z</time>
      </trkpt>
      <trkpt lat="43.3315582" lon="-3.3089065">
        <ele>66.654999</ele>
        <time>2021-03-14T16:18:02.458Z</time>
      </trkpt>
      <trkpt lat="43.3314958" lon="-3.3086490">
        <ele>66.654999</ele>
        <time>2021-03-14T16:18:03.037Z</time>
      </trkpt>
      <trkpt lat="43.3314333" lon="-3.3083593">
        <ele>66.654999</ele>
        <time>2021-03-14T16:18:03.521Z</time>
      </trkpt>
      <trkpt lat="43.3313553" lon="-3.3080589">
        <ele>66.654999</ele>
        <time>2021-03-14T16:18:04.052Z</time>
      </trkpt>
      <trkpt lat="43.3312851" lon="-3.3078014">
        <ele>66.654999</ele>
        <time>2021-03-14T16:18:04.537Z</time>
      </trkpt>
      <trkpt lat="43.3312070" lon="-3.3075439">
        <ele>66.654999</ele>
        <time>2021-03-14T16:18:05.083Z</time>
      </trkpt>
      <trkpt lat="43.3311134" lon="-3.3072972">
        <ele>66.654999</ele>
        <time>2021-03-14T16:18:05.521Z</time>
      </trkpt>
      <trkpt lat="43.3310431" lon="-3.3070933">
        <ele>66.654999</ele>
        <time>2021-03-14T16:18:06.068Z</time>
      </trkpt>
      <trkpt lat="43.3309573" lon="-3.3068680">
        <ele>66.654999</ele>
        <time>2021-03-14T16:18:06.552Z</time>
      </trkpt>
      <trkpt lat="43.3308558" lon="-3.3065676">
        <ele>66.654999</ele>
        <time>2021-03-14T16:18:07.443Z</time>
      </trkpt>
      <trkpt lat="43.3307108" lon="-3.3062994">
        <ele>66.654999</ele>
        <time>2021-03-14T16:18:09.474Z</time>
      </trkpt>
      <trkpt lat="43.3305937" lon="-3.3060634">
        <ele>66.654999</ele>
        <time>2021-03-14T16:18:10.083Z</time>
      </trkpt>
      <trkpt lat="43.3304454" lon="-3.3059561">
        <ele>66.654999</ele>
        <time>2021-03-14T16:18:10.583Z</time>
      </trkpt>
      <trkpt lat="43.3302972" lon="-3.3058166">
        <ele>66.654999</ele>
        <time>2021-03-14T16:18:11.052Z</time>
      </trkpt>
      <trkpt lat="43.3301957" lon="-3.3056664">
        <ele>66.654999</ele>
        <time>2021-03-14T16:18:11.521Z</time>
      </trkpt>
      <trkpt lat="43.3300786" lon="-3.3053767">
        <ele>66.654999</ele>
        <time>2021-03-14T16:18:11.958Z</time>
      </trkpt>
      <trkpt lat="43.3299850" lon="-3.3051407">
        <ele>66.654999</ele>
        <time>2021-03-14T16:18:12.552Z</time>
      </trkpt>
      <trkpt lat="43.3298445" lon="-3.3050012">
        <ele>66.654999</ele>
        <time>2021-03-14T16:18:13.068Z</time>
      </trkpt>
      <trkpt lat="43.3297352" lon="-3.3048725">
        <ele>66.654999</ele>
        <time>2021-03-14T16:18:13.677Z</time>
      </trkpt>
      <trkpt lat="43.3296338" lon="-3.3047008">
        <ele>66.654999</ele>
        <time>2021-03-14T16:18:14.271Z</time>
      </trkpt>
      <trkpt lat="43.3295557" lon="-3.3045506">
        <ele>66.654999</ele>
        <time>2021-03-14T16:18:14.739Z</time>
      </trkpt>
      <trkpt lat="43.3294543" lon="-3.3043575">
        <ele>66.654999</ele>
        <time>2021-03-14T16:18:15.302Z</time>
      </trkpt>
      <trkpt lat="43.3293762" lon="-3.3042073">
        <ele>66.654999</ele>
        <time>2021-03-14T16:18:16.005Z</time>
      </trkpt>
      <trkpt lat="43.3292592" lon="-3.3040249">
        <ele>66.654999</ele>
        <time>2021-03-14T16:18:16.521Z</time>
      </trkpt>
      <trkpt lat="43.3291577" lon="-3.3038103">
        <ele>66.654999</ele>
        <time>2021-03-14T16:18:17.021Z</time>
      </trkpt>
      <trkpt lat="43.3290094" lon="-3.3037030">
        <ele>66.654999</ele>
        <time>2021-03-14T16:18:17.489Z</time>
      </trkpt>
      <trkpt lat="43.3289080" lon="-3.3036172">
        <ele>66.654999</ele>
        <time>2021-03-14T16:18:18.083Z</time>
      </trkpt>
      <trkpt lat="43.3287285" lon="-3.3035528">
        <ele>66.654999</ele>
        <time>2021-03-14T16:18:18.614Z</time>
      </trkpt>
      <trkpt lat="43.3285490" lon="-3.3035314">
        <ele>66.654999</ele>
        <time>2021-03-14T16:18:19.161Z</time>
      </trkpt>
      <trkpt lat="43.3283383" lon="-3.3035314">
        <ele>66.654999</ele>
        <time>2021-03-14T16:18:19.692Z</time>
      </trkpt>
      <trkpt lat="43.3281587" lon="-3.3034884">
        <ele>66.654999</ele>
        <time>2021-03-14T16:18:20.270Z</time>
      </trkpt>
      <trkpt lat="43.3279870" lon="-3.3034455">
        <ele>66.654999</ele>
        <time>2021-03-14T16:18:20.895Z</time>
      </trkpt>
      <trkpt lat="43.3278420" lon="-3.3034133">
        <ele>66.654999</ele>
        <time>2021-03-14T16:18:26.317Z</time>
      </trkpt>
      <trkpt lat="43.3276157" lon="-3.3032739">
        <ele>66.654999</ele>
        <time>2021-03-14T16:18:26.989Z</time>
      </trkpt>
      <trkpt lat="43.3274283" lon="-3.3032095">
        <ele>66.654999</ele>
        <time>2021-03-14T16:18:27.505Z</time>
      </trkpt>
      <trkpt lat="43.3273035" lon="-3.3033168">
        <ele>66.654999</ele>
        <time>2021-03-14T16:18:27.989Z</time>
      </trkpt>
      <trkpt lat="43.3271942" lon="-3.3034992">
        <ele>66.654999</ele>
        <time>2021-03-14T16:18:28.614Z</time>
      </trkpt>
      <trkpt lat="43.3272879" lon="-3.3036386">
        <ele>66.654999</ele>
        <time>2021-03-14T16:18:29.145Z</time>
      </trkpt>
      <trkpt lat="43.3273971" lon="-3.3037781">
        <ele>66.654999</ele>
        <time>2021-03-14T16:18:29.708Z</time>
      </trkpt>
      <trkpt lat="43.3275142" lon="-3.3040034">
        <ele>66.654999</ele>
        <time>2021-03-14T16:18:30.223Z</time>
      </trkpt>
      <trkpt lat="43.3275445" lon="-3.3042019">
        <ele>66.654999</ele>
        <time>2021-03-14T16:18:33.879Z</time>
      </trkpt>
      <trkpt lat="43.3275913" lon="-3.3044379">
        <ele>66.654999</ele>
        <time>2021-03-14T16:18:34.348Z</time>
      </trkpt>
      <trkpt lat="43.3276498" lon="-3.3046150">
        <ele>66.654999</ele>
        <time>2021-03-14T16:18:34.817Z</time>
      </trkpt>
      <trkpt lat="43.3277006" lon="-3.3047759">
        <ele>66.654999</ele>
        <time>2021-03-14T16:18:35.286Z</time>
      </trkpt>
      <trkpt lat="43.3277669" lon="-3.3049368">
        <ele>66.654999</ele>
        <time>2021-03-14T16:18:36.114Z</time>
      </trkpt>
      <trkpt lat="43.3278371" lon="-3.3050709">
        <ele>66.654999</ele>
        <time>2021-03-14T16:18:36.629Z</time>
      </trkpt>
      <trkpt lat="43.3278488" lon="-3.3052694">
        <ele>66.654999</ele>
        <time>2021-03-14T16:18:37.114Z</time>
      </trkpt>
      <trkpt lat="43.3278215" lon="-3.3054196">
        <ele>66.654999</ele>
        <time>2021-03-14T16:18:37.598Z</time>
      </trkpt>
      <trkpt lat="43.3277591" lon="-3.3055162">
        <ele>66.654999</ele>
        <time>2021-03-14T16:18:38.129Z</time>
      </trkpt>
      <trkpt lat="43.3276967" lon="-3.3054894">
        <ele>66.654999</ele>
        <time>2021-03-14T16:18:38.535Z</time>
      </trkpt>
      <trkpt lat="43.3276186" lon="-3.3054304">
        <ele>66.654999</ele>
        <time>2021-03-14T16:18:38.957Z</time>
      </trkpt>
      <trkpt lat="43.3275601" lon="-3.3053177">
        <ele>66.654999</ele>
        <time>2021-03-14T16:18:39.379Z</time>
      </trkpt>
      <trkpt lat="43.3274781" lon="-3.3051997">
        <ele>66.654999</ele>
        <time>2021-03-14T16:18:39.801Z</time>
      </trkpt>
      <trkpt lat="43.3273884" lon="-3.3051461">
        <ele>66.654999</ele>
        <time>2021-03-14T16:18:40.239Z</time>
      </trkpt>
      <trkpt lat="43.3272908" lon="-3.3051085">
        <ele>66.654999</ele>
        <time>2021-03-14T16:18:40.692Z</time>
      </trkpt>
      <trkpt lat="43.3272284" lon="-3.3051246">
        <ele>66.654999</ele>
        <time>2021-03-14T16:18:41.098Z</time>
      </trkpt>
      <trkpt lat="43.3271737" lon="-3.3052104">
        <ele>66.654999</ele>
        <time>2021-03-14T16:18:41.520Z</time>
      </trkpt>
      <trkpt lat="43.3271698" lon="-3.3053284">
        <ele>66.654999</ele>
        <time>2021-03-14T16:18:41.942Z</time>
      </trkpt>
      <trkpt lat="43.3271972" lon="-3.3054572">
        <ele>66.654999</ele>
        <time>2021-03-14T16:18:42.364Z</time>
      </trkpt>
      <trkpt lat="43.3272284" lon="-3.3056610">
        <ele>66.654999</ele>
        <time>2021-03-14T16:18:42.801Z</time>
      </trkpt>
      <trkpt lat="43.3272089" lon="-3.3058005">
        <ele>66.654999</ele>
        <time>2021-03-14T16:18:43.192Z</time>
      </trkpt>
      <trkpt lat="43.3271620" lon="-3.3059078">
        <ele>66.654999</ele>
        <time>2021-03-14T16:18:43.660Z</time>
      </trkpt>
      <trkpt lat="43.3270996" lon="-3.3059990">
        <ele>66.654999</ele>
        <time>2021-03-14T16:18:44.113Z</time>
      </trkpt>
      <trkpt lat="43.3270098" lon="-3.3060741">
        <ele>66.654999</ele>
        <time>2021-03-14T16:18:44.551Z</time>
      </trkpt>
      <trkpt lat="43.3269201" lon="-3.3061277">
        <ele>66.654999</ele>
        <time>2021-03-14T16:18:45.020Z</time>
      </trkpt>
      <trkpt lat="43.3268303" lon="-3.3061867">
        <ele>66.654999</ele>
        <time>2021-03-14T16:18:45.676Z</time>
      </trkpt>
      <trkpt lat="43.3267328" lon="-3.3062672">
        <ele>66.654999</ele>
        <time>2021-03-14T16:18:46.223Z</time>
      </trkpt>
      <trkpt lat="43.3266525" lon="-3.3063638">
        <ele>66.654999</ele>
        <time>2021-03-14T16:18:48.926Z</time>
      </trkpt>
      <trkpt lat="43.3265393" lon="-3.3063799">
        <ele>66.654999</ele>
        <time>2021-03-14T16:18:49.410Z</time>
      </trkpt>
      <trkpt lat="43.3264379" lon="-3.3063638">
        <ele>66.654999</ele>
        <time>2021-03-14T16:18:50.066Z</time>
      </trkpt>
      <trkpt lat="43.3263364" lon="-3.3063530">
        <ele>66.654999</ele>
        <time>2021-03-14T16:18:50.613Z</time>
      </trkpt>
      <trkpt lat="43.3262310" lon="-3.3063155">
        <ele>66.654999</ele>
        <time>2021-03-14T16:18:51.035Z</time>
      </trkpt>
      <trkpt lat="43.3261676" lon="-3.3062833">
        <ele>66.654999</ele>
        <time>2021-03-14T16:19:00.004Z</time>
      </trkpt>
      <trkpt lat="43.3260973" lon="-3.3062779">
        <ele>66.654999</ele>
        <time>2021-03-14T16:19:00.488Z</time>
      </trkpt>
      <trkpt lat="43.3260037" lon="-3.3062833">
        <ele>66.654999</ele>
        <time>2021-03-14T16:19:00.957Z</time>
      </trkpt>
      <trkpt lat="43.3259373" lon="-3.3062994">
        <ele>66.654999</ele>
        <time>2021-03-14T16:19:01.504Z</time>
      </trkpt>
      <trkpt lat="43.3258554" lon="-3.3063691">
        <ele>66.654999</ele>
        <time>2021-03-14T16:19:01.988Z</time>
      </trkpt>
      <trkpt lat="43.3257968" lon="-3.3064228">
        <ele>66.654999</ele>
        <time>2021-03-14T16:19:02.519Z</time>
      </trkpt>
      <trkpt lat="43.3257305" lon="-3.3064818">
        <ele>66.654999</ele>
        <time>2021-03-14T16:19:03.144Z</time>
      </trkpt>
      <trkpt lat="43.3256563" lon="-3.3064979">
        <ele>66.654999</ele>
        <time>2021-03-14T16:19:03.707Z</time>
      </trkpt>
      <trkpt lat="43.3255471" lon="-3.3064711">
        <ele>66.654999</ele>
        <time>2021-03-14T16:19:04.800Z</time>
      </trkpt>
      <trkpt lat="43.3254456" lon="-3.3064442">
        <ele>66.654999</ele>
        <time>2021-03-14T16:19:05.519Z</time>
      </trkpt>
      <trkpt lat="43.3253292" lon="-3.3064174">
        <ele>66.654999</ele>
        <time>2021-03-14T16:19:11.972Z</time>
      </trkpt>
      <trkpt lat="43.3252160" lon="-3.3063691">
        <ele>66.654999</ele>
        <time>2021-03-14T16:19:12.394Z</time>
      </trkpt>
      <trkpt lat="43.3250638" lon="-3.3063316">
        <ele>66.654999</ele>
        <time>2021-03-14T16:19:13.081Z</time>
      </trkpt>
      <trkpt lat="43.3249389" lon="-3.3063477">
        <ele>66.654999</ele>
        <time>2021-03-14T16:19:13.519Z</time>
      </trkpt>
      <trkpt lat="43.3248882" lon="-3.3063745">
        <ele>66.654999</ele>
        <time>2021-03-14T16:19:13.878Z</time>
      </trkpt>
      <trkpt lat="43.3248101" lon="-3.3063852">
        <ele>66.654999</ele>
        <time>2021-03-14T16:19:14.316Z</time>
      </trkpt>
      <trkpt lat="43.3247282" lon="-3.3063906">
        <ele>66.654999</ele>
        <time>2021-03-14T16:19:14.722Z</time>
      </trkpt>
      <trkpt lat="43.3246618" lon="-3.3063852">
        <ele>66.654999</ele>
        <time>2021-03-14T16:19:15.128Z</time>
      </trkpt>
      <trkpt lat="43.3245955" lon="-3.3064281">
        <ele>66.654999</ele>
        <time>2021-03-14T16:19:15.534Z</time>
      </trkpt>
      <trkpt lat="43.3244940" lon="-3.3064711">
        <ele>66.654999</ele>
        <time>2021-03-14T16:19:15.972Z</time>
      </trkpt>
      <trkpt lat="43.3243965" lon="-3.3065193">
        <ele>66.654999</ele>
        <time>2021-03-14T16:19:16.362Z</time>
      </trkpt>
      <trkpt lat="43.3243106" lon="-3.3065032">
        <ele>66.654999</ele>
        <time>2021-03-14T16:19:16.784Z</time>
      </trkpt>
      <trkpt lat="43.3242365" lon="-3.3065140">
        <ele>66.654999</ele>
        <time>2021-03-14T16:19:17.191Z</time>
      </trkpt>
      <trkpt lat="43.3241718" lon="-3.3064872">
        <ele>66.654999</ele>
        <time>2021-03-14T16:19:18.737Z</time>
      </trkpt>
      <trkpt lat="43.3241796" lon="-3.3063745">
        <ele>66.654999</ele>
        <time>2021-03-14T16:19:19.315Z</time>
      </trkpt>
      <trkpt lat="43.3242242" lon="-3.3062726">
        <ele>66.654999</ele>
        <time>2021-03-14T16:19:20.565Z</time>
      </trkpt>
      <trkpt lat="43.3242905" lon="-3.3061599">
        <ele>66.654999</ele>
        <time>2021-03-14T16:19:21.081Z</time>
      </trkpt>
      <trkpt lat="43.3243530" lon="-3.3060526">
        <ele>66.654999</ele>
        <time>2021-03-14T16:19:21.503Z</time>
      </trkpt>
      <trkpt lat="43.3244193" lon="-3.3059024">
        <ele>66.654999</ele>
        <time>2021-03-14T16:19:21.940Z</time>
      </trkpt>
      <trkpt lat="43.3244778" lon="-3.3057898">
        <ele>66.654999</ele>
        <time>2021-03-14T16:19:22.409Z</time>
      </trkpt>
      <trkpt lat="43.3245286" lon="-3.3056718">
        <ele>66.654999</ele>
        <time>2021-03-14T16:19:22.909Z</time>
      </trkpt>
      <trkpt lat="43.3245793" lon="-3.3055377">
        <ele>66.654999</ele>
        <time>2021-03-14T16:19:23.393Z</time>
      </trkpt>
      <trkpt lat="43.3246418" lon="-3.3054196">
        <ele>66.654999</ele>
        <time>2021-03-14T16:19:23.847Z</time>
      </trkpt>
      <trkpt lat="43.3246886" lon="-3.3052694">
        <ele>66.654999</ele>
        <time>2021-03-14T16:19:24.284Z</time>
      </trkpt>
      <trkpt lat="43.3247276" lon="-3.3050870">
        <ele>66.654999</ele>
        <time>2021-03-14T16:19:24.831Z</time>
      </trkpt>
      <trkpt lat="43.3247549" lon="-3.3049476">
        <ele>66.654999</ele>
        <time>2021-03-14T16:19:25.378Z</time>
      </trkpt>
      <trkpt lat="43.3247510" lon="-3.3047652">
        <ele>66.654999</ele>
        <time>2021-03-14T16:19:26.206Z</time>
      </trkpt>
      <trkpt lat="43.3247315" lon="-3.3045828">
        <ele>66.654999</ele>
        <time>2021-03-14T16:19:26.675Z</time>
      </trkpt>
      <trkpt lat="43.3247120" lon="-3.3044004">
        <ele>66.654999</ele>
        <time>2021-03-14T16:19:27.237Z</time>
      </trkpt>
      <trkpt lat="43.3246847" lon="-3.3041912">
        <ele>66.654999</ele>
        <time>2021-03-14T16:19:27.768Z</time>
      </trkpt>
      <trkpt lat="43.3246261" lon="-3.3040624">
        <ele>66.654999</ele>
        <time>2021-03-14T16:19:28.300Z</time>
      </trkpt>
      <trkpt lat="43.3245715" lon="-3.3039337">
        <ele>66.654999</ele>
        <time>2021-03-14T16:19:28.815Z</time>
      </trkpt>
      <trkpt lat="43.3244935" lon="-3.3038103">
        <ele>66.654999</ele>
        <time>2021-03-14T16:19:29.643Z</time>
      </trkpt>
      <trkpt lat="43.3244583" lon="-3.3036547">
        <ele>66.654999</ele>
        <time>2021-03-14T16:19:30.221Z</time>
      </trkpt>
      <trkpt lat="43.3244232" lon="-3.3034831">
        <ele>66.654999</ele>
        <time>2021-03-14T16:19:30.831Z</time>
      </trkpt>
      <trkpt lat="43.3243881" lon="-3.3033221">
        <ele>66.654999</ele>
        <time>2021-03-14T16:19:31.346Z</time>
      </trkpt>
      <trkpt lat="43.3243585" lon="-3.3031988">
        <ele>66.654999</ele>
        <time>2021-03-14T16:19:32.784Z</time>
      </trkpt>
      <trkpt lat="43.3243117" lon="-3.3030056">
        <ele>66.654999</ele>
        <time>2021-03-14T16:19:33.393Z</time>
      </trkpt>
      <trkpt lat="43.3242688" lon="-3.3028233">
        <ele>66.654999</ele>
        <time>2021-03-14T16:19:34.003Z</time>
      </trkpt>
      <trkpt lat="43.3242091" lon="-3.3026999">
        <ele>66.654999</ele>
        <time>2021-03-14T16:19:36.143Z</time>
      </trkpt>
      <trkpt lat="43.3241506" lon="-3.3026033">
        <ele>66.654999</ele>
        <time>2021-03-14T16:19:36.612Z</time>
      </trkpt>
      <trkpt lat="43.3241076" lon="-3.3024853">
        <ele>66.654999</ele>
        <time>2021-03-14T16:19:36.987Z</time>
      </trkpt>
      <trkpt lat="43.3240781" lon="-3.3023887">
        <ele>66.654999</ele>
        <time>2021-03-14T16:19:37.393Z</time>
      </trkpt>
      <trkpt lat="43.3240507" lon="-3.3022171">
        <ele>66.654999</ele>
        <time>2021-03-14T16:19:37.940Z</time>
      </trkpt>
      <trkpt lat="43.3240156" lon="-3.3020883">
        <ele>66.654999</ele>
        <time>2021-03-14T16:19:38.502Z</time>
      </trkpt>
      <trkpt lat="43.3239883" lon="-3.3019971">
        <ele>66.654999</ele>
        <time>2021-03-14T16:19:39.018Z</time>
      </trkpt>
      <trkpt lat="43.3239493" lon="-3.3018416">
        <ele>66.654999</ele>
        <time>2021-03-14T16:19:39.487Z</time>
      </trkpt>
      <trkpt lat="43.3239220" lon="-3.3017504">
        <ele>66.654999</ele>
        <time>2021-03-14T16:19:39.940Z</time>
      </trkpt>
      <trkpt lat="43.3238829" lon="-3.3015894">
        <ele>66.654999</ele>
        <time>2021-03-14T16:19:40.409Z</time>
      </trkpt>
      <trkpt lat="43.3238361" lon="-3.3014500">
        <ele>66.654999</ele>
        <time>2021-03-14T16:19:40.893Z</time>
      </trkpt>
      <trkpt lat="43.3238049" lon="-3.3013427">
        <ele>66.654999</ele>
        <time>2021-03-14T16:19:41.284Z</time>
      </trkpt>
      <trkpt lat="43.3237581" lon="-3.3011871">
        <ele>66.654999</ele>
        <time>2021-03-14T16:19:41.768Z</time>
      </trkpt>
      <trkpt lat="43.3237190" lon="-3.3010369">
        <ele>66.654999</ele>
        <time>2021-03-14T16:19:42.565Z</time>
      </trkpt>
      <trkpt lat="43.3236527" lon="-3.3008652">
        <ele>66.654999</ele>
        <time>2021-03-14T16:19:43.080Z</time>
      </trkpt>
      <trkpt lat="43.3236020" lon="-3.3007365">
        <ele>66.654999</ele>
        <time>2021-03-14T16:19:43.518Z</time>
      </trkpt>
      <trkpt lat="43.3235356" lon="-3.3005809">
        <ele>66.654999</ele>
        <time>2021-03-14T16:19:43.971Z</time>
      </trkpt>
      <trkpt lat="43.3234771" lon="-3.3004736">
        <ele>66.654999</ele>
        <time>2021-03-14T16:19:44.377Z</time>
      </trkpt>
      <trkpt lat="43.3233951" lon="-3.3003717">
        <ele>66.654999</ele>
        <time>2021-03-14T16:19:44.893Z</time>
      </trkpt>
      <trkpt lat="43.3232758" lon="-3.3003234">
        <ele>66.654999</ele>
        <time>2021-03-14T16:19:46.033Z</time>
      </trkpt>
      <trkpt lat="43.3231969" lon="-3.3002966">
        <ele>66.654999</ele>
        <time>2021-03-14T16:20:23.095Z</time>
      </trkpt>
      <trkpt lat="43.3231540" lon="-3.3003395">
        <ele>66.654999</ele>
        <time>2021-03-14T16:20:23.798Z</time>
      </trkpt>
      <trkpt lat="43.3231540" lon="-3.3004790">
        <ele>66.654999</ele>
        <time>2021-03-14T16:20:24.251Z</time>
      </trkpt>
      <trkpt lat="43.3231696" lon="-3.3005970">
        <ele>66.654999</ele>
        <time>2021-03-14T16:20:24.720Z</time>
      </trkpt>
      <trkpt lat="43.3231735" lon="-3.3007472">
        <ele>66.654999</ele>
        <time>2021-03-14T16:20:25.157Z</time>
      </trkpt>
      <trkpt lat="43.3231852" lon="-3.3009403">
        <ele>66.654999</ele>
        <time>2021-03-14T16:20:25.657Z</time>
      </trkpt>
      <trkpt lat="43.3231969" lon="-3.3010637">
        <ele>66.654999</ele>
        <time>2021-03-14T16:20:26.095Z</time>
      </trkpt>
      <trkpt lat="43.3232008" lon="-3.3011764">
        <ele>66.654999</ele>
        <time>2021-03-14T16:20:26.579Z</time>
      </trkpt>
      <trkpt lat="43.3232047" lon="-3.3013105">
        <ele>66.654999</ele>
        <time>2021-03-14T16:20:27.126Z</time>
      </trkpt>
      <trkpt lat="43.3232203" lon="-3.3014446">
        <ele>66.654999</ele>
        <time>2021-03-14T16:20:27.610Z</time>
      </trkpt>
      <trkpt lat="43.3232242" lon="-3.3015626">
        <ele>66.654999</ele>
        <time>2021-03-14T16:20:28.204Z</time>
      </trkpt>
      <trkpt lat="43.3232242" lon="-3.3016753">
        <ele>66.654999</ele>
        <time>2021-03-14T16:20:28.876Z</time>
      </trkpt>
      <trkpt lat="43.3232164" lon="-3.3017879">
        <ele>66.654999</ele>
        <time>2021-03-14T16:20:29.360Z</time>
      </trkpt>
      <trkpt lat="43.3232125" lon="-3.3019489">
        <ele>66.654999</ele>
        <time>2021-03-14T16:20:29.829Z</time>
      </trkpt>
      <trkpt lat="43.3232203" lon="-3.3020776">
        <ele>66.654999</ele>
        <time>2021-03-14T16:20:30.313Z</time>
      </trkpt>
      <trkpt lat="43.3232047" lon="-3.3021581">
        <ele>66.654999</ele>
        <time>2021-03-14T16:20:30.782Z</time>
      </trkpt>
      <trkpt lat="43.3232008" lon="-3.3023190">
        <ele>66.654999</ele>
        <time>2021-03-14T16:20:31.298Z</time>
      </trkpt>
      <trkpt lat="43.3231930" lon="-3.3024585">
        <ele>66.654999</ele>
        <time>2021-03-14T16:20:31.766Z</time>
      </trkpt>
      <trkpt lat="43.3231774" lon="-3.3025711">
        <ele>66.654999</ele>
        <time>2021-03-14T16:20:32.219Z</time>
      </trkpt>
      <trkpt lat="43.3231657" lon="-3.3027106">
        <ele>66.654999</ele>
        <time>2021-03-14T16:20:32.735Z</time>
      </trkpt>
      <trkpt lat="43.3231540" lon="-3.3028447">
        <ele>66.654999</ele>
        <time>2021-03-14T16:20:33.204Z</time>
      </trkpt>
      <trkpt lat="43.3231306" lon="-3.3029788">
        <ele>66.654999</ele>
        <time>2021-03-14T16:20:33.626Z</time>
      </trkpt>
      <trkpt lat="43.3231150" lon="-3.3031290">
        <ele>66.654999</ele>
        <time>2021-03-14T16:20:34.063Z</time>
      </trkpt>
      <trkpt lat="43.3230799" lon="-3.3032685">
        <ele>66.654999</ele>
        <time>2021-03-14T16:20:34.532Z</time>
      </trkpt>
      <trkpt lat="43.3230525" lon="-3.3033919">
        <ele>66.654999</ele>
        <time>2021-03-14T16:20:35.032Z</time>
      </trkpt>
      <trkpt lat="43.3230486" lon="-3.3035367">
        <ele>66.654999</ele>
        <time>2021-03-14T16:20:35.454Z</time>
      </trkpt>
      <trkpt lat="43.3230213" lon="-3.3036440">
        <ele>66.654999</ele>
        <time>2021-03-14T16:20:36.266Z</time>
      </trkpt>
      <trkpt lat="43.3230018" lon="-3.3037835">
        <ele>66.654999</ele>
        <time>2021-03-14T16:20:37.016Z</time>
      </trkpt>
      <trkpt lat="43.3229940" lon="-3.3038640">
        <ele>66.654999</ele>
        <time>2021-03-14T16:20:37.532Z</time>
      </trkpt>
      <trkpt lat="43.3229628" lon="-3.3039712">
        <ele>66.654999</ele>
        <time>2021-03-14T16:20:38.032Z</time>
      </trkpt>
      <trkpt lat="43.3229254" lon="-3.3041107">
        <ele>66.654999</ele>
        <time>2021-03-14T16:20:39.829Z</time>
      </trkpt>
      <trkpt lat="43.3228825" lon="-3.3042609">
        <ele>66.654999</ele>
        <time>2021-03-14T16:20:40.266Z</time>
      </trkpt>
      <trkpt lat="43.3228513" lon="-3.3043736">
        <ele>66.654999</ele>
        <time>2021-03-14T16:20:40.750Z</time>
      </trkpt>
      <trkpt lat="43.3227927" lon="-3.3044487">
        <ele>66.654999</ele>
        <time>2021-03-14T16:20:41.204Z</time>
      </trkpt>
      <trkpt lat="43.3227264" lon="-3.3044755">
        <ele>66.654999</ele>
        <time>2021-03-14T16:20:41.641Z</time>
      </trkpt>
      <trkpt lat="43.3226444" lon="-3.3044970">
        <ele>66.654999</ele>
        <time>2021-03-14T16:20:42.063Z</time>
      </trkpt>
      <trkpt lat="43.3225898" lon="-3.3045130">
        <ele>66.654999</ele>
        <time>2021-03-14T16:20:42.454Z</time>
      </trkpt>
      <trkpt lat="43.3225234" lon="-3.3045399">
        <ele>66.654999</ele>
        <time>2021-03-14T16:20:42.813Z</time>
      </trkpt>
      <trkpt lat="43.3224376" lon="-3.3045667">
        <ele>66.654999</ele>
        <time>2021-03-14T16:20:43.407Z</time>
      </trkpt>
      <trkpt lat="43.3223673" lon="-3.3046150">
        <ele>66.654999</ele>
        <time>2021-03-14T16:20:43.828Z</time>
      </trkpt>
      <trkpt lat="43.3223049" lon="-3.3046472">
        <ele>66.654999</ele>
        <time>2021-03-14T16:20:44.266Z</time>
      </trkpt>
      <trkpt lat="43.3222464" lon="-3.3046847">
        <ele>66.654999</ele>
        <time>2021-03-14T16:20:44.657Z</time>
      </trkpt>
      <trkpt lat="43.3221917" lon="-3.3046954">
        <ele>66.654999</ele>
        <time>2021-03-14T16:20:44.969Z</time>
      </trkpt>
      <trkpt lat="43.3221488" lon="-3.3046793">
        <ele>66.654999</ele>
        <time>2021-03-14T16:20:45.375Z</time>
      </trkpt>
      <trkpt lat="43.3221566" lon="-3.3046150">
        <ele>66.654999</ele>
        <time>2021-03-14T16:20:45.688Z</time>
      </trkpt>
      <trkpt lat="43.3221878" lon="-3.3045613">
        <ele>66.654999</ele>
        <time>2021-03-14T16:20:46.000Z</time>
      </trkpt>
      <trkpt lat="43.3222151" lon="-3.3045238">
        <ele>66.654999</ele>
        <time>2021-03-14T16:20:46.297Z</time>
      </trkpt>
      <trkpt lat="43.3222425" lon="-3.3044755">
        <ele>66.654999</ele>
        <time>2021-03-14T16:20:46.641Z</time>
      </trkpt>
      <trkpt lat="43.3222620" lon="-3.3044219">
        <ele>66.654999</ele>
        <time>2021-03-14T16:20:46.938Z</time>
      </trkpt>
      <trkpt lat="43.3222659" lon="-3.3043146">
        <ele>66.654999</ele>
        <time>2021-03-14T16:20:47.375Z</time>
      </trkpt>
      <trkpt lat="43.3222581" lon="-3.3042287">
        <ele>66.654999</ele>
        <time>2021-03-14T16:20:47.766Z</time>
      </trkpt>
      <trkpt lat="43.3222464" lon="-3.3041536">
        <ele>66.654999</ele>
        <time>2021-03-14T16:20:48.172Z</time>
      </trkpt>
      <trkpt lat="43.3222151" lon="-3.3040356">
        <ele>66.654999</ele>
        <time>2021-03-14T16:20:48.547Z</time>
      </trkpt>
      <trkpt lat="43.3221878" lon="-3.3039176">
        <ele>66.654999</ele>
        <time>2021-03-14T16:20:48.922Z</time>
      </trkpt>
      <trkpt lat="43.3221800" lon="-3.3038532">
        <ele>66.654999</ele>
        <time>2021-03-14T16:20:49.344Z</time>
      </trkpt>
      <trkpt lat="43.3221332" lon="-3.3037030">
        <ele>66.654999</ele>
        <time>2021-03-14T16:20:49.797Z</time>
      </trkpt>
      <trkpt lat="43.3220629" lon="-3.3035743">
        <ele>66.654999</ele>
        <time>2021-03-14T16:20:50.328Z</time>
      </trkpt>
      <trkpt lat="43.3219615" lon="-3.3035099">
        <ele>66.654999</ele>
        <time>2021-03-14T16:20:50.906Z</time>
      </trkpt>
      <trkpt lat="43.3218522" lon="-3.3034616">
        <ele>66.654999</ele>
        <time>2021-03-14T16:20:51.438Z</time>
      </trkpt>
      <trkpt lat="43.3217195" lon="-3.3034026">
        <ele>66.654999</ele>
        <time>2021-03-14T16:20:52.422Z</time>
      </trkpt>
      <trkpt lat="43.3216102" lon="-3.3033543">
        <ele>66.654999</ele>
        <time>2021-03-14T16:20:52.984Z</time>
      </trkpt>
      <trkpt lat="43.3214909" lon="-3.3033329">
        <ele>66.654999</ele>
        <time>2021-03-14T16:20:55.250Z</time>
      </trkpt>
      <trkpt lat="43.3214050" lon="-3.3033436">
        <ele>66.654999</ele>
        <time>2021-03-14T16:20:55.766Z</time>
      </trkpt>
      <trkpt lat="43.3213114" lon="-3.3033275">
        <ele>66.654999</ele>
        <time>2021-03-14T16:20:56.266Z</time>
      </trkpt>
      <trkpt lat="43.3212099" lon="-3.3033221">
        <ele>66.654999</ele>
        <time>2021-03-14T16:20:57.047Z</time>
      </trkpt>
      <trkpt lat="43.3211006" lon="-3.3033758">
        <ele>66.654999</ele>
        <time>2021-03-14T16:20:57.500Z</time>
      </trkpt>
      <trkpt lat="43.3209953" lon="-3.3033919">
        <ele>66.654999</ele>
        <time>2021-03-14T16:20:58.031Z</time>
      </trkpt>
      <trkpt lat="43.3209211" lon="-3.3034187">
        <ele>66.654999</ele>
        <time>2021-03-14T16:20:58.578Z</time>
      </trkpt>
      <trkpt lat="43.3208470" lon="-3.3035314">
        <ele>66.654999</ele>
        <time>2021-03-14T16:20:59.297Z</time>
      </trkpt>
      <trkpt lat="43.3207689" lon="-3.3036065">
        <ele>66.654999</ele>
        <time>2021-03-14T16:20:59.844Z</time>
      </trkpt>
      <trkpt lat="43.3207025" lon="-3.3037030">
        <ele>66.654999</ele>
        <time>2021-03-14T16:21:00.656Z</time>
      </trkpt>
      <trkpt lat="43.3206410" lon="-3.3038210">
        <ele>66.654999</ele>
        <time>2021-03-14T16:21:10.015Z</time>
      </trkpt>
      <trkpt lat="43.3205239" lon="-3.3039927">
        <ele>66.654999</ele>
        <time>2021-03-14T16:21:10.578Z</time>
      </trkpt>
      <trkpt lat="43.3204147" lon="-3.3040678">
        <ele>66.654999</ele>
        <time>2021-03-14T16:21:11.015Z</time>
      </trkpt>
      <trkpt lat="43.3202820" lon="-3.3041429">
        <ele>66.654999</ele>
        <time>2021-03-14T16:21:11.437Z</time>
      </trkpt>
      <trkpt lat="43.3201727" lon="-3.3042073">
        <ele>66.654999</ele>
        <time>2021-03-14T16:21:11.828Z</time>
      </trkpt>
      <trkpt lat="43.3200868" lon="-3.3042180">
        <ele>66.654999</ele>
        <time>2021-03-14T16:21:12.234Z</time>
      </trkpt>
      <trkpt lat="43.3199541" lon="-3.3041644">
        <ele>66.654999</ele>
        <time>2021-03-14T16:21:12.640Z</time>
      </trkpt>
      <trkpt lat="43.3198136" lon="-3.3041322">
        <ele>66.654999</ele>
        <time>2021-03-14T16:21:13.624Z</time>
      </trkpt>
      <trkpt lat="43.3197122" lon="-3.3041214">
        <ele>66.654999</ele>
        <time>2021-03-14T16:21:14.062Z</time>
      </trkpt>
      <trkpt lat="43.3196263" lon="-3.3041214">
        <ele>66.654999</ele>
        <time>2021-03-14T16:21:14.406Z</time>
      </trkpt>
      <trkpt lat="43.3194624" lon="-3.3042073">
        <ele>66.654999</ele>
        <time>2021-03-14T16:21:14.843Z</time>
      </trkpt>
      <trkpt lat="43.3193531" lon="-3.3043146">
        <ele>66.654999</ele>
        <time>2021-03-14T16:21:15.218Z</time>
      </trkpt>
      <trkpt lat="43.3192672" lon="-3.3043575">
        <ele>66.654999</ele>
        <time>2021-03-14T16:21:15.640Z</time>
      </trkpt>
      <trkpt lat="43.3191502" lon="-3.3044326">
        <ele>66.654999</ele>
        <time>2021-03-14T16:21:16.187Z</time>
      </trkpt>
      <trkpt lat="43.3190019" lon="-3.3044970">
        <ele>66.654999</ele>
        <time>2021-03-14T16:21:17.187Z</time>
      </trkpt>
      <trkpt lat="43.3188848" lon="-3.3045506">
        <ele>66.654999</ele>
        <time>2021-03-14T16:21:17.656Z</time>
      </trkpt>
      <trkpt lat="43.3187599" lon="-3.3045828">
        <ele>66.654999</ele>
        <time>2021-03-14T16:21:18.390Z</time>
      </trkpt>
      <trkpt lat="43.3186116" lon="-3.3045828">
        <ele>66.654999</ele>
        <time>2021-03-14T16:21:18.874Z</time>
      </trkpt>
      <trkpt lat="43.3184476" lon="-3.3046042">
        <ele>66.654999</ele>
        <time>2021-03-14T16:21:19.890Z</time>
      </trkpt>
      <trkpt lat="43.3182603" lon="-3.3046042">
        <ele>66.654999</ele>
        <time>2021-03-14T16:21:20.452Z</time>
      </trkpt>
      <trkpt lat="43.3180808" lon="-3.3045935">
        <ele>66.654999</ele>
        <time>2021-03-14T16:21:21.077Z</time>
      </trkpt>
      <trkpt lat="43.3179793" lon="-3.3045506">
        <ele>66.654999</ele>
        <time>2021-03-14T16:21:21.562Z</time>
      </trkpt>
      <trkpt lat="43.3178154" lon="-3.3045828">
        <ele>66.654999</ele>
        <time>2021-03-14T16:21:22.609Z</time>
      </trkpt>
      <trkpt lat="43.3176358" lon="-3.3046364">
        <ele>66.654999</ele>
        <time>2021-03-14T16:21:23.812Z</time>
      </trkpt>
      <trkpt lat="43.3175344" lon="-3.3046793">
        <ele>66.654999</ele>
        <time>2021-03-14T16:21:24.562Z</time>
      </trkpt>
      <trkpt lat="43.3174452" lon="-3.3047223">
        <ele>66.654999</ele>
        <time>2021-03-14T16:21:31.655Z</time>
      </trkpt>
      <trkpt lat="43.3173571" lon="-3.3047544">
        <ele>66.654999</ele>
        <time>2021-03-14T16:21:32.155Z</time>
      </trkpt>
      <trkpt lat="43.3172768" lon="-3.3047598">
        <ele>66.654999</ele>
        <time>2021-03-14T16:21:32.702Z</time>
      </trkpt>
      <trkpt lat="43.3171987" lon="-3.3047491">
        <ele>66.654999</ele>
        <time>2021-03-14T16:21:33.233Z</time>
      </trkpt>
      <trkpt lat="43.3170934" lon="-3.3047062">
        <ele>66.654999</ele>
        <time>2021-03-14T16:21:34.233Z</time>
      </trkpt>
      <trkpt lat="43.3169802" lon="-3.3046740">
        <ele>66.654999</ele>
        <time>2021-03-14T16:21:34.764Z</time>
      </trkpt>
      <trkpt lat="43.3169021" lon="-3.3046793">
        <ele>66.654999</ele>
        <time>2021-03-14T16:21:35.389Z</time>
      </trkpt>
      <trkpt lat="43.3167967" lon="-3.3046793">
        <ele>66.654999</ele>
        <time>2021-03-14T16:21:35.999Z</time>
      </trkpt>
      <trkpt lat="43.3166953" lon="-3.3046472">
        <ele>66.654999</ele>
        <time>2021-03-14T16:21:36.639Z</time>
      </trkpt>
      <trkpt lat="43.3165430" lon="-3.3046311">
        <ele>66.654999</ele>
        <time>2021-03-14T16:21:37.311Z</time>
      </trkpt>
      <trkpt lat="43.3164142" lon="-3.3045721">
        <ele>66.654999</ele>
        <time>2021-03-14T16:21:37.842Z</time>
      </trkpt>
      <trkpt lat="43.3163284" lon="-3.3045077">
        <ele>66.654999</ele>
        <time>2021-03-14T16:21:38.733Z</time>
      </trkpt>
      <trkpt lat="43.3162113" lon="-3.3044326">
        <ele>66.654999</ele>
        <time>2021-03-14T16:21:39.405Z</time>
      </trkpt>
      <trkpt lat="43.3161254" lon="-3.3043628">
        <ele>66.654999</ele>
        <time>2021-03-14T16:21:39.920Z</time>
      </trkpt>
      <trkpt lat="43.3160178" lon="-3.3042985">
        <ele>66.654999</ele>
        <time>2021-03-14T16:21:42.311Z</time>
      </trkpt>
      <trkpt lat="43.3159202" lon="-3.3042287">
        <ele>66.654999</ele>
        <time>2021-03-14T16:21:42.811Z</time>
      </trkpt>
      <trkpt lat="43.3158344" lon="-3.3041483">
        <ele>66.654999</ele>
        <time>2021-03-14T16:21:43.311Z</time>
      </trkpt>
      <trkpt lat="43.3157719" lon="-3.3040839">
        <ele>66.654999</ele>
        <time>2021-03-14T16:21:43.733Z</time>
      </trkpt>
      <trkpt lat="43.3157017" lon="-3.3039873">
        <ele>66.654999</ele>
        <time>2021-03-14T16:21:44.217Z</time>
      </trkpt>
      <trkpt lat="43.3156197" lon="-3.3039230">
        <ele>66.654999</ele>
        <time>2021-03-14T16:21:44.623Z</time>
      </trkpt>
      <trkpt lat="43.3155455" lon="-3.3038908">
        <ele>66.654999</ele>
        <time>2021-03-14T16:21:45.045Z</time>
      </trkpt>
      <trkpt lat="43.3154558" lon="-3.3038479">
        <ele>66.654999</ele>
        <time>2021-03-14T16:21:45.592Z</time>
      </trkpt>
      <trkpt lat="43.3153660" lon="-3.3038049">
        <ele>66.654999</ele>
        <time>2021-03-14T16:21:46.139Z</time>
      </trkpt>
      <trkpt lat="43.3152957" lon="-3.3037567">
        <ele>66.654999</ele>
        <time>2021-03-14T16:21:46.733Z</time>
      </trkpt>
      <trkpt lat="43.3152076" lon="-3.3037620">
        <ele>66.654999</ele>
        <time>2021-03-14T16:21:48.655Z</time>
      </trkpt>
      <trkpt lat="43.3151452" lon="-3.3037942">
        <ele>66.654999</ele>
        <time>2021-03-14T16:21:49.092Z</time>
      </trkpt>
      <trkpt lat="43.3150593" lon="-3.3038425">
        <ele>66.654999</ele>
        <time>2021-03-14T16:21:49.639Z</time>
      </trkpt>
      <trkpt lat="43.3150086" lon="-3.3039122">
        <ele>66.654999</ele>
        <time>2021-03-14T16:21:50.061Z</time>
      </trkpt>
      <trkpt lat="43.3149773" lon="-3.3040034">
        <ele>66.654999</ele>
        <time>2021-03-14T16:21:50.483Z</time>
      </trkpt>
      <trkpt lat="43.3149578" lon="-3.3040946">
        <ele>66.654999</ele>
        <time>2021-03-14T16:21:50.920Z</time>
      </trkpt>
      <trkpt lat="43.3149461" lon="-3.3041483">
        <ele>66.654999</ele>
        <time>2021-03-14T16:21:51.311Z</time>
      </trkpt>
      <trkpt lat="43.3149344" lon="-3.3042287">
        <ele>66.654999</ele>
        <time>2021-03-14T16:21:51.764Z</time>
      </trkpt>
      <trkpt lat="43.3149188" lon="-3.3043092">
        <ele>66.654999</ele>
        <time>2021-03-14T16:21:52.233Z</time>
      </trkpt>
      <trkpt lat="43.3149149" lon="-3.3043897">
        <ele>66.654999</ele>
        <time>2021-03-14T16:21:52.670Z</time>
      </trkpt>
      <trkpt lat="43.3148954" lon="-3.3044594">
        <ele>66.654999</ele>
        <time>2021-03-14T16:21:53.076Z</time>
      </trkpt>
      <trkpt lat="43.3148954" lon="-3.3045130">
        <ele>66.654999</ele>
        <time>2021-03-14T16:21:53.748Z</time>
      </trkpt>
      <trkpt lat="43.3146680" lon="-3.3048120">
        <ele>348.043030</ele>
        <time>2015-11-07T12:26:29.000Z</time>
      </trkpt>
      <trkpt lat="43.3146110" lon="-3.3049500">
        <ele>349.092987</ele>
        <time>2015-11-07T12:26:31.000Z</time>
      </trkpt>
      <trkpt lat="43.3145170" lon="-3.3051130">
        <ele>348.024994</ele>
        <time>2015-11-07T12:26:33.000Z</time>
      </trkpt>
      <trkpt lat="43.3143940" lon="-3.3051390">
        <ele>349.032990</ele>
        <time>2015-11-07T12:26:35.000Z</time>
      </trkpt>
      <trkpt lat="43.3142960" lon="-3.3051010">
        <ele>349.073975</ele>
        <time>2015-11-07T12:26:37.000Z</time>
      </trkpt>
      <trkpt lat="43.3141940" lon="-3.3050860">
        <ele>348.053986</ele>
        <time>2015-11-07T12:26:40.000Z</time>
      </trkpt>
      <trkpt lat="43.3141030" lon="-3.3050070">
        <ele>353.032990</ele>
        <time>2015-11-07T12:26:45.000Z</time>
      </trkpt>
      <trkpt lat="43.3140160" lon="-3.3049200">
        <ele>352.059998</ele>
        <time>2015-11-07T12:26:50.000Z</time>
      </trkpt>
      <trkpt lat="43.3139210" lon="-3.3048670">
        <ele>353.071991</ele>
        <time>2015-11-07T12:26:54.000Z</time>
      </trkpt>
      <trkpt lat="43.3138470" lon="-3.3047930">
        <ele>351.013000</ele>
        <time>2015-11-07T12:26:58.000Z</time>
      </trkpt>
      <trkpt lat="43.3137710" lon="-3.3047010">
        <ele>351.014008</ele>
        <time>2015-11-07T12:27:03.000Z</time>
      </trkpt>
      <trkpt lat="43.3137080" lon="-3.3046120">
        <ele>350.007996</ele>
        <time>2015-11-07T12:27:07.000Z</time>
      </trkpt>
      <trkpt lat="43.3136360" lon="-3.3045270">
        <ele>350.097992</ele>
        <time>2015-11-07T12:27:11.000Z</time>
      </trkpt>
      <trkpt lat="43.3135720" lon="-3.3044190">
        <ele>350.068024</ele>
        <time>2015-11-07T12:27:16.000Z</time>
      </trkpt>
      <trkpt lat="43.3135090" lon="-3.3043220">
        <ele>353.079987</ele>
        <time>2015-11-07T12:27:21.000Z</time>
      </trkpt>
      <trkpt lat="43.3134480" lon="-3.3042230">
        <ele>353.018005</ele>
        <time>2015-11-07T12:27:26.000Z</time>
      </trkpt>
      <trkpt lat="43.3133900" lon="-3.3041210">
        <ele>352.088989</ele>
        <time>2015-11-07T12:27:30.000Z</time>
      </trkpt>
      <trkpt lat="43.3133180" lon="-3.3040440">
        <ele>353.059021</ele>
        <time>2015-11-07T12:27:34.000Z</time>
      </trkpt>
      <trkpt lat="43.3132190" lon="-3.3039640">
        <ele>353.077972</ele>
        <time>2015-11-07T12:27:39.000Z</time>
      </trkpt>
      <trkpt lat="43.3131390" lon="-3.3039040">
        <ele>353.024994</ele>
        <time>2015-11-07T12:27:43.000Z</time>
      </trkpt>
      <trkpt lat="43.3130520" lon="-3.3038430">
        <ele>358.046021</ele>
        <time>2015-11-07T12:27:48.000Z</time>
      </trkpt>
      <trkpt lat="43.3130040" lon="-3.3039490">
        <ele>359.088013</ele>
        <time>2015-11-07T12:27:56.000Z</time>
      </trkpt>
      <trkpt lat="43.3130580" lon="-3.3040480">
        <ele>360.016022</ele>
        <time>2015-11-07T12:28:02.000Z</time>
      </trkpt>
      <trkpt lat="43.3131150" lon="-3.3041600">
        <ele>361.007996</ele>
        <time>2015-11-07T12:28:07.000Z</time>
      </trkpt>
      <trkpt lat="43.3131610" lon="-3.3042890">
        <ele>360.035004</ele>
        <time>2015-11-07T12:28:12.000Z</time>
      </trkpt>
      <trkpt lat="43.3131300" lon="-3.3044280">
        <ele>362.035004</ele>
        <time>2015-11-07T12:28:18.000Z</time>
      </trkpt>
      <trkpt lat="43.3130310" lon="-3.3044560">
        <ele>363.027008</ele>
        <time>2015-11-07T12:28:22.000Z</time>
      </trkpt>
      <trkpt lat="43.3129410" lon="-3.3043800">
        <ele>365.075012</ele>
        <time>2015-11-07T12:28:26.000Z</time>
      </trkpt>
      <trkpt lat="43.3128950" lon="-3.3042540">
        <ele>365.026031</ele>
        <time>2015-11-07T12:28:30.000Z</time>
      </trkpt>
      <trkpt lat="43.3128760" lon="-3.3041170">
        <ele>364.015991</ele>
        <time>2015-11-07T12:28:34.000Z</time>
      </trkpt>
      <trkpt lat="43.3128110" lon="-3.3040230">
        <ele>365.084991</ele>
        <time>2015-11-07T12:28:39.000Z</time>
      </trkpt>
      <trkpt lat="43.3127190" lon="-3.3040680">
        <ele>367.052002</ele>
        <time>2015-11-07T12:28:44.000Z</time>
      </trkpt>
      <trkpt lat="43.3127160" lon="-3.3042140">
        <ele>368.025024</ele>
        <time>2015-11-07T12:28:49.000Z</time>
      </trkpt>
      <trkpt lat="43.3127380" lon="-3.3043510">
        <ele>369.026001</ele>
        <time>2015-11-07T12:28:54.000Z</time>
      </trkpt>
      <trkpt lat="43.3127570" lon="-3.3044940">
        <ele>370.007996</ele>
        <time>2015-11-07T12:28:59.000Z</time>
      </trkpt>
      <trkpt lat="43.3127870" lon="-3.3046400">
        <ele>372.007996</ele>
        <time>2015-11-07T12:29:04.000Z</time>
      </trkpt>
      <trkpt lat="43.3128060" lon="-3.3047640">
        <ele>373.072998</ele>
        <time>2015-11-07T12:29:08.000Z</time>
      </trkpt>
      <trkpt lat="43.3127910" lon="-3.3048900">
        <ele>374.063019</ele>
        <time>2015-11-07T12:29:13.000Z</time>
      </trkpt>
      <trkpt lat="43.3127010" lon="-3.3047900">
        <ele>374.074982</ele>
        <time>2015-11-07T12:29:17.000Z</time>
      </trkpt>
      <trkpt lat="43.3126330" lon="-3.3046630">
        <ele>375.053009</ele>
        <time>2015-11-07T12:29:21.000Z</time>
      </trkpt>
      <trkpt lat="43.3125640" lon="-3.3045790">
        <ele>375.053986</ele>
        <time>2015-11-07T12:29:25.000Z</time>
      </trkpt>
      <trkpt lat="43.3124920" lon="-3.3044960">
        <ele>376.093994</ele>
        <time>2015-11-07T12:29:29.000Z</time>
      </trkpt>
      <trkpt lat="43.3124180" lon="-3.3044080">
        <ele>379.092987</ele>
        <time>2015-11-07T12:29:34.000Z</time>
      </trkpt>
      <trkpt lat="43.3123340" lon="-3.3043260">
        <ele>380.029999</ele>
        <time>2015-11-07T12:29:40.000Z</time>
      </trkpt>
      <trkpt lat="43.3122430" lon="-3.3042530">
        <ele>382.053009</ele>
        <time>2015-11-07T12:29:46.000Z</time>
      </trkpt>
      <trkpt lat="43.3121530" lon="-3.3042080">
        <ele>383.003998</ele>
        <time>2015-11-07T12:29:52.000Z</time>
      </trkpt>
      <trkpt lat="43.3120550" lon="-3.3041790">
        <ele>384.014008</ele>
        <time>2015-11-07T12:29:58.000Z</time>
      </trkpt>
      <trkpt lat="43.3119630" lon="-3.3041810">
        <ele>385.008026</ele>
        <time>2015-11-07T12:30:04.000Z</time>
      </trkpt>
      <trkpt lat="43.3118650" lon="-3.3041770">
        <ele>386.036011</ele>
        <time>2015-11-07T12:30:10.000Z</time>
      </trkpt>
      <trkpt lat="43.3117690" lon="-3.3042360">
        <ele>388.085999</ele>
        <time>2015-11-07T12:30:18.000Z</time>
      </trkpt>
      <trkpt lat="43.3117290" lon="-3.3043560">
        <ele>389.018005</ele>
        <time>2015-11-07T12:30:23.000Z</time>
      </trkpt>
      <trkpt lat="43.3116930" lon="-3.3044900">
        <ele>389.036011</ele>
        <time>2015-11-07T12:30:28.000Z</time>
      </trkpt>
      <trkpt lat="43.3116450" lon="-3.3046270">
        <ele>391.076996</ele>
        <time>2015-11-07T12:30:33.000Z</time>
      </trkpt>
      <trkpt lat="43.3115750" lon="-3.3047400">
        <ele>391.037018</ele>
        <time>2015-11-07T12:30:38.000Z</time>
      </trkpt>
      <trkpt lat="43.3114950" lon="-3.3048060">
        <ele>391.026001</ele>
        <time>2015-11-07T12:30:41.000Z</time>
      </trkpt>
      <trkpt lat="43.3114050" lon="-3.3048230">
        <ele>391.083008</ele>
        <time>2015-11-07T12:30:44.000Z</time>
      </trkpt>
      <trkpt lat="43.3113040" lon="-3.3048030">
        <ele>391.092010</ele>
        <time>2015-11-07T12:30:47.000Z</time>
      </trkpt>
      <trkpt lat="43.3112070" lon="-3.3047760">
        <ele>391.072998</ele>
        <time>2015-11-07T12:30:50.000Z</time>
      </trkpt>
      <trkpt lat="43.3111220" lon="-3.3047000">
        <ele>390.019989</ele>
        <time>2015-11-07T12:30:53.000Z</time>
      </trkpt>
      <trkpt lat="43.3110420" lon="-3.3046100">
        <ele>389.007996</ele>
        <time>2015-11-07T12:30:56.000Z</time>
      </trkpt>
      <trkpt lat="43.3109600" lon="-3.3045180">
        <ele>389.069977</ele>
        <time>2015-11-07T12:31:00.000Z</time>
      </trkpt>
      <trkpt lat="43.3108720" lon="-3.3044460">
        <ele>391.070007</ele>
        <time>2015-11-07T12:31:04.000Z</time>
      </trkpt>
      <trkpt lat="43.3107690" lon="-3.3043820">
        <ele>392.031982</ele>
        <time>2015-11-07T12:31:08.000Z</time>
      </trkpt>
      <trkpt lat="43.3106840" lon="-3.3043360">
        <ele>392.089996</ele>
        <time>2015-11-07T12:31:11.000Z</time>
      </trkpt>
      <trkpt lat="43.3105910" lon="-3.3042540">
        <ele>392.050995</ele>
        <time>2015-11-07T12:31:15.000Z</time>
      </trkpt>
      <trkpt lat="43.3105280" lon="-3.3041580">
        <ele>392.080994</ele>
        <time>2015-11-07T12:31:19.000Z</time>
      </trkpt>
      <trkpt lat="43.3104740" lon="-3.3040540">
        <ele>391.059998</ele>
        <time>2015-11-07T12:31:22.000Z</time>
      </trkpt>
      <trkpt lat="43.3104110" lon="-3.3039350">
        <ele>391.027008</ele>
        <time>2015-11-07T12:31:26.000Z</time>
      </trkpt>
      <trkpt lat="43.3103100" lon="-3.3038590">
        <ele>392.065002</ele>
        <time>2015-11-07T12:31:31.000Z</time>
      </trkpt>
      <trkpt lat="43.3102140" lon="-3.3038630">
        <ele>391.067993</ele>
        <time>2015-11-07T12:31:36.000Z</time>
      </trkpt>
      <trkpt lat="43.3101260" lon="-3.3039150">
        <ele>393.014008</ele>
        <time>2015-11-07T12:31:42.000Z</time>
      </trkpt>
      <trkpt lat="43.3100110" lon="-3.3039620">
        <ele>392.007996</ele>
        <time>2015-11-07T12:31:45.000Z</time>
      </trkpt>
      <trkpt lat="43.3099170" lon="-3.3039990">
        <ele>393.087006</ele>
        <time>2015-11-07T12:31:47.000Z</time>
      </trkpt>
      <trkpt lat="43.3098080" lon="-3.3040310">
        <ele>393.017029</ele>
        <time>2015-11-07T12:31:48.000Z</time>
      </trkpt>
      <trkpt lat="43.3097030" lon="-3.3040320">
        <ele>393.098969</ele>
        <time>2015-11-07T12:31:50.000Z</time>
      </trkpt>
      <trkpt lat="43.3095710" lon="-3.3040400">
        <ele>392.077026</ele>
        <time>2015-11-07T12:31:52.000Z</time>
      </trkpt>
      <trkpt lat="43.3094400" lon="-3.3040460">
        <ele>393.017975</ele>
        <time>2015-11-07T12:31:54.000Z</time>
      </trkpt>
      <trkpt lat="43.3093270" lon="-3.3040000">
        <ele>393.048004</ele>
        <time>2015-11-07T12:31:56.000Z</time>
      </trkpt>
      <trkpt lat="43.3092110" lon="-3.3039090">
        <ele>392.036987</ele>
        <time>2015-11-07T12:31:58.000Z</time>
      </trkpt>
      <trkpt lat="43.3091310" lon="-3.3037960">
        <ele>393.063995</ele>
        <time>2015-11-07T12:32:00.000Z</time>
      </trkpt>
      <trkpt lat="43.3091210" lon="-3.3036620">
        <ele>393.058014</ele>
        <time>2015-11-07T12:32:03.000Z</time>
      </trkpt>
      <trkpt lat="43.3092010" lon="-3.3035740">
        <ele>393.052002</ele>
        <time>2015-11-07T12:32:09.000Z</time>
      </trkpt>
      <trkpt lat="43.3092600" lon="-3.3034800">
        <ele>394.016998</ele>
        <time>2015-11-07T12:32:13.000Z</time>
      </trkpt>
      <trkpt lat="43.3092770" lon="-3.3033390">
        <ele>395.007996</ele>
        <time>2015-11-07T12:32:18.000Z</time>
      </trkpt>
      <trkpt lat="43.3092850" lon="-3.3032020">
        <ele>396.016022</ele>
        <time>2015-11-07T12:32:26.000Z</time>
      </trkpt>
      <trkpt lat="43.3093370" lon="-3.3030820">
        <ele>397.076019</ele>
        <time>2015-11-07T12:32:33.000Z</time>
      </trkpt>
      <trkpt lat="43.3094260" lon="-3.3029830">
        <ele>399.078003</ele>
        <time>2015-11-07T12:32:40.000Z</time>
      </trkpt>
      <trkpt lat="43.3094860" lon="-3.3028830">
        <ele>400.015991</ele>
        <time>2015-11-07T12:32:42.000Z</time>
      </trkpt>
      <trkpt lat="43.3095430" lon="-3.3027810">
        <ele>401.046997</ele>
        <time>2015-11-07T12:32:44.000Z</time>
      </trkpt>
      <trkpt lat="43.3096360" lon="-3.3026420">
        <ele>402.037018</ele>
        <time>2015-11-07T12:32:46.000Z</time>
      </trkpt>
      <trkpt lat="43.3097080" lon="-3.3025640">
        <ele>406.036011</ele>
        <time>2015-11-07T12:32:50.000Z</time>
      </trkpt>
      <trkpt lat="43.3097920" lon="-3.3024830">
        <ele>409.013000</ele>
        <time>2015-11-07T12:32:55.000Z</time>
      </trkpt>
      <trkpt lat="43.3098680" lon="-3.3024020">
        <ele>410.054016</ele>
        <time>2015-11-07T12:32:58.000Z</time>
      </trkpt>
      <trkpt lat="43.3099590" lon="-3.3023070">
        <ele>407.056000</ele>
        <time>2015-11-07T12:33:01.000Z</time>
      </trkpt>
      <trkpt lat="43.3100510" lon="-3.3021810">
        <ele>409.011017</ele>
        <time>2015-11-07T12:33:04.000Z</time>
      </trkpt>
      <trkpt lat="43.3101320" lon="-3.3021000">
        <ele>408.007996</ele>
        <time>2015-11-07T12:33:07.000Z</time>
      </trkpt>
      <trkpt lat="43.3102160" lon="-3.3020520">
        <ele>409.015991</ele>
        <time>2015-11-07T12:33:11.000Z</time>
      </trkpt>
      <trkpt lat="43.3103040" lon="-3.3019890">
        <ele>409.096008</ele>
        <time>2015-11-07T12:33:15.000Z</time>
      </trkpt>
      <trkpt lat="43.3103970" lon="-3.3019180">
        <ele>409.037994</ele>
        <time>2015-11-07T12:33:20.000Z</time>
      </trkpt>
      <trkpt lat="43.3104820" lon="-3.3018130">
        <ele>411.056000</ele>
        <time>2015-11-07T12:33:26.000Z</time>
      </trkpt>
      <trkpt lat="43.3105600" lon="-3.3017160">
        <ele>414.027008</ele>
        <time>2015-11-07T12:33:30.000Z</time>
      </trkpt>
      <trkpt lat="43.3106250" lon="-3.3016120">
        <ele>416.016998</ele>
        <time>2015-11-07T12:33:35.000Z</time>
      </trkpt>
      <trkpt lat="43.3106810" lon="-3.3015120">
        <ele>420.056000</ele>
        <time>2015-11-07T12:33:40.000Z</time>
      </trkpt>
      <trkpt lat="43.3107370" lon="-3.3014110">
        <ele>422.072998</ele>
        <time>2015-11-07T12:33:45.000Z</time>
      </trkpt>
      <trkpt lat="43.3107970" lon="-3.3013050">
        <ele>423.066010</ele>
        <time>2015-11-07T12:33:50.000Z</time>
      </trkpt>
      <trkpt lat="43.3108610" lon="-3.3011940">
        <ele>422.029022</ele>
        <time>2015-11-07T12:33:54.000Z</time>
      </trkpt>
      <trkpt lat="43.3109060" lon="-3.3010630">
        <ele>424.020996</ele>
        <time>2015-11-07T12:33:58.000Z</time>
      </trkpt>
      <trkpt lat="43.3109190" lon="-3.3009400">
        <ele>424.008026</ele>
        <time>2015-11-07T12:34:02.000Z</time>
      </trkpt>
      <trkpt lat="43.3109310" lon="-3.3007900">
        <ele>424.076996</ele>
        <time>2015-11-07T12:34:07.000Z</time>
      </trkpt>
      <trkpt lat="43.3109330" lon="-3.3006410">
        <ele>425.037018</ele>
        <time>2015-11-07T12:34:12.000Z</time>
      </trkpt>
      <trkpt lat="43.3109220" lon="-3.3005100">
        <ele>425.019012</ele>
        <time>2015-11-07T12:34:16.000Z</time>
      </trkpt>
      <trkpt lat="43.3109040" lon="-3.3003680">
        <ele>424.016998</ele>
        <time>2015-11-07T12:34:21.000Z</time>
      </trkpt>
      <trkpt lat="43.3109080" lon="-3.3002330">
        <ele>427.027985</ele>
        <time>2015-11-07T12:34:27.000Z</time>
      </trkpt>
      <trkpt lat="43.3109800" lon="-3.3001400">
        <ele>425.087982</ele>
        <time>2015-11-07T12:34:33.000Z</time>
      </trkpt>
      <trkpt lat="43.3110690" lon="-3.3000690">
        <ele>427.076996</ele>
        <time>2015-11-07T12:39:59.000Z</time>
      </trkpt>
      <trkpt lat="43.3111900" lon="-3.2999530">
        <ele>426.034027</ele>
        <time>2015-11-07T12:40:02.000Z</time>
      </trkpt>
      <trkpt lat="43.3112840" lon="-3.2998140">
        <ele>425.067993</ele>
        <time>2015-11-07T12:40:04.000Z</time>
      </trkpt>
      <trkpt lat="43.3113580" lon="-3.2996610">
        <ele>423.042023</ele>
        <time>2015-11-07T12:40:05.000Z</time>
      </trkpt>
      <trkpt lat="43.3113810" lon="-3.2995380">
        <ele>422.026001</ele>
        <time>2015-11-07T12:40:06.000Z</time>
      </trkpt>
      <trkpt lat="43.3114050" lon="-3.2993490">
        <ele>421.008026</ele>
        <time>2015-11-07T12:40:08.000Z</time>
      </trkpt>
      <trkpt lat="43.3113830" lon="-3.2991710">
        <ele>420.027008</ele>
        <time>2015-11-07T12:40:10.000Z</time>
      </trkpt>
      <trkpt lat="43.3113160" lon="-3.2989950">
        <ele>418.066986</ele>
        <time>2015-11-07T12:40:12.000Z</time>
      </trkpt>
      <trkpt lat="43.3112130" lon="-3.2988650">
        <ele>417.088989</ele>
        <time>2015-11-07T12:40:14.000Z</time>
      </trkpt>
      <trkpt lat="43.3111010" lon="-3.2987620">
        <ele>415.057007</ele>
        <time>2015-11-07T12:40:16.000Z</time>
      </trkpt>
      <trkpt lat="43.3110090" lon="-3.2986390">
        <ele>413.078003</ele>
        <time>2015-11-07T12:40:18.000Z</time>
      </trkpt>
      <trkpt lat="43.3110340" lon="-3.2984950">
        <ele>412.058014</ele>
        <time>2015-11-07T12:40:20.000Z</time>
      </trkpt>
      <trkpt lat="43.3111120" lon="-3.2984200">
        <ele>410.026978</ele>
        <time>2015-11-07T12:40:22.000Z</time>
      </trkpt>
      <trkpt lat="43.3112260" lon="-3.2984050">
        <ele>409.023987</ele>
        <time>2015-11-07T12:40:24.000Z</time>
      </trkpt>
      <trkpt lat="43.3112740" lon="-3.2982640">
        <ele>406.014984</ele>
        <time>2015-11-07T12:40:27.000Z</time>
      </trkpt>
      <trkpt lat="43.3111310" lon="-3.2982060">
        <ele>406.065002</ele>
        <time>2015-11-07T12:40:30.000Z</time>
      </trkpt>
      <trkpt lat="43.3110210" lon="-3.2981820">
        <ele>404.010986</ele>
        <time>2015-11-07T12:40:32.000Z</time>
      </trkpt>
      <trkpt lat="43.3109030" lon="-3.2981970">
        <ele>404.007996</ele>
        <time>2015-11-07T12:40:34.000Z</time>
      </trkpt>
      <trkpt lat="43.3107620" lon="-3.2982470">
        <ele>403.082001</ele>
        <time>2015-11-07T12:40:36.000Z</time>
      </trkpt>
      <trkpt lat="43.3106560" lon="-3.2982400">
        <ele>404.091980</ele>
        <time>2015-11-07T12:40:38.000Z</time>
      </trkpt>
      <trkpt lat="43.3105750" lon="-3.2981620">
        <ele>404.053986</ele>
        <time>2015-11-07T12:40:40.000Z</time>
      </trkpt>
      <trkpt lat="43.3105260" lon="-3.2980250">
        <ele>405.022003</ele>
        <time>2015-11-07T12:40:42.000Z</time>
      </trkpt>
      <trkpt lat="43.3104580" lon="-3.2978670">
        <ele>405.013000</ele>
        <time>2015-11-07T12:40:45.000Z</time>
      </trkpt>
      <trkpt lat="43.3103770" lon="-3.2977840">
        <ele>407.033020</ele>
        <time>2015-11-07T12:40:47.000Z</time>
      </trkpt>
      <trkpt lat="43.3102970" lon="-3.2976510">
        <ele>407.032013</ele>
        <time>2015-11-07T12:40:50.000Z</time>
      </trkpt>
      <trkpt lat="43.3102180" lon="-3.2975210">
        <ele>407.098969</ele>
        <time>2015-11-07T12:40:53.000Z</time>
      </trkpt>
      <trkpt lat="43.3101500" lon="-3.2974310">
        <ele>407.057007</ele>
        <time>2015-11-07T12:40:55.000Z</time>
      </trkpt>
      <trkpt lat="43.3100810" lon="-3.2973330">
        <ele>407.000000</ele>
        <time>2015-11-07T12:40:57.000Z</time>
      </trkpt>
      <trkpt lat="43.3099910" lon="-3.2972470">
        <ele>407.019989</ele>
        <time>2015-11-07T12:40:59.000Z</time>
      </trkpt>
      <trkpt lat="43.3099110" lon="-3.2971210">
        <ele>405.007996</ele>
        <time>2015-11-07T12:41:01.000Z</time>
      </trkpt>
      <trkpt lat="43.3098170" lon="-3.2970500">
        <ele>403.085968</ele>
        <time>2015-11-07T12:41:03.000Z</time>
      </trkpt>
      <trkpt lat="43.3097150" lon="-3.2970020">
        <ele>402.096008</ele>
        <time>2015-11-07T12:41:05.000Z</time>
      </trkpt>
      <trkpt lat="43.3096180" lon="-3.2969830">
        <ele>400.058014</ele>
        <time>2015-11-07T12:41:07.000Z</time>
      </trkpt>
      <trkpt lat="43.3094900" lon="-3.2970470">
        <ele>399.085999</ele>
        <time>2015-11-07T12:41:10.000Z</time>
      </trkpt>
      <trkpt lat="43.3093730" lon="-3.2970210">
        <ele>398.076996</ele>
        <time>2015-11-07T12:41:12.000Z</time>
      </trkpt>
      <trkpt lat="43.3093030" lon="-3.2969290">
        <ele>399.066986</ele>
        <time>2015-11-07T12:41:14.000Z</time>
      </trkpt>
      <trkpt lat="43.3093470" lon="-3.2967530">
        <ele>400.036011</ele>
        <time>2015-11-07T12:41:16.000Z</time>
      </trkpt>
      <trkpt lat="43.3093240" lon="-3.2966000">
        <ele>398.052979</ele>
        <time>2015-11-07T12:41:18.000Z</time>
      </trkpt>
      <trkpt lat="43.3092600" lon="-3.2964580">
        <ele>398.082001</ele>
        <time>2015-11-07T12:41:20.000Z</time>
      </trkpt>
      <trkpt lat="43.3091830" lon="-3.2962650">
        <ele>398.043030</ele>
        <time>2015-11-07T12:41:22.000Z</time>
      </trkpt>
      <trkpt lat="43.3090980" lon="-3.2961300">
        <ele>398.016998</ele>
        <time>2015-11-07T12:41:24.000Z</time>
      </trkpt>
      <trkpt lat="43.3090620" lon="-3.2960060">
        <ele>394.007996</ele>
        <time>2015-11-07T12:41:26.000Z</time>
      </trkpt>
      <trkpt lat="43.3089710" lon="-3.2958820">
        <ele>395.068970</ele>
        <time>2015-11-07T12:41:28.000Z</time>
      </trkpt>
      <trkpt lat="43.3089110" lon="-3.2957800">
        <ele>393.058990</ele>
        <time>2015-11-07T12:41:30.000Z</time>
      </trkpt>
      <trkpt lat="43.3088620" lon="-3.2956130">
        <ele>392.020996</ele>
        <time>2015-11-07T12:41:32.000Z</time>
      </trkpt>
      <trkpt lat="43.3088170" lon="-3.2954360">
        <ele>393.049011</ele>
        <time>2015-11-07T12:41:34.000Z</time>
      </trkpt>
      <trkpt lat="43.3087520" lon="-3.2952870">
        <ele>393.019989</ele>
        <time>2015-11-07T12:41:36.000Z</time>
      </trkpt>
      <trkpt lat="43.3087120" lon="-3.2951370">
        <ele>392.040009</ele>
        <time>2015-11-07T12:41:38.000Z</time>
      </trkpt>
      <trkpt lat="43.3086650" lon="-3.2949320">
        <ele>390.099030</ele>
        <time>2015-11-07T12:41:40.000Z</time>
      </trkpt>
      <trkpt lat="43.3086000" lon="-3.2946850">
        <ele>387.015991</ele>
        <time>2015-11-07T12:41:42.000Z</time>
      </trkpt>
      <trkpt lat="43.3085600" lon="-3.2945530">
        <ele>386.046997</ele>
        <time>2015-11-07T12:41:43.000Z</time>
      </trkpt>
      <trkpt lat="43.3085200" lon="-3.2944150">
        <ele>385.028992</ele>
        <time>2015-11-07T12:41:44.000Z</time>
      </trkpt>
      <trkpt lat="43.3084750" lon="-3.2942560">
        <ele>383.021027</ele>
        <time>2015-11-07T12:41:45.000Z</time>
      </trkpt>
      <trkpt lat="43.3084320" lon="-3.2940970">
        <ele>381.007996</ele>
        <time>2015-11-07T12:41:46.000Z</time>
      </trkpt>
      <trkpt lat="43.3083890" lon="-3.2939430">
        <ele>380.035004</ele>
        <time>2015-11-07T12:41:47.000Z</time>
      </trkpt>
      <trkpt lat="43.3083520" lon="-3.2937930">
        <ele>380.074982</ele>
        <time>2015-11-07T12:41:48.000Z</time>
      </trkpt>
      <trkpt lat="43.3083100" lon="-3.2936360">
        <ele>379.017029</ele>
        <time>2015-11-07T12:41:49.000Z</time>
      </trkpt>
      <trkpt lat="43.3082740" lon="-3.2935010">
        <ele>378.024994</ele>
        <time>2015-11-07T12:41:50.000Z</time>
      </trkpt>
      <trkpt lat="43.3082200" lon="-3.2932710">
        <ele>377.026001</ele>
        <time>2015-11-07T12:41:52.000Z</time>
      </trkpt>
      <trkpt lat="43.3082070" lon="-3.2930370">
        <ele>375.076019</ele>
        <time>2015-11-07T12:41:54.000Z</time>
      </trkpt>
      <trkpt lat="43.3082570" lon="-3.2928180">
        <ele>373.024994</ele>
        <time>2015-11-07T12:41:56.000Z</time>
      </trkpt>
      <trkpt lat="43.3083150" lon="-3.2926940">
        <ele>372.012024</ele>
        <time>2015-11-07T12:41:57.000Z</time>
      </trkpt>
      <trkpt lat="43.3083640" lon="-3.2924920">
        <ele>373.033997</ele>
        <time>2015-11-07T12:41:59.000Z</time>
      </trkpt>
      <trkpt lat="43.3083180" lon="-3.2922720">
        <ele>371.054993</ele>
        <time>2015-11-07T12:42:01.000Z</time>
      </trkpt>
      <trkpt lat="43.3082890" lon="-3.2921310">
        <ele>370.010010</ele>
        <time>2015-11-07T12:42:02.000Z</time>
      </trkpt>
      <trkpt lat="43.3082500" lon="-3.2920130">
        <ele>369.007996</ele>
        <time>2015-11-07T12:42:03.000Z</time>
      </trkpt>
      <trkpt lat="43.3082160" lon="-3.2918970">
        <ele>369.044006</ele>
        <time>2015-11-07T12:42:04.000Z</time>
      </trkpt>
      <trkpt lat="43.3081530" lon="-3.2916910">
        <ele>369.074005</ele>
        <time>2015-11-07T12:42:06.000Z</time>
      </trkpt>
      <trkpt lat="43.3081160" lon="-3.2915150">
        <ele>371.065979</ele>
        <time>2015-11-07T12:42:08.000Z</time>
      </trkpt>
      <trkpt lat="43.3080980" lon="-3.2913520">
        <ele>371.064026</ele>
        <time>2015-11-07T12:42:10.000Z</time>
      </trkpt>
      <trkpt lat="43.3080790" lon="-3.2912130">
        <ele>372.065002</ele>
        <time>2015-11-07T12:42:12.000Z</time>
      </trkpt>
      <trkpt lat="43.3080640" lon="-3.2910720">
        <ele>373.065002</ele>
        <time>2015-11-07T12:42:15.000Z</time>
      </trkpt>
      <trkpt lat="43.3080660" lon="-3.2909400">
        <ele>371.064026</ele>
        <time>2015-11-07T12:42:18.000Z</time>
      </trkpt>
      <trkpt lat="43.3080440" lon="-3.2907830">
        <ele>373.080994</ele>
        <time>2015-11-07T12:42:22.000Z</time>
      </trkpt>
      <trkpt lat="43.3080340" lon="-3.2906490">
        <ele>373.051971</ele>
        <time>2015-11-07T12:42:25.000Z</time>
      </trkpt>
      <trkpt lat="43.3080340" lon="-3.2905100">
        <ele>374.053009</ele>
        <time>2015-11-07T12:42:28.000Z</time>
      </trkpt>
      <trkpt lat="43.3080340" lon="-3.2903820">
        <ele>375.007996</ele>
        <time>2015-11-07T12:42:31.000Z</time>
      </trkpt>
      <trkpt lat="43.3080230" lon="-3.2902450">
        <ele>376.007996</ele>
        <time>2015-11-07T12:42:34.000Z</time>
      </trkpt>
      <trkpt lat="43.3080040" lon="-3.2901240">
        <ele>376.026001</ele>
        <time>2015-11-07T12:42:37.000Z</time>
      </trkpt>
      <trkpt lat="43.3079790" lon="-3.2899870">
        <ele>375.026001</ele>
        <time>2015-11-07T12:42:41.000Z</time>
      </trkpt>
      <trkpt lat="43.3079930" lon="-3.2898380">
        <ele>380.018005</ele>
        <time>2015-11-07T12:42:46.000Z</time>
      </trkpt>
      <trkpt lat="43.3080130" lon="-3.2896940">
        <ele>380.085999</ele>
        <time>2015-11-07T12:42:50.000Z</time>
      </trkpt>
      <trkpt lat="43.3079970" lon="-3.2895460">
        <ele>380.047028</ele>
        <time>2015-11-07T12:42:54.000Z</time>
      </trkpt>
      <trkpt lat="43.3079920" lon="-3.2893910">
        <ele>380.066986</ele>
        <time>2015-11-07T12:42:59.000Z</time>
      </trkpt>
      <trkpt lat="43.3079530" lon="-3.2892630">
        <ele>382.045990</ele>
        <time>2015-11-07T12:43:04.000Z</time>
      </trkpt>
      <trkpt lat="43.3079130" lon="-3.2891520">
        <ele>383.063019</ele>
        <time>2015-11-07T12:43:07.000Z</time>
      </trkpt>
      <trkpt lat="43.3078840" lon="-3.2890090">
        <ele>382.061005</ele>
        <time>2015-11-07T12:43:10.000Z</time>
      </trkpt>
      <trkpt lat="43.3078550" lon="-3.2888830">
        <ele>381.020996</ele>
        <time>2015-11-07T12:43:13.000Z</time>
      </trkpt>
      <trkpt lat="43.3078330" lon="-3.2887630">
        <ele>382.013000</ele>
        <time>2015-11-07T12:43:17.000Z</time>
      </trkpt>
      <trkpt lat="43.3078140" lon="-3.2886410">
        <ele>384.007996</ele>
        <time>2015-11-07T12:43:22.000Z</time>
      </trkpt>
      <trkpt lat="43.3078100" lon="-3.2884980">
        <ele>387.027008</ele>
        <time>2015-11-07T12:43:27.000Z</time>
      </trkpt>
      <trkpt lat="43.3078120" lon="-3.2883560">
        <ele>388.016998</ele>
        <time>2015-11-07T12:43:33.000Z</time>
      </trkpt>
      <trkpt lat="43.3078110" lon="-3.2882080">
        <ele>393.049011</ele>
        <time>2015-11-07T12:43:37.000Z</time>
      </trkpt>
      <trkpt lat="43.3078520" lon="-3.2880940">
        <ele>395.076996</ele>
        <time>2015-11-07T12:43:41.000Z</time>
      </trkpt>
      <trkpt lat="43.3078990" lon="-3.2879610">
        <ele>397.057983</ele>
        <time>2015-11-07T12:43:45.000Z</time>
      </trkpt>
      <trkpt lat="43.3079350" lon="-3.2878200">
        <ele>399.097992</ele>
        <time>2015-11-07T12:43:49.000Z</time>
      </trkpt>
      <trkpt lat="43.3079560" lon="-3.2876760">
        <ele>401.016998</ele>
        <time>2015-11-07T12:43:53.000Z</time>
      </trkpt>
      <trkpt lat="43.3079780" lon="-3.2875330">
        <ele>401.014008</ele>
        <time>2015-11-07T12:43:57.000Z</time>
      </trkpt>
      <trkpt lat="43.3080130" lon="-3.2873860">
        <ele>400.023987</ele>
        <time>2015-11-07T12:44:01.000Z</time>
      </trkpt>
      <trkpt lat="43.3080520" lon="-3.2872390">
        <ele>400.003998</ele>
        <time>2015-11-07T12:44:05.000Z</time>
      </trkpt>
      <trkpt lat="43.3080950" lon="-3.2871090">
        <ele>400.013977</ele>
        <time>2015-11-07T12:44:09.000Z</time>
      </trkpt>
      <trkpt lat="43.3081370" lon="-3.2869670">
        <ele>400.007996</ele>
        <time>2015-11-07T12:44:13.000Z</time>
      </trkpt>
      <trkpt lat="43.3081720" lon="-3.2868490">
        <ele>400.032990</ele>
        <time>2015-11-07T12:44:16.000Z</time>
      </trkpt>
      <trkpt lat="43.3082080" lon="-3.2867270">
        <ele>401.043030</ele>
        <time>2015-11-07T12:44:19.000Z</time>
      </trkpt>
      <trkpt lat="43.3082500" lon="-3.2865760">
        <ele>399.015015</ele>
        <time>2015-11-07T12:44:23.000Z</time>
      </trkpt>
      <trkpt lat="43.3082870" lon="-3.2864490">
        <ele>398.092987</ele>
        <time>2015-11-07T12:44:26.000Z</time>
      </trkpt>
      <trkpt lat="43.3083280" lon="-3.2863130">
        <ele>398.084015</ele>
        <time>2015-11-07T12:44:29.000Z</time>
      </trkpt>
      <trkpt lat="43.3083710" lon="-3.2861650">
        <ele>398.033997</ele>
        <time>2015-11-07T12:44:32.000Z</time>
      </trkpt>
      <trkpt lat="43.3084090" lon="-3.2860090">
        <ele>396.023010</ele>
        <time>2015-11-07T12:44:35.000Z</time>
      </trkpt>
      <trkpt lat="43.3084430" lon="-3.2858500">
        <ele>397.089996</ele>
        <time>2015-11-07T12:44:38.000Z</time>
      </trkpt>
      <trkpt lat="43.3084720" lon="-3.2857050">
        <ele>396.064026</ele>
        <time>2015-11-07T12:44:41.000Z</time>
      </trkpt>
      <trkpt lat="43.3085040" lon="-3.2855510">
        <ele>397.006012</ele>
        <time>2015-11-07T12:44:44.000Z</time>
      </trkpt>
      <trkpt lat="43.3085400" lon="-3.2853870">
        <ele>396.016022</ele>
        <time>2015-11-07T12:44:47.000Z</time>
      </trkpt>
      <trkpt lat="43.3085700" lon="-3.2852160">
        <ele>395.007996</ele>
        <time>2015-11-07T12:44:50.000Z</time>
      </trkpt>
      <trkpt lat="43.3085890" lon="-3.2850490">
        <ele>395.096985</ele>
        <time>2015-11-07T12:44:53.000Z</time>
      </trkpt>
      <trkpt lat="43.3086040" lon="-3.2848880">
        <ele>395.036987</ele>
        <time>2015-11-07T12:44:56.000Z</time>
      </trkpt>
      <trkpt lat="43.3086110" lon="-3.2847410">
        <ele>397.088989</ele>
        <time>2015-11-07T12:44:59.000Z</time>
      </trkpt>
      <trkpt lat="43.3086000" lon="-3.2845800">
        <ele>402.016998</ele>
        <time>2015-11-07T12:45:03.000Z</time>
      </trkpt>
      <trkpt lat="43.3085880" lon="-3.2844500">
        <ele>400.028015</ele>
        <time>2015-11-07T12:45:06.000Z</time>
      </trkpt>
      <trkpt lat="43.3085690" lon="-3.2843260">
        <ele>401.018005</ele>
        <time>2015-11-07T12:45:09.000Z</time>
      </trkpt>
      <trkpt lat="43.3085410" lon="-3.2841730">
        <ele>400.096985</ele>
        <time>2015-11-07T12:45:13.000Z</time>
      </trkpt>
      <trkpt lat="43.3085240" lon="-3.2840140">
        <ele>400.084015</ele>
        <time>2015-11-07T12:45:17.000Z</time>
      </trkpt>
      <trkpt lat="43.3085050" lon="-3.2838660">
        <ele>398.036987</ele>
        <time>2015-11-07T12:45:21.000Z</time>
      </trkpt>
      <trkpt lat="43.3084760" lon="-3.2837230">
        <ele>399.048981</ele>
        <time>2015-11-07T12:45:25.000Z</time>
      </trkpt>
      <trkpt lat="43.3084470" lon="-3.2835820">
        <ele>399.013000</ele>
        <time>2015-11-07T12:45:29.000Z</time>
      </trkpt>
      <trkpt lat="43.3084070" lon="-3.2834620">
        <ele>399.008026</ele>
        <time>2015-11-07T12:45:33.000Z</time>
      </trkpt>
      <trkpt lat="43.3083550" lon="-3.2833560">
        <ele>400.023987</ele>
        <time>2015-11-07T12:45:37.000Z</time>
      </trkpt>
      <trkpt lat="43.3082890" lon="-3.2832480">
        <ele>403.084015</ele>
        <time>2015-11-07T12:45:42.000Z</time>
      </trkpt>
      <trkpt lat="43.3082130" lon="-3.2831670">
        <ele>405.096008</ele>
        <time>2015-11-07T12:45:47.000Z</time>
      </trkpt>
      <trkpt lat="43.3081770" lon="-3.2830400">
        <ele>405.014008</ele>
        <time>2015-11-07T12:45:51.000Z</time>
      </trkpt>
      <trkpt lat="43.3081750" lon="-3.2828920">
        <ele>404.015015</ele>
        <time>2015-11-07T12:45:56.000Z</time>
      </trkpt>
      <trkpt lat="43.3081870" lon="-3.2827470">
        <ele>405.064972</ele>
        <time>2015-11-07T12:46:01.000Z</time>
      </trkpt>
      <trkpt lat="43.3081960" lon="-3.2826060">
        <ele>404.034027</ele>
        <time>2015-11-07T12:46:06.000Z</time>
      </trkpt>
      <trkpt lat="43.3082250" lon="-3.2824850">
        <ele>406.091003</ele>
        <time>2015-11-07T12:46:10.000Z</time>
      </trkpt>
      <trkpt lat="43.3082360" lon="-3.2823560">
        <ele>407.081024</ele>
        <time>2015-11-07T12:46:14.000Z</time>
      </trkpt>
      <trkpt lat="43.3082510" lon="-3.2822250">
        <ele>405.061005</ele>
        <time>2015-11-07T12:46:18.000Z</time>
      </trkpt>
      <trkpt lat="43.3082830" lon="-3.2821010">
        <ele>403.016998</ele>
        <time>2015-11-07T12:46:21.000Z</time>
      </trkpt>
      <trkpt lat="43.3083180" lon="-3.2819800">
        <ele>401.007996</ele>
        <time>2015-11-07T12:46:24.000Z</time>
      </trkpt>
      <trkpt lat="43.3083540" lon="-3.2818340">
        <ele>403.098999</ele>
        <time>2015-11-07T12:46:29.000Z</time>
      </trkpt>
      <trkpt lat="43.3083780" lon="-3.2816910">
        <ele>402.018982</ele>
        <time>2015-11-07T12:46:33.000Z</time>
      </trkpt>
      <trkpt lat="43.3083880" lon="-3.2815430">
        <ele>408.020996</ele>
        <time>2015-11-07T12:46:39.000Z</time>
      </trkpt>
      <trkpt lat="43.3083980" lon="-3.2814100">
        <ele>411.069000</ele>
        <time>2015-11-07T12:46:44.000Z</time>
      </trkpt>
      <trkpt lat="43.3084360" lon="-3.2812930">
        <ele>412.089996</ele>
        <time>2015-11-07T12:46:48.000Z</time>
      </trkpt>
      <trkpt lat="43.3085020" lon="-3.2811700">
        <ele>412.069977</ele>
        <time>2015-11-07T12:46:52.000Z</time>
      </trkpt>
      <trkpt lat="43.3085750" lon="-3.2810500">
        <ele>412.059021</ele>
        <time>2015-11-07T12:46:56.000Z</time>
      </trkpt>
      <trkpt lat="43.3086260" lon="-3.2809430">
        <ele>413.026001</ele>
        <time>2015-11-07T12:47:00.000Z</time>
      </trkpt>
      <trkpt lat="43.3086880" lon="-3.2808260">
        <ele>412.071991</ele>
        <time>2015-11-07T12:47:05.000Z</time>
      </trkpt>
      <trkpt lat="43.3087450" lon="-3.2807040">
        <ele>408.013000</ele>
        <time>2015-11-07T12:47:09.000Z</time>
      </trkpt>
      <trkpt lat="43.3087850" lon="-3.2805740">
        <ele>410.014008</ele>
        <time>2015-11-07T12:47:14.000Z</time>
      </trkpt>
      <trkpt lat="43.3088510" lon="-3.2804420">
        <ele>407.008026</ele>
        <time>2015-11-07T12:47:18.000Z</time>
      </trkpt>
      <trkpt lat="43.3089300" lon="-3.2803190">
        <ele>405.047974</ele>
        <time>2015-11-07T12:47:21.000Z</time>
      </trkpt>
      <trkpt lat="43.3090270" lon="-3.2801880">
        <ele>400.028015</ele>
        <time>2015-11-07T12:47:24.000Z</time>
      </trkpt>
      <trkpt lat="43.3091140" lon="-3.2800970">
        <ele>397.049988</ele>
        <time>2015-11-07T12:47:26.000Z</time>
      </trkpt>
      <trkpt lat="43.3092040" lon="-3.2800010">
        <ele>397.028015</ele>
        <time>2015-11-07T12:47:28.000Z</time>
      </trkpt>
      <trkpt lat="43.3092850" lon="-3.2799190">
        <ele>396.098999</ele>
        <time>2015-11-07T12:47:30.000Z</time>
      </trkpt>
      <trkpt lat="43.3093850" lon="-3.2798060">
        <ele>396.079010</ele>
        <time>2015-11-07T12:47:33.000Z</time>
      </trkpt>
      <trkpt lat="43.3094790" lon="-3.2796920">
        <ele>395.037994</ele>
        <time>2015-11-07T12:47:36.000Z</time>
      </trkpt>
      <trkpt lat="43.3095760" lon="-3.2795770">
        <ele>393.065002</ele>
        <time>2015-11-07T12:47:39.000Z</time>
      </trkpt>
      <trkpt lat="43.3096460" lon="-3.2794840">
        <ele>391.062012</ele>
        <time>2015-11-07T12:47:41.000Z</time>
      </trkpt>
      <trkpt lat="43.3097110" lon="-3.2793860">
        <ele>391.083008</ele>
        <time>2015-11-07T12:47:43.000Z</time>
      </trkpt>
      <trkpt lat="43.3097770" lon="-3.2792650">
        <ele>391.010986</ele>
        <time>2015-11-07T12:47:45.000Z</time>
      </trkpt>
      <trkpt lat="43.3098440" lon="-3.2791470">
        <ele>389.007996</ele>
        <time>2015-11-07T12:47:47.000Z</time>
      </trkpt>
      <trkpt lat="43.3098990" lon="-3.2790080">
        <ele>388.056976</ele>
        <time>2015-11-07T12:47:49.000Z</time>
      </trkpt>
      <trkpt lat="43.3099600" lon="-3.2788400">
        <ele>383.096985</ele>
        <time>2015-11-07T12:47:51.000Z</time>
      </trkpt>
      <trkpt lat="43.3099860" lon="-3.2786710">
        <ele>380.098999</ele>
        <time>2015-11-07T12:47:53.000Z</time>
      </trkpt>
      <trkpt lat="43.3100030" lon="-3.2785340">
        <ele>381.096985</ele>
        <time>2015-11-07T12:47:55.000Z</time>
      </trkpt>
      <trkpt lat="43.3100310" lon="-3.2784090">
        <ele>381.018005</ele>
        <time>2015-11-07T12:47:57.000Z</time>
      </trkpt>
      <trkpt lat="43.3100460" lon="-3.2782670">
        <ele>380.038025</ele>
        <time>2015-11-07T12:47:59.000Z</time>
      </trkpt>
      <trkpt lat="43.3100460" lon="-3.2781330">
        <ele>378.046997</ele>
        <time>2015-11-07T12:48:01.000Z</time>
      </trkpt>
      <trkpt lat="43.3100440" lon="-3.2779940">
        <ele>377.093994</ele>
        <time>2015-11-07T12:48:03.000Z</time>
      </trkpt>
      <trkpt lat="43.3100440" lon="-3.2778490">
        <ele>378.071991</ele>
        <time>2015-11-07T12:48:05.000Z</time>
      </trkpt>
      <trkpt lat="43.3100300" lon="-3.2776970">
        <ele>378.012970</ele>
        <time>2015-11-07T12:48:07.000Z</time>
      </trkpt>
      <trkpt lat="43.3100190" lon="-3.2775090">
        <ele>377.014008</ele>
        <time>2015-11-07T12:48:09.000Z</time>
      </trkpt>
      <trkpt lat="43.3100010" lon="-3.2773380">
        <ele>377.007996</ele>
        <time>2015-11-07T12:48:11.000Z</time>
      </trkpt>
      <trkpt lat="43.3099700" lon="-3.2771850">
        <ele>376.098022</ele>
        <time>2015-11-07T12:48:13.000Z</time>
      </trkpt>
      <trkpt lat="43.3099140" lon="-3.2770410">
        <ele>375.018005</ele>
        <time>2015-11-07T12:48:15.000Z</time>
      </trkpt>
      <trkpt lat="43.3098800" lon="-3.2768500">
        <ele>374.059998</ele>
        <time>2015-11-07T12:48:17.000Z</time>
      </trkpt>
      <trkpt lat="43.3098490" lon="-3.2767120">
        <ele>374.088013</ele>
        <time>2015-11-07T12:48:19.000Z</time>
      </trkpt>
      <trkpt lat="43.3098520" lon="-3.2765840">
        <ele>373.079010</ele>
        <time>2015-11-07T12:48:20.000Z</time>
      </trkpt>
      <trkpt lat="43.3098260" lon="-3.2763950">
        <ele>371.089020</ele>
        <time>2015-11-07T12:48:22.000Z</time>
      </trkpt>
      <trkpt lat="43.3097790" lon="-3.2762170">
        <ele>369.028015</ele>
        <time>2015-11-07T12:48:24.000Z</time>
      </trkpt>
      <trkpt lat="43.3097540" lon="-3.2760390">
        <ele>369.075012</ele>
        <time>2015-11-07T12:48:26.000Z</time>
      </trkpt>
      <trkpt lat="43.3097240" lon="-3.2758540">
        <ele>369.061005</ele>
        <time>2015-11-07T12:48:28.000Z</time>
      </trkpt>
      <trkpt lat="43.3097000" lon="-3.2756830">
        <ele>367.020996</ele>
        <time>2015-11-07T12:48:30.000Z</time>
      </trkpt>
      <trkpt lat="43.3096560" lon="-3.2755040">
        <ele>368.013000</ele>
        <time>2015-11-07T12:48:32.000Z</time>
      </trkpt>
      <trkpt lat="43.3096180" lon="-3.2753280">
        <ele>368.008026</ele>
        <time>2015-11-07T12:48:34.000Z</time>
      </trkpt>
      <trkpt lat="43.3095960" lon="-3.2751560">
        <ele>368.017029</ele>
        <time>2015-11-07T12:48:36.000Z</time>
      </trkpt>
      <trkpt lat="43.3095680" lon="-3.2750030">
        <ele>368.046997</ele>
        <time>2015-11-07T12:48:38.000Z</time>
      </trkpt>
      <trkpt lat="43.3095330" lon="-3.2748410">
        <ele>366.039001</ele>
        <time>2015-11-07T12:48:40.000Z</time>
      </trkpt>
      <trkpt lat="43.3095020" lon="-3.2746740">
        <ele>365.036987</ele>
        <time>2015-11-07T12:48:42.000Z</time>
      </trkpt>
      <trkpt lat="43.3094970" lon="-3.2745290">
        <ele>361.038025</ele>
        <time>2015-11-07T12:48:43.000Z</time>
      </trkpt>
      <trkpt lat="43.3094670" lon="-3.2743720">
        <ele>360.078003</ele>
        <time>2015-11-07T12:48:45.000Z</time>
      </trkpt>
      <trkpt lat="43.3093940" lon="-3.2742250">
        <ele>360.016998</ele>
        <time>2015-11-07T12:48:48.000Z</time>
      </trkpt>
      <trkpt lat="43.3093630" lon="-3.2741050">
        <ele>360.033997</ele>
        <time>2015-11-07T12:48:50.000Z</time>
      </trkpt>
      <trkpt lat="43.3092980" lon="-3.2739910">
        <ele>358.040985</ele>
        <time>2015-11-07T12:48:52.000Z</time>
      </trkpt>
      <trkpt lat="43.3092200" lon="-3.2738700">
        <ele>359.080994</ele>
        <time>2015-11-07T12:48:54.000Z</time>
      </trkpt>
      <trkpt lat="43.3091460" lon="-3.2737520">
        <ele>359.009003</ele>
        <time>2015-11-07T12:48:56.000Z</time>
      </trkpt>
      <trkpt lat="43.3090660" lon="-3.2736200">
        <ele>358.007996</ele>
        <time>2015-11-07T12:48:58.000Z</time>
      </trkpt>
      <trkpt lat="43.3089580" lon="-3.2735340">
        <ele>359.075012</ele>
        <time>2015-11-07T12:49:00.000Z</time>
      </trkpt>
      <trkpt lat="43.3088780" lon="-3.2734370">
        <ele>358.065002</ele>
        <time>2015-11-07T12:49:02.000Z</time>
      </trkpt>
      <trkpt lat="43.3087860" lon="-3.2733710">
        <ele>358.056976</ele>
        <time>2015-11-07T12:49:04.000Z</time>
      </trkpt>
      <trkpt lat="43.3086880" lon="-3.2732230">
        <ele>356.035004</ele>
        <time>2015-11-07T12:49:07.000Z</time>
      </trkpt>
      <trkpt lat="43.3085470" lon="-3.2731730">
        <ele>355.026001</ele>
        <time>2015-11-07T12:49:10.000Z</time>
      </trkpt>
      <trkpt lat="43.3084930" lon="-3.2730590">
        <ele>354.026031</ele>
        <time>2015-11-07T12:49:12.000Z</time>
      </trkpt>
      <trkpt lat="43.3084740" lon="-3.2729170">
        <ele>351.044983</ele>
        <time>2015-11-07T12:49:14.000Z</time>
      </trkpt>
      <trkpt lat="43.3084790" lon="-3.2727930">
        <ele>350.082001</ele>
        <time>2015-11-07T12:49:16.000Z</time>
      </trkpt>
      <trkpt lat="43.3085640" lon="-3.2726190">
        <ele>350.040985</ele>
        <time>2015-11-07T12:49:18.000Z</time>
      </trkpt>
      <trkpt lat="43.3086070" lon="-3.2724490">
        <ele>348.080994</ele>
        <time>2015-11-07T12:49:22.000Z</time>
      </trkpt>
      <trkpt lat="43.3086380" lon="-3.2722670">
        <ele>350.009003</ele>
        <time>2015-11-07T12:49:24.000Z</time>
      </trkpt>
      <trkpt lat="43.3086960" lon="-3.2721040">
        <ele>347.007996</ele>
        <time>2015-11-07T12:49:25.000Z</time>
      </trkpt>
      <trkpt lat="43.3087820" lon="-3.2719690">
        <ele>346.095001</ele>
        <time>2015-11-07T12:49:27.000Z</time>
      </trkpt>
      <trkpt lat="43.3088460" lon="-3.2718610">
        <ele>345.095001</ele>
        <time>2015-11-07T12:49:29.000Z</time>
      </trkpt>
      <trkpt lat="43.3088410" lon="-3.2717280">
        <ele>345.087006</ele>
        <time>2015-11-07T12:49:32.000Z</time>
      </trkpt>
      <trkpt lat="43.3088020" lon="-3.2716100">
        <ele>346.095001</ele>
        <time>2015-11-07T12:49:33.000Z</time>
      </trkpt>
      <trkpt lat="43.3087590" lon="-3.2714950">
        <ele>346.085999</ele>
        <time>2015-11-07T12:49:34.000Z</time>
      </trkpt>
      <trkpt lat="43.3087220" lon="-3.2713660">
        <ele>345.036011</ele>
        <time>2015-11-07T12:49:35.000Z</time>
      </trkpt>
      <trkpt lat="43.3086940" lon="-3.2711600">
        <ele>344.024994</ele>
        <time>2015-11-07T12:49:37.000Z</time>
      </trkpt>
      <trkpt lat="43.3086410" lon="-3.2709910">
        <ele>342.071991</ele>
        <time>2015-11-07T12:49:39.000Z</time>
      </trkpt>
      <trkpt lat="43.3085840" lon="-3.2707790">
        <ele>339.065002</ele>
        <time>2015-11-07T12:49:41.000Z</time>
      </trkpt>
      <trkpt lat="43.3085290" lon="-3.2705660">
        <ele>338.067993</ele>
        <time>2015-11-07T12:49:43.000Z</time>
      </trkpt>
      <trkpt lat="43.3084900" lon="-3.2703710">
        <ele>338.014008</ele>
        <time>2015-11-07T12:49:45.000Z</time>
      </trkpt>
      <trkpt lat="43.3084220" lon="-3.2702190">
        <ele>336.007996</ele>
        <time>2015-11-07T12:49:47.000Z</time>
      </trkpt>
      <trkpt lat="43.3083320" lon="-3.2701080">
        <ele>332.076996</ele>
        <time>2015-11-07T12:49:49.000Z</time>
      </trkpt>
      <trkpt lat="43.3082480" lon="-3.2700260">
        <ele>329.017029</ele>
        <time>2015-11-07T12:49:52.000Z</time>
      </trkpt>
      <trkpt lat="43.3081720" lon="-3.2700950">
        <ele>328.098999</ele>
        <time>2015-11-07T12:49:54.000Z</time>
      </trkpt>
      <trkpt lat="43.3081470" lon="-3.2702620">
        <ele>327.076996</ele>
        <time>2015-11-07T12:49:56.000Z</time>
      </trkpt>
      <trkpt lat="43.3080970" lon="-3.2704220">
        <ele>328.077972</ele>
        <time>2015-11-07T12:49:58.000Z</time>
      </trkpt>
      <trkpt lat="43.3080440" lon="-3.2705800">
        <ele>326.088013</ele>
        <time>2015-11-07T12:50:00.000Z</time>
      </trkpt>
      <trkpt lat="43.3080060" lon="-3.2708150">
        <ele>326.057007</ele>
        <time>2015-11-07T12:50:02.000Z</time>
      </trkpt>
      <trkpt lat="43.3079480" lon="-3.2709510">
        <ele>323.063995</ele>
        <time>2015-11-07T12:50:03.000Z</time>
      </trkpt>
      <trkpt lat="43.3079150" lon="-3.2710910">
        <ele>323.051971</ele>
        <time>2015-11-07T12:50:04.000Z</time>
      </trkpt>
      <trkpt lat="43.3078610" lon="-3.2712490">
        <ele>322.053009</ele>
        <time>2015-11-07T12:50:05.000Z</time>
      </trkpt>
      <trkpt lat="43.3077940" lon="-3.2714190">
        <ele>322.007996</ele>
        <time>2015-11-07T12:50:06.000Z</time>
      </trkpt>
      <trkpt lat="43.3077520" lon="-3.2715590">
        <ele>323.007996</ele>
        <time>2015-11-07T12:50:07.000Z</time>
      </trkpt>
      <trkpt lat="43.3077220" lon="-3.2716960">
        <ele>322.036011</ele>
        <time>2015-11-07T12:50:08.000Z</time>
      </trkpt>
      <trkpt lat="43.3076920" lon="-3.2718320">
        <ele>322.026001</ele>
        <time>2015-11-07T12:50:09.000Z</time>
      </trkpt>
      <trkpt lat="43.3076380" lon="-3.2720700">
        <ele>321.097992</ele>
        <time>2015-11-07T12:50:11.000Z</time>
      </trkpt>
      <trkpt lat="43.3076270" lon="-3.2721970">
        <ele>319.015991</ele>
        <time>2015-11-07T12:50:12.000Z</time>
      </trkpt>
      <trkpt lat="43.3075930" lon="-3.2723400">
        <ele>318.046997</ele>
        <time>2015-11-07T12:50:13.000Z</time>
      </trkpt>
      <trkpt lat="43.3075740" lon="-3.2724660">
        <ele>317.046997</ele>
        <time>2015-11-07T12:50:14.000Z</time>
      </trkpt>
      <trkpt lat="43.3075350" lon="-3.2726040">
        <ele>316.075989</ele>
        <time>2015-11-07T12:50:15.000Z</time>
      </trkpt>
      <trkpt lat="43.3074950" lon="-3.2727480">
        <ele>315.062988</ele>
        <time>2015-11-07T12:50:16.000Z</time>
      </trkpt>
      <trkpt lat="43.3074670" lon="-3.2728920">
        <ele>313.035004</ele>
        <time>2015-11-07T12:50:17.000Z</time>
      </trkpt>
      <trkpt lat="43.3074060" lon="-3.2731050">
        <ele>311.085999</ele>
        <time>2015-11-07T12:50:19.000Z</time>
      </trkpt>
      <trkpt lat="43.3073090" lon="-3.2732300">
        <ele>308.014008</ele>
        <time>2015-11-07T12:50:21.000Z</time>
      </trkpt>
      <trkpt lat="43.3071510" lon="-3.2732670">
        <ele>309.007996</ele>
        <time>2015-11-07T12:50:23.000Z</time>
      </trkpt>
      <trkpt lat="43.3069960" lon="-3.2731980">
        <ele>310.044006</ele>
        <time>2015-11-07T12:50:25.000Z</time>
      </trkpt>
      <trkpt lat="43.3068820" lon="-3.2730180">
        <ele>310.074005</ele>
        <time>2015-11-07T12:50:27.000Z</time>
      </trkpt>
      <trkpt lat="43.3067920" lon="-3.2728300">
        <ele>310.036011</ele>
        <time>2015-11-07T12:50:29.000Z</time>
      </trkpt>
      <trkpt lat="43.3066760" lon="-3.2726790">
        <ele>309.074005</ele>
        <time>2015-11-07T12:50:31.000Z</time>
      </trkpt>
      <trkpt lat="43.3065660" lon="-3.2725160">
        <ele>310.045013</ele>
        <time>2015-11-07T12:50:33.000Z</time>
      </trkpt>
      <trkpt lat="43.3064900" lon="-3.2722990">
        <ele>306.065002</ele>
        <time>2015-11-07T12:50:35.000Z</time>
      </trkpt>
      <trkpt lat="43.3064620" lon="-3.2721650">
        <ele>306.054016</ele>
        <time>2015-11-07T12:50:36.000Z</time>
      </trkpt>
      <trkpt lat="43.3063650" lon="-3.2720700">
        <ele>308.081024</ele>
        <time>2015-11-07T12:50:38.000Z</time>
      </trkpt>
      <trkpt lat="43.3062350" lon="-3.2719390">
        <ele>309.027008</ele>
        <time>2015-11-07T12:50:40.000Z</time>
      </trkpt>
      <trkpt lat="43.3061840" lon="-3.2718270">
        <ele>309.067993</ele>
        <time>2015-11-07T12:50:41.000Z</time>
      </trkpt>
      <trkpt lat="43.3060690" lon="-3.2717040">
        <ele>307.014008</ele>
        <time>2015-11-07T12:50:43.000Z</time>
      </trkpt>
      <trkpt lat="43.3059060" lon="-3.2715260">
        <ele>306.007996</ele>
        <time>2015-11-07T12:50:46.000Z</time>
      </trkpt>
      <trkpt lat="43.3058250" lon="-3.2714310">
        <ele>307.032990</ele>
        <time>2015-11-07T12:50:48.000Z</time>
      </trkpt>
      <trkpt lat="43.3057250" lon="-3.2713650">
        <ele>309.072998</ele>
        <time>2015-11-07T12:50:50.000Z</time>
      </trkpt>
      <trkpt lat="43.3056370" lon="-3.2713070">
        <ele>307.015015</ele>
        <time>2015-11-07T12:50:51.000Z</time>
      </trkpt>
      <trkpt lat="43.3055680" lon="-3.2711510">
        <ele>306.032990</ele>
        <time>2015-11-07T12:50:53.000Z</time>
      </trkpt>
      <trkpt lat="43.3054790" lon="-3.2710350">
        <ele>306.093994</ele>
        <time>2015-11-07T12:50:55.000Z</time>
      </trkpt>
      <trkpt lat="43.3053270" lon="-3.2709820">
        <ele>309.024017</ele>
        <time>2015-11-07T12:51:00.000Z</time>
      </trkpt>
      <trkpt lat="43.3052010" lon="-3.2709340">
        <ele>308.042999</ele>
        <time>2015-11-07T12:51:02.000Z</time>
      </trkpt>
      <trkpt lat="43.3050890" lon="-3.2708780">
        <ele>311.089996</ele>
        <time>2015-11-07T12:51:04.000Z</time>
      </trkpt>
      <trkpt lat="43.3049870" lon="-3.2707530">
        <ele>313.054016</ele>
        <time>2015-11-07T12:51:06.000Z</time>
      </trkpt>
      <trkpt lat="43.3049030" lon="-3.2706740">
        <ele>314.056000</ele>
        <time>2015-11-07T12:51:08.000Z</time>
      </trkpt>
      <trkpt lat="43.3047780" lon="-3.2705380">
        <ele>313.010986</ele>
        <time>2015-11-07T12:51:10.000Z</time>
      </trkpt>
      <trkpt lat="43.3047320" lon="-3.2704130">
        <ele>319.007996</ele>
        <time>2015-11-07T12:51:12.000Z</time>
      </trkpt>
      <trkpt lat="43.3046680" lon="-3.2703220">
        <ele>316.055969</ele>
        <time>2015-11-07T12:51:13.000Z</time>
      </trkpt>
      <trkpt lat="43.3045780" lon="-3.2701810">
        <ele>317.026001</ele>
        <time>2015-11-07T12:51:15.000Z</time>
      </trkpt>
      <trkpt lat="43.3045220" lon="-3.2699870">
        <ele>313.057983</ele>
        <time>2015-11-07T12:51:17.000Z</time>
      </trkpt>
      <trkpt lat="43.3043870" lon="-3.2698520">
        <ele>309.085999</ele>
        <time>2015-11-07T12:51:19.000Z</time>
      </trkpt>
      <trkpt lat="43.3042530" lon="-3.2696960">
        <ele>304.016998</ele>
        <time>2015-11-07T12:51:21.000Z</time>
      </trkpt>
      <trkpt lat="43.3041720" lon="-3.2696010">
        <ele>305.057007</ele>
        <time>2015-11-07T12:51:22.000Z</time>
      </trkpt>
      <trkpt lat="43.3040970" lon="-3.2694860">
        <ele>301.076019</ele>
        <time>2015-11-07T12:51:23.000Z</time>
      </trkpt>
      <trkpt lat="43.3040120" lon="-3.2693720">
        <ele>302.023010</ele>
        <time>2015-11-07T12:51:24.000Z</time>
      </trkpt>
      <trkpt lat="43.3039480" lon="-3.2692510">
        <ele>300.083008</ele>
        <time>2015-11-07T12:51:25.000Z</time>
      </trkpt>
      <trkpt lat="43.3038910" lon="-3.2691140">
        <ele>297.024994</ele>
        <time>2015-11-07T12:51:26.000Z</time>
      </trkpt>
      <trkpt lat="43.3038320" lon="-3.2689860">
        <ele>297.016998</ele>
        <time>2015-11-07T12:51:27.000Z</time>
      </trkpt>
      <trkpt lat="43.3037770" lon="-3.2688730">
        <ele>297.007996</ele>
        <time>2015-11-07T12:51:28.000Z</time>
      </trkpt>
      <trkpt lat="43.3037250" lon="-3.2687570">
        <ele>296.098999</ele>
        <time>2015-11-07T12:51:29.000Z</time>
      </trkpt>
      <trkpt lat="43.3036530" lon="-3.2686430">
        <ele>296.028992</ele>
        <time>2015-11-07T12:51:30.000Z</time>
      </trkpt>
      <trkpt lat="43.3035440" lon="-3.2684610">
        <ele>296.061005</ele>
        <time>2015-11-07T12:51:32.000Z</time>
      </trkpt>
      <trkpt lat="43.3034290" lon="-3.2683000">
        <ele>295.018982</ele>
        <time>2015-11-07T12:51:34.000Z</time>
      </trkpt>
      <trkpt lat="43.3033190" lon="-3.2681360">
        <ele>292.059998</ele>
        <time>2015-11-07T12:51:36.000Z</time>
      </trkpt>
      <trkpt lat="43.3031960" lon="-3.2679710">
        <ele>291.049988</ele>
        <time>2015-11-07T12:51:38.000Z</time>
      </trkpt>
      <trkpt lat="43.3031390" lon="-3.2678730">
        <ele>289.069000</ele>
        <time>2015-11-07T12:51:39.000Z</time>
      </trkpt>
      <trkpt lat="43.3030750" lon="-3.2677790">
        <ele>289.095978</ele>
        <time>2015-11-07T12:51:40.000Z</time>
      </trkpt>
      <trkpt lat="43.3030320" lon="-3.2676620">
        <ele>286.082001</ele>
        <time>2015-11-07T12:51:41.000Z</time>
      </trkpt>
      <trkpt lat="43.3029650" lon="-3.2675580">
        <ele>285.042999</ele>
        <time>2015-11-07T12:51:42.000Z</time>
      </trkpt>
      <trkpt lat="43.3028970" lon="-3.2674500">
        <ele>286.016998</ele>
        <time>2015-11-07T12:51:43.000Z</time>
      </trkpt>
      <trkpt lat="43.3028340" lon="-3.2673340">
        <ele>285.007996</ele>
        <time>2015-11-07T12:51:44.000Z</time>
      </trkpt>
      <trkpt lat="43.3027660" lon="-3.2672060">
        <ele>285.069000</ele>
        <time>2015-11-07T12:51:45.000Z</time>
      </trkpt>
      <trkpt lat="43.3027220" lon="-3.2670840">
        <ele>284.049011</ele>
        <time>2015-11-07T12:51:46.000Z</time>
      </trkpt>
      <trkpt lat="43.3026980" lon="-3.2669170">
        <ele>280.061005</ele>
        <time>2015-11-07T12:51:47.000Z</time>
      </trkpt>
      <trkpt lat="43.3026670" lon="-3.2667970">
        <ele>280.089020</ele>
        <time>2015-11-07T12:51:48.000Z</time>
      </trkpt>
      <trkpt lat="43.3026270" lon="-3.2666820">
        <ele>280.020020</ele>
        <time>2015-11-07T12:51:49.000Z</time>
      </trkpt>
      <trkpt lat="43.3026000" lon="-3.2665590">
        <ele>279.029999</ele>
        <time>2015-11-07T12:51:50.000Z</time>
      </trkpt>
      <trkpt lat="43.3025310" lon="-3.2663490">
        <ele>277.078979</ele>
        <time>2015-11-07T12:51:52.000Z</time>
      </trkpt>
      <trkpt lat="43.3024740" lon="-3.2662330">
        <ele>273.056000</ele>
        <time>2015-11-07T12:51:53.000Z</time>
      </trkpt>
      <trkpt lat="43.3024180" lon="-3.2660870">
        <ele>273.063995</ele>
        <time>2015-11-07T12:51:54.000Z</time>
      </trkpt>
      <trkpt lat="43.3023560" lon="-3.2659780">
        <ele>272.006012</ele>
        <time>2015-11-07T12:51:55.000Z</time>
      </trkpt>
      <trkpt lat="43.3023280" lon="-3.2658290">
        <ele>271.015991</ele>
        <time>2015-11-07T12:51:56.000Z</time>
      </trkpt>
      <trkpt lat="43.3022300" lon="-3.2656530">
        <ele>269.007996</ele>
        <time>2015-11-07T12:51:58.000Z</time>
      </trkpt>
      <trkpt lat="43.3021720" lon="-3.2655430">
        <ele>267.057007</ele>
        <time>2015-11-07T12:51:59.000Z</time>
      </trkpt>
      <trkpt lat="43.3021300" lon="-3.2653320">
        <ele>266.027008</ele>
        <time>2015-11-07T12:52:01.000Z</time>
      </trkpt>
      <trkpt lat="43.3020760" lon="-3.2651360">
        <ele>266.019012</ele>
        <time>2015-11-07T12:52:03.000Z</time>
      </trkpt>
      <trkpt lat="43.3020150" lon="-3.2649830">
        <ele>263.097015</ele>
        <time>2015-11-07T12:52:05.000Z</time>
      </trkpt>
      <trkpt lat="43.3018720" lon="-3.2649280">
        <ele>262.037994</ele>
        <time>2015-11-07T12:52:07.000Z</time>
      </trkpt>
      <trkpt lat="43.3017340" lon="-3.2649150">
        <ele>261.097992</ele>
        <time>2015-11-07T12:52:09.000Z</time>
      </trkpt>
      <trkpt lat="43.3016000" lon="-3.2650020">
        <ele>258.016998</ele>
        <time>2015-11-07T12:52:11.000Z</time>
      </trkpt>
      <trkpt lat="43.3014720" lon="-3.2650580">
        <ele>257.093994</ele>
        <time>2015-11-07T12:52:13.000Z</time>
      </trkpt>
      <trkpt lat="43.3013290" lon="-3.2650510">
        <ele>256.096008</ele>
        <time>2015-11-07T12:52:15.000Z</time>
      </trkpt>
      <trkpt lat="43.3011860" lon="-3.2649920">
        <ele>256.031006</ele>
        <time>2015-11-07T12:52:17.000Z</time>
      </trkpt>
      <trkpt lat="43.3011010" lon="-3.2649410">
        <ele>256.023987</ele>
        <time>2015-11-07T12:52:18.000Z</time>
      </trkpt>
      <trkpt lat="43.3010160" lon="-3.2649010">
        <ele>256.007996</ele>
        <time>2015-11-07T12:52:19.000Z</time>
      </trkpt>
      <trkpt lat="43.3008560" lon="-3.2648000">
        <ele>256.040009</ele>
        <time>2015-11-07T12:52:21.000Z</time>
      </trkpt>
      <trkpt lat="43.3007000" lon="-3.2647130">
        <ele>255.049988</ele>
        <time>2015-11-07T12:52:23.000Z</time>
      </trkpt>
      <trkpt lat="43.3005600" lon="-3.2646360">
        <ele>254.092010</ele>
        <time>2015-11-07T12:52:25.000Z</time>
      </trkpt>
      <trkpt lat="43.3004580" lon="-3.2645250">
        <ele>254.089996</ele>
        <time>2015-11-07T12:52:27.000Z</time>
      </trkpt>
      <trkpt lat="43.3003470" lon="-3.2643870">
        <ele>256.020996</ele>
        <time>2015-11-07T12:52:29.000Z</time>
      </trkpt>
      <trkpt lat="43.3002050" lon="-3.2642920">
        <ele>255.040985</ele>
        <time>2015-11-07T12:52:31.000Z</time>
      </trkpt>
      <trkpt lat="43.3000620" lon="-3.2641800">
        <ele>255.040009</ele>
        <time>2015-11-07T12:52:33.000Z</time>
      </trkpt>
      <trkpt lat="43.2999010" lon="-3.2640880">
        <ele>255.057007</ele>
        <time>2015-11-07T12:52:35.000Z</time>
      </trkpt>
      <trkpt lat="43.2997500" lon="-3.2639540">
        <ele>254.031006</ele>
        <time>2015-11-07T12:52:37.000Z</time>
      </trkpt>
      <trkpt lat="43.2996600" lon="-3.2639100">
        <ele>253.061005</ele>
        <time>2015-11-07T12:52:38.000Z</time>
      </trkpt>
      <trkpt lat="43.2995700" lon="-3.2638780">
        <ele>253.006989</ele>
        <time>2015-11-07T12:52:39.000Z</time>
      </trkpt>
      <trkpt lat="43.2994750" lon="-3.2638260">
        <ele>251.008011</ele>
        <time>2015-11-07T12:52:40.000Z</time>
      </trkpt>
      <trkpt lat="43.2993890" lon="-3.2637810">
        <ele>250.083984</ele>
        <time>2015-11-07T12:52:41.000Z</time>
      </trkpt>
      <trkpt lat="43.2992910" lon="-3.2637730">
        <ele>250.014008</ele>
        <time>2015-11-07T12:52:42.000Z</time>
      </trkpt>
      <trkpt lat="43.2992060" lon="-3.2637270">
        <ele>249.046005</ele>
        <time>2015-11-07T12:52:43.000Z</time>
      </trkpt>
      <trkpt lat="43.2991170" lon="-3.2636860">
        <ele>248.024002</ele>
        <time>2015-11-07T12:52:44.000Z</time>
      </trkpt>
      <trkpt lat="43.2989750" lon="-3.2635700">
        <ele>244.035004</ele>
        <time>2015-11-07T12:52:46.000Z</time>
      </trkpt>
      <trkpt lat="43.2988810" lon="-3.2635330">
        <ele>243.065002</ele>
        <time>2015-11-07T12:52:47.000Z</time>
      </trkpt>
      <trkpt lat="43.2987960" lon="-3.2634680">
        <ele>243.033997</ele>
        <time>2015-11-07T12:52:48.000Z</time>
      </trkpt>
      <trkpt lat="43.2987090" lon="-3.2634190">
        <ele>243.041000</ele>
        <time>2015-11-07T12:52:49.000Z</time>
      </trkpt>
      <trkpt lat="43.2985750" lon="-3.2632790">
        <ele>242.089005</ele>
        <time>2015-11-07T12:52:51.000Z</time>
      </trkpt>
      <trkpt lat="43.2984410" lon="-3.2631150">
        <ele>242.005997</ele>
        <time>2015-11-07T12:52:53.000Z</time>
      </trkpt>
      <trkpt lat="43.2983460" lon="-3.2630110">
        <ele>240.026001</ele>
        <time>2015-11-07T12:52:54.000Z</time>
      </trkpt>
      <trkpt lat="43.2982150" lon="-3.2628410">
        <ele>240.007996</ele>
        <time>2015-11-07T12:52:56.000Z</time>
      </trkpt>
      <trkpt lat="43.2980850" lon="-3.2627390">
        <ele>238.029007</ele>
        <time>2015-11-07T12:52:57.000Z</time>
      </trkpt>
      <trkpt lat="43.2979920" lon="-3.2626720">
        <ele>237.089005</ele>
        <time>2015-11-07T12:52:58.000Z</time>
      </trkpt>
      <trkpt lat="43.2978540" lon="-3.2625270">
        <ele>237.061005</ele>
        <time>2015-11-07T12:53:00.000Z</time>
      </trkpt>
      <trkpt lat="43.2977970" lon="-3.2623820">
        <ele>237.059006</ele>
        <time>2015-11-07T12:53:01.000Z</time>
      </trkpt>
      <trkpt lat="43.2976480" lon="-3.2622490">
        <ele>233.029999</ele>
        <time>2015-11-07T12:53:03.000Z</time>
      </trkpt>
      <trkpt lat="43.2975380" lon="-3.2622440">
        <ele>232.070007</ele>
        <time>2015-11-07T12:53:04.000Z</time>
      </trkpt>
      <trkpt lat="43.2974470" lon="-3.2622040">
        <ele>232.039001</ele>
        <time>2015-11-07T12:53:05.000Z</time>
      </trkpt>
      <trkpt lat="43.2973590" lon="-3.2621480">
        <ele>230.026001</ele>
        <time>2015-11-07T12:53:06.000Z</time>
      </trkpt>
      <trkpt lat="43.2972520" lon="-3.2620650">
        <ele>230.050995</ele>
        <time>2015-11-07T12:53:07.000Z</time>
      </trkpt>
      <trkpt lat="43.2971510" lon="-3.2620130">
        <ele>229.000992</ele>
        <time>2015-11-07T12:53:08.000Z</time>
      </trkpt>
      <trkpt lat="43.2970750" lon="-3.2619270">
        <ele>227.011002</ele>
        <time>2015-11-07T12:53:09.000Z</time>
      </trkpt>
      <trkpt lat="43.2970010" lon="-3.2618360">
        <ele>227.008011</ele>
        <time>2015-11-07T12:53:10.000Z</time>
      </trkpt>
      <trkpt lat="43.2968820" lon="-3.2617320">
        <ele>229.065994</ele>
        <time>2015-11-07T12:53:12.000Z</time>
      </trkpt>
      <trkpt lat="43.2967530" lon="-3.2617010">
        <ele>227.076004</ele>
        <time>2015-11-07T12:53:14.000Z</time>
      </trkpt>
      <trkpt lat="43.2966420" lon="-3.2615990">
        <ele>230.057999</ele>
        <time>2015-11-07T12:53:16.000Z</time>
      </trkpt>
      <trkpt lat="43.2965860" lon="-3.2614960">
        <ele>229.015991</ele>
        <time>2015-11-07T12:53:18.000Z</time>
      </trkpt>
      <trkpt lat="43.2966740" lon="-3.2613560">
        <ele>230.077011</ele>
        <time>2015-11-07T12:53:19.000Z</time>
      </trkpt>
      <trkpt lat="43.2967850" lon="-3.2612890">
        <ele>225.027008</ele>
        <time>2015-11-07T12:53:21.000Z</time>
      </trkpt>
      <trkpt lat="43.2968980" lon="-3.2613420">
        <ele>222.056015</ele>
        <time>2015-11-07T12:53:23.000Z</time>
      </trkpt>
      <trkpt lat="43.2970140" lon="-3.2614410">
        <ele>221.083008</ele>
        <time>2015-11-07T12:53:25.000Z</time>
      </trkpt>
      <trkpt lat="43.2971210" lon="-3.2615410">
        <ele>216.077988</ele>
        <time>2015-11-07T12:53:27.000Z</time>
      </trkpt>
      <trkpt lat="43.2972270" lon="-3.2616130">
        <ele>214.033005</ele>
        <time>2015-11-07T12:53:29.000Z</time>
      </trkpt>
      <trkpt lat="43.2973460" lon="-3.2616680">
        <ele>213.025986</ele>
        <time>2015-11-07T12:53:31.000Z</time>
      </trkpt>
      <trkpt lat="43.2974530" lon="-3.2616270">
        <ele>213.007996</ele>
        <time>2015-11-07T12:53:33.000Z</time>
      </trkpt>
      <trkpt lat="43.2975780" lon="-3.2616330">
        <ele>212.048004</ele>
        <time>2015-11-07T12:53:35.000Z</time>
      </trkpt>
      <trkpt lat="43.2977250" lon="-3.2617060">
        <ele>211.018005</ele>
        <time>2015-11-07T12:53:37.000Z</time>
      </trkpt>
      <trkpt lat="43.2978870" lon="-3.2618090">
        <ele>207.039993</ele>
        <time>2015-11-07T12:53:39.000Z</time>
      </trkpt>
      <trkpt lat="43.2980570" lon="-3.2618500">
        <ele>208.057999</ele>
        <time>2015-11-07T12:53:41.000Z</time>
      </trkpt>
      <trkpt lat="43.2982110" lon="-3.2618720">
        <ele>205.018997</ele>
        <time>2015-11-07T12:53:43.000Z</time>
      </trkpt>
      <trkpt lat="43.2983860" lon="-3.2618950">
        <ele>204.088989</ele>
        <time>2015-11-07T12:53:45.000Z</time>
      </trkpt>
      <trkpt lat="43.2985370" lon="-3.2619270">
        <ele>203.078003</ele>
        <time>2015-11-07T12:53:47.000Z</time>
      </trkpt>
      <trkpt lat="43.2986910" lon="-3.2619430">
        <ele>203.085007</ele>
        <time>2015-11-07T12:53:49.000Z</time>
      </trkpt>
      <trkpt lat="43.2988050" lon="-3.2619250">
        <ele>202.061996</ele>
        <time>2015-11-07T12:53:51.000Z</time>
      </trkpt>
      <trkpt lat="43.2988770" lon="-3.2618140">
        <ele>201.083008</ele>
        <time>2015-11-07T12:53:54.000Z</time>
      </trkpt>
      <trkpt lat="43.2988130" lon="-3.2617140">
        <ele>197.011002</ele>
        <time>2015-11-07T12:53:56.000Z</time>
      </trkpt>
      <trkpt lat="43.2987160" lon="-3.2616590">
        <ele>193.007996</ele>
        <time>2015-11-07T12:53:58.000Z</time>
      </trkpt>
      <trkpt lat="43.2985810" lon="-3.2616650">
        <ele>193.097000</ele>
        <time>2015-11-07T12:54:00.000Z</time>
      </trkpt>
      <trkpt lat="43.2984550" lon="-3.2616870">
        <ele>194.097015</ele>
        <time>2015-11-07T12:54:02.000Z</time>
      </trkpt>
      <trkpt lat="43.2983160" lon="-3.2617140">
        <ele>195.098999</ele>
        <time>2015-11-07T12:54:04.000Z</time>
      </trkpt>
      <trkpt lat="43.2981850" lon="-3.2616610">
        <ele>194.056992</ele>
        <time>2015-11-07T12:54:06.000Z</time>
      </trkpt>
      <trkpt lat="43.2980520" lon="-3.2616140">
        <ele>195.017990</ele>
        <time>2015-11-07T12:54:08.000Z</time>
      </trkpt>
      <trkpt lat="43.2979390" lon="-3.2615360">
        <ele>194.087997</ele>
        <time>2015-11-07T12:54:10.000Z</time>
      </trkpt>
      <trkpt lat="43.2978180" lon="-3.2614830">
        <ele>195.017014</ele>
        <time>2015-11-07T12:54:12.000Z</time>
      </trkpt>
      <trkpt lat="43.2977210" lon="-3.2614390">
        <ele>196.063995</ele>
        <time>2015-11-07T12:54:14.000Z</time>
      </trkpt>
      <trkpt lat="43.2976270" lon="-3.2614250">
        <ele>197.015991</ele>
        <time>2015-11-07T12:54:16.000Z</time>
      </trkpt>
      <trkpt lat="43.2974780" lon="-3.2613600">
        <ele>197.076004</ele>
        <time>2015-11-07T12:54:18.000Z</time>
      </trkpt>
      <trkpt lat="43.2973690" lon="-3.2612150">
        <ele>197.013000</ele>
        <time>2015-11-07T12:54:20.000Z</time>
      </trkpt>
      <trkpt lat="43.2972710" lon="-3.2611120">
        <ele>196.007996</ele>
        <time>2015-11-07T12:54:21.000Z</time>
      </trkpt>
      <trkpt lat="43.2971900" lon="-3.2609810">
        <ele>195.061996</ele>
        <time>2015-11-07T12:54:22.000Z</time>
      </trkpt>
      <trkpt lat="43.2971280" lon="-3.2608670">
        <ele>193.031998</ele>
        <time>2015-11-07T12:54:23.000Z</time>
      </trkpt>
      <trkpt lat="43.2970540" lon="-3.2607690">
        <ele>193.033997</ele>
        <time>2015-11-07T12:54:24.000Z</time>
      </trkpt>
      <trkpt lat="43.2969510" lon="-3.2607140">
        <ele>192.052002</ele>
        <time>2015-11-07T12:54:25.000Z</time>
      </trkpt>
      <trkpt lat="43.2967700" lon="-3.2606200">
        <ele>187.063004</ele>
        <time>2015-11-07T12:54:27.000Z</time>
      </trkpt>
      <trkpt lat="43.2966610" lon="-3.2605530">
        <ele>187.093002</ele>
        <time>2015-11-07T12:54:28.000Z</time>
      </trkpt>
      <trkpt lat="43.2965400" lon="-3.2605370">
        <ele>184.021988</ele>
        <time>2015-11-07T12:54:29.000Z</time>
      </trkpt>
      <trkpt lat="43.2964470" lon="-3.2605320">
        <ele>184.058990</ele>
        <time>2015-11-07T12:54:30.000Z</time>
      </trkpt>
      <trkpt lat="43.2963480" lon="-3.2605050">
        <ele>184.045990</ele>
        <time>2015-11-07T12:54:31.000Z</time>
      </trkpt>
      <trkpt lat="43.2962390" lon="-3.2604490">
        <ele>184.087997</ele>
        <time>2015-11-07T12:54:32.000Z</time>
      </trkpt>
      <trkpt lat="43.2961520" lon="-3.2604210">
        <ele>185.016006</ele>
        <time>2015-11-07T12:54:33.000Z</time>
      </trkpt>
      <trkpt lat="43.2960580" lon="-3.2604000">
        <ele>183.007996</ele>
        <time>2015-11-07T12:54:34.000Z</time>
      </trkpt>
      <trkpt lat="43.2959560" lon="-3.2603850">
        <ele>182.024994</ele>
        <time>2015-11-07T12:54:35.000Z</time>
      </trkpt>
      <trkpt lat="43.2958670" lon="-3.2603570">
        <ele>181.094986</ele>
        <time>2015-11-07T12:54:36.000Z</time>
      </trkpt>
      <trkpt lat="43.2957600" lon="-3.2603280">
        <ele>179.067001</ele>
        <time>2015-11-07T12:54:37.000Z</time>
      </trkpt>
      <trkpt lat="43.2956650" lon="-3.2603040">
        <ele>180.065002</ele>
        <time>2015-11-07T12:54:38.000Z</time>
      </trkpt>
      <trkpt lat="43.2955540" lon="-3.2602870">
        <ele>178.095993</ele>
        <time>2015-11-07T12:54:39.000Z</time>
      </trkpt>
      <trkpt lat="43.2954490" lon="-3.2602800">
        <ele>177.036011</ele>
        <time>2015-11-07T12:54:40.000Z</time>
      </trkpt>
      <trkpt lat="43.2953460" lon="-3.2602590">
        <ele>177.014999</ele>
        <time>2015-11-07T12:54:41.000Z</time>
      </trkpt>
      <trkpt lat="43.2952440" lon="-3.2602530">
        <ele>177.021988</ele>
        <time>2015-11-07T12:54:42.000Z</time>
      </trkpt>
      <trkpt lat="43.2951420" lon="-3.2602230">
        <ele>176.095001</ele>
        <time>2015-11-07T12:54:43.000Z</time>
      </trkpt>
      <trkpt lat="43.2950460" lon="-3.2602010">
        <ele>175.048996</ele>
        <time>2015-11-07T12:54:44.000Z</time>
      </trkpt>
      <trkpt lat="43.2949450" lon="-3.2601640">
        <ele>176.023010</ele>
        <time>2015-11-07T12:54:45.000Z</time>
      </trkpt>
      <trkpt lat="43.2948370" lon="-3.2601410">
        <ele>175.007996</ele>
        <time>2015-11-07T12:54:46.000Z</time>
      </trkpt>
      <trkpt lat="43.2947490" lon="-3.2600540">
        <ele>173.069992</ele>
        <time>2015-11-07T12:54:47.000Z</time>
      </trkpt>
      <trkpt lat="43.2946630" lon="-3.2599850">
        <ele>173.059998</ele>
        <time>2015-11-07T12:54:48.000Z</time>
      </trkpt>
      <trkpt lat="43.2945700" lon="-3.2599510">
        <ele>173.012009</ele>
        <time>2015-11-07T12:54:49.000Z</time>
      </trkpt>
      <trkpt lat="43.2944610" lon="-3.2599130">
        <ele>172.019989</ele>
        <time>2015-11-07T12:54:50.000Z</time>
      </trkpt>
      <trkpt lat="43.2943710" lon="-3.2598610">
        <ele>173.091003</ele>
        <time>2015-11-07T12:54:51.000Z</time>
      </trkpt>
      <trkpt lat="43.2942800" lon="-3.2598190">
        <ele>174.011002</ele>
        <time>2015-11-07T12:54:52.000Z</time>
      </trkpt>
      <trkpt lat="43.2942170" lon="-3.2597020">
        <ele>171.010010</ele>
        <time>2015-11-07T12:54:53.000Z</time>
      </trkpt>
      <trkpt lat="43.2941390" lon="-3.2595900">
        <ele>172.056992</ele>
        <time>2015-11-07T12:54:54.000Z</time>
      </trkpt>
      <trkpt lat="43.2940750" lon="-3.2594960">
        <ele>171.061005</ele>
        <time>2015-11-07T12:54:55.000Z</time>
      </trkpt>
      <trkpt lat="43.2939520" lon="-3.2593170">
        <ele>170.021011</ele>
        <time>2015-11-07T12:54:57.000Z</time>
      </trkpt>
      <trkpt lat="43.2938980" lon="-3.2592120">
        <ele>170.013016</ele>
        <time>2015-11-07T12:54:58.000Z</time>
      </trkpt>
      <trkpt lat="43.2938010" lon="-3.2590800">
        <ele>170.008011</ele>
        <time>2015-11-07T12:55:00.000Z</time>
      </trkpt>
      <trkpt lat="43.2938590" lon="-3.2588910">
        <ele>168.047012</ele>
        <time>2015-11-07T12:55:02.000Z</time>
      </trkpt>
      <trkpt lat="43.2939410" lon="-3.2587680">
        <ele>164.067001</ele>
        <time>2015-11-07T12:55:04.000Z</time>
      </trkpt>
      <trkpt lat="43.2940500" lon="-3.2588010">
        <ele>160.089005</ele>
        <time>2015-11-07T12:55:07.000Z</time>
      </trkpt>
      <trkpt lat="43.2941390" lon="-3.2589670">
        <ele>155.067001</ele>
        <time>2015-11-07T12:55:08.000Z</time>
      </trkpt>
      <trkpt lat="43.2942240" lon="-3.2591340">
        <ele>154.018005</ele>
        <time>2015-11-07T12:55:10.000Z</time>
      </trkpt>
      <trkpt lat="43.2943590" lon="-3.2592700">
        <ele>152.028000</ele>
        <time>2015-11-07T12:55:12.000Z</time>
      </trkpt>
      <trkpt lat="43.2945020" lon="-3.2593960">
        <ele>150.027008</ele>
        <time>2015-11-07T12:55:14.000Z</time>
      </trkpt>
      <trkpt lat="43.2946430" lon="-3.2595060">
        <ele>148.074005</ele>
        <time>2015-11-07T12:55:16.000Z</time>
      </trkpt>
      <trkpt lat="43.2947640" lon="-3.2595670">
        <ele>146.057999</ele>
        <time>2015-11-07T12:55:18.000Z</time>
      </trkpt>
      <trkpt lat="43.2948740" lon="-3.2595170">
        <ele>148.052002</ele>
        <time>2015-11-07T12:55:21.000Z</time>
      </trkpt>
      <trkpt lat="43.2948290" lon="-3.2593630">
        <ele>150.016998</ele>
        <time>2015-11-07T12:55:23.000Z</time>
      </trkpt>
      <trkpt lat="43.2947280" lon="-3.2592310">
        <ele>147.008011</ele>
        <time>2015-11-07T12:55:25.000Z</time>
      </trkpt>
      <trkpt lat="43.2945920" lon="-3.2591260">
        <ele>146.026001</ele>
        <time>2015-11-07T12:55:27.000Z</time>
      </trkpt>
      <trkpt lat="43.2944730" lon="-3.2589780">
        <ele>147.065994</ele>
        <time>2015-11-07T12:55:29.000Z</time>
      </trkpt>
      <trkpt lat="43.2944170" lon="-3.2587680">
        <ele>147.057999</ele>
        <time>2015-11-07T12:55:31.000Z</time>
      </trkpt>
      <trkpt lat="43.2944080" lon="-3.2585430">
        <ele>144.065994</ele>
        <time>2015-11-07T12:55:33.000Z</time>
      </trkpt>
      <trkpt lat="43.2943820" lon="-3.2583020">
        <ele>141.037003</ele>
        <time>2015-11-07T12:55:35.000Z</time>
      </trkpt>
      <trkpt lat="43.2943650" lon="-3.2581750">
        <ele>139.057007</ele>
        <time>2015-11-07T12:55:36.000Z</time>
      </trkpt>
      <trkpt lat="43.2943020" lon="-3.2579520">
        <ele>137.046005</ele>
        <time>2015-11-07T12:55:38.000Z</time>
      </trkpt>
      <trkpt lat="43.2942750" lon="-3.2578340">
        <ele>136.093002</ele>
        <time>2015-11-07T12:55:39.000Z</time>
      </trkpt>
      <trkpt lat="43.2942480" lon="-3.2576330">
        <ele>136.082993</ele>
        <time>2015-11-07T12:55:41.000Z</time>
      </trkpt>
      <trkpt lat="43.2942780" lon="-3.2574230">
        <ele>135.024994</ele>
        <time>2015-11-07T12:55:43.000Z</time>
      </trkpt>
      <trkpt lat="43.2943360" lon="-3.2572920">
        <ele>134.016998</ele>
        <time>2015-11-07T12:55:45.000Z</time>
      </trkpt>
      <trkpt lat="43.2942930" lon="-3.2571590">
        <ele>135.007996</ele>
        <time>2015-11-07T12:55:48.000Z</time>
      </trkpt>
      <trkpt lat="43.2942100" lon="-3.2571050">
        <ele>133.059006</ele>
        <time>2015-11-07T12:55:50.000Z</time>
      </trkpt>
      <trkpt lat="43.2941170" lon="-3.2570230">
        <ele>132.098999</ele>
        <time>2015-11-07T12:55:53.000Z</time>
      </trkpt>
      <trkpt lat="43.2940500" lon="-3.2568980">
        <ele>132.020996</ele>
        <time>2015-11-07T12:55:56.000Z</time>
      </trkpt>
      <trkpt lat="43.2939940" lon="-3.2567660">
        <ele>131.048996</ele>
        <time>2015-11-07T12:55:59.000Z</time>
      </trkpt>
      <trkpt lat="43.2939270" lon="-3.2566300">
        <ele>132.050003</ele>
        <time>2015-11-07T12:56:02.000Z</time>
      </trkpt>
      <trkpt lat="43.2938440" lon="-3.2565570">
        <ele>131.020004</ele>
        <time>2015-11-07T12:56:05.000Z</time>
      </trkpt>
      <trkpt lat="43.2937520" lon="-3.2565770">
        <ele>131.098999</ele>
        <time>2015-11-07T12:56:09.000Z</time>
      </trkpt>
      <trkpt lat="43.2936550" lon="-3.2565630">
        <ele>130.096008</ele>
        <time>2015-11-07T12:56:14.000Z</time>
      </trkpt>
      <trkpt lat="43.2935660" lon="-3.2565880">
        <ele>130.046997</ele>
        <time>2015-11-07T12:56:17.000Z</time>
      </trkpt>
      <trkpt lat="43.2934790" lon="-3.2566250">
        <ele>130.029007</ele>
        <time>2015-11-07T12:56:20.000Z</time>
      </trkpt>
      <trkpt lat="43.2933940" lon="-3.2566750">
        <ele>130.020996</ele>
        <time>2015-11-07T12:56:23.000Z</time>
      </trkpt>
      <trkpt lat="43.2933030" lon="-3.2567020">
        <ele>125.007996</ele>
        <time>2015-11-07T12:56:26.000Z</time>
      </trkpt>
      <trkpt lat="43.2932120" lon="-3.2567470">
        <ele>126.065002</ele>
        <time>2015-11-07T12:56:29.000Z</time>
      </trkpt>
      <trkpt lat="43.2931240" lon="-3.2568030">
        <ele>125.025002</ele>
        <time>2015-11-07T12:56:32.000Z</time>
      </trkpt>
      <trkpt lat="43.2930380" lon="-3.2568590">
        <ele>124.077003</ele>
        <time>2015-11-07T12:56:35.000Z</time>
      </trkpt>
      <trkpt lat="43.2929400" lon="-3.2569620">
        <ele>124.014999</ele>
        <time>2015-11-07T12:56:39.000Z</time>
      </trkpt>
      <trkpt lat="43.2928600" lon="-3.2570300">
        <ele>124.085999</ele>
        <time>2015-11-07T12:56:42.000Z</time>
      </trkpt>
      <trkpt lat="43.2927520" lon="-3.2570940">
        <ele>122.046005</ele>
        <time>2015-11-07T12:56:46.000Z</time>
      </trkpt>
      <trkpt lat="43.2926550" lon="-3.2571170">
        <ele>120.014999</ele>
        <time>2015-11-07T12:56:50.000Z</time>
      </trkpt>
      <trkpt lat="43.2925720" lon="-3.2572020">
        <ele>121.092003</ele>
        <time>2015-11-07T12:56:54.000Z</time>
      </trkpt>
      <trkpt lat="43.2924640" lon="-3.2572370">
        <ele>124.061996</ele>
        <time>2015-11-07T12:56:58.000Z</time>
      </trkpt>
      <trkpt lat="43.2923720" lon="-3.2572580">
        <ele>122.083008</ele>
        <time>2015-11-07T12:57:01.000Z</time>
      </trkpt>
      <trkpt lat="43.2922670" lon="-3.2573340">
        <ele>122.011002</ele>
        <time>2015-11-07T12:57:05.000Z</time>
      </trkpt>
      <trkpt lat="43.2921860" lon="-3.2574590">
        <ele>122.008003</ele>
        <time>2015-11-07T12:57:09.000Z</time>
      </trkpt>
      <trkpt lat="43.2921330" lon="-3.2575590">
        <ele>121.037003</ele>
        <time>2015-11-07T12:57:13.000Z</time>
      </trkpt>
      <trkpt lat="43.2920470" lon="-3.2576460">
        <ele>126.057007</ele>
        <time>2015-11-07T12:57:20.000Z</time>
      </trkpt>
      <trkpt lat="43.2919720" lon="-3.2577200">
        <ele>128.089005</ele>
        <time>2015-11-07T12:57:27.000Z</time>
      </trkpt>
      <trkpt lat="43.2918910" lon="-3.2578180">
        <ele>125.076996</ele>
        <time>2015-11-07T12:57:41.000Z</time>
      </trkpt>
      <trkpt lat="43.2918010" lon="-3.2578500">
        <ele>125.078003</ele>
        <time>2015-11-07T12:57:57.000Z</time>
      </trkpt>
      <trkpt lat="43.2917130" lon="-3.2579060">
        <ele>125.037994</ele>
        <time>2015-11-07T12:58:00.000Z</time>
      </trkpt>
      <trkpt lat="43.2916330" lon="-3.2579760">
        <ele>126.086998</ele>
        <time>2015-11-07T12:58:02.000Z</time>
      </trkpt>
      <trkpt lat="43.2913820" lon="-3.2581240">
        <ele>126.043999</ele>
        <time>2015-11-07T12:58:04.000Z</time>
      </trkpt>
      <trkpt lat="43.2912810" lon="-3.2581460">
        <ele>124.077003</ele>
        <time>2015-11-07T12:58:05.000Z</time>
      </trkpt>
      <trkpt lat="43.2911360" lon="-3.2581530">
        <ele>122.060997</ele>
        <time>2015-11-07T12:58:07.000Z</time>
      </trkpt>
      <trkpt lat="43.2910440" lon="-3.2581950">
        <ele>120.027000</ele>
        <time>2015-11-07T12:58:08.000Z</time>
      </trkpt>
      <trkpt lat="43.2909060" lon="-3.2582260">
        <ele>119.008003</ele>
        <time>2015-11-07T12:58:10.000Z</time>
      </trkpt>
      <trkpt lat="43.2907750" lon="-3.2582560">
        <ele>121.088005</ele>
        <time>2015-11-07T12:58:12.000Z</time>
      </trkpt>
      <trkpt lat="43.2906770" lon="-3.2583040">
        <ele>120.087997</ele>
        <time>2015-11-07T12:58:14.000Z</time>
      </trkpt>
      <trkpt lat="43.2905630" lon="-3.2583570">
        <ele>120.060005</ele>
        <time>2015-11-07T12:58:16.000Z</time>
      </trkpt>
      <trkpt lat="43.2904870" lon="-3.2584470">
        <ele>119.017998</ele>
        <time>2015-11-07T12:58:18.000Z</time>
      </trkpt>
      <trkpt lat="43.2903560" lon="-3.2584470">
        <ele>121.029007</ele>
        <time>2015-11-07T12:58:21.000Z</time>
      </trkpt>
      <trkpt lat="43.2902280" lon="-3.2584700">
        <ele>120.058998</ele>
        <time>2015-11-07T12:58:24.000Z</time>
      </trkpt>
      <trkpt lat="43.2901040" lon="-3.2584860">
        <ele>122.038002</ele>
        <time>2015-11-07T12:58:28.000Z</time>
      </trkpt>
      <trkpt lat="43.2899920" lon="-3.2584800">
        <ele>127.084999</ele>
        <time>2015-11-07T12:58:32.000Z</time>
      </trkpt>
      <trkpt lat="43.2898930" lon="-3.2584350">
        <ele>129.016006</ele>
        <time>2015-11-07T12:58:35.000Z</time>
      </trkpt>
      <trkpt lat="43.2897950" lon="-3.2584390">
        <ele>130.076004</ele>
        <time>2015-11-07T12:58:38.000Z</time>
      </trkpt>
      <trkpt lat="43.2896700" lon="-3.2584800">
        <ele>132.013000</ele>
        <time>2015-11-07T12:58:41.000Z</time>
      </trkpt>
      <trkpt lat="43.2895760" lon="-3.2584480">
        <ele>133.007996</ele>
        <time>2015-11-07T12:58:43.000Z</time>
      </trkpt>
      <trkpt lat="43.2894730" lon="-3.2584170">
        <ele>132.011993</ele>
        <time>2015-11-07T12:58:45.000Z</time>
      </trkpt>
      <trkpt lat="43.2893630" lon="-3.2584230">
        <ele>131.061996</ele>
        <time>2015-11-07T12:58:48.000Z</time>
      </trkpt>
      <trkpt lat="43.2892490" lon="-3.2584570">
        <ele>132.084000</ele>
        <time>2015-11-07T12:58:51.000Z</time>
      </trkpt>
      <trkpt lat="43.2891530" lon="-3.2584900">
        <ele>132.011993</ele>
        <time>2015-11-07T12:58:53.000Z</time>
      </trkpt>
      <trkpt lat="43.2890520" lon="-3.2585270">
        <ele>132.063004</ele>
        <time>2015-11-07T12:58:55.000Z</time>
      </trkpt>
      <trkpt lat="43.2889470" lon="-3.2585570">
        <ele>131.052994</ele>
        <time>2015-11-07T12:58:58.000Z</time>
      </trkpt>
      <trkpt lat="43.2888440" lon="-3.2585360">
        <ele>131.042007</ele>
        <time>2015-11-07T12:59:00.000Z</time>
      </trkpt>
      <trkpt lat="43.2887540" lon="-3.2585180">
        <ele>132.078995</ele>
        <time>2015-11-07T12:59:02.000Z</time>
      </trkpt>
      <trkpt lat="43.2886550" lon="-3.2585210">
        <ele>130.087006</ele>
        <time>2015-11-07T12:59:04.000Z</time>
      </trkpt>
      <trkpt lat="43.2885470" lon="-3.2585480">
        <ele>131.042007</ele>
        <time>2015-11-07T12:59:05.000Z</time>
      </trkpt>
      <trkpt lat="43.2884980" lon="-3.2586730">
        <ele>130.026001</ele>
        <time>2015-11-07T12:59:08.000Z</time>
      </trkpt>
      <trkpt lat="43.2883640" lon="-3.2586510">
        <ele>131.008011</ele>
        <time>2015-11-07T12:59:11.000Z</time>
      </trkpt>
      <trkpt lat="43.2882500" lon="-3.2586230">
        <ele>130.069000</ele>
        <time>2015-11-07T12:59:13.000Z</time>
      </trkpt>
      <trkpt lat="43.2881530" lon="-3.2585810">
        <ele>129.039001</ele>
        <time>2015-11-07T12:59:15.000Z</time>
      </trkpt>
      <trkpt lat="43.2880170" lon="-3.2586270">
        <ele>128.051010</ele>
        <time>2015-11-07T12:59:18.000Z</time>
      </trkpt>
      <trkpt lat="43.2878920" lon="-3.2586080">
        <ele>130.098999</ele>
        <time>2015-11-07T12:59:20.000Z</time>
      </trkpt>
      <trkpt lat="43.2878010" lon="-3.2585900">
        <ele>130.020004</ele>
        <time>2015-11-07T12:59:22.000Z</time>
      </trkpt>
      <trkpt lat="43.2877030" lon="-3.2586170">
        <ele>129.050003</ele>
        <time>2015-11-07T12:59:24.000Z</time>
      </trkpt>
      <trkpt lat="43.2875910" lon="-3.2586280">
        <ele>128.059006</ele>
        <time>2015-11-07T12:59:27.000Z</time>
      </trkpt>
      <trkpt lat="43.2874740" lon="-3.2586220">
        <ele>128.096008</ele>
        <time>2015-11-07T12:59:30.000Z</time>
      </trkpt>
      <trkpt lat="43.2873700" lon="-3.2586790">
        <ele>128.023010</ele>
        <time>2015-11-07T12:59:33.000Z</time>
      </trkpt>
      <trkpt lat="43.2872670" lon="-3.2586700">
        <ele>128.083008</ele>
        <time>2015-11-07T12:59:36.000Z</time>
      </trkpt>
      <trkpt lat="43.2871450" lon="-3.2586430">
        <ele>128.011002</ele>
        <time>2015-11-07T12:59:39.000Z</time>
      </trkpt>
      <trkpt lat="43.2870370" lon="-3.2586350">
        <ele>128.007996</ele>
        <time>2015-11-07T12:59:42.000Z</time>
      </trkpt>
      <trkpt lat="43.2869220" lon="-3.2586180">
        <ele>127.032997</ele>
        <time>2015-11-07T12:59:45.000Z</time>
      </trkpt>
      <trkpt lat="43.2867930" lon="-3.2586360">
        <ele>127.032997</ele>
        <time>2015-11-07T12:59:48.000Z</time>
      </trkpt>
      <trkpt lat="43.2866740" lon="-3.2586650">
        <ele>127.074997</ele>
        <time>2015-11-07T12:59:51.000Z</time>
      </trkpt>
      <trkpt lat="43.2865600" lon="-3.2586980">
        <ele>127.092995</ele>
        <time>2015-11-07T12:59:54.000Z</time>
      </trkpt>
      <trkpt lat="43.2864680" lon="-3.2587390">
        <ele>128.063995</ele>
        <time>2015-11-07T12:59:57.000Z</time>
      </trkpt>
      <trkpt lat="43.2863620" lon="-3.2587950">
        <ele>128.084000</ele>
        <time>2015-11-07T13:00:00.000Z</time>
      </trkpt>
      <trkpt lat="43.2862590" lon="-3.2588500">
        <ele>128.023010</ele>
        <time>2015-11-07T13:00:03.000Z</time>
      </trkpt>
      <trkpt lat="43.2861840" lon="-3.2589300">
        <ele>127.080002</ele>
        <time>2015-11-07T13:00:07.000Z</time>
      </trkpt>
      <trkpt lat="43.2861340" lon="-3.2590360">
        <ele>128.073990</ele>
        <time>2015-11-07T13:00:10.000Z</time>
      </trkpt>
      <trkpt lat="43.2860670" lon="-3.2591520">
        <ele>128.056000</ele>
        <time>2015-11-07T13:00:13.000Z</time>
      </trkpt>
      <trkpt lat="43.2860390" lon="-3.2592720">
        <ele>131.020996</ele>
        <time>2015-11-07T13:00:17.000Z</time>
      </trkpt>
      <trkpt lat="43.2860200" lon="-3.2593990">
        <ele>131.008011</ele>
        <time>2015-11-07T13:00:21.000Z</time>
      </trkpt>
      <trkpt lat="43.2859670" lon="-3.2595170">
        <ele>132.037994</ele>
        <time>2015-11-07T13:00:24.000Z</time>
      </trkpt>
      <trkpt lat="43.2859140" lon="-3.2596250">
        <ele>132.017990</ele>
        <time>2015-11-07T13:00:27.000Z</time>
      </trkpt>
      <trkpt lat="43.2858770" lon="-3.2597580">
        <ele>132.080002</ele>
        <time>2015-11-07T13:00:30.000Z</time>
      </trkpt>
      <trkpt lat="43.2858410" lon="-3.2598940">
        <ele>135.048004</ele>
        <time>2015-11-07T13:00:34.000Z</time>
      </trkpt>
      <trkpt lat="43.2857850" lon="-3.2600020">
        <ele>136.078995</ele>
        <time>2015-11-07T13:00:37.000Z</time>
      </trkpt>
      <trkpt lat="43.2857450" lon="-3.2601280">
        <ele>136.069000</ele>
        <time>2015-11-07T13:00:40.000Z</time>
      </trkpt>
      <trkpt lat="43.2856890" lon="-3.2602410">
        <ele>134.068008</ele>
        <time>2015-11-07T13:00:43.000Z</time>
      </trkpt>
      <trkpt lat="43.2856210" lon="-3.2603620">
        <ele>134.065002</ele>
        <time>2015-11-07T13:00:46.000Z</time>
      </trkpt>
      <trkpt lat="43.2855360" lon="-3.2604830">
        <ele>131.052002</ele>
        <time>2015-11-07T13:00:49.000Z</time>
      </trkpt>
      <trkpt lat="43.2854330" lon="-3.2606010">
        <ele>129.052994</ele>
        <time>2015-11-07T13:00:52.000Z</time>
      </trkpt>
      <trkpt lat="43.2853470" lon="-3.2606650">
        <ele>128.007996</ele>
        <time>2015-11-07T13:00:54.000Z</time>
      </trkpt>
      <trkpt lat="43.2852460" lon="-3.2607420">
        <ele>130.007996</ele>
        <time>2015-11-07T13:00:57.000Z</time>
      </trkpt>
      <trkpt lat="43.2851290" lon="-3.2607850">
        <ele>129.085999</ele>
        <time>2015-11-07T13:01:00.000Z</time>
      </trkpt>
      <trkpt lat="43.2849990" lon="-3.2608230">
        <ele>128.065994</ele>
        <time>2015-11-07T13:01:03.000Z</time>
      </trkpt>
      <trkpt lat="43.2849140" lon="-3.2608640">
        <ele>128.078003</ele>
        <time>2015-11-07T13:01:05.000Z</time>
      </trkpt>
      <trkpt lat="43.2848090" lon="-3.2609160">
        <ele>129.056000</ele>
        <time>2015-11-07T13:01:08.000Z</time>
      </trkpt>
      <trkpt lat="43.2847300" lon="-3.2609910">
        <ele>128.016998</ele>
        <time>2015-11-07T13:01:11.000Z</time>
      </trkpt>
      <trkpt lat="43.2846350" lon="-3.2610760">
        <ele>131.097000</ele>
        <time>2015-11-07T13:01:14.000Z</time>
      </trkpt>
      <trkpt lat="43.2845280" lon="-3.2610550">
        <ele>131.046005</ele>
        <time>2015-11-07T13:01:16.000Z</time>
      </trkpt>
      <trkpt lat="43.2844160" lon="-3.2610390">
        <ele>132.082993</ele>
        <time>2015-11-07T13:01:18.000Z</time>
      </trkpt>
      <trkpt lat="43.2842970" lon="-3.2609580">
        <ele>132.033005</ele>
        <time>2015-11-07T13:01:20.000Z</time>
      </trkpt>
      <trkpt lat="43.2842200" lon="-3.2608480">
        <ele>131.022995</ele>
        <time>2015-11-07T13:01:22.000Z</time>
      </trkpt>
      <trkpt lat="43.2841920" lon="-3.2607200">
        <ele>129.014999</ele>
        <time>2015-11-07T13:01:24.000Z</time>
      </trkpt>
      <trkpt lat="43.2841560" lon="-3.2605560">
        <ele>129.008011</ele>
        <time>2015-11-07T13:01:27.000Z</time>
      </trkpt>
      <trkpt lat="43.2841000" lon="-3.2604290">
        <ele>129.054001</ele>
        <time>2015-11-07T13:01:30.000Z</time>
      </trkpt>
      <trkpt lat="43.2840380" lon="-3.2603080">
        <ele>128.043991</ele>
        <time>2015-11-07T13:01:33.000Z</time>
      </trkpt>
      <trkpt lat="43.2839890" lon="-3.2601870">
        <ele>129.085999</ele>
        <time>2015-11-07T13:01:36.000Z</time>
      </trkpt>
      <trkpt lat="43.2839250" lon="-3.2600720">
        <ele>129.054001</ele>
        <time>2015-11-07T13:01:39.000Z</time>
      </trkpt>
      <trkpt lat="43.2838180" lon="-3.2599850">
        <ele>130.044998</ele>
        <time>2015-11-07T13:01:42.000Z</time>
      </trkpt>
      <trkpt lat="43.2837220" lon="-3.2598550">
        <ele>130.025009</ele>
        <time>2015-11-07T13:01:45.000Z</time>
      </trkpt>
      <trkpt lat="43.2836310" lon="-3.2597590">
        <ele>130.074005</ele>
        <time>2015-11-07T13:01:47.000Z</time>
      </trkpt>
      <trkpt lat="43.2835780" lon="-3.2596400">
        <ele>130.070999</ele>
        <time>2015-11-07T13:01:49.000Z</time>
      </trkpt>
      <trkpt lat="43.2834990" lon="-3.2595590">
        <ele>131.020996</ele>
        <time>2015-11-07T13:01:51.000Z</time>
      </trkpt>
      <trkpt lat="43.2834340" lon="-3.2594570">
        <ele>131.041000</ele>
        <time>2015-11-07T13:01:53.000Z</time>
      </trkpt>
      <trkpt lat="43.2833700" lon="-3.2593490">
        <ele>131.005005</ele>
        <time>2015-11-07T13:01:55.000Z</time>
      </trkpt>
      <trkpt lat="43.2833160" lon="-3.2592420">
        <ele>131.008011</ele>
        <time>2015-11-07T13:01:57.000Z</time>
      </trkpt>
      <trkpt lat="43.2832520" lon="-3.2591470">
        <ele>131.033005</ele>
        <time>2015-11-07T13:01:59.000Z</time>
      </trkpt>
      <trkpt lat="43.2831680" lon="-3.2590750">
        <ele>132.013000</ele>
        <time>2015-11-07T13:02:01.000Z</time>
      </trkpt>
      <trkpt lat="43.2830490" lon="-3.2589910">
        <ele>130.055008</ele>
        <time>2015-11-07T13:02:04.000Z</time>
      </trkpt>
      <trkpt lat="43.2829350" lon="-3.2589460">
        <ele>129.052994</ele>
        <time>2015-11-07T13:02:07.000Z</time>
      </trkpt>
      <trkpt lat="43.2828200" lon="-3.2588930">
        <ele>129.074005</ele>
        <time>2015-11-07T13:02:10.000Z</time>
      </trkpt>
      <trkpt lat="43.2827590" lon="-3.2587800">
        <ele>130.094009</ele>
        <time>2015-11-07T13:02:13.000Z</time>
      </trkpt>
      <trkpt lat="43.2827420" lon="-3.2586550">
        <ele>132.082993</ele>
        <time>2015-11-07T13:02:17.000Z</time>
      </trkpt>
      <trkpt lat="43.2827200" lon="-3.2585340">
        <ele>133.089996</ele>
        <time>2015-11-07T13:02:22.000Z</time>
      </trkpt>
      <trkpt lat="43.2825980" lon="-3.2585220">
        <ele>133.067001</ele>
        <time>2015-11-07T13:02:26.000Z</time>
      </trkpt>
      <trkpt lat="43.2824490" lon="-3.2585740">
        <ele>134.080994</ele>
        <time>2015-11-07T13:02:29.000Z</time>
      </trkpt>
      <trkpt lat="43.2823210" lon="-3.2586440">
        <ele>134.018997</ele>
        <time>2015-11-07T13:02:32.000Z</time>
      </trkpt>
      <trkpt lat="43.2822000" lon="-3.2586640">
        <ele>133.007996</ele>
        <time>2015-11-07T13:02:35.000Z</time>
      </trkpt>
      <trkpt lat="43.2820330" lon="-3.2586540">
        <ele>133.037003</ele>
        <time>2015-11-07T13:02:38.000Z</time>
      </trkpt>
      <trkpt lat="43.2819330" lon="-3.2585890">
        <ele>134.056992</ele>
        <time>2015-11-07T13:02:41.000Z</time>
      </trkpt>
      <trkpt lat="43.2818220" lon="-3.2586280">
        <ele>134.039001</ele>
        <time>2015-11-07T13:02:45.000Z</time>
      </trkpt>
      <trkpt lat="43.2817240" lon="-3.2586690">
        <ele>134.046997</ele>
        <time>2015-11-07T13:02:51.000Z</time>
      </trkpt>
      <trkpt lat="43.2816160" lon="-3.2587280">
        <ele>135.057999</ele>
        <time>2015-11-07T13:02:54.000Z</time>
      </trkpt>
      <trkpt lat="43.2815290" lon="-3.2587820">
        <ele>135.087997</ele>
        <time>2015-11-07T13:02:56.000Z</time>
      </trkpt>
      <trkpt lat="43.2814160" lon="-3.2588490">
        <ele>135.016998</ele>
        <time>2015-11-07T13:02:59.000Z</time>
      </trkpt>
      <trkpt lat="43.2813420" lon="-3.2589360">
        <ele>136.013992</ele>
        <time>2015-11-07T13:03:02.000Z</time>
      </trkpt>
      <trkpt lat="43.2812990" lon="-3.2590510">
        <ele>134.020996</ele>
        <time>2015-11-07T13:03:05.000Z</time>
      </trkpt>
      <trkpt lat="43.2812550" lon="-3.2592040">
        <ele>133.041000</ele>
        <time>2015-11-07T13:03:08.000Z</time>
      </trkpt>
      <trkpt lat="43.2811810" lon="-3.2593240">
        <ele>133.005005</ele>
        <time>2015-11-07T13:03:10.000Z</time>
      </trkpt>
      <trkpt lat="43.2811030" lon="-3.2594600">
        <ele>132.007996</ele>
        <time>2015-11-07T13:03:12.000Z</time>
      </trkpt>
      <trkpt lat="43.2809650" lon="-3.2595010">
        <ele>132.063004</ele>
        <time>2015-11-07T13:03:15.000Z</time>
      </trkpt>
      <trkpt lat="43.2808520" lon="-3.2595280">
        <ele>133.042999</ele>
        <time>2015-11-07T13:03:18.000Z</time>
      </trkpt>
      <trkpt lat="43.2807390" lon="-3.2595450">
        <ele>134.044998</ele>
        <time>2015-11-07T13:03:21.000Z</time>
      </trkpt>
      <trkpt lat="43.2806440" lon="-3.2595270">
        <ele>134.022995</ele>
        <time>2015-11-07T13:03:24.000Z</time>
      </trkpt>
      <trkpt lat="43.2805370" lon="-3.2595550">
        <ele>135.063995</ele>
        <time>2015-11-07T13:03:28.000Z</time>
      </trkpt>
      <trkpt lat="43.2804430" lon="-3.2595670">
        <ele>135.093994</ele>
        <time>2015-11-07T13:03:31.000Z</time>
      </trkpt>
      <trkpt lat="43.2803480" lon="-3.2595890">
        <ele>136.082993</ele>
        <time>2015-11-07T13:03:34.000Z</time>
      </trkpt>
      <trkpt lat="43.2802530" lon="-3.2596060">
        <ele>136.089996</ele>
        <time>2015-11-07T13:03:37.000Z</time>
      </trkpt>
      <trkpt lat="43.2801540" lon="-3.2596290">
        <ele>136.031006</ele>
        <time>2015-11-07T13:03:40.000Z</time>
      </trkpt>
      <trkpt lat="43.2800360" lon="-3.2596360">
        <ele>135.061005</ele>
        <time>2015-11-07T13:03:44.000Z</time>
      </trkpt>
      <trkpt lat="43.2799410" lon="-3.2596110">
        <ele>135.007004</ele>
        <time>2015-11-07T13:03:47.000Z</time>
      </trkpt>
      <trkpt lat="43.2798480" lon="-3.2595430">
        <ele>135.007996</ele>
        <time>2015-11-07T13:03:50.000Z</time>
      </trkpt>
      <trkpt lat="43.2797800" lon="-3.2594520">
        <ele>135.093994</ele>
        <time>2015-11-07T13:03:53.000Z</time>
      </trkpt>
      <trkpt lat="43.2797100" lon="-3.2593660">
        <ele>136.063995</ele>
        <time>2015-11-07T13:03:56.000Z</time>
      </trkpt>
      <trkpt lat="43.2796500" lon="-3.2592740">
        <ele>136.036011</ele>
        <time>2015-11-07T13:04:00.000Z</time>
      </trkpt>
      <trkpt lat="43.2795870" lon="-3.2591780">
        <ele>136.013992</ele>
        <time>2015-11-07T13:04:04.000Z</time>
      </trkpt>
      <trkpt lat="43.2795020" lon="-3.2591070">
        <ele>137.085007</ele>
        <time>2015-11-07T13:04:08.000Z</time>
      </trkpt>
      <trkpt lat="43.2794120" lon="-3.2590290">
        <ele>138.065002</ele>
        <time>2015-11-07T13:04:13.000Z</time>
      </trkpt>
      <trkpt lat="43.2793620" lon="-3.2589140">
        <ele>138.063995</ele>
        <time>2015-11-07T13:04:17.000Z</time>
      </trkpt>
      <trkpt lat="43.2793060" lon="-3.2588090">
        <ele>138.081009</ele>
        <time>2015-11-07T13:04:21.000Z</time>
      </trkpt>
      <trkpt lat="43.2792220" lon="-3.2587400">
        <ele>140.016998</ele>
        <time>2015-11-07T13:04:26.000Z</time>
      </trkpt>
      <trkpt lat="43.2791320" lon="-3.2586970">
        <ele>141.086990</ele>
        <time>2015-11-07T13:04:31.000Z</time>
      </trkpt>
      <trkpt lat="43.2790220" lon="-3.2586680">
        <ele>141.014999</ele>
        <time>2015-11-07T13:04:36.000Z</time>
      </trkpt>
      <trkpt lat="43.2789050" lon="-3.2586400">
        <ele>141.007996</ele>
        <time>2015-11-07T13:04:40.000Z</time>
      </trkpt>
      <trkpt lat="43.2788180" lon="-3.2585950">
        <ele>141.022003</ele>
        <time>2015-11-07T13:04:43.000Z</time>
      </trkpt>
      <trkpt lat="43.2787270" lon="-3.2584900">
        <ele>141.091995</ele>
        <time>2015-11-07T13:04:47.000Z</time>
      </trkpt>
      <trkpt lat="43.2786420" lon="-3.2583840">
        <ele>140.063995</ele>
        <time>2015-11-07T13:04:51.000Z</time>
      </trkpt>
      <trkpt lat="43.2785770" lon="-3.2582940">
        <ele>142.041992</ele>
        <time>2015-11-07T13:04:55.000Z</time>
      </trkpt>
      <trkpt lat="43.2785040" lon="-3.2582100">
        <ele>143.052994</ele>
        <time>2015-11-07T13:04:59.000Z</time>
      </trkpt>
      <trkpt lat="43.2784120" lon="-3.2581060">
        <ele>142.042999</ele>
        <time>2015-11-07T13:05:03.000Z</time>
      </trkpt>
      <trkpt lat="43.2783200" lon="-3.2579880">
        <ele>140.091995</ele>
        <time>2015-11-07T13:05:07.000Z</time>
      </trkpt>
      <trkpt lat="43.2782390" lon="-3.2578770">
        <ele>141.069000</ele>
        <time>2015-11-07T13:05:10.000Z</time>
      </trkpt>
      <trkpt lat="43.2781640" lon="-3.2578010">
        <ele>141.013992</ele>
        <time>2015-11-07T13:05:13.000Z</time>
      </trkpt>
      <trkpt lat="43.2780600" lon="-3.2577740">
        <ele>143.054001</ele>
        <time>2015-11-07T13:05:17.000Z</time>
      </trkpt>
      <trkpt lat="43.2779370" lon="-3.2577340">
        <ele>141.009003</ele>
        <time>2015-11-07T13:05:20.000Z</time>
      </trkpt>
      <trkpt lat="43.2778290" lon="-3.2576750">
        <ele>139.007996</ele>
        <time>2015-11-07T13:05:23.000Z</time>
      </trkpt>
      <trkpt lat="43.2777260" lon="-3.2576170">
        <ele>139.031998</ele>
        <time>2015-11-07T13:05:26.000Z</time>
      </trkpt>
      <trkpt lat="43.2776270" lon="-3.2575750">
        <ele>138.061996</ele>
        <time>2015-11-07T13:05:29.000Z</time>
      </trkpt>
      <trkpt lat="43.2775050" lon="-3.2575520">
        <ele>139.054001</ele>
        <time>2015-11-07T13:05:32.000Z</time>
      </trkpt>
      <trkpt lat="43.2773740" lon="-3.2575310">
        <ele>141.041992</ele>
        <time>2015-11-07T13:05:35.000Z</time>
      </trkpt>
      <trkpt lat="43.2772640" lon="-3.2575110">
        <ele>141.063004</ele>
        <time>2015-11-07T13:05:38.000Z</time>
      </trkpt>
      <trkpt lat="43.2771530" lon="-3.2575040">
        <ele>142.053009</ele>
        <time>2015-11-07T13:05:41.000Z</time>
      </trkpt>
      <trkpt lat="43.2770450" lon="-3.2575140">
        <ele>142.052002</ele>
        <time>2015-11-07T13:05:44.000Z</time>
      </trkpt>
      <trkpt lat="43.2769340" lon="-3.2575210">
        <ele>142.039001</ele>
        <time>2015-11-07T13:05:47.000Z</time>
      </trkpt>
      <trkpt lat="43.2768260" lon="-3.2575240">
        <ele>143.028000</ele>
        <time>2015-11-07T13:05:50.000Z</time>
      </trkpt>
      <trkpt lat="43.2767110" lon="-3.2575230">
        <ele>143.088989</ele>
        <time>2015-11-07T13:05:53.000Z</time>
      </trkpt>
      <trkpt lat="43.2765940" lon="-3.2575170">
        <ele>142.016998</ele>
        <time>2015-11-07T13:05:56.000Z</time>
      </trkpt>
      <trkpt lat="43.2764800" lon="-3.2575120">
        <ele>143.007996</ele>
        <time>2015-11-07T13:05:59.000Z</time>
      </trkpt>
      <trkpt lat="43.2763650" lon="-3.2575300">
        <ele>143.072998</ele>
        <time>2015-11-07T13:06:02.000Z</time>
      </trkpt>
      <trkpt lat="43.2762440" lon="-3.2575670">
        <ele>143.063004</ele>
        <time>2015-11-07T13:06:05.000Z</time>
      </trkpt>
      <trkpt lat="43.2761540" lon="-3.2575850">
        <ele>142.074997</ele>
        <time>2015-11-07T13:06:07.000Z</time>
      </trkpt>
      <trkpt lat="43.2760640" lon="-3.2575890">
        <ele>142.013000</ele>
        <time>2015-11-07T13:06:09.000Z</time>
      </trkpt>
      <trkpt lat="43.2759520" lon="-3.2575860">
        <ele>143.093994</ele>
        <time>2015-11-07T13:06:12.000Z</time>
      </trkpt>
      <trkpt lat="43.2758260" lon="-3.2576360">
        <ele>143.024002</ele>
        <time>2015-11-07T13:06:15.000Z</time>
      </trkpt>
      <trkpt lat="43.2757360" lon="-3.2576510">
        <ele>143.082993</ele>
        <time>2015-11-07T13:06:17.000Z</time>
      </trkpt>
      <trkpt lat="43.2756300" lon="-3.2576890">
        <ele>143.080002</ele>
        <time>2015-11-07T13:06:19.000Z</time>
      </trkpt>
      <trkpt lat="43.2755390" lon="-3.2576950">
        <ele>142.056000</ele>
        <time>2015-11-07T13:06:21.000Z</time>
      </trkpt>
      <trkpt lat="43.2754420" lon="-3.2577120">
        <ele>143.058990</ele>
        <time>2015-11-07T13:06:23.000Z</time>
      </trkpt>
      <trkpt lat="43.2753330" lon="-3.2577300">
        <ele>143.013992</ele>
        <time>2015-11-07T13:06:25.000Z</time>
      </trkpt>
      <trkpt lat="43.2752150" lon="-3.2577430">
        <ele>143.007996</ele>
        <time>2015-11-07T13:06:27.000Z</time>
      </trkpt>
      <trkpt lat="43.2750990" lon="-3.2577460">
        <ele>143.085999</ele>
        <time>2015-11-07T13:06:29.000Z</time>
      </trkpt>
      <trkpt lat="43.2749880" lon="-3.2577710">
        <ele>143.085999</ele>
        <time>2015-11-07T13:06:31.000Z</time>
      </trkpt>
      <trkpt lat="43.2748930" lon="-3.2577800">
        <ele>143.068008</ele>
        <time>2015-11-07T13:06:33.000Z</time>
      </trkpt>
      <trkpt lat="43.2747740" lon="-3.2577860">
        <ele>143.026001</ele>
        <time>2015-11-07T13:06:35.000Z</time>
      </trkpt>
      <trkpt lat="43.2746460" lon="-3.2577690">
        <ele>142.037003</ele>
        <time>2015-11-07T13:06:37.000Z</time>
      </trkpt>
      <trkpt lat="43.2745550" lon="-3.2577070">
        <ele>143.016998</ele>
        <time>2015-11-07T13:06:39.000Z</time>
      </trkpt>
      <trkpt lat="43.2744610" lon="-3.2576720">
        <ele>143.036011</ele>
        <time>2015-11-07T13:06:41.000Z</time>
      </trkpt>
      <trkpt lat="43.2743750" lon="-3.2576200">
        <ele>143.072998</ele>
        <time>2015-11-07T13:06:43.000Z</time>
      </trkpt>
      <trkpt lat="43.2742530" lon="-3.2575480">
        <ele>143.013992</ele>
        <time>2015-11-07T13:06:46.000Z</time>
      </trkpt>
      <trkpt lat="43.2741600" lon="-3.2574810">
        <ele>142.054001</ele>
        <time>2015-11-07T13:06:48.000Z</time>
      </trkpt>
      <trkpt lat="43.2740810" lon="-3.2574110">
        <ele>142.009003</ele>
        <time>2015-11-07T13:06:50.000Z</time>
      </trkpt>
      <trkpt lat="43.2739790" lon="-3.2573560">
        <ele>142.007996</ele>
        <time>2015-11-07T13:06:52.000Z</time>
      </trkpt>
      <trkpt lat="43.2738840" lon="-3.2573550">
        <ele>143.091995</ele>
        <time>2015-11-07T13:06:54.000Z</time>
      </trkpt>
      <trkpt lat="43.2737580" lon="-3.2573040">
        <ele>144.011993</ele>
        <time>2015-11-07T13:06:57.000Z</time>
      </trkpt>
      <trkpt lat="43.2736540" lon="-3.2572540">
        <ele>144.073990</ele>
        <time>2015-11-07T13:07:00.000Z</time>
      </trkpt>
      <trkpt lat="43.2735770" lon="-3.2571810">
        <ele>145.052002</ele>
        <time>2015-11-07T13:07:02.000Z</time>
      </trkpt>
      <trkpt lat="43.2734650" lon="-3.2571450">
        <ele>145.033005</ele>
        <time>2015-11-07T13:07:05.000Z</time>
      </trkpt>
      <trkpt lat="43.2733590" lon="-3.2571350">
        <ele>144.093002</ele>
        <time>2015-11-07T13:07:07.000Z</time>
      </trkpt>
      <trkpt lat="43.2732380" lon="-3.2570730">
        <ele>145.091995</ele>
        <time>2015-11-07T13:07:10.000Z</time>
      </trkpt>
      <trkpt lat="43.2731180" lon="-3.2570100">
        <ele>146.069000</ele>
        <time>2015-11-07T13:07:13.000Z</time>
      </trkpt>
      <trkpt lat="43.2730060" lon="-3.2569870">
        <ele>147.056000</ele>
        <time>2015-11-07T13:07:16.000Z</time>
      </trkpt>
      <trkpt lat="43.2729210" lon="-3.2569380">
        <ele>146.059006</ele>
        <time>2015-11-07T13:07:18.000Z</time>
      </trkpt>
      <trkpt lat="43.2727970" lon="-3.2568860">
        <ele>146.013992</ele>
        <time>2015-11-07T13:07:21.000Z</time>
      </trkpt>
      <trkpt lat="43.2726890" lon="-3.2568400">
        <ele>147.008011</ele>
        <time>2015-11-07T13:07:24.000Z</time>
      </trkpt>
      <trkpt lat="43.2725720" lon="-3.2568050">
        <ele>148.035995</ele>
        <time>2015-11-07T13:07:28.000Z</time>
      </trkpt>
      <trkpt lat="43.2724540" lon="-3.2568000">
        <ele>149.095993</ele>
        <time>2015-11-07T13:07:31.000Z</time>
      </trkpt>
      <trkpt lat="43.2723630" lon="-3.2568150">
        <ele>148.078003</ele>
        <time>2015-11-07T13:07:34.000Z</time>
      </trkpt>
      <trkpt lat="43.2721980" lon="-3.2567480">
        <ele>147.065994</ele>
        <time>2015-11-07T13:07:36.000Z</time>
      </trkpt>
      <trkpt lat="43.2721140" lon="-3.2566990">
        <ele>146.097000</ele>
        <time>2015-11-07T13:07:37.000Z</time>
      </trkpt>
      <trkpt lat="43.2719610" lon="-3.2566280">
        <ele>146.027008</ele>
        <time>2015-11-07T13:07:39.000Z</time>
      </trkpt>
      <trkpt lat="43.2718780" lon="-3.2565790">
        <ele>145.046005</ele>
        <time>2015-11-07T13:07:40.000Z</time>
      </trkpt>
      <trkpt lat="43.2717990" lon="-3.2565050">
        <ele>145.082993</ele>
        <time>2015-11-07T13:07:41.000Z</time>
      </trkpt>
      <trkpt lat="43.2716780" lon="-3.2563890">
        <ele>145.031006</ele>
        <time>2015-11-07T13:07:43.000Z</time>
      </trkpt>
      <trkpt lat="43.2715220" lon="-3.2563460">
        <ele>145.060989</ele>
        <time>2015-11-07T13:07:45.000Z</time>
      </trkpt>
      <trkpt lat="43.2714010" lon="-3.2563370">
        <ele>145.007004</ele>
        <time>2015-11-07T13:07:47.000Z</time>
      </trkpt>
      <trkpt lat="43.2713083" lon="-3.2564602">
        <time>2021-03-15T17:58:33.608Z</time>
      </trkpt>
      <trkpt lat="43.2693140" lon="-3.2584310">
        <ele>152.591995</ele>
        <time>2020-07-11T11:53:55.000Z</time>
      </trkpt>
      <trkpt lat="43.2691880" lon="-3.2584640">
        <ele>153.279999</ele>
        <time>2020-07-11T11:53:53.000Z</time>
      </trkpt>
      <trkpt lat="43.2690090" lon="-3.2585100">
        <ele>154.470993</ele>
        <time>2020-07-11T11:53:51.000Z</time>
      </trkpt>
      <trkpt lat="43.2689200" lon="-3.2585780">
        <ele>155.819992</ele>
        <time>2020-07-11T11:53:50.000Z</time>
      </trkpt>
      <trkpt lat="43.2687790" lon="-3.2587530">
        <ele>156.742996</ele>
        <time>2020-07-11T11:53:48.000Z</time>
      </trkpt>
      <trkpt lat="43.2687080" lon="-3.2587850">
        <ele>156.909988</ele>
        <time>2020-07-11T11:53:47.000Z</time>
      </trkpt>
      <trkpt lat="43.2685810" lon="-3.2588020">
        <ele>157.322998</ele>
        <time>2020-07-11T11:53:45.000Z</time>
      </trkpt>
      <trkpt lat="43.2684540" lon="-3.2587480">
        <ele>158.607986</ele>
        <time>2020-07-11T11:53:43.000Z</time>
      </trkpt>
      <trkpt lat="43.2682960" lon="-3.2586800">
        <ele>160.126007</ele>
        <time>2020-07-11T11:53:41.000Z</time>
      </trkpt>
      <trkpt lat="43.2681380" lon="-3.2586390">
        <ele>161.359985</ele>
        <time>2020-07-11T11:53:39.000Z</time>
      </trkpt>
      <trkpt lat="43.2679940" lon="-3.2586460">
        <ele>162.085999</ele>
        <time>2020-07-11T11:53:37.000Z</time>
      </trkpt>
      <trkpt lat="43.2678590" lon="-3.2586380">
        <ele>162.598999</ele>
        <time>2020-07-11T11:53:35.000Z</time>
      </trkpt>
      <trkpt lat="43.2677340" lon="-3.2586450">
        <ele>162.636002</ele>
        <time>2020-07-11T11:53:33.000Z</time>
      </trkpt>
      <trkpt lat="43.2676160" lon="-3.2586590">
        <ele>162.164001</ele>
        <time>2020-07-11T11:53:31.000Z</time>
      </trkpt>
      <trkpt lat="43.2675540" lon="-3.2586650">
        <ele>161.944992</ele>
        <time>2020-07-11T11:53:30.000Z</time>
      </trkpt>
      <trkpt lat="43.2674410" lon="-3.2586860">
        <ele>161.694000</ele>
        <time>2020-07-11T11:53:28.000Z</time>
      </trkpt>
      <trkpt lat="43.2674010" lon="-3.2587280">
        <ele>161.737000</ele>
        <time>2020-07-11T11:53:27.000Z</time>
      </trkpt>
      <trkpt lat="43.2673570" lon="-3.2588530">
        <ele>161.963989</ele>
        <time>2020-07-11T11:53:25.000Z</time>
      </trkpt>
      <trkpt lat="43.2673490" lon="-3.2589230">
        <ele>162.226990</ele>
        <time>2020-07-11T11:53:24.000Z</time>
      </trkpt>
      <trkpt lat="43.2673430" lon="-3.2590740">
        <ele>162.108002</ele>
        <time>2020-07-11T11:53:22.000Z</time>
      </trkpt>
      <trkpt lat="43.2673310" lon="-3.2591990">
        <ele>161.917007</ele>
        <time>2020-07-11T11:53:20.000Z</time>
      </trkpt>
      <trkpt lat="43.2673210" lon="-3.2592930">
        <ele>161.688995</ele>
        <time>2020-07-11T11:53:19.000Z</time>
      </trkpt>
      <trkpt lat="43.2673190" lon="-3.2593920">
        <ele>161.128006</ele>
        <time>2020-07-11T11:53:17.000Z</time>
      </trkpt>
      <trkpt lat="43.2673050" lon="-3.2594920">
        <ele>160.329010</ele>
        <time>2020-07-11T11:53:13.000Z</time>
      </trkpt>
      <trkpt lat="43.2672630" lon="-3.2595400">
        <ele>159.735992</ele>
        <time>2020-07-11T11:53:10.000Z</time>
      </trkpt>
      <trkpt lat="43.2672240" lon="-3.2595820">
        <ele>159.483994</ele>
        <time>2020-07-11T11:53:08.000Z</time>
      </trkpt>
      <trkpt lat="43.2671800" lon="-3.2596030">
        <ele>158.834991</ele>
        <time>2020-07-11T11:53:05.000Z</time>
      </trkpt>
      <trkpt lat="43.2671290" lon="-3.2596330">
        <ele>158.594009</ele>
        <time>2020-07-11T11:53:03.000Z</time>
      </trkpt>
      <trkpt lat="43.2670980" lon="-3.2596840">
        <ele>158.027008</ele>
        <time>2020-07-11T11:53:01.000Z</time>
      </trkpt>
      <trkpt lat="43.2670690" lon="-3.2597330">
        <ele>157.824005</ele>
        <time>2020-07-11T11:52:59.000Z</time>
      </trkpt>
      <trkpt lat="43.2670370" lon="-3.2597880">
        <ele>157.517014</ele>
        <time>2020-07-11T11:52:57.000Z</time>
      </trkpt>
      <trkpt lat="43.2669990" lon="-3.2598390">
        <ele>157.007996</ele>
        <time>2020-07-11T11:52:55.000Z</time>
      </trkpt>
      <trkpt lat="43.2669580" lon="-3.2598770">
        <ele>156.910995</ele>
        <time>2020-07-11T11:52:54.000Z</time>
      </trkpt>
      <trkpt lat="43.2669140" lon="-3.2599290">
        <ele>156.882996</ele>
        <time>2020-07-11T11:52:51.000Z</time>
      </trkpt>
      <trkpt lat="43.2668780" lon="-3.2599750">
        <ele>156.623001</ele>
        <time>2020-07-11T11:52:49.000Z</time>
      </trkpt>
      <trkpt lat="43.2668390" lon="-3.2600220">
        <ele>156.292007</ele>
        <time>2020-07-11T11:52:47.000Z</time>
      </trkpt>
      <trkpt lat="43.2667970" lon="-3.2600630">
        <ele>156.289017</ele>
        <time>2020-07-11T11:52:45.000Z</time>
      </trkpt>
      <trkpt lat="43.2667640" lon="-3.2601120">
        <ele>156.297012</ele>
        <time>2020-07-11T11:52:42.000Z</time>
      </trkpt>
      <trkpt lat="43.2667350" lon="-3.2601620">
        <ele>156.178009</ele>
        <time>2020-07-11T11:52:40.000Z</time>
      </trkpt>
      <trkpt lat="43.2666890" lon="-3.2601940">
        <ele>156.086990</ele>
        <time>2020-07-11T11:52:37.000Z</time>
      </trkpt>
      <trkpt lat="43.2666360" lon="-3.2602130">
        <ele>155.819992</ele>
        <time>2020-07-11T11:52:34.000Z</time>
      </trkpt>
      <trkpt lat="43.2665900" lon="-3.2602450">
        <ele>155.516998</ele>
        <time>2020-07-11T11:52:32.000Z</time>
      </trkpt>
      <trkpt lat="43.2665500" lon="-3.2602830">
        <ele>155.029999</ele>
        <time>2020-07-11T11:52:30.000Z</time>
      </trkpt>
      <trkpt lat="43.2665010" lon="-3.2603320">
        <ele>154.807999</ele>
        <time>2020-07-11T11:52:28.000Z</time>
      </trkpt>
      <trkpt lat="43.2664540" lon="-3.2603750">
        <ele>154.414001</ele>
        <time>2020-07-11T11:52:26.000Z</time>
      </trkpt>
      <trkpt lat="43.2663920" lon="-3.2604170">
        <ele>153.858994</ele>
        <time>2020-07-11T11:52:23.000Z</time>
      </trkpt>
      <trkpt lat="43.2663310" lon="-3.2604650">
        <ele>153.556000</ele>
        <time>2020-07-11T11:52:21.000Z</time>
      </trkpt>
      <trkpt lat="43.2662620" lon="-3.2605240">
        <ele>153.039001</ele>
        <time>2020-07-11T11:52:19.000Z</time>
      </trkpt>
      <trkpt lat="43.2662000" lon="-3.2605770">
        <ele>152.846008</ele>
        <time>2020-07-11T11:52:17.000Z</time>
      </trkpt>
      <trkpt lat="43.2661620" lon="-3.2606110">
        <ele>152.444000</ele>
        <time>2020-07-11T11:52:16.000Z</time>
      </trkpt>
      <trkpt lat="43.2660830" lon="-3.2606860">
        <ele>152.415009</ele>
        <time>2020-07-11T11:52:14.000Z</time>
      </trkpt>
      <trkpt lat="43.2660440" lon="-3.2607270">
        <ele>152.433990</ele>
        <time>2020-07-11T11:52:13.000Z</time>
      </trkpt>
      <trkpt lat="43.2659810" lon="-3.2608190">
        <ele>152.417007</ele>
        <time>2020-07-11T11:52:11.000Z</time>
      </trkpt>
      <trkpt lat="43.2659100" lon="-3.2609000">
        <ele>152.363998</ele>
        <time>2020-07-11T11:52:09.000Z</time>
      </trkpt>
      <trkpt lat="43.2658300" lon="-3.2609770">
        <ele>152.257004</ele>
        <time>2020-07-11T11:52:07.000Z</time>
      </trkpt>
      <trkpt lat="43.2657920" lon="-3.2610140">
        <ele>152.007996</ele>
        <time>2020-07-11T11:52:06.000Z</time>
      </trkpt>
      <trkpt lat="43.2657090" lon="-3.2610920">
        <ele>151.710999</ele>
        <time>2020-07-11T11:52:04.000Z</time>
      </trkpt>
      <trkpt lat="43.2656190" lon="-3.2611710">
        <ele>151.347000</ele>
        <time>2020-07-11T11:52:02.000Z</time>
      </trkpt>
      <trkpt lat="43.2655350" lon="-3.2612470">
        <ele>151.326004</ele>
        <time>2020-07-11T11:52:00.000Z</time>
      </trkpt>
      <trkpt lat="43.2654600" lon="-3.2613300">
        <ele>151.283997</ele>
        <time>2020-07-11T11:51:58.000Z</time>
      </trkpt>
      <trkpt lat="43.2654210" lon="-3.2613680">
        <ele>151.130997</ele>
        <time>2020-07-11T11:51:57.000Z</time>
      </trkpt>
      <trkpt lat="43.2653750" lon="-3.2614010">
        <ele>150.929001</ele>
        <time>2020-07-11T11:51:56.000Z</time>
      </trkpt>
      <trkpt lat="43.2652760" lon="-3.2614190">
        <ele>150.580002</ele>
        <time>2020-07-11T11:51:54.000Z</time>
      </trkpt>
      <trkpt lat="43.2652270" lon="-3.2614120">
        <ele>149.969009</ele>
        <time>2020-07-11T11:51:53.000Z</time>
      </trkpt>
      <trkpt lat="43.2651250" lon="-3.2614100">
        <ele>149.632004</ele>
        <time>2020-07-11T11:51:51.000Z</time>
      </trkpt>
      <trkpt lat="43.2650280" lon="-3.2614200">
        <ele>149.018997</ele>
        <time>2020-07-11T11:51:49.000Z</time>
      </trkpt>
      <trkpt lat="43.2649390" lon="-3.2614570">
        <ele>148.781998</ele>
        <time>2020-07-11T11:51:47.000Z</time>
      </trkpt>
      <trkpt lat="43.2648430" lon="-3.2615030">
        <ele>148.207993</ele>
        <time>2020-07-11T11:51:45.000Z</time>
      </trkpt>
      <trkpt lat="43.2647500" lon="-3.2615530">
        <ele>148.113998</ele>
        <time>2020-07-11T11:51:43.000Z</time>
      </trkpt>
      <trkpt lat="43.2646580" lon="-3.2616330">
        <ele>147.912994</ele>
        <time>2020-07-11T11:51:41.000Z</time>
      </trkpt>
      <trkpt lat="43.2645830" lon="-3.2617710">
        <ele>148.272003</ele>
        <time>2020-07-11T11:51:39.000Z</time>
      </trkpt>
      <trkpt lat="43.2645320" lon="-3.2619420">
        <ele>148.119995</ele>
        <time>2020-07-11T11:51:37.000Z</time>
      </trkpt>
      <trkpt lat="43.2644800" lon="-3.2621210">
        <ele>147.976990</ele>
        <time>2020-07-11T11:51:35.000Z</time>
      </trkpt>
      <trkpt lat="43.2644040" lon="-3.2622960">
        <ele>148.354996</ele>
        <time>2020-07-11T11:51:33.000Z</time>
      </trkpt>
      <trkpt lat="43.2643320" lon="-3.2624640">
        <ele>148.326004</ele>
        <time>2020-07-11T11:51:31.000Z</time>
      </trkpt>
      <trkpt lat="43.2642360" lon="-3.2625960">
        <ele>148.365005</ele>
        <time>2020-07-11T11:51:29.000Z</time>
      </trkpt>
      <trkpt lat="43.2641860" lon="-3.2626510">
        <ele>148.317993</ele>
        <time>2020-07-11T11:51:28.000Z</time>
      </trkpt>
      <trkpt lat="43.2641330" lon="-3.2627030">
        <ele>148.324997</ele>
        <time>2020-07-11T11:51:27.000Z</time>
      </trkpt>
      <trkpt lat="43.2640780" lon="-3.2627490">
        <ele>148.487991</ele>
        <time>2020-07-11T11:51:26.000Z</time>
      </trkpt>
      <trkpt lat="43.2639590" lon="-3.2628090">
        <ele>148.507996</ele>
        <time>2020-07-11T11:51:24.000Z</time>
      </trkpt>
      <trkpt lat="43.2638940" lon="-3.2628140">
        <ele>148.621002</ele>
        <time>2020-07-11T11:51:23.000Z</time>
      </trkpt>
      <trkpt lat="43.2637590" lon="-3.2627990">
        <ele>148.800995</ele>
        <time>2020-07-11T11:51:21.000Z</time>
      </trkpt>
      <trkpt lat="43.2636190" lon="-3.2627530">
        <ele>149.238998</ele>
        <time>2020-07-11T11:51:19.000Z</time>
      </trkpt>
      <trkpt lat="43.2634690" lon="-3.2627010">
        <ele>149.889999</ele>
        <time>2020-07-11T11:51:17.000Z</time>
      </trkpt>
      <trkpt lat="43.2633090" lon="-3.2626570">
        <ele>150.216995</ele>
        <time>2020-07-11T11:51:15.000Z</time>
      </trkpt>
      <trkpt lat="43.2631510" lon="-3.2626140">
        <ele>150.985001</ele>
        <time>2020-07-11T11:51:13.000Z</time>
      </trkpt>
      <trkpt lat="43.2629930" lon="-3.2626040">
        <ele>151.445999</ele>
        <time>2020-07-11T11:51:11.000Z</time>
      </trkpt>
      <trkpt lat="43.2628430" lon="-3.2626230">
        <ele>152.235001</ele>
        <time>2020-07-11T11:51:09.000Z</time>
      </trkpt>
      <trkpt lat="43.2626930" lon="-3.2626590">
        <ele>152.927994</ele>
        <time>2020-07-11T11:51:07.000Z</time>
      </trkpt>
      <trkpt lat="43.2625450" lon="-3.2627000">
        <ele>153.345001</ele>
        <time>2020-07-11T11:51:05.000Z</time>
      </trkpt>
      <trkpt lat="43.2624730" lon="-3.2627260">
        <ele>154.097992</ele>
        <time>2020-07-11T11:51:04.000Z</time>
      </trkpt>
      <trkpt lat="43.2623300" lon="-3.2627940">
        <ele>154.608002</ele>
        <time>2020-07-11T11:51:02.000Z</time>
      </trkpt>
      <trkpt lat="43.2622620" lon="-3.2628380">
        <ele>154.906998</ele>
        <time>2020-07-11T11:51:01.000Z</time>
      </trkpt>
      <trkpt lat="43.2621300" lon="-3.2629360">
        <ele>155.460999</ele>
        <time>2020-07-11T11:50:59.000Z</time>
      </trkpt>
      <trkpt lat="43.2619970" lon="-3.2630360">
        <ele>155.630997</ele>
        <time>2020-07-11T11:50:57.000Z</time>
      </trkpt>
      <trkpt lat="43.2618660" lon="-3.2631330">
        <ele>155.919006</ele>
        <time>2020-07-11T11:50:55.000Z</time>
      </trkpt>
      <trkpt lat="43.2617360" lon="-3.2632160">
        <ele>156.475998</ele>
        <time>2020-07-11T11:50:53.000Z</time>
      </trkpt>
      <trkpt lat="43.2616080" lon="-3.2633050">
        <ele>156.524002</ele>
        <time>2020-07-11T11:50:51.000Z</time>
      </trkpt>
      <trkpt lat="43.2614830" lon="-3.2634010">
        <ele>156.795013</ele>
        <time>2020-07-11T11:50:49.000Z</time>
      </trkpt>
      <trkpt lat="43.2614210" lon="-3.2634480">
        <ele>157.074005</ele>
        <time>2020-07-11T11:50:48.000Z</time>
      </trkpt>
      <trkpt lat="43.2613610" lon="-3.2634940">
        <ele>156.987000</ele>
        <time>2020-07-11T11:50:47.000Z</time>
      </trkpt>
      <trkpt lat="43.2612420" lon="-3.2635830">
        <ele>156.723999</ele>
        <time>2020-07-11T11:50:45.000Z</time>
      </trkpt>
      <trkpt lat="43.2611830" lon="-3.2636210">
        <ele>156.477005</ele>
        <time>2020-07-11T11:50:44.000Z</time>
      </trkpt>
      <trkpt lat="43.2610760" lon="-3.2636940">
        <ele>155.908005</ele>
        <time>2020-07-11T11:50:42.000Z</time>
      </trkpt>
      <trkpt lat="43.2610160" lon="-3.2637330">
        <ele>155.714005</ele>
        <time>2020-07-11T11:50:41.000Z</time>
      </trkpt>
      <trkpt lat="43.2609100" lon="-3.2638000">
        <ele>155.404007</ele>
        <time>2020-07-11T11:50:39.000Z</time>
      </trkpt>
      <trkpt lat="43.2608580" lon="-3.2638390">
        <ele>154.924011</ele>
        <time>2020-07-11T11:50:38.000Z</time>
      </trkpt>
      <trkpt lat="43.2608030" lon="-3.2638800">
        <ele>154.891006</ele>
        <time>2020-07-11T11:50:37.000Z</time>
      </trkpt>
      <trkpt lat="43.2606930" lon="-3.2639540">
        <ele>154.688004</ele>
        <time>2020-07-11T11:50:35.000Z</time>
      </trkpt>
      <trkpt lat="43.2606350" lon="-3.2639940">
        <ele>154.246002</ele>
        <time>2020-07-11T11:50:34.000Z</time>
      </trkpt>
      <trkpt lat="43.2605790" lon="-3.2640320">
        <ele>154.376999</ele>
        <time>2020-07-11T11:50:33.000Z</time>
      </trkpt>
      <trkpt lat="43.2605220" lon="-3.2640690">
        <ele>154.486008</ele>
        <time>2020-07-11T11:50:32.000Z</time>
      </trkpt>
      <trkpt lat="43.2604100" lon="-3.2641440">
        <ele>154.569000</ele>
        <time>2020-07-11T11:50:30.000Z</time>
      </trkpt>
      <trkpt lat="43.2603510" lon="-3.2641850">
        <ele>154.766006</ele>
        <time>2020-07-11T11:50:29.000Z</time>
      </trkpt>
      <trkpt lat="43.2602320" lon="-3.2642730">
        <ele>155.158997</ele>
        <time>2020-07-11T11:50:27.000Z</time>
      </trkpt>
      <trkpt lat="43.2601200" lon="-3.2643880">
        <ele>155.108002</ele>
        <time>2020-07-11T11:50:25.000Z</time>
      </trkpt>
      <trkpt lat="43.2600190" lon="-3.2645190">
        <ele>155.110992</ele>
        <time>2020-07-11T11:50:23.000Z</time>
      </trkpt>
      <trkpt lat="43.2599210" lon="-3.2646480">
        <ele>155.147003</ele>
        <time>2020-07-11T11:50:21.000Z</time>
      </trkpt>
      <trkpt lat="43.2598350" lon="-3.2647910">
        <ele>155.145004</ele>
        <time>2020-07-11T11:50:19.000Z</time>
      </trkpt>
      <trkpt lat="43.2597580" lon="-3.2649320">
        <ele>155.194000</ele>
        <time>2020-07-11T11:50:17.000Z</time>
      </trkpt>
      <trkpt lat="43.2596810" lon="-3.2650480">
        <ele>155.161011</ele>
        <time>2020-07-11T11:50:15.000Z</time>
      </trkpt>
      <trkpt lat="43.2596060" lon="-3.2651590">
        <ele>155.238998</ele>
        <time>2020-07-11T11:50:13.000Z</time>
      </trkpt>
      <trkpt lat="43.2595670" lon="-3.2652170">
        <ele>155.319992</ele>
        <time>2020-07-11T11:50:12.000Z</time>
      </trkpt>
      <trkpt lat="43.2594920" lon="-3.2653030">
        <ele>155.469009</ele>
        <time>2020-07-11T11:50:10.000Z</time>
      </trkpt>
      <trkpt lat="43.2594530" lon="-3.2653400">
        <ele>155.632004</ele>
        <time>2020-07-11T11:50:09.000Z</time>
      </trkpt>
      <trkpt lat="43.2593610" lon="-3.2654050">
        <ele>156.058990</ele>
        <time>2020-07-11T11:50:07.000Z</time>
      </trkpt>
      <trkpt lat="43.2592600" lon="-3.2654340">
        <ele>156.632004</ele>
        <time>2020-07-11T11:50:05.000Z</time>
      </trkpt>
      <trkpt lat="43.2591560" lon="-3.2654200">
        <ele>157.007996</ele>
        <time>2020-07-11T11:50:03.000Z</time>
      </trkpt>
      <trkpt lat="43.2590490" lon="-3.2653910">
        <ele>157.725998</ele>
        <time>2020-07-11T11:50:01.000Z</time>
      </trkpt>
      <trkpt lat="43.2589930" lon="-3.2653710">
        <ele>158.233002</ele>
        <time>2020-07-11T11:50:00.000Z</time>
      </trkpt>
      <trkpt lat="43.2589360" lon="-3.2653540">
        <ele>158.377991</ele>
        <time>2020-07-11T11:49:59.000Z</time>
      </trkpt>
      <trkpt lat="43.2588220" lon="-3.2653320">
        <ele>158.554993</ele>
        <time>2020-07-11T11:49:57.000Z</time>
      </trkpt>
      <trkpt lat="43.2587010" lon="-3.2653300">
        <ele>158.842010</ele>
        <time>2020-07-11T11:49:55.000Z</time>
      </trkpt>
      <trkpt lat="43.2585830" lon="-3.2653520">
        <ele>159.459991</ele>
        <time>2020-07-11T11:49:53.000Z</time>
      </trkpt>
      <trkpt lat="43.2584800" lon="-3.2654090">
        <ele>159.750992</ele>
        <time>2020-07-11T11:49:51.000Z</time>
      </trkpt>
      <trkpt lat="43.2583940" lon="-3.2654850">
        <ele>160.240005</ele>
        <time>2020-07-11T11:49:49.000Z</time>
      </trkpt>
      <trkpt lat="43.2583550" lon="-3.2655210">
        <ele>160.322998</ele>
        <time>2020-07-11T11:49:48.000Z</time>
      </trkpt>
      <trkpt lat="43.2583170" lon="-3.2655570">
        <ele>160.550003</ele>
        <time>2020-07-11T11:49:47.000Z</time>
      </trkpt>
      <trkpt lat="43.2582380" lon="-3.2656380">
        <ele>160.982986</ele>
        <time>2020-07-11T11:49:45.000Z</time>
      </trkpt>
      <trkpt lat="43.2581610" lon="-3.2657220">
        <ele>161.608002</ele>
        <time>2020-07-11T11:49:43.000Z</time>
      </trkpt>
      <trkpt lat="43.2580870" lon="-3.2658140">
        <ele>162.016998</ele>
        <time>2020-07-11T11:49:41.000Z</time>
      </trkpt>
      <trkpt lat="43.2580050" lon="-3.2658960">
        <ele>162.125000</ele>
        <time>2020-07-11T11:49:39.000Z</time>
      </trkpt>
      <trkpt lat="43.2578980" lon="-3.2659430">
        <ele>162.283005</ele>
        <time>2020-07-11T11:49:37.000Z</time>
      </trkpt>
      <trkpt lat="43.2577840" lon="-3.2659560">
        <ele>162.450989</ele>
        <time>2020-07-11T11:49:35.000Z</time>
      </trkpt>
      <trkpt lat="43.2577290" lon="-3.2659230">
        <ele>162.748001</ele>
        <time>2020-07-11T11:49:33.000Z</time>
      </trkpt>
      <trkpt lat="43.2576900" lon="-3.2658750">
        <ele>163.115997</ele>
        <time>2020-07-11T11:49:31.000Z</time>
      </trkpt>
      <trkpt lat="43.2576700" lon="-3.2658180">
        <ele>163.276993</ele>
        <time>2020-07-11T11:49:30.000Z</time>
      </trkpt>
      <trkpt lat="43.2576770" lon="-3.2657360">
        <ele>163.316010</ele>
        <time>2020-07-11T11:49:28.000Z</time>
      </trkpt>
      <trkpt lat="43.2576770" lon="-3.2657360">
        <ele>163.348999</ele>
        <time>2020-07-11T11:49:28.000Z</time>
      </trkpt>
      <trkpt lat="43.2576770" lon="-3.2657360">
        <ele>163.316010</ele>
        <time>2020-07-11T11:49:28.000Z</time>
      </trkpt>
      <trkpt lat="43.2576940" lon="-3.2656520">
        <ele>163.868988</ele>
        <time>2020-07-11T11:49:23.000Z</time>
      </trkpt>
      <trkpt lat="43.2576780" lon="-3.2657200">
        <ele>163.707993</ele>
        <time>2020-07-11T11:49:19.000Z</time>
      </trkpt>
      <trkpt lat="43.2576340" lon="-3.2657840">
        <ele>163.514999</ele>
        <time>2020-07-11T11:49:17.000Z</time>
      </trkpt>
      <trkpt lat="43.2575870" lon="-3.2658360">
        <ele>163.205002</ele>
        <time>2020-07-11T11:49:15.000Z</time>
      </trkpt>
      <trkpt lat="43.2575430" lon="-3.2658600">
        <ele>163.444000</ele>
        <time>2020-07-11T11:49:14.000Z</time>
      </trkpt>
      <trkpt lat="43.2574740" lon="-3.2658690">
        <ele>163.755005</ele>
        <time>2020-07-11T11:49:12.000Z</time>
      </trkpt>
      <trkpt lat="43.2574300" lon="-3.2658480">
        <ele>163.561996</ele>
        <time>2020-07-11T11:49:11.000Z</time>
      </trkpt>
      <trkpt lat="43.2573110" lon="-3.2657670">
        <ele>163.949997</ele>
        <time>2020-07-11T11:49:09.000Z</time>
      </trkpt>
      <trkpt lat="43.2571700" lon="-3.2656850">
        <ele>164.550995</ele>
        <time>2020-07-11T11:49:07.000Z</time>
      </trkpt>
      <trkpt lat="43.2570170" lon="-3.2656280">
        <ele>164.889984</ele>
        <time>2020-07-11T11:49:05.000Z</time>
      </trkpt>
      <trkpt lat="43.2568600" lon="-3.2656300">
        <ele>165.382996</ele>
        <time>2020-07-11T11:49:03.000Z</time>
      </trkpt>
      <trkpt lat="43.2567790" lon="-3.2656440">
        <ele>166.239990</ele>
        <time>2020-07-11T11:49:02.000Z</time>
      </trkpt>
      <trkpt lat="43.2566190" lon="-3.2656700">
        <ele>167.042999</ele>
        <time>2020-07-11T11:49:00.000Z</time>
      </trkpt>
      <trkpt lat="43.2565400" lon="-3.2656750">
        <ele>167.608002</ele>
        <time>2020-07-11T11:48:59.000Z</time>
      </trkpt>
      <trkpt lat="43.2563820" lon="-3.2656720">
        <ele>168.725998</ele>
        <time>2020-07-11T11:48:57.000Z</time>
      </trkpt>
      <trkpt lat="43.2562090" lon="-3.2656710">
        <ele>169.105988</ele>
        <time>2020-07-11T11:48:55.000Z</time>
      </trkpt>
      <trkpt lat="43.2560160" lon="-3.2656620">
        <ele>169.888992</ele>
        <time>2020-07-11T11:48:53.000Z</time>
      </trkpt>
      <trkpt lat="43.2559150" lon="-3.2656720">
        <ele>170.495987</ele>
        <time>2020-07-11T11:48:52.000Z</time>
      </trkpt>
      <trkpt lat="43.2558210" lon="-3.2657070">
        <ele>171.462997</ele>
        <time>2020-07-11T11:48:51.000Z</time>
      </trkpt>
      <trkpt lat="43.2556650" lon="-3.2657980">
        <ele>173.020996</ele>
        <time>2020-07-11T11:48:49.000Z</time>
      </trkpt>
      <trkpt lat="43.2555220" lon="-3.2658990">
        <ele>174.362015</ele>
        <time>2020-07-11T11:48:47.000Z</time>
      </trkpt>
      <trkpt lat="43.2553940" lon="-3.2660080">
        <ele>175.221008</ele>
        <time>2020-07-11T11:48:45.000Z</time>
      </trkpt>
      <trkpt lat="43.2553430" lon="-3.2660640">
        <ele>175.414001</ele>
        <time>2020-07-11T11:48:44.000Z</time>
      </trkpt>
      <trkpt lat="43.2552510" lon="-3.2661630">
        <ele>175.010986</ele>
        <time>2020-07-11T11:48:42.000Z</time>
      </trkpt>
      <trkpt lat="43.2551920" lon="-3.2662140">
        <ele>175.184006</ele>
        <time>2020-07-11T11:48:40.000Z</time>
      </trkpt>
      <trkpt lat="43.2551530" lon="-3.2662510">
        <ele>174.508011</ele>
        <time>2020-07-11T11:48:39.000Z</time>
      </trkpt>
      <trkpt lat="43.2550930" lon="-3.2663040">
        <ele>174.223007</ele>
        <time>2020-07-11T11:48:38.000Z</time>
      </trkpt>
      <trkpt lat="43.2550480" lon="-3.2663500">
        <ele>173.749008</ele>
        <time>2020-07-11T11:48:36.000Z</time>
      </trkpt>
      <trkpt lat="43.2549790" lon="-3.2663550">
        <ele>172.995010</ele>
        <time>2020-07-11T11:48:33.000Z</time>
      </trkpt>
      <trkpt lat="43.2549180" lon="-3.2663660">
        <ele>172.242004</ele>
        <time>2020-07-11T11:48:30.000Z</time>
      </trkpt>
      <trkpt lat="43.2548700" lon="-3.2663680">
        <ele>171.719009</ele>
        <time>2020-07-11T11:48:29.000Z</time>
      </trkpt>
      <trkpt lat="43.2548180" lon="-3.2663710">
        <ele>171.537003</ele>
        <time>2020-07-11T11:48:27.000Z</time>
      </trkpt>
      <trkpt lat="43.2547650" lon="-3.2663580">
        <ele>171.188004</ele>
        <time>2020-07-11T11:48:25.000Z</time>
      </trkpt>
      <trkpt lat="43.2547110" lon="-3.2663280">
        <ele>170.587006</ele>
        <time>2020-07-11T11:48:22.000Z</time>
      </trkpt>
      <trkpt lat="43.2546640" lon="-3.2662940">
        <ele>170.130005</ele>
        <time>2020-07-11T11:48:20.000Z</time>
      </trkpt>
      <trkpt lat="43.2546230" lon="-3.2662640">
        <ele>170.156998</ele>
        <time>2020-07-11T11:48:17.000Z</time>
      </trkpt>
      <trkpt lat="43.2545780" lon="-3.2662400">
        <ele>169.490005</ele>
        <time>2020-07-11T11:48:15.000Z</time>
      </trkpt>
      <trkpt lat="43.2545270" lon="-3.2662270">
        <ele>168.907990</ele>
        <time>2020-07-11T11:48:12.000Z</time>
      </trkpt>
      <trkpt lat="43.2544720" lon="-3.2661910">
        <ele>168.723007</ele>
        <time>2020-07-11T11:48:08.000Z</time>
      </trkpt>
      <trkpt lat="43.2544290" lon="-3.2661660">
        <ele>168.403000</ele>
        <time>2020-07-11T11:48:05.000Z</time>
      </trkpt>
      <trkpt lat="43.2543820" lon="-3.2661440">
        <ele>168.059006</ele>
        <time>2020-07-11T11:48:03.000Z</time>
      </trkpt>
      <trkpt lat="43.2543360" lon="-3.2661140">
        <ele>167.944000</ele>
        <time>2020-07-11T11:48:00.000Z</time>
      </trkpt>
      <trkpt lat="43.2542860" lon="-3.2660830">
        <ele>167.820999</ele>
        <time>2020-07-11T11:47:57.000Z</time>
      </trkpt>
      <trkpt lat="43.2542260" lon="-3.2660520">
        <ele>167.698990</ele>
        <time>2020-07-11T11:47:55.000Z</time>
      </trkpt>
      <trkpt lat="43.2541760" lon="-3.2660370">
        <ele>167.309998</ele>
        <time>2020-07-11T11:47:53.000Z</time>
      </trkpt>
      <trkpt lat="43.2541200" lon="-3.2660110">
        <ele>166.848999</ele>
        <time>2020-07-11T11:47:51.000Z</time>
      </trkpt>
      <trkpt lat="43.2540560" lon="-3.2659650">
        <ele>166.671997</ele>
        <time>2020-07-11T11:47:49.000Z</time>
      </trkpt>
      <trkpt lat="43.2539730" lon="-3.2658830">
        <ele>166.298996</ele>
        <time>2020-07-11T11:47:47.000Z</time>
      </trkpt>
      <trkpt lat="43.2539280" lon="-3.2658340">
        <ele>166.272003</ele>
        <time>2020-07-11T11:47:46.000Z</time>
      </trkpt>
      <trkpt lat="43.2538350" lon="-3.2657240">
        <ele>166.207993</ele>
        <time>2020-07-11T11:47:44.000Z</time>
      </trkpt>
      <trkpt lat="43.2537850" lon="-3.2656670">
        <ele>166.224991</ele>
        <time>2020-07-11T11:47:43.000Z</time>
      </trkpt>
      <trkpt lat="43.2537370" lon="-3.2656090">
        <ele>166.205002</ele>
        <time>2020-07-11T11:47:42.000Z</time>
      </trkpt>
      <trkpt lat="43.2536440" lon="-3.2654890">
        <ele>166.378998</ele>
        <time>2020-07-11T11:47:40.000Z</time>
      </trkpt>
      <trkpt lat="43.2535490" lon="-3.2653680">
        <ele>166.416000</ele>
        <time>2020-07-11T11:47:38.000Z</time>
      </trkpt>
      <trkpt lat="43.2535020" lon="-3.2653060">
        <ele>166.513000</ele>
        <time>2020-07-11T11:47:37.000Z</time>
      </trkpt>
      <trkpt lat="43.2534170" lon="-3.2651820">
        <ele>166.710999</ele>
        <time>2020-07-11T11:47:35.000Z</time>
      </trkpt>
      <trkpt lat="43.2533750" lon="-3.2651160">
        <ele>167.122009</ele>
        <time>2020-07-11T11:47:34.000Z</time>
      </trkpt>
      <trkpt lat="43.2532870" lon="-3.2649850">
        <ele>167.121002</ele>
        <time>2020-07-11T11:47:32.000Z</time>
      </trkpt>
      <trkpt lat="43.2532420" lon="-3.2649170">
        <ele>167.194000</ele>
        <time>2020-07-11T11:47:31.000Z</time>
      </trkpt>
      <trkpt lat="43.2531990" lon="-3.2648520">
        <ele>167.151001</ele>
        <time>2020-07-11T11:47:30.000Z</time>
      </trkpt>
      <trkpt lat="43.2531110" lon="-3.2647250">
        <ele>167.163986</ele>
        <time>2020-07-11T11:47:28.000Z</time>
      </trkpt>
      <trkpt lat="43.2530650" lon="-3.2646580">
        <ele>167.208008</ele>
        <time>2020-07-11T11:47:27.000Z</time>
      </trkpt>
      <trkpt lat="43.2529760" lon="-3.2645270">
        <ele>167.320007</ele>
        <time>2020-07-11T11:47:25.000Z</time>
      </trkpt>
      <trkpt lat="43.2529270" lon="-3.2644610">
        <ele>167.573013</ele>
        <time>2020-07-11T11:47:24.000Z</time>
      </trkpt>
      <trkpt lat="43.2528770" lon="-3.2643930">
        <ele>167.891998</ele>
        <time>2020-07-11T11:47:23.000Z</time>
      </trkpt>
      <trkpt lat="43.2527700" lon="-3.2642450">
        <ele>168.328995</ele>
        <time>2020-07-11T11:47:21.000Z</time>
      </trkpt>
      <trkpt lat="43.2526400" lon="-3.2641340">
        <ele>169.295990</ele>
        <time>2020-07-11T11:47:19.000Z</time>
      </trkpt>
      <trkpt lat="43.2524850" lon="-3.2640930">
        <ele>170.024002</ele>
        <time>2020-07-11T11:47:17.000Z</time>
      </trkpt>
      <trkpt lat="43.2523310" lon="-3.2640580">
        <ele>170.654999</ele>
        <time>2020-07-11T11:47:15.000Z</time>
      </trkpt>
      <trkpt lat="43.2521800" lon="-3.2640220">
        <ele>170.914001</ele>
        <time>2020-07-11T11:47:13.000Z</time>
      </trkpt>
      <trkpt lat="43.2520310" lon="-3.2639960">
        <ele>171.496994</ele>
        <time>2020-07-11T11:47:11.000Z</time>
      </trkpt>
      <trkpt lat="43.2519610" lon="-3.2639830">
        <ele>171.674011</ele>
        <time>2020-07-11T11:47:10.000Z</time>
      </trkpt>
      <trkpt lat="43.2518240" lon="-3.2639460">
        <ele>171.966995</ele>
        <time>2020-07-11T11:47:08.000Z</time>
      </trkpt>
      <trkpt lat="43.2517510" lon="-3.2639260">
        <ele>172.507996</ele>
        <time>2020-07-11T11:47:07.000Z</time>
      </trkpt>
      <trkpt lat="43.2516050" lon="-3.2638980">
        <ele>172.810989</ele>
        <time>2020-07-11T11:47:05.000Z</time>
      </trkpt>
      <trkpt lat="43.2515330" lon="-3.2638820">
        <ele>173.247009</ele>
        <time>2020-07-11T11:47:04.000Z</time>
      </trkpt>
      <trkpt lat="43.2513940" lon="-3.2638540">
        <ele>173.925995</ele>
        <time>2020-07-11T11:47:02.000Z</time>
      </trkpt>
      <trkpt lat="43.2513290" lon="-3.2638380">
        <ele>174.462006</ele>
        <time>2020-07-11T11:47:01.000Z</time>
      </trkpt>
      <trkpt lat="43.2512020" lon="-3.2638070">
        <ele>174.638992</ele>
        <time>2020-07-11T11:46:59.000Z</time>
      </trkpt>
      <trkpt lat="43.2510730" lon="-3.2637770">
        <ele>174.957001</ele>
        <time>2020-07-11T11:46:57.000Z</time>
      </trkpt>
      <trkpt lat="43.2509460" lon="-3.2637410">
        <ele>175.378006</ele>
        <time>2020-07-11T11:46:55.000Z</time>
      </trkpt>
      <trkpt lat="43.2508860" lon="-3.2637260">
        <ele>175.376999</ele>
        <time>2020-07-11T11:46:54.000Z</time>
      </trkpt>
      <trkpt lat="43.2508270" lon="-3.2637130">
        <ele>175.429993</ele>
        <time>2020-07-11T11:46:53.000Z</time>
      </trkpt>
      <trkpt lat="43.2507090" lon="-3.2636900">
        <ele>175.586990</ele>
        <time>2020-07-11T11:46:51.000Z</time>
      </trkpt>
      <trkpt lat="43.2505920" lon="-3.2636640">
        <ele>175.770004</ele>
        <time>2020-07-11T11:46:49.000Z</time>
      </trkpt>
      <trkpt lat="43.2505350" lon="-3.2636520">
        <ele>176.007996</ele>
        <time>2020-07-11T11:46:48.000Z</time>
      </trkpt>
      <trkpt lat="43.2504270" lon="-3.2636390">
        <ele>175.820007</ele>
        <time>2020-07-11T11:46:46.000Z</time>
      </trkpt>
      <trkpt lat="43.2503760" lon="-3.2636320">
        <ele>175.399994</ele>
        <time>2020-07-11T11:46:45.000Z</time>
      </trkpt>
      <trkpt lat="43.2502750" lon="-3.2636120">
        <ele>174.856995</ele>
        <time>2020-07-11T11:46:43.000Z</time>
      </trkpt>
      <trkpt lat="43.2501690" lon="-3.2635870">
        <ele>174.429001</ele>
        <time>2020-07-11T11:46:41.000Z</time>
      </trkpt>
      <trkpt lat="43.2500660" lon="-3.2635640">
        <ele>173.886002</ele>
        <time>2020-07-11T11:46:39.000Z</time>
      </trkpt>
      <trkpt lat="43.2499830" lon="-3.2635590">
        <ele>173.474014</ele>
        <time>2020-07-11T11:46:37.000Z</time>
      </trkpt>
      <trkpt lat="43.2499390" lon="-3.2635090">
        <ele>172.815002</ele>
        <time>2020-07-11T11:46:35.000Z</time>
      </trkpt>
      <trkpt lat="43.2499440" lon="-3.2633990">
        <ele>172.574005</ele>
        <time>2020-07-11T11:46:33.000Z</time>
      </trkpt>
      <trkpt lat="43.2499570" lon="-3.2632750">
        <ele>172.016998</ele>
        <time>2020-07-11T11:46:31.000Z</time>
      </trkpt>
      <trkpt lat="43.2499850" lon="-3.2631460">
        <ele>171.884003</ele>
        <time>2020-07-11T11:46:29.000Z</time>
      </trkpt>
      <trkpt lat="43.2500040" lon="-3.2630070">
        <ele>171.457001</ele>
        <time>2020-07-11T11:46:27.000Z</time>
      </trkpt>
      <trkpt lat="43.2500070" lon="-3.2628630">
        <ele>171.508011</ele>
        <time>2020-07-11T11:46:25.000Z</time>
      </trkpt>
      <trkpt lat="43.2499830" lon="-3.2627260">
        <ele>171.614014</ele>
        <time>2020-07-11T11:46:23.000Z</time>
      </trkpt>
      <trkpt lat="43.2499060" lon="-3.2626110">
        <ele>171.867996</ele>
        <time>2020-07-11T11:46:21.000Z</time>
      </trkpt>
      <trkpt lat="43.2498300" lon="-3.2624760">
        <ele>172.126999</ele>
        <time>2020-07-11T11:46:19.000Z</time>
      </trkpt>
      <trkpt lat="43.2498150" lon="-3.2623270">
        <ele>172.522003</ele>
        <time>2020-07-11T11:46:17.000Z</time>
      </trkpt>
      <trkpt lat="43.2498240" lon="-3.2622630">
        <ele>172.539001</ele>
        <time>2020-07-11T11:46:16.000Z</time>
      </trkpt>
      <trkpt lat="43.2498350" lon="-3.2621300">
        <ele>172.627014</ele>
        <time>2020-07-11T11:46:14.000Z</time>
      </trkpt>
      <trkpt lat="43.2498210" lon="-3.2619920">
        <ele>172.788010</ele>
        <time>2020-07-11T11:46:12.000Z</time>
      </trkpt>
      <trkpt lat="43.2497590" lon="-3.2618930">
        <ele>172.936996</ele>
        <time>2020-07-11T11:46:10.000Z</time>
      </trkpt>
      <trkpt lat="43.2497180" lon="-3.2618540">
        <ele>172.539993</ele>
        <time>2020-07-11T11:46:09.000Z</time>
      </trkpt>
      <trkpt lat="43.2496280" lon="-3.2617820">
        <ele>172.576996</ele>
        <time>2020-07-11T11:46:07.000Z</time>
      </trkpt>
      <trkpt lat="43.2495230" lon="-3.2617110">
        <ele>172.559998</ele>
        <time>2020-07-11T11:46:05.000Z</time>
      </trkpt>
      <trkpt lat="43.2494090" lon="-3.2616250">
        <ele>172.507996</ele>
        <time>2020-07-11T11:46:03.000Z</time>
      </trkpt>
      <trkpt lat="43.2493570" lon="-3.2615770">
        <ele>172.613998</ele>
        <time>2020-07-11T11:46:02.000Z</time>
      </trkpt>
      <trkpt lat="43.2492650" lon="-3.2614840">
        <ele>172.759003</ele>
        <time>2020-07-11T11:46:00.000Z</time>
      </trkpt>
      <trkpt lat="43.2492150" lon="-3.2614340">
        <ele>172.955994</ele>
        <time>2020-07-11T11:45:59.000Z</time>
      </trkpt>
      <trkpt lat="43.2491170" lon="-3.2613340">
        <ele>172.654007</ele>
        <time>2020-07-11T11:45:57.000Z</time>
      </trkpt>
      <trkpt lat="43.2490210" lon="-3.2612340">
        <ele>172.791000</ele>
        <time>2020-07-11T11:45:55.000Z</time>
      </trkpt>
      <trkpt lat="43.2489180" lon="-3.2611420">
        <ele>172.919006</ele>
        <time>2020-07-11T11:45:53.000Z</time>
      </trkpt>
      <trkpt lat="43.2488150" lon="-3.2610500">
        <ele>173.270004</ele>
        <time>2020-07-11T11:45:51.000Z</time>
      </trkpt>
      <trkpt lat="43.2487040" lon="-3.2609540">
        <ele>173.758987</ele>
        <time>2020-07-11T11:45:49.000Z</time>
      </trkpt>
      <trkpt lat="43.2486470" lon="-3.2609020">
        <ele>173.892014</ele>
        <time>2020-07-11T11:45:48.000Z</time>
      </trkpt>
      <trkpt lat="43.2485300" lon="-3.2608250">
        <ele>174.078995</ele>
        <time>2020-07-11T11:45:46.000Z</time>
      </trkpt>
      <trkpt lat="43.2484670" lon="-3.2608050">
        <ele>174.352005</ele>
        <time>2020-07-11T11:45:45.000Z</time>
      </trkpt>
      <trkpt lat="43.2484030" lon="-3.2607900">
        <ele>174.707993</ele>
        <time>2020-07-11T11:45:44.000Z</time>
      </trkpt>
      <trkpt lat="43.2482750" lon="-3.2607760">
        <ele>174.824997</ele>
        <time>2020-07-11T11:45:42.000Z</time>
      </trkpt>
      <trkpt lat="43.2481450" lon="-3.2607900">
        <ele>174.905014</ele>
        <time>2020-07-11T11:45:40.000Z</time>
      </trkpt>
      <trkpt lat="43.2480800" lon="-3.2608080">
        <ele>175.179001</ele>
        <time>2020-07-11T11:45:39.000Z</time>
      </trkpt>
      <trkpt lat="43.2480160" lon="-3.2608290">
        <ele>175.498993</ele>
        <time>2020-07-11T11:45:38.000Z</time>
      </trkpt>
      <trkpt lat="43.2479530" lon="-3.2608560">
        <ele>175.966003</ele>
        <time>2020-07-11T11:45:37.000Z</time>
      </trkpt>
      <trkpt lat="43.2478220" lon="-3.2609150">
        <ele>176.054001</ele>
        <time>2020-07-11T11:45:35.000Z</time>
      </trkpt>
      <trkpt lat="43.2476930" lon="-3.2609530">
        <ele>176.214996</ele>
        <time>2020-07-11T11:45:33.000Z</time>
      </trkpt>
      <trkpt lat="43.2476280" lon="-3.2609710">
        <ele>176.594009</ele>
        <time>2020-07-11T11:45:32.000Z</time>
      </trkpt>
      <trkpt lat="43.2475110" lon="-3.2610430">
        <ele>177.067001</ele>
        <time>2020-07-11T11:45:30.000Z</time>
      </trkpt>
      <trkpt lat="43.2474540" lon="-3.2610880">
        <ele>177.244003</ele>
        <time>2020-07-11T11:45:29.000Z</time>
      </trkpt>
      <trkpt lat="43.2473410" lon="-3.2611680">
        <ele>177.677002</ele>
        <time>2020-07-11T11:45:27.000Z</time>
      </trkpt>
      <trkpt lat="43.2472440" lon="-3.2612940">
        <ele>178.307999</ele>
        <time>2020-07-11T11:45:25.000Z</time>
      </trkpt>
      <trkpt lat="43.2471520" lon="-3.2614240">
        <ele>178.813995</ele>
        <time>2020-07-11T11:45:23.000Z</time>
      </trkpt>
      <trkpt lat="43.2470670" lon="-3.2615460">
        <ele>178.904007</ele>
        <time>2020-07-11T11:45:21.000Z</time>
      </trkpt>
      <trkpt lat="43.2469820" lon="-3.2616430">
        <ele>179.124008</ele>
        <time>2020-07-11T11:45:19.000Z</time>
      </trkpt>
      <trkpt lat="43.2469060" lon="-3.2617500">
        <ele>179.591995</ele>
        <time>2020-07-11T11:45:17.000Z</time>
      </trkpt>
      <trkpt lat="43.2468720" lon="-3.2618090">
        <ele>179.438995</ele>
        <time>2020-07-11T11:45:16.000Z</time>
      </trkpt>
      <trkpt lat="43.2468380" lon="-3.2618650">
        <ele>179.376999</ele>
        <time>2020-07-11T11:45:15.000Z</time>
      </trkpt>
      <trkpt lat="43.2467660" lon="-3.2619860">
        <ele>179.148010</ele>
        <time>2020-07-11T11:45:13.000Z</time>
      </trkpt>
      <trkpt lat="43.2466790" lon="-3.2621170">
        <ele>179.436996</ele>
        <time>2020-07-11T11:45:11.000Z</time>
      </trkpt>
      <trkpt lat="43.2466160" lon="-3.2621580">
        <ele>179.919998</ele>
        <time>2020-07-11T11:45:10.000Z</time>
      </trkpt>
      <trkpt lat="43.2465490" lon="-3.2621820">
        <ele>180.146988</ele>
        <time>2020-07-11T11:45:09.000Z</time>
      </trkpt>
      <trkpt lat="43.2464800" lon="-3.2621980">
        <ele>180.589996</ele>
        <time>2020-07-11T11:45:08.000Z</time>
      </trkpt>
      <trkpt lat="43.2463450" lon="-3.2622040">
        <ele>180.507996</ele>
        <time>2020-07-11T11:45:06.000Z</time>
      </trkpt>
      <trkpt lat="43.2462760" lon="-3.2622180">
        <ele>180.519989</ele>
        <time>2020-07-11T11:45:05.000Z</time>
      </trkpt>
      <trkpt lat="43.2461510" lon="-3.2622860">
        <ele>180.600006</ele>
        <time>2020-07-11T11:45:03.000Z</time>
      </trkpt>
      <trkpt lat="43.2461020" lon="-3.2623400">
        <ele>180.757004</ele>
        <time>2020-07-11T11:45:02.000Z</time>
      </trkpt>
      <trkpt lat="43.2460410" lon="-3.2624930">
        <ele>180.839996</ele>
        <time>2020-07-11T11:45:00.000Z</time>
      </trkpt>
      <trkpt lat="43.2460170" lon="-3.2625760">
        <ele>181.097000</ele>
        <time>2020-07-11T11:44:59.000Z</time>
      </trkpt>
      <trkpt lat="43.2459920" lon="-3.2626590">
        <ele>181.495010</ele>
        <time>2020-07-11T11:44:58.000Z</time>
      </trkpt>
      <trkpt lat="43.2459460" lon="-3.2628190">
        <ele>181.426010</ele>
        <time>2020-07-11T11:44:56.000Z</time>
      </trkpt>
      <trkpt lat="43.2459210" lon="-3.2628950">
        <ele>181.444992</ele>
        <time>2020-07-11T11:44:55.000Z</time>
      </trkpt>
      <trkpt lat="43.2458660" lon="-3.2630530">
        <ele>181.417999</ele>
        <time>2020-07-11T11:44:53.000Z</time>
      </trkpt>
      <trkpt lat="43.2457980" lon="-3.2631990">
        <ele>181.345001</ele>
        <time>2020-07-11T11:44:51.000Z</time>
      </trkpt>
      <trkpt lat="43.2457390" lon="-3.2633480">
        <ele>181.268005</ele>
        <time>2020-07-11T11:44:49.000Z</time>
      </trkpt>
      <trkpt lat="43.2456730" lon="-3.2634950">
        <ele>181.707993</ele>
        <time>2020-07-11T11:44:47.000Z</time>
      </trkpt>
      <trkpt lat="43.2456090" lon="-3.2636500">
        <ele>181.807007</ele>
        <time>2020-07-11T11:44:45.000Z</time>
      </trkpt>
      <trkpt lat="43.2455770" lon="-3.2637250">
        <ele>182.061005</ele>
        <time>2020-07-11T11:44:44.000Z</time>
      </trkpt>
      <trkpt lat="43.2455490" lon="-3.2638000">
        <ele>182.431000</ele>
        <time>2020-07-11T11:44:43.000Z</time>
      </trkpt>
      <trkpt lat="43.2455230" lon="-3.2638740">
        <ele>182.484009</ele>
        <time>2020-07-11T11:44:42.000Z</time>
      </trkpt>
      <trkpt lat="43.2454610" lon="-3.2640130">
        <ele>182.431000</ele>
        <time>2020-07-11T11:44:40.000Z</time>
      </trkpt>
      <trkpt lat="43.2454260" lon="-3.2640780">
        <ele>182.448990</ele>
        <time>2020-07-11T11:44:39.000Z</time>
      </trkpt>
      <trkpt lat="43.2453880" lon="-3.2641430">
        <ele>182.580002</ele>
        <time>2020-07-11T11:44:38.000Z</time>
      </trkpt>
      <trkpt lat="43.2453120" lon="-3.2642700">
        <ele>182.699005</ele>
        <time>2020-07-11T11:44:36.000Z</time>
      </trkpt>
      <trkpt lat="43.2452350" lon="-3.2644000">
        <ele>182.841995</ele>
        <time>2020-07-11T11:44:34.000Z</time>
      </trkpt>
      <trkpt lat="43.2451690" lon="-3.2645350">
        <ele>183.238998</ele>
        <time>2020-07-11T11:44:32.000Z</time>
      </trkpt>
      <trkpt lat="43.2451150" lon="-3.2646900">
        <ele>183.811996</ele>
        <time>2020-07-11T11:44:30.000Z</time>
      </trkpt>
      <trkpt lat="43.2450640" lon="-3.2648470">
        <ele>184.207993</ele>
        <time>2020-07-11T11:44:28.000Z</time>
      </trkpt>
      <trkpt lat="43.2450460" lon="-3.2650030">
        <ele>184.819000</ele>
        <time>2020-07-11T11:44:26.000Z</time>
      </trkpt>
      <trkpt lat="43.2450480" lon="-3.2650830">
        <ele>185.190002</ele>
        <time>2020-07-11T11:44:25.000Z</time>
      </trkpt>
      <trkpt lat="43.2450240" lon="-3.2652140">
        <ele>185.675995</ele>
        <time>2020-07-11T11:44:23.000Z</time>
      </trkpt>
      <trkpt lat="43.2449550" lon="-3.2652600">
        <ele>185.812012</ele>
        <time>2020-07-11T11:44:21.000Z</time>
      </trkpt>
      <trkpt lat="43.2448850" lon="-3.2652350">
        <ele>186.289001</ele>
        <time>2020-07-11T11:44:19.000Z</time>
      </trkpt>
      <trkpt lat="43.2448287" lon="-3.2650799">
        <ele>186.289001</ele>
        <time>2021-05-16T13:56:51.398Z</time>
      </trkpt>
      <trkpt lat="43.2446880" lon="-3.2648331">
        <ele>186.289001</ele>
        <time>2021-05-16T13:56:52.038Z</time>
      </trkpt>
      <trkpt lat="43.2445278" lon="-3.2646078">
        <ele>186.289001</ele>
        <time>2021-05-16T13:56:52.726Z</time>
      </trkpt>
      <trkpt lat="43.2443285" lon="-3.2643503">
        <ele>186.289001</ele>
        <time>2021-05-16T13:56:53.367Z</time>
      </trkpt>
      <trkpt lat="43.2441683" lon="-3.2641464">
        <ele>186.289001</ele>
        <time>2021-05-16T13:56:54.726Z</time>
      </trkpt>
      <trkpt lat="43.2439886" lon="-3.2639265">
        <ele>186.289001</ele>
        <time>2021-05-16T13:56:55.491Z</time>
      </trkpt>
      <trkpt lat="43.2438596" lon="-3.2636851">
        <ele>186.289001</ele>
        <time>2021-05-16T13:56:56.023Z</time>
      </trkpt>
      <trkpt lat="43.2437580" lon="-3.2634920">
        <ele>186.289001</ele>
        <time>2021-05-16T13:56:56.648Z</time>
      </trkpt>
      <trkpt lat="43.2437228" lon="-3.2632667">
        <ele>186.289001</ele>
        <time>2021-05-16T13:56:57.241Z</time>
      </trkpt>
      <trkpt lat="43.2437189" lon="-3.2630199">
        <ele>186.289001</ele>
        <time>2021-05-16T13:56:57.835Z</time>
      </trkpt>
      <trkpt lat="43.2437385" lon="-3.2627678">
        <ele>186.289001</ele>
        <time>2021-05-16T13:56:58.538Z</time>
      </trkpt>
      <trkpt lat="43.2437815" lon="-3.2625479">
        <ele>186.289001</ele>
        <time>2021-05-16T13:56:59.070Z</time>
      </trkpt>
      <trkpt lat="43.2438244" lon="-3.2622957">
        <ele>186.289001</ele>
        <time>2021-05-16T13:56:59.726Z</time>
      </trkpt>
    </trkseg>
  </trk>
</gpx>
